ftp/pub/mcmurdo/building71/2003/May/05212003_download.txt

Download

Date		Time	Inside	Outside	HiOut	LowOut	Out	Inside	Dew	Wind	Barom	Wind	HiWind	Wind	Rain
    		   	Temp	Temp	Temp	Temp	Hum	Hum	Point	Chill	Press	Speed	Speed	Dir	
 5/19/2003	12:02a	15.9	-22.8	-22.8	-22.8	----	27	----	-46.8	28.64	20.0	24.3	ENE	0.00
 5/19/2003	12:03a	15.9	-22.8	-22.8	-22.9	----	27	----	-47.3	28.64	21.7	27.8	E	0.00
 5/19/2003	12:04a	15.9	-22.8	-22.8	-22.8	----	27	----	-48.4	28.64	23.5	27.0	ENE	0.00
 5/19/2003	12:05a	15.9	-22.9	-22.8	-23.0	----	27	----	-47.4	28.64	21.7	25.2	ENE	0.00
 5/19/2003	12:06a	15.9	-23.0	-23.0	-23.0	----	27	----	-47.0	28.64	20.9	24.3	E	0.00
 5/19/2003	12:07a	15.9	-23.0	-23.0	-23.0	----	27	----	-47.0	28.63	20.9	26.1	E	0.00
 5/19/2003	12:08a	15.9	-22.9	-22.9	-23.0	----	27	----	-48.1	28.64	22.6	27.0	ENE	0.00
 5/19/2003	12:09a	15.9	-22.7	-22.4	-22.9	----	27	----	-47.6	28.64	22.6	25.2	ENE	0.00
 5/19/2003	12:10a	15.9	-22.5	-22.4	-22.6	----	27	----	-47.4	28.64	22.6	27.8	ENE	0.00
 5/19/2003	12:11a	15.9	-22.6	-22.6	-22.7	----	27	----	-48.1	28.64	23.5	27.0	ENE	0.00
 5/19/2003	12:12a	15.9	-22.7	-22.7	-22.8	----	27	----	-48.2	28.64	23.5	26.1	ENE	0.00
 5/19/2003	12:13a	15.9	-22.8	-22.8	-22.9	----	27	----	-47.3	28.64	21.7	25.2	ENE	0.00
 5/19/2003	12:14a	15.9	-22.9	-22.8	-22.9	----	27	----	-47.9	28.64	22.6	26.1	ENE	0.00
 5/19/2003	12:15a	15.9	-23.1	-23.0	-23.2	----	27	----	-47.0	28.64	20.9	23.5	E	0.00
 5/19/2003	12:16a	15.9	-23.2	-23.2	-23.2	----	27	----	-47.7	28.64	21.7	26.1	E	0.00
 5/19/2003	12:17a	15.9	-23.1	-23.0	-23.2	----	27	----	-48.2	28.64	22.6	25.2	ENE	0.00
 5/19/2003	12:18a	15.9	-22.8	-22.7	-23.0	----	27	----	-47.9	28.64	22.6	25.2	ENE	0.00
 5/19/2003	12:19a	15.8	-22.6	-22.6	-22.7	----	27	----	-48.1	28.64	23.5	26.1	ENE	0.00
 5/19/2003	12:20a	15.8	-22.6	-22.5	-22.6	----	27	----	-46.8	28.64	21.7	26.1	E	0.00
 5/19/2003	12:21a	15.8	-22.5	-22.4	-22.6	----	27	----	-46.8	28.64	21.7	24.3	ENE	0.00
 5/19/2003	12:22a	15.8	-22.4	-22.4	-22.5	----	27	----	-46.2	28.64	20.9	23.5	E	0.00
 5/19/2003	12:23a	15.8	-22.6	-22.6	-22.6	----	27	----	-46.4	28.65	20.0	23.5	E	0.00
 5/19/2003	12:24a	15.8	-22.6	-22.4	-22.6	----	27	----	-46.3	28.65	20.0	24.3	E	0.00
 5/19/2003	12:25a	15.8	-22.4	-22.4	-22.4	----	27	----	-45.2	28.65	19.1	21.7	ENE	0.00
 5/19/2003	12:26a	15.8	-22.2	-22.1	-22.4	----	27	----	-45.8	28.65	20.0	21.7	ENE	0.00
 5/19/2003	12:27a	15.8	-22.2	-22.1	-22.3	----	27	----	-45.7	28.65	20.9	22.6	ENE	0.00
 5/19/2003	12:28a	15.8	-22.4	-22.3	-22.4	----	27	----	-46.1	28.65	20.9	24.3	E	0.00
 5/19/2003	12:29a	15.8	-22.6	-22.4	-22.6	----	27	----	-46.3	28.65	20.0	22.6	E	0.00
 5/19/2003	12:30a	15.8	-22.5	-22.4	-22.5	----	27	----	-45.3	28.65	19.1	23.5	E	0.00
 5/19/2003	12:31a	15.8	-22.4	-22.3	-22.4	----	27	----	-45.2	28.65	19.1	23.5	E	0.00
 5/19/2003	12:32a	15.8	-22.1	-22.0	-22.3	----	27	----	-46.2	28.65	21.7	25.2	ENE	0.00
 5/19/2003	12:34a	15.8	-21.4	-21.3	-21.7	----	27	----	-43.8	28.65	19.1	26.1	E	0.00
 5/19/2003	12:35a	15.8	-21.6	-21.4	-21.7	----	27	----	-42.9	28.65	18.3	20.0	E	0.00
 5/19/2003	12:36a	15.8	-21.7	-21.7	-21.7	----	27	----	-43.2	28.65	18.3	20.9	E	0.00
 5/19/2003	12:37a	15.8	-21.6	-21.6	-21.7	----	27	----	-44.9	28.66	20.9	25.2	E	0.00
 5/19/2003	12:38a	15.8	-21.8	-21.6	-22.1	----	27	----	-41.3	28.65	16.5	20.9	E	0.00
 5/19/2003	12:39a	15.8	-22.2	-22.1	-22.2	----	27	----	-41.8	28.65	16.5	21.7	E	0.00
 5/19/2003	12:40a	15.8	-22.2	-22.2	-22.2	----	27	----	-45.7	28.66	20.9	25.2	E	0.00
 5/19/2003	12:41a	15.8	-22.1	-22.0	-22.2	----	27	----	-45.7	28.65	20.0	22.6	E	0.00
 5/19/2003	12:42a	15.8	-21.9	-21.9	-22.0	----	27	----	-43.6	28.65	18.3	21.7	E	0.00
 5/19/2003	12:43a	15.8	-21.9	-21.8	-21.9	----	27	----	-45.4	28.65	20.9	23.5	E	0.00
 5/19/2003	12:44a	15.8	-21.7	-21.6	-21.8	----	27	----	-43.1	28.65	18.3	24.3	E	0.00
 5/19/2003	12:45a	15.8	-21.8	-21.6	-22.0	----	27	----	-43.4	28.65	18.3	22.6	E	0.00
 5/19/2003	12:46a	15.8	-22.2	-22.1	-22.4	----	27	----	-45.7	28.65	20.9	25.2	E	0.00
 5/19/2003	12:47a	15.8	-22.6	-22.4	-22.6	----	27	----	-46.8	28.65	21.7	25.2	E	0.00
 5/19/2003	12:48a	15.8	-22.7	-22.6	-22.7	----	28	----	-47.0	28.65	21.7	27.0	E	0.00
 5/19/2003	12:49a	15.8	-22.6	-22.5	-22.6	----	28	----	-46.3	28.65	20.9	25.2	E	0.00
 5/19/2003	12:50a	15.8	-22.4	-22.3	-22.5	----	27	----	-47.2	28.65	22.6	26.1	E	0.00
 5/19/2003	12:51a	15.8	-22.6	-22.6	-22.6	----	27	----	-46.3	28.65	20.0	26.1	E	0.00
 5/19/2003	12:52a	15.8	-22.7	-22.6	-22.9	----	27	----	-41.4	28.65	15.7	20.0	E	0.00
 5/19/2003	12:53a	15.8	-22.9	-22.9	-23.0	----	28	----	-44.9	28.65	18.3	20.9	E	0.00
 5/19/2003	12:54a	15.8	-22.9	-22.9	-23.1	----	27	----	-42.9	28.65	16.5	21.7	E	0.00
 5/19/2003	12:55a	15.8	-23.0	-22.7	-23.1	----	28	----	-47.0	28.65	20.9	24.3	ENE	0.00
 5/19/2003	12:56a	15.8	-22.6	-22.6	-22.7	----	27	----	-46.4	28.65	20.0	24.3	ENE	0.00
 5/19/2003	12:57a	15.9	-22.7	-22.7	-22.8	----	27	----	-46.6	28.65	20.0	22.6	ENE	0.00
 5/19/2003	12:58a	15.9	-22.7	-22.6	-22.7	----	27	----	-46.4	28.65	20.9	23.5	ENE	0.00
 5/19/2003	12:59a	15.9	-22.6	-22.6	-22.7	----	27	----	-46.9	28.65	21.7	27.0	ENE	0.00
 5/19/2003	 1:00a	15.9	-22.7	-22.6	-22.7	----	27	----	-48.1	28.65	23.5	27.8	ENE	0.00
 5/19/2003	 1:01a	15.9	-22.4	-22.2	-22.6	----	27	----	-48.3	28.65	24.3	26.1	ENE	0.00
 5/19/2003	 1:02a	15.9	-22.1	-22.0	-22.2	----	27	----	-46.8	28.65	22.6	27.0	ENE	0.00
 5/19/2003	 1:03a	15.9	-21.8	-21.7	-21.9	----	27	----	-47.0	28.65	23.5	27.0	ENE	0.00
 5/19/2003	 1:04a	15.9	-21.6	-21.6	-21.7	----	27	----	-46.1	28.65	22.6	26.1	ENE	0.00
 5/19/2003	 1:06a	15.9	-21.7	-21.7	-21.7	----	27	----	-45.0	28.65	20.0	22.6	ENE	0.00
 5/19/2003	 1:07a	15.9	-21.7	-21.7	-21.8	----	27	----	-45.1	28.65	20.9	24.3	ENE	0.00
 5/19/2003	 1:08a	15.9	-21.9	-21.7	-21.9	----	27	----	-43.4	28.65	18.3	23.5	E	0.00
 5/19/2003	 1:09a	15.9	-22.1	-22.0	-22.2	----	27	----	-43.6	28.66	18.3	20.9	E	0.00
 5/19/2003	 1:10a	15.9	-22.3	-22.2	-22.4	----	27	----	-44.1	28.65	18.3	21.7	E	0.00
 5/19/2003	 1:11a	15.9	-22.5	-22.5	-22.6	----	27	----	-45.3	28.65	19.1	22.6	E	0.00
 5/19/2003	 1:12a	15.9	-22.7	-22.6	-22.7	----	27	----	-44.4	28.65	18.3	20.9	E	0.00
 5/19/2003	 1:13a	15.9	-22.8	-22.7	-22.9	----	27	----	-44.8	28.66	18.3	21.7	ENE	0.00
 5/19/2003	 1:14a	15.9	-23.1	-22.9	-23.2	----	27	----	-46.0	28.66	19.1	22.6	ENE	0.00
 5/19/2003	 1:15a	15.9	-23.2	-23.2	-23.3	----	27	----	-46.3	28.66	19.1	22.6	ENE	0.00
 5/19/2003	 1:16a	15.9	-23.3	-23.3	-23.3	----	27	----	-44.4	28.66	17.4	20.0	E	0.00
 5/19/2003	 1:17a	15.9	-23.3	-23.2	-23.3	----	27	----	-44.4	28.66	17.4	22.6	E	0.00
 5/19/2003	 1:18a	15.9	-23.1	-23.0	-23.2	----	27	----	-44.0	28.66	17.4	20.9	E	0.00
 5/19/2003	 1:19a	15.9	-22.9	-22.9	-23.0	----	27	----	-44.9	28.66	18.3	21.7	E	0.00
 5/19/2003	 1:20a	15.9	-22.8	-22.7	-22.9	----	27	----	-46.8	28.66	20.0	23.5	ENE	0.00
 5/19/2003	 1:21a	15.9	-22.6	-22.5	-22.7	----	27	----	-45.3	28.66	19.1	21.7	ENE	0.00
 5/19/2003	 1:22a	15.9	-22.4	-22.4	-22.5	----	27	----	-43.2	28.66	17.4	20.9	E	0.00
 5/19/2003	 1:24a	15.9	-22.3	-22.3	-22.4	----	27	----	-42.1	28.66	16.5	20.9	E	0.00
 5/19/2003	 1:25a	15.9	-22.4	-22.3	-22.5	----	27	----	-41.2	28.66	15.7	18.3	E	0.00
 5/19/2003	 1:26a	15.9	-22.6	-22.5	-22.6	----	27	----	-42.3	28.66	16.5	20.0	E	0.00
 5/19/2003	 1:27a	15.9	-22.6	-22.6	-22.7	----	27	----	-42.4	28.66	16.5	20.9	E	0.00
 5/19/2003	 1:28a	15.9	-22.6	-22.4	-22.6	----	27	----	-42.3	28.66	16.5	20.0	E	0.00
 5/19/2003	 1:29a	15.9	-22.4	-22.4	-22.4	----	27	----	-44.2	28.66	18.3	22.6	E	0.00
 5/19/2003	 1:30a	15.9	-22.3	-22.3	-22.4	----	27	----	-46.6	28.67	21.7	23.5	E	0.00
 5/19/2003	 1:31a	15.9	-22.4	-22.4	-22.7	----	27	----	-46.2	28.66	20.9	27.0	E	0.00
 5/19/2003	 1:32a	15.9	-22.7	-22.7	-22.8	----	27	----	-47.7	28.66	22.6	26.1	E	0.00
 5/19/2003	 1:33a	15.9	-22.8	-22.7	-22.8	----	27	----	-45.7	28.67	19.1	23.5	E	0.00
 5/19/2003	 1:34a	15.9	-22.6	-22.6	-22.7	----	27	----	-45.4	28.67	19.1	23.5	E	0.00
 5/19/2003	 1:35a	16.0	-22.6	-22.5	-22.7	----	27	----	-45.4	28.67	19.1	24.3	E	0.00
 5/19/2003	 1:36a	16.0	-22.8	-22.7	-22.8	----	27	----	-46.7	28.67	20.0	23.5	E	0.00
 5/19/2003	 1:37a	16.0	-22.9	-22.8	-22.9	----	27	----	-46.8	28.67	20.0	23.5	E	0.00
 5/19/2003	 1:38a	16.0	-22.9	-22.9	-23.0	----	27	----	-45.9	28.67	19.1	22.6	E	0.00
 5/19/2003	 1:39a	16.0	-23.0	-23.0	-23.0	----	27	----	-47.0	28.67	20.0	22.6	E	0.00
 5/19/2003	 1:40a	16.0	-23.0	-23.0	-23.0	----	27	----	-47.0	28.67	20.0	25.2	E	0.00
 5/19/2003	 1:41a	16.0	-23.0	-22.9	-23.0	----	27	----	-47.6	28.67	21.7	24.3	E	0.00
 5/19/2003	 1:42a	16.0	-23.0	-22.9	-23.1	----	28	----	-45.0	28.67	18.3	22.6	E	0.00
 5/19/2003	 1:43a	16.1	-23.2	-23.1	-23.2	----	27	----	-44.2	28.67	17.4	22.6	E	0.00
 5/19/2003	 1:44a	16.1	-23.2	-23.2	-23.3	----	28	----	-44.2	28.67	17.4	21.7	E	0.00
 5/19/2003	 1:45a	16.1	-23.2	-23.2	-23.2	----	28	----	-43.2	28.67	16.5	20.9	E	0.00
 5/19/2003	 1:46a	16.1	-23.2	-23.2	-23.3	----	27	----	-43.2	28.67	16.5	19.1	E	0.00
 5/19/2003	 1:47a	16.1	-23.2	-23.1	-23.2	----	28	----	-43.1	28.67	16.5	20.9	E	0.00
 5/19/2003	 1:48a	16.1	-23.2	-23.1	-23.2	----	27	----	-46.2	28.67	19.1	22.6	E	0.00
 5/19/2003	 1:49a	16.1	-23.1	-23.1	-23.2	----	28	----	-46.1	28.67	19.1	21.7	E	0.00
 5/19/2003	 1:50a	16.1	-23.1	-23.1	-23.2	----	28	----	-44.1	28.67	17.4	22.6	E	0.00
 5/19/2003	 1:51a	16.1	-23.1	-23.0	-23.1	----	28	----	-43.0	28.67	16.5	22.6	E	0.00
 5/19/2003	 1:52a	16.1	-23.0	-22.9	-23.1	----	28	----	-43.0	28.67	16.5	20.0	E	0.00
 5/19/2003	 1:53a	16.1	-22.9	-22.8	-22.9	----	28	----	-42.8	28.67	16.5	21.7	E	0.00
 5/19/2003	 1:54a	16.1	-22.8	-22.8	-22.9	----	28	----	-43.8	28.67	17.4	20.9	E	0.00
 5/19/2003	 1:55a	16.1	-22.8	-22.7	-22.8	----	28	----	-40.5	28.67	14.8	19.1	E	0.00
 5/19/2003	 1:56a	16.1	-22.6	-22.6	-22.7	----	28	----	-41.4	28.67	15.7	18.3	E	0.00
 5/19/2003	 1:57a	16.1	-22.3	-22.2	-22.4	----	28	----	-39.8	28.67	14.8	17.4	E	0.00
 5/19/2003	 1:58a	16.1	-22.1	-22.1	-22.2	----	28	----	-38.4	28.67	13.9	16.5	E	0.00
 5/19/2003	 1:59a	16.1	-21.9	-21.9	-22.1	----	28	----	-38.3	28.67	13.9	15.7	E	0.00
 5/19/2003	 2:00a	16.1	-21.8	-21.8	-21.9	----	28	----	-38.1	28.67	13.0	15.7	E	0.00
 5/19/2003	 2:01a	16.1	-21.7	-21.7	-21.8	----	28	----	-37.9	28.67	13.0	14.8	E	0.00
 5/19/2003	 2:02a	16.1	-21.8	-21.7	-21.8	----	28	----	-38.1	28.67	13.9	17.4	E	0.00
 5/19/2003	 2:03a	16.1	-21.8	-21.8	-21.8	----	28	----	-38.1	28.67	13.9	16.5	E	0.00
 5/19/2003	 2:04a	16.1	-21.8	-21.7	-21.9	----	28	----	-38.1	28.67	13.9	17.4	E	0.00
 5/19/2003	 2:05a	16.2	-21.9	-21.9	-21.9	----	28	----	-37.1	28.67	12.2	14.8	E	0.00
 5/19/2003	 2:06a	16.2	-21.9	-21.9	-21.9	----	28	----	-37.1	28.67	12.2	16.5	E	0.00
 5/19/2003	 2:07a	16.2	-21.7	-21.5	-21.7	----	28	----	-36.8	28.67	12.2	14.8	E	0.00
 5/19/2003	 2:08a	16.1	-21.6	-21.5	-21.7	----	28	----	-36.7	28.67	12.2	15.7	E	0.00
 5/19/2003	 2:09a	16.2	-21.8	-21.7	-21.9	----	28	----	-38.1	28.68	13.9	16.5	E	0.00
 5/19/2003	 2:10a	16.2	-22.0	-21.9	-22.1	----	28	----	-40.6	28.68	15.7	17.4	E	0.00
 5/19/2003	 2:11a	16.2	-22.1	-21.9	-22.2	----	28	----	-41.6	28.68	16.5	19.1	E	0.00
 5/19/2003	 2:12a	16.2	-21.9	-21.8	-21.9	----	28	----	-40.5	28.68	15.7	19.1	E	0.00
 5/19/2003	 2:14a	16.2	-21.9	-21.9	-21.9	----	28	----	-40.5	28.68	15.7	17.4	E	0.00
 5/19/2003	 2:15a	16.2	-21.7	-21.7	-21.8	----	28	----	-39.0	28.68	14.8	17.4	E	0.00
 5/19/2003	 2:16a	16.2	-21.8	-21.8	-21.9	----	28	----	-38.1	28.68	13.9	16.5	E	0.00
 5/19/2003	 2:17a	16.2	-22.1	-21.9	-22.1	----	28	----	-38.3	28.68	13.9	16.5	E	0.00
 5/19/2003	 2:18a	16.2	-21.9	-21.8	-21.9	----	28	----	-38.2	28.68	13.9	17.4	E	0.00
 5/19/2003	 2:19a	16.2	-21.8	-21.7	-21.9	----	28	----	-38.1	28.68	13.0	15.7	E	0.00
 5/19/2003	 2:20a	16.2	-21.6	-21.6	-21.7	----	28	----	-36.7	28.67	12.2	14.8	E	0.00
 5/19/2003	 2:21a	16.2	-21.4	-21.3	-21.4	----	28	----	-36.4	28.67	12.2	17.4	E	0.00
 5/19/2003	 2:22a	16.2	-21.4	-21.3	-21.4	----	28	----	-37.6	28.67	13.9	17.4	E	0.00
 5/19/2003	 2:23a	16.2	-21.3	-21.2	-21.4	----	28	----	-39.7	28.67	15.7	20.0	E	0.00
 5/19/2003	 2:24a	16.2	-21.3	-21.3	-21.3	----	28	----	-40.7	28.67	16.5	19.1	E	0.00
 5/19/2003	 2:25a	16.2	-21.3	-21.3	-21.4	----	28	----	-38.6	28.68	14.8	17.4	E	0.00
 5/19/2003	 2:26a	16.2	-21.4	-21.3	-21.4	----	28	----	-37.6	28.68	13.9	16.5	E	0.00
 5/19/2003	 2:27a	16.2	-21.3	-21.2	-21.3	----	28	----	-37.4	28.68	13.9	16.5	E	0.00
 5/19/2003	 2:28a	16.2	-21.2	-21.2	-21.3	----	28	----	-37.2	28.67	13.9	17.4	E	0.00
 5/19/2003	 2:29a	16.2	-20.9	-20.7	-21.1	----	28	----	-37.0	28.67	13.0	16.5	E	0.00
 5/19/2003	 2:30a	16.2	-20.5	-20.4	-20.7	----	28	----	-37.4	28.68	14.8	18.3	E	0.00
 5/19/2003	 2:32a	16.2	-20.9	-20.6	-21.0	----	28	----	-37.0	28.68	13.0	14.8	E	0.00
 5/19/2003	 2:33a	16.2	-21.2	-21.0	-21.4	----	28	----	-38.3	28.68	14.8	17.4	E	0.00
 5/19/2003	 2:34a	16.2	-21.3	-21.2	-21.4	----	28	----	-40.7	28.67	16.5	19.1	E	0.00
 5/19/2003	 2:35a	16.2	-20.9	-20.8	-20.9	----	28	----	-39.2	28.68	15.7	19.1	E	0.00
 5/19/2003	 2:36a	16.2	-20.9	-20.8	-21.0	----	28	----	-39.2	28.68	15.7	17.4	E	0.00
 5/19/2003	 2:37a	16.2	-21.1	-21.1	-21.3	----	28	----	-37.1	28.68	13.9	16.5	E	0.00
 5/19/2003	 2:38a	16.2	-21.3	-21.3	-21.4	----	28	----	-37.5	28.68	13.0	14.8	E	0.00
 5/19/2003	 2:39a	16.2	-21.2	-21.1	-21.4	----	28	----	-37.3	28.68	13.9	15.7	E	0.00
 5/19/2003	 2:41a	16.2	-20.7	-20.5	-20.8	----	28	----	-36.6	28.68	13.9	15.7	ESE	0.00
 5/19/2003	 2:42a	16.2	-20.4	-20.3	-20.5	----	28	----	-36.3	28.68	13.0	15.7	E	0.00
 5/19/2003	 2:43a	16.2	-20.2	-19.8	-20.3	----	29	----	-36.9	28.68	14.8	18.3	ESE	0.00
 5/19/2003	 2:44a	16.2	-19.7	-19.6	-19.8	----	29	----	-35.3	28.69	13.9	16.5	ESE	0.00
 5/19/2003	 2:45a	16.2	-19.5	-19.3	-19.6	----	29	----	-37.3	28.68	15.7	17.4	E	0.00
 5/19/2003	 2:46a	16.2	-19.2	-19.1	-19.3	----	29	----	-35.7	28.68	14.8	17.4	E	0.00
 5/19/2003	 2:47a	16.2	-19.2	-19.1	-19.4	----	29	----	-33.6	28.68	12.2	13.0	ESE	0.00
 5/19/2003	 2:48a	16.2	-19.5	-19.4	-19.6	----	29	----	-36.2	28.68	14.8	16.5	ESE	0.00
 5/19/2003	 2:49a	16.2	-19.3	-19.2	-19.4	----	29	----	-34.9	28.68	13.9	17.4	ESE	0.00
 5/19/2003	 2:50a	16.2	-19.2	-19.1	-19.2	----	29	----	-34.6	28.68	13.9	15.7	ESE	0.00
 5/19/2003	 2:51a	16.2	-19.1	-19.1	-19.2	----	29	----	-34.6	28.68	13.0	14.8	ESE	0.00
 5/19/2003	 2:52a	16.2	-19.3	-19.1	-19.6	----	29	----	-34.9	28.68	13.0	14.8	ESE	0.00
 5/19/2003	 2:53a	16.2	-19.5	-19.4	-19.6	----	29	----	-33.0	28.68	11.3	13.9	ESE	0.00
 5/19/2003	 2:54a	16.2	-19.5	-19.4	-19.6	----	29	----	-35.1	28.68	13.0	15.7	ESE	0.00
 5/19/2003	 2:55a	16.2	-19.4	-19.2	-19.6	----	29	----	-34.9	28.68	13.9	14.8	E	0.00
 5/19/2003	 2:56a	16.2	-19.1	-19.1	-19.2	----	29	----	-34.6	28.68	13.9	18.3	ESE	0.00
 5/19/2003	 2:57a	16.2	-19.0	-18.9	-19.1	----	29	----	-35.5	28.68	14.8	17.4	E	0.00
 5/19/2003	 2:58a	16.2	-18.9	-18.9	-18.9	----	29	----	-36.6	28.68	15.7	19.1	E	0.00
 5/19/2003	 2:59a	16.2	-18.9	-18.7	-18.9	----	29	----	-36.4	28.68	15.7	18.3	E	0.00
 5/19/2003	 3:00a	16.2	-18.9	-18.7	-19.1	----	29	----	-35.3	28.68	14.8	16.5	E	0.00
 5/19/2003	 3:01a	16.2	-19.2	-19.1	-19.4	----	29	----	-34.7	28.68	13.9	17.4	E	0.00
 5/19/2003	 3:02a	16.2	-19.2	-19.1	-19.4	----	29	----	-35.7	28.68	14.8	17.4	ESE	0.00
 5/19/2003	 3:03a	16.2	-19.2	-19.2	-19.2	----	29	----	-35.7	28.68	14.8	17.4	ESE	0.00
 5/19/2003	 3:04a	16.2	-19.3	-19.2	-19.5	----	29	----	-34.9	28.68	13.0	17.4	E	0.00
 5/19/2003	 3:05a	16.2	-19.5	-19.4	-19.7	----	29	----	-35.1	28.68	13.9	17.4	E	0.00
 5/19/2003	 3:06a	16.2	-19.8	-19.7	-20.0	----	30	----	-35.4	28.68	13.0	14.8	E	0.00
 5/19/2003	 3:07a	16.2	-20.1	-20.0	-20.2	----	29	----	-34.8	28.68	12.2	13.9	E	0.00
 5/19/2003	 3:08a	16.2	-20.4	-20.2	-20.7	----	29	----	-35.2	28.68	12.2	15.7	E	0.00
 5/19/2003	 3:09a	16.2	-20.4	-20.2	-20.7	----	30	----	-35.2	28.68	12.2	14.8	E	0.00
 5/19/2003	 3:10a	16.2	-20.2	-20.2	-20.2	----	30	----	-36.0	28.68	13.0	14.8	E	0.00
 5/19/2003	 3:11a	16.3	-20.3	-20.2	-20.6	----	30	----	-36.2	28.68	13.9	17.4	E	0.00
 5/19/2003	 3:12a	16.3	-20.5	-20.5	-20.6	----	30	----	-36.3	28.68	13.0	16.5	E	0.00
 5/19/2003	 3:13a	16.3	-20.4	-20.3	-20.4	----	30	----	-33.1	28.68	10.4	13.9	E	0.00
 5/19/2003	 3:14a	16.3	-20.2	-20.1	-20.3	----	30	----	-36.0	28.68	13.0	15.7	ENE	0.00
 5/19/2003	 3:15a	16.3	-19.7	-19.2	-20.1	----	30	----	-34.3	28.67	12.2	16.5	ENE	0.00
 5/19/2003	 3:16a	16.3	-19.1	-18.8	-19.2	----	30	----	-36.7	28.68	15.7	21.7	E	0.00
 5/19/2003	 3:17a	16.3	-18.8	-18.7	-18.9	----	30	----	-32.1	28.68	11.3	17.4	E	0.00
 5/19/2003	 3:18a	16.3	-19.3	-18.9	-19.6	----	30	----	-31.7	28.68	10.4	13.0	E	0.00
 5/19/2003	 3:19a	16.3	-19.7	-19.6	-19.8	----	30	----	-32.1	28.68	10.4	13.0	E	0.00
 5/19/2003	 3:20a	16.3	-19.8	-19.8	-19.8	----	30	----	-34.4	28.68	12.2	17.4	E	0.00
 5/19/2003	 3:21a	16.3	-19.6	-19.6	-19.8	----	30	----	-35.2	28.68	13.0	15.7	E	0.00
 5/19/2003	 3:22a	16.3	-19.6	-19.5	-19.7	----	30	----	-34.1	28.68	12.2	16.5	E	0.00
 5/19/2003	 3:23a	16.3	-19.4	-19.3	-19.6	----	29	----	-31.9	28.68	10.4	17.4	E	0.00
 5/19/2003	 3:24a	16.3	-19.3	-19.3	-19.4	----	29	----	-33.8	28.68	12.2	13.9	ENE	0.00
 5/19/2003	 3:25a	16.3	-19.2	-19.1	-19.3	----	29	----	-33.6	28.68	12.2	15.7	E	0.00
 5/19/2003	 3:26a	16.4	-18.9	-18.8	-19.1	----	30	----	-33.3	28.68	12.2	16.5	ENE	0.00
 5/19/2003	 3:27a	16.4	-18.9	-18.8	-18.9	----	30	----	-34.3	28.68	13.0	15.7	E	0.00
 5/19/2003	 3:28a	16.4	-19.0	-18.9	-19.2	----	30	----	-32.4	28.68	11.3	15.7	E	0.00
 5/19/2003	 3:29a	16.4	-19.3	-19.2	-19.3	----	29	----	-33.8	28.68	12.2	18.3	E	0.00
 5/19/2003	 3:30a	16.4	-19.0	-18.9	-19.3	----	30	----	-32.4	28.68	11.3	13.0	ENE	0.00
 5/19/2003	 3:31a	16.4	-19.3	-19.2	-19.4	----	30	----	-33.8	28.68	12.2	15.7	E	0.00
 5/19/2003	 3:32a	16.4	-19.3	-19.2	-19.4	----	30	----	-32.7	28.68	11.3	15.7	ENE	0.00
 5/19/2003	 3:33a	16.4	-19.5	-19.4	-19.7	----	30	----	-33.0	28.68	11.3	13.0	ENE	0.00
 5/19/2003	 3:34a	16.4	-19.7	-19.6	-19.7	----	29	----	-34.2	28.68	12.2	13.9	ENE	0.00
 5/19/2003	 3:35a	16.4	-19.8	-19.6	-20.0	----	29	----	-33.3	28.68	11.3	14.8	E	0.00
 5/19/2003	 3:36a	16.4	-19.9	-19.7	-20.0	----	30	----	-32.4	28.69	10.4	15.7	E	0.00
 5/19/2003	 3:37a	16.4	-19.7	-19.7	-19.7	----	29	----	-30.2	28.68	9.6	12.2	E	0.00
 5/19/2003	 3:38a	16.4	-19.8	-19.7	-19.8	----	29	----	-33.4	28.69	11.3	13.9	E	0.00
 5/19/2003	 3:39a	16.4	-19.8	-19.7	-19.8	----	30	----	-34.4	28.69	12.2	14.8	E	0.00
 5/19/2003	 3:40a	16.4	-19.8	-19.7	-19.9	----	30	----	-30.5	28.69	9.6	11.3	E	0.00
 5/19/2003	 3:41a	16.5	-19.8	-19.7	-19.8	----	29	----	-28.5	28.69	8.7	11.3	E	0.00
 5/19/2003	 3:42a	16.5	-19.7	-19.7	-19.7	----	30	----	-26.3	28.69	7.8	10.4	E	0.00
 5/19/2003	 3:43a	16.5	-19.8	-19.6	-19.8	----	30	----	-34.4	28.69	12.2	17.4	E	0.00
 5/19/2003	 3:44a	16.5	-19.9	-19.7	-20.3	----	30	----	-33.5	28.69	11.3	14.8	E	0.00
 5/19/2003	 3:45a	16.6	-20.1	-19.9	-20.3	----	30	----	-32.7	28.69	10.4	14.8	E	0.00
 5/19/2003	 3:46a	16.6	-19.9	-19.9	-20.1	----	30	----	-33.6	28.69	11.3	13.0	E	0.00
 5/19/2003	 3:47a	16.6	-20.1	-19.9	-20.1	----	30	----	-33.6	28.69	11.3	14.8	E	0.00
 5/19/2003	 3:49a	16.6	-19.7	-19.6	-20.1	----	30	----	-34.3	28.69	12.2	16.5	E	0.00
 5/19/2003	 3:50a	16.6	-19.9	-19.7	-20.1	----	30	----	-35.7	28.69	13.0	15.7	ESE	0.00
 5/19/2003	 3:51a	16.6	-19.4	-19.3	-19.7	----	30	----	-33.9	28.69	12.2	14.8	ESE	0.00
 5/19/2003	 3:52a	16.6	-19.3	-19.3	-19.3	----	30	----	-33.8	28.69	12.2	17.4	E	0.00
 5/19/2003	 3:53a	16.6	-19.2	-19.2	-19.3	----	30	----	-34.6	28.69	13.0	14.8	E	0.00
 5/19/2003	 3:54a	16.6	-19.3	-19.2	-19.8	----	30	----	-32.8	28.69	11.3	14.8	ESE	0.00
 5/19/2003	 3:55a	16.6	-19.9	-19.8	-19.9	----	30	----	-33.5	28.69	11.3	13.0	ESE	0.00
 5/19/2003	 3:56a	16.6	-19.8	-19.7	-19.9	----	30	----	-30.5	28.69	9.6	13.0	ESE	0.00
 5/19/2003	 3:57a	16.6	-20.3	-20.3	-20.4	----	30	----	-33.0	28.69	10.4	13.0	ESE	0.00
 5/19/2003	 3:58a	16.6	-20.4	-20.4	-20.5	----	30	----	-34.2	28.69	11.3	14.8	ESE	0.00
 5/19/2003	 3:59a	16.6	-20.2	-20.1	-20.5	----	30	----	-30.8	28.70	9.6	12.2	SE	0.00
 5/19/2003	 4:00a	16.6	-20.7	-20.4	-20.8	----	30	----	-31.4	28.69	9.6	10.4	ESE	0.00
 5/19/2003	 4:01a	16.6	-20.9	-20.8	-20.9	----	30	----	-31.8	28.70	9.6	11.3	SE	0.00
 5/19/2003	 4:02a	16.6	-21.1	-20.9	-21.1	----	30	----	-34.9	28.70	11.3	13.9	SE	0.00
 5/19/2003	 4:03a	16.6	-20.9	-20.9	-21.1	----	30	----	-33.7	28.70	10.4	15.7	SE	0.00
 5/19/2003	 4:04a	16.6	-21.1	-21.1	-21.2	----	30	----	-33.9	28.70	10.4	13.9	SE	0.00
 5/19/2003	 4:05a	16.6	-21.3	-21.2	-21.4	----	30	----	-34.2	28.70	10.4	12.2	ESE	0.00
 5/19/2003	 4:06a	16.7	-21.4	-21.4	-21.5	----	30	----	-35.4	28.70	11.3	13.0	ESE	0.00
 5/19/2003	 4:07a	16.7	-21.6	-21.5	-21.7	----	30	----	-35.6	28.70	11.3	13.9	ESE	0.00
 5/19/2003	 4:08a	16.7	-21.8	-21.6	-21.9	----	30	----	-34.8	28.70	10.4	11.3	ESE	0.00
 5/19/2003	 4:09a	16.7	-21.9	-21.9	-21.9	----	30	----	-30.9	28.70	8.7	10.4	SE	0.00
 5/19/2003	 4:10a	16.7	-21.8	-21.8	-21.9	----	30	----	-34.8	28.70	10.4	12.2	SE	0.00
 5/19/2003	 4:11a	16.7	-21.8	-21.8	-21.8	----	30	----	-35.9	28.70	11.3	13.0	SE	0.00
 5/19/2003	 4:12a	16.7	-21.8	-21.8	-21.8	----	30	----	-34.8	28.70	10.4	12.2	SE	0.00
 5/19/2003	 4:13a	16.7	-21.9	-21.9	-22.1	----	30	----	-36.1	28.70	11.3	13.0	SE	0.00
 5/19/2003	 4:14a	16.7	-22.1	-22.0	-22.1	----	30	----	-36.2	28.70	11.3	13.9	SE	0.00
 5/19/2003	 4:15a	16.7	-21.8	-21.8	-22.0	----	30	----	-34.8	28.70	10.4	13.0	SE	0.00
 5/19/2003	 4:16a	16.7	-21.8	-21.6	-21.9	----	30	----	-34.8	28.70	10.4	12.2	ESE	0.00
 5/19/2003	 4:17a	16.7	-21.6	-21.6	-21.6	----	30	----	-32.6	28.70	9.6	12.2	ESE	0.00
 5/19/2003	 4:18a	16.7	-21.7	-21.6	-21.7	----	30	----	-34.6	28.70	10.4	12.2	ESE	0.00
 5/19/2003	 4:19a	16.7	-21.8	-21.8	-21.9	----	30	----	-30.8	28.70	8.7	11.3	SE	0.00
 5/19/2003	 4:20a	16.7	-21.9	-21.9	-21.9	----	30	----	-28.9	28.70	7.8	9.6	SE	0.00
 5/19/2003	 4:21a	16.7	-21.9	-21.9	-22.1	----	30	----	-31.0	28.70	8.7	10.4	SE	0.00
 5/19/2003	 4:22a	16.7	-22.0	-22.0	-22.1	----	30	----	-31.1	28.70	8.7	10.4	SE	0.00
 5/19/2003	 4:23a	16.7	-22.1	-22.0	-22.1	----	30	----	-33.1	28.70	9.6	12.2	ESE	0.00
 5/19/2003	 4:24a	16.7	-22.2	-22.1	-22.3	----	31	----	-33.3	28.70	9.6	11.3	ESE	0.00
 5/19/2003	 4:25a	16.7	-22.2	-22.2	-22.2	----	30	----	-35.3	28.70	10.4	12.2	ESE	0.00
 5/19/2003	 4:26a	16.7	-22.0	-21.9	-22.1	----	30	----	-35.1	28.70	10.4	13.9	ESE	0.00
 5/19/2003	 4:27a	16.7	-22.3	-22.1	-22.6	----	31	----	-31.4	28.70	8.7	10.4	SE	0.00
 5/19/2003	 4:28a	16.7	-22.5	-22.4	-22.6	----	30	----	-33.7	28.71	9.6	11.3	SE	0.00
 5/19/2003	 4:29a	16.7	-22.2	-22.1	-22.2	----	30	----	-33.3	28.71	9.6	11.3	ESE	0.00
 5/19/2003	 4:30a	16.7	-22.3	-22.2	-22.3	----	30	----	-35.4	28.70	10.4	13.0	ESE	0.00
 5/19/2003	 4:31a	16.7	-21.8	-21.6	-21.9	----	31	----	-35.9	28.71	11.3	13.9	E	0.00
 5/19/2003	 4:32a	16.7	-21.4	-21.1	-21.6	----	30	----	-37.6	28.70	13.9	16.5	E	0.00
 5/19/2003	 4:33a	16.7	-21.2	-21.1	-21.2	----	30	----	-38.3	28.70	14.8	16.5	E	0.00
 5/19/2003	 4:34a	16.7	-21.3	-21.2	-21.3	----	30	----	-39.7	28.70	15.7	18.3	E	0.00
 5/19/2003	 4:35a	16.7	-21.3	-21.3	-21.4	----	30	----	-35.3	28.70	11.3	15.7	E	0.00
 5/19/2003	 4:36a	16.7	-21.3	-21.2	-21.3	----	30	----	-35.2	28.70	11.3	13.9	E	0.00
 5/19/2003	 4:37a	16.7	-21.3	-21.3	-21.5	----	30	----	-34.2	28.70	10.4	13.0	E	0.00
 5/19/2003	 4:38a	16.7	-21.6	-21.5	-21.7	----	30	----	-35.6	28.70	11.3	13.0	E	0.00
 5/19/2003	 4:39a	16.7	-21.4	-21.0	-21.6	----	30	----	-37.6	28.70	13.0	14.8	E	0.00
 5/19/2003	 4:40a	16.7	-21.1	-21.0	-21.2	----	30	----	-36.0	28.70	12.2	13.9	E	0.00
 5/19/2003	 4:41a	16.7	-21.6	-21.2	-21.8	----	30	----	-35.5	28.70	11.3	14.8	E	0.00
 5/19/2003	 4:42a	16.6	-21.6	-21.3	-21.8	----	30	----	-36.6	28.70	12.2	14.8	E	0.00
 5/19/2003	 4:43a	16.6	-21.4	-21.3	-21.4	----	30	----	-36.4	28.70	12.2	16.5	ENE	0.00
 5/19/2003	 4:44a	16.6	-21.6	-21.3	-21.6	----	30	----	-38.8	28.70	14.8	17.4	ENE	0.00
 5/19/2003	 4:45a	16.6	-21.6	-21.5	-21.7	----	30	----	-40.1	28.70	15.7	18.3	ENE	0.00
 5/19/2003	 4:46a	16.6	-21.3	-21.2	-21.5	----	30	----	-38.6	28.70	14.8	19.1	ENE	0.00
 5/19/2003	 4:47a	16.6	-21.1	-20.9	-21.2	----	30	----	-37.1	28.70	13.9	17.4	E	0.00
 5/19/2003	 4:48a	16.6	-20.9	-20.8	-21.0	----	30	----	-36.9	28.70	13.0	15.7	ENE	0.00
 5/19/2003	 4:49a	16.6	-20.9	-20.7	-21.0	----	30	----	-38.0	28.70	14.8	18.3	ENE	0.00
 5/19/2003	 4:50a	16.6	-20.7	-20.6	-20.8	----	30	----	-36.6	28.71	13.9	18.3	ENE	0.00
 5/19/2003	 4:51a	16.6	-20.8	-20.4	-21.0	----	30	----	-36.8	28.70	13.9	17.4	ENE	0.00
 5/19/2003	 4:52a	16.6	-20.6	-20.4	-20.8	----	30	----	-37.5	28.70	14.8	16.5	ENE	0.00
 5/19/2003	 4:53a	16.6	-21.3	-20.8	-21.4	----	30	----	-37.4	28.70	13.9	16.5	ENE	0.00
 5/19/2003	 4:54a	16.6	-21.4	-21.0	-21.5	----	30	----	-41.8	28.70	17.4	19.1	ENE	0.00
 5/19/2003	 4:55a	16.6	-20.7	-20.4	-21.0	----	30	----	-37.7	28.70	14.8	20.0	ENE	0.00
 5/19/2003	 4:57a	16.6	-20.7	-20.4	-20.7	----	30	----	-36.6	28.71	13.9	15.7	ENE	0.00
 5/19/2003	 4:58a	16.6	-20.4	-20.3	-20.5	----	30	----	-34.1	28.71	11.3	15.7	E	0.00
 5/19/2003	 4:59a	16.6	-21.1	-20.5	-21.3	----	30	----	-37.1	28.71	13.9	16.5	ENE	0.00
 5/19/2003	 5:00a	16.6	-20.7	-20.6	-20.9	----	29	----	-36.6	28.71	13.9	16.5	ENE	0.00
 5/19/2003	 5:01a	16.6	-20.5	-20.4	-20.6	----	29	----	-39.5	28.71	16.5	19.1	ENE	0.00
 5/19/2003	 5:02a	16.6	-20.3	-20.1	-20.4	----	30	----	-40.3	28.70	17.4	20.9	ENE	0.00
 5/19/2003	 5:03a	16.6	-20.2	-20.1	-20.6	----	29	----	-40.1	28.71	17.4	20.9	ENE	0.00
 5/19/2003	 5:04a	16.6	-20.6	-20.6	-20.7	----	30	----	-36.5	28.71	13.9	18.3	ENE	0.00
 5/19/2003	 5:05a	16.6	-20.4	-20.2	-20.7	----	30	----	-38.5	28.71	15.7	20.0	ENE	0.00
 5/19/2003	 5:06a	16.6	-20.3	-20.2	-20.3	----	29	----	-39.3	28.70	16.5	20.0	ENE	0.00
 5/19/2003	 5:07a	16.6	-19.9	-19.7	-20.2	----	29	----	-37.8	28.71	15.7	19.1	ENE	0.00
 5/19/2003	 5:08a	16.6	-20.1	-19.7	-20.2	----	29	----	-39.9	28.71	17.4	20.0	ENE	0.00
 5/19/2003	 5:09a	16.6	-19.9	-19.8	-20.0	----	29	----	-36.7	28.71	14.8	19.1	ENE	0.00
 5/19/2003	 5:10a	16.6	-20.2	-19.9	-20.2	----	29	----	-39.1	28.71	16.5	20.0	ENE	0.00
 5/19/2003	 5:11a	16.6	-19.9	-19.7	-20.1	----	29	----	-35.7	28.71	13.9	16.5	ENE	0.00
 5/19/2003	 5:12a	16.6	-19.6	-19.4	-19.7	----	29	----	-35.1	28.71	13.0	15.7	E	0.00
 5/19/2003	 5:13a	16.6	-19.6	-19.4	-19.9	----	29	----	-35.2	28.71	13.9	16.5	ENE	0.00
 5/19/2003	 5:14a	16.6	-19.8	-19.4	-19.9	----	29	----	-37.7	28.71	15.7	21.7	ENE	0.00
 5/19/2003	 5:15a	16.6	-19.6	-19.4	-19.8	----	29	----	-36.2	28.71	14.8	16.5	ENE	0.00
 5/19/2003	 5:16a	16.6	-20.1	-20.1	-20.2	----	29	----	-35.8	28.71	13.9	16.5	ENE	0.00
 5/19/2003	 5:17a	16.6	-19.9	-19.6	-20.1	----	29	----	-35.6	28.71	13.9	16.5	ENE	0.00
 5/19/2003	 5:18a	16.6	-19.3	-19.2	-19.6	----	29	----	-34.9	28.71	13.9	17.4	E	0.00
 5/19/2003	 5:19a	16.5	-19.4	-19.2	-19.7	----	29	----	-37.2	28.71	15.7	18.3	ENE	0.00
 5/19/2003	 5:20a	16.5	-19.4	-19.3	-19.7	----	29	----	-38.2	28.71	16.5	19.1	ENE	0.00
 5/19/2003	 5:21a	16.5	-19.2	-19.2	-19.4	----	29	----	-36.8	28.71	15.7	19.1	ENE	0.00
 5/19/2003	 5:22a	16.5	-19.3	-19.1	-19.4	----	29	----	-34.9	28.71	13.9	18.3	ENE	0.00
 5/19/2003	 5:23a	16.5	-19.2	-19.1	-19.2	----	29	----	-34.6	28.71	13.0	16.5	ENE	0.00
 5/19/2003	 5:24a	16.5	-19.0	-18.9	-19.2	----	29	----	-35.5	28.71	14.8	17.4	ENE	0.00
 5/19/2003	 5:25a	16.5	-19.2	-18.9	-19.3	----	29	----	-36.8	28.71	15.7	21.7	E	0.00
 5/19/2003	 5:26a	16.5	-18.4	-18.1	-18.9	----	29	----	-39.5	28.71	19.1	25.2	E	0.00
 5/19/2003	 5:27a	16.5	-18.5	-18.3	-18.7	----	29	----	-32.8	28.71	12.2	14.8	ENE	0.00
 5/19/2003	 5:28a	16.5	-18.7	-18.5	-18.8	----	29	----	-37.1	28.71	16.5	21.7	E	0.00
 5/19/2003	 5:29a	16.5	-18.0	-17.8	-18.5	----	29	----	-35.2	28.71	15.7	19.1	ENE	0.00
 5/19/2003	 5:30a	16.5	-17.9	-17.7	-18.1	----	29	----	-34.1	28.71	14.8	19.1	E	0.00
 5/19/2003	 5:31a	16.5	-17.7	-17.4	-17.7	----	29	----	-37.6	28.70	18.3	26.1	E	0.00
 5/19/2003	 5:32a	16.5	-17.2	-17.1	-17.4	----	29	----	-34.2	28.71	15.7	19.1	ENE	0.00
 5/19/2003	 5:33a	16.5	-17.4	-17.4	-17.5	----	29	----	-34.6	28.71	15.7	18.3	ENE	0.00
 5/19/2003	 5:34a	16.5	-17.7	-17.5	-17.9	----	29	----	-32.7	28.71	13.9	17.4	ENE	0.00
 5/19/2003	 5:35a	16.5	-17.7	-17.6	-17.9	----	29	----	-32.7	28.71	13.9	18.3	ENE	0.00
 5/19/2003	 5:36a	16.5	-17.6	-17.6	-17.7	----	29	----	-36.6	28.71	17.4	20.9	ENE	0.00
 5/19/2003	 5:37a	16.5	-17.8	-17.6	-18.0	----	29	----	-35.0	28.71	15.7	20.9	E	0.00
 5/19/2003	 5:38a	16.5	-18.0	-18.0	-18.1	----	29	----	-39.8	28.71	20.0	23.5	E	0.00
 5/19/2003	 5:39a	16.5	-18.4	-18.2	-18.7	----	29	----	-33.7	28.71	13.9	18.3	E	0.00
 5/19/2003	 5:40a	16.5	-18.6	-18.5	-18.7	----	29	----	-38.8	28.71	18.3	24.3	E	0.00
 5/19/2003	 5:41a	16.5	-18.4	-18.3	-18.5	----	30	----	-35.8	28.71	15.7	20.0	E	0.00
 5/19/2003	 5:42a	16.5	-18.3	-18.3	-18.4	----	30	----	-39.4	28.72	19.1	20.9	E	0.00
 5/19/2003	 5:43a	16.5	-18.6	-18.4	-18.7	----	30	----	-34.8	28.71	14.8	20.0	E	0.00
 5/19/2003	 5:44a	16.6	-18.4	-18.4	-18.5	----	30	----	-33.7	28.71	13.0	16.5	E	0.00
 5/19/2003	 5:45a	16.6	-18.5	-18.4	-18.6	----	30	----	-33.8	28.71	13.0	16.5	E	0.00
 5/19/2003	 5:46a	16.6	-18.5	-18.4	-18.6	----	30	----	-34.8	28.72	14.8	17.4	E	0.00
 5/19/2003	 5:47a	16.6	-19.0	-18.8	-19.1	----	30	----	-37.6	28.71	16.5	20.0	E	0.00
 5/19/2003	 5:48a	16.6	-18.7	-18.6	-18.8	----	30	----	-33.9	28.71	13.0	17.4	E	0.00
 5/19/2003	 5:49a	16.6	-18.5	-18.4	-18.6	----	30	----	-38.7	28.71	18.3	24.3	E	0.00
 5/19/2003	 5:50a	16.6	-18.6	-18.4	-18.7	----	30	----	-35.9	28.72	15.7	20.9	E	0.00
 5/19/2003	 5:51a	16.6	-18.9	-18.7	-19.0	----	30	----	-35.3	28.71	14.8	21.7	E	0.00
 5/19/2003	 5:52a	16.6	-18.4	-18.2	-19.0	----	30	----	-38.7	28.71	18.3	24.3	E	0.00
 5/19/2003	 5:53a	16.6	-18.2	-18.1	-18.5	----	30	----	-35.4	28.71	15.7	19.1	E	0.00
 5/19/2003	 5:54a	16.6	-18.4	-18.2	-18.6	----	30	----	-38.7	28.71	18.3	25.2	E	0.00
 5/19/2003	 5:55a	16.6	-18.0	-17.9	-18.2	----	30	----	-37.1	28.71	17.4	20.0	E	0.00
 5/19/2003	 5:56a	16.6	-18.1	-18.1	-18.2	----	30	----	-34.3	28.71	14.8	24.3	E	0.00
 5/19/2003	 5:57a	16.6	-17.9	-17.8	-18.2	----	30	----	-37.1	28.71	17.4	25.2	E	0.00
 5/19/2003	 5:58a	16.6	-18.3	-17.9	-18.5	----	30	----	-36.7	28.72	16.5	18.3	E	0.00
 5/19/2003	 5:59a	16.6	-18.5	-18.4	-18.6	----	30	----	-34.8	28.71	14.8	19.1	E	0.00
 5/19/2003	 6:00a	16.7	-18.3	-18.2	-18.4	----	30	----	-37.5	28.71	17.4	22.6	E	0.00
 5/19/2003	 6:01a	16.7	-17.8	-17.7	-18.2	----	30	----	-33.9	28.71	14.8	20.0	E	0.00
 5/19/2003	 6:02a	16.7	-17.9	-17.8	-17.9	----	30	----	-36.1	28.71	16.5	20.0	E	0.00
 5/19/2003	 6:03a	16.7	-18.3	-17.9	-18.6	----	30	----	-36.6	28.71	16.5	20.9	E	0.00
 5/19/2003	 6:04a	16.7	-18.8	-18.6	-19.2	----	30	----	-38.3	28.72	17.4	20.0	E	0.00
 5/19/2003	 6:05a	16.7	-19.2	-19.2	-19.3	----	30	----	-39.7	28.72	18.3	22.6	E	0.00
 5/19/2003	 6:06a	16.7	-19.2	-19.1	-19.3	----	30	----	-35.7	28.71	14.8	18.3	E	0.00
 5/19/2003	 6:07a	16.7	-18.3	-18.1	-18.6	----	30	----	-37.6	28.71	17.4	23.5	ENE	0.00
 5/19/2003	 6:08a	16.7	-17.8	-17.6	-18.1	----	30	----	-35.0	28.71	15.7	20.9	E	0.00
 5/19/2003	 6:09a	16.7	-18.1	-17.7	-18.3	----	30	----	-35.3	28.72	15.7	20.0	E	0.00
 5/19/2003	 6:10a	16.7	-18.4	-18.3	-18.6	----	29	----	-37.7	28.71	17.4	21.7	E	0.00
 5/19/2003	 6:11a	16.7	-18.3	-18.2	-18.6	----	30	----	-34.6	28.72	14.8	20.0	E	0.00
 5/19/2003	 6:12a	16.7	-18.3	-18.3	-18.4	----	29	----	-34.6	28.72	14.8	18.3	E	0.00
 5/19/2003	 6:14a	16.7	-17.8	-17.7	-18.2	----	29	----	-35.9	28.72	16.5	21.7	E	0.00
 5/19/2003	 6:15a	16.7	-18.1	-17.9	-18.2	----	29	----	-36.3	28.72	16.5	21.7	E	0.00
 5/19/2003	 6:16a	16.7	-18.1	-17.9	-18.1	----	29	----	-35.3	28.71	15.7	18.3	E	0.00
 5/19/2003	 6:17a	16.6	-17.9	-17.3	-18.2	----	29	----	-35.2	28.71	15.7	21.7	E	0.00
 5/19/2003	 6:18a	16.6	-17.2	-17.2	-17.3	----	29	----	-34.2	28.72	15.7	23.5	E	0.00
 5/19/2003	 6:19a	16.6	-17.2	-17.1	-17.4	----	29	----	-34.2	28.72	15.7	20.0	E	0.00
 5/19/2003	 6:20a	16.6	-17.9	-17.4	-18.3	----	29	----	-33.0	28.72	13.9	18.3	E	0.00
 5/19/2003	 6:21a	16.6	-17.9	-17.6	-18.3	----	29	----	-36.1	28.72	16.5	20.9	E	0.00
 5/19/2003	 6:22a	16.5	-17.8	-17.6	-17.9	----	29	----	-38.7	28.72	19.1	24.3	E	0.00
 5/19/2003	 6:23a	16.5	-17.4	-17.3	-17.6	----	29	----	-37.3	28.72	18.3	23.5	E	0.00
 5/19/2003	 6:24a	16.4	-17.7	-17.4	-18.0	----	29	----	-34.9	28.73	15.7	20.0	E	0.00
 5/19/2003	 6:25a	16.4	-18.3	-18.2	-18.6	----	29	----	-33.6	28.73	13.9	16.5	E	0.00
 5/19/2003	 6:26a	16.4	-18.7	-18.6	-18.8	----	29	----	-34.0	28.72	13.9	18.3	E	0.00
 5/19/2003	 6:27a	16.4	-18.7	-18.6	-18.8	----	29	----	-37.0	28.73	16.5	20.0	E	0.00
 5/19/2003	 6:28a	16.3	-18.8	-18.7	-18.9	----	29	----	-35.2	28.73	14.8	19.1	E	0.00
 5/19/2003	 6:29a	16.3	-18.4	-17.9	-18.9	----	29	----	-35.8	28.73	15.7	20.0	E	0.00
 5/19/2003	 6:30a	16.3	-17.7	-17.7	-17.9	----	29	----	-36.7	28.73	17.4	21.7	E	0.00
 5/19/2003	 6:32a	16.2	-18.1	-18.0	-18.3	----	29	----	-33.2	28.73	13.9	17.4	E	0.00
 5/19/2003	 6:33a	16.2	-18.3	-18.3	-18.4	----	29	----	-33.6	28.73	13.0	15.7	ESE	0.00
 5/19/2003	 6:34a	16.2	-18.2	-17.9	-18.4	----	29	----	-36.4	28.74	16.5	20.0	E	0.00
 5/19/2003	 6:35a	16.2	-17.5	-17.4	-17.9	----	29	----	-32.5	28.74	13.9	18.3	E	0.00
 5/19/2003	 6:36a	16.2	-17.5	-17.4	-17.6	----	29	----	-34.6	28.73	15.7	20.0	E	0.00
 5/19/2003	 6:37a	16.1	-17.3	-17.1	-17.5	----	30	----	-33.3	28.73	14.8	20.9	E	0.00
 5/19/2003	 6:38a	16.1	-17.4	-17.3	-17.7	----	30	----	-34.6	28.73	15.7	21.7	E	0.00
 5/19/2003	 6:39a	16.1	-17.7	-17.6	-17.7	----	30	----	-37.6	28.73	18.3	21.7	ESE	0.00
 5/19/2003	 6:40a	16.1	-17.6	-16.9	-17.8	----	30	----	-39.2	28.73	20.0	23.5	ESE	0.00
 5/19/2003	 6:41a	16.1	-16.8	-16.7	-16.9	----	30	----	-34.6	28.74	16.5	20.0	ESE	0.00
 5/19/2003	 6:42a	16.1	-17.0	-16.7	-17.1	----	30	----	-35.8	28.74	17.4	20.0	E	0.00
 5/19/2003	 6:43a	16.1	-17.3	-17.2	-17.4	----	30	----	-32.3	28.74	13.9	19.1	E	0.00
 5/19/2003	 6:44a	16.1	-17.7	-17.4	-18.1	----	30	----	-32.7	28.74	13.0	15.7	E	0.00
 5/19/2003	 6:46a	16.1	-18.6	-18.5	-18.6	----	30	----	-35.9	28.74	15.7	19.1	E	0.00
 5/19/2003	 6:47a	16.1	-18.2	-18.1	-18.6	----	30	----	-34.4	28.74	14.8	18.3	E	0.00
 5/19/2003	 6:48a	16.1	-17.9	-17.8	-18.1	----	31	----	-34.1	28.74	14.8	17.4	E	0.00
 5/19/2003	 6:49a	16.1	-18.1	-18.0	-18.1	----	31	----	-33.2	28.74	13.9	17.4	E	0.00
 5/19/2003	 6:50a	16.1	-18.0	-17.9	-18.1	----	31	----	-33.1	28.74	13.9	17.4	E	0.00
 5/19/2003	 6:51a	16.1	-18.1	-18.0	-18.2	----	31	----	-35.3	28.74	15.7	20.0	E	0.00
 5/19/2003	 6:52a	16.1	-18.0	-17.9	-18.1	----	31	----	-36.1	28.75	16.5	18.3	E	0.00
 5/19/2003	 6:53a	16.1	-18.0	-17.9	-18.0	----	31	----	-35.2	28.74	15.7	20.9	E	0.00
 5/19/2003	 6:55a	16.1	-17.5	-17.3	-17.9	----	31	----	-35.5	28.74	16.5	20.0	E	0.00
 5/19/2003	 6:56a	16.1	-17.4	-17.2	-17.4	----	31	----	-36.3	28.74	17.4	20.0	ESE	0.00
 5/19/2003	 6:57a	16.1	-17.1	-17.0	-17.2	----	31	----	-36.8	28.75	18.3	20.9	ESE	0.00
 5/19/2003	 6:58a	16.1	-17.1	-16.9	-17.2	----	31	----	-32.9	28.75	14.8	16.5	E	0.00
 5/19/2003	 6:59a	16.1	-17.3	-17.2	-17.6	----	31	----	-35.3	28.74	16.5	19.1	E	0.00
 5/19/2003	 7:00a	16.1	-17.8	-17.6	-17.9	----	31	----	-37.7	28.75	18.3	20.0	ESE	0.00
 5/19/2003	 7:01a	16.1	-17.6	-17.6	-17.7	----	31	----	-36.6	28.74	17.4	19.1	ESE	0.00
 5/19/2003	 7:02a	16.1	-17.6	-17.5	-17.6	----	31	----	-34.7	28.75	15.7	17.4	ESE	0.00
 5/19/2003	 7:03a	16.1	-17.6	-17.4	-17.7	----	31	----	-34.7	28.75	15.7	19.1	ESE	0.00
 5/19/2003	 7:04a	16.2	-17.2	-17.2	-17.3	----	31	----	-34.2	28.75	15.7	18.3	E	0.00
 5/19/2003	 7:05a	16.2	-17.4	-17.3	-17.4	----	31	----	-33.4	28.75	14.8	17.4	ESE	0.00
 5/19/2003	 7:06a	16.2	-17.4	-17.3	-17.4	----	31	----	-35.5	28.74	16.5	20.9	E	0.00
 5/19/2003	 7:07a	16.2	-17.2	-17.1	-17.3	----	31	----	-33.1	28.75	14.8	17.4	ESE	0.00
 5/19/2003	 7:08a	16.2	-17.2	-17.1	-17.3	----	31	----	-33.2	28.74	14.8	16.5	E	0.00
 5/19/2003	 7:09a	16.2	-17.3	-17.2	-17.4	----	31	----	-33.3	28.75	14.8	18.3	E	0.00
 5/19/2003	 7:10a	16.2	-17.4	-17.3	-17.4	----	31	----	-33.4	28.75	14.8	19.1	E	0.00
 5/19/2003	 7:11a	16.2	-17.5	-17.4	-17.6	----	31	----	-32.5	28.75	13.0	14.8	ESE	0.00
 5/19/2003	 7:13a	16.2	-18.1	-17.6	-18.3	----	31	----	-35.3	28.75	15.7	19.1	E	0.00
 5/19/2003	 7:14a	16.2	-18.4	-18.2	-18.6	----	31	----	-33.7	28.75	13.9	15.7	E	0.00
 5/19/2003	 7:15a	16.2	-18.3	-18.1	-18.5	----	31	----	-33.6	28.75	13.9	15.7	ESE	0.00
 5/19/2003	 7:16a	16.2	-18.1	-18.1	-18.2	----	31	----	-33.2	28.75	13.9	15.7	E	0.00
 5/19/2003	 7:17a	16.2	-18.2	-18.1	-18.3	----	31	----	-33.4	28.75	13.9	16.5	ESE	0.00
 5/19/2003	 7:18a	16.2	-17.9	-17.7	-18.1	----	31	----	-33.0	28.75	13.9	20.0	E	0.00
 5/19/2003	 7:19a	16.3	-17.6	-17.5	-17.7	----	31	----	-32.6	28.75	13.9	17.4	E	0.00
 5/19/2003	 7:20a	16.3	-17.7	-17.6	-17.7	----	31	----	-34.8	28.75	15.7	18.3	ESE	0.00
 5/19/2003	 7:22a	16.3	-17.4	-17.3	-17.6	----	31	----	-31.4	28.75	12.2	16.5	E	0.00
 5/19/2003	 7:23a	16.3	-17.6	-17.6	-17.6	----	31	----	-32.6	28.75	13.9	16.5	ESE	0.00
 5/19/2003	 7:24a	16.3	-17.5	-17.4	-17.6	----	31	----	-30.5	28.76	11.3	13.9	ESE	0.00
 5/19/2003	 7:25a	16.3	-17.6	-17.6	-17.7	----	31	----	-32.6	28.76	13.0	15.7	ESE	0.00
 5/19/2003	 7:26a	16.3	-17.7	-17.6	-17.7	----	31	----	-30.7	28.76	11.3	13.9	ESE	0.00
 5/19/2003	 7:27a	16.3	-17.6	-17.6	-17.7	----	31	----	-31.7	28.76	12.2	15.7	ESE	0.00
 5/19/2003	 7:28a	16.3	-17.5	-17.4	-17.6	----	31	----	-34.6	28.75	15.7	18.3	E	0.00
 5/19/2003	 7:29a	16.3	-17.2	-17.2	-17.4	----	31	----	-32.2	28.76	13.9	16.5	E	0.00
 5/19/2003	 7:31a	16.4	-17.8	-17.7	-17.9	----	30	----	-33.9	28.76	14.8	18.3	E	0.00
 5/19/2003	 7:32a	16.4	-17.8	-17.7	-17.9	----	30	----	-32.9	28.76	13.0	14.8	ESE	0.00
 5/19/2003	 7:33a	16.4	-17.5	-17.4	-17.5	----	30	----	-30.5	28.76	11.3	13.9	ESE	0.00
 5/19/2003	 7:34a	16.4	-17.3	-17.2	-17.4	----	31	----	-33.4	28.76	14.8	17.4	ESE	0.00
 5/19/2003	 7:35a	16.4	-17.1	-17.1	-17.3	----	31	----	-35.9	28.76	17.4	20.9	E	0.00
 5/19/2003	 7:36a	16.4	-17.2	-16.9	-17.3	----	31	----	-32.1	28.76	13.9	20.0	ESE	0.00
 5/19/2003	 7:37a	16.4	-17.1	-17.0	-17.3	----	31	----	-30.0	28.76	11.3	14.8	ESE	0.00
 5/19/2003	 7:38a	16.4	-17.2	-17.1	-17.3	----	31	----	-32.1	28.76	13.0	15.7	ESE	0.00
 5/19/2003	 7:40a	16.5	-17.1	-17.0	-17.1	----	31	----	-32.9	28.76	14.8	19.1	ESE	0.00
 5/19/2003	 7:41a	16.5	-17.2	-17.1	-17.3	----	31	----	-32.1	28.76	13.9	17.4	E	0.00
 5/19/2003	 7:42a	16.5	-17.3	-17.3	-17.3	----	31	----	-31.3	28.77	12.2	14.8	ESE	0.00
 5/19/2003	 7:43a	16.6	-17.4	-17.3	-17.4	----	31	----	-32.4	28.76	13.9	15.7	ESE	0.00
 5/19/2003	 7:44a	16.6	-17.2	-17.2	-17.2	----	31	----	-34.2	28.76	15.7	19.1	ESE	0.00
 5/19/2003	 7:45a	16.6	-17.3	-17.2	-17.6	----	31	----	-31.3	28.77	12.2	14.8	ESE	0.00
 5/19/2003	 7:46a	16.6	-17.8	-17.6	-17.9	----	32	----	-32.9	28.77	13.0	15.7	ESE	0.00
 5/19/2003	 7:47a	16.6	-17.9	-17.8	-17.9	----	31	----	-31.0	28.77	11.3	13.9	ESE	0.00
 5/19/2003	 7:48a	16.6	-17.9	-17.8	-18.0	----	31	----	-29.9	28.77	10.4	13.0	ESE	0.00
 5/19/2003	 7:49a	16.6	-17.9	-17.7	-18.0	----	32	----	-32.0	28.77	12.2	14.8	ESE	0.00
 5/19/2003	 7:50a	16.6	-17.6	-17.6	-17.7	----	32	----	-33.6	28.77	14.8	19.1	ESE	0.00
 5/19/2003	 7:51a	16.7	-17.4	-17.3	-17.6	----	31	----	-33.4	28.77	14.8	17.4	ESE	0.00
 5/19/2003	 7:52a	16.7	-17.3	-17.2	-17.4	----	31	----	-32.3	28.77	13.9	17.4	ESE	0.00
 5/19/2003	 7:53a	16.7	-17.3	-17.2	-17.3	----	31	----	-35.3	28.77	16.5	18.3	E	0.00
 5/19/2003	 7:54a	16.7	-17.4	-17.4	-17.6	----	31	----	-33.5	28.77	14.8	16.5	ESE	0.00
 5/19/2003	 7:55a	16.7	-17.7	-17.6	-17.7	----	31	----	-34.8	28.77	15.7	19.1	ESE	0.00
 5/19/2003	 7:56a	16.7	-17.6	-17.6	-17.7	----	31	----	-32.7	28.77	13.0	17.4	ESE	0.00
 5/19/2003	 7:57a	16.8	-17.6	-17.6	-17.6	----	31	----	-34.8	28.77	15.7	17.4	ESE	0.00
 5/19/2003	 7:58a	16.8	-17.4	-17.3	-17.6	----	31	----	-33.5	28.77	14.8	19.1	ESE	0.00
 5/19/2003	 7:59a	16.8	-17.2	-17.1	-17.3	----	31	----	-35.1	28.77	16.5	20.9	ESE	0.00
 5/19/2003	 8:00a	16.8	-17.0	-17.0	-17.1	----	31	----	-31.9	28.77	13.9	17.4	ESE	0.00
 5/19/2003	 8:01a	16.8	-17.2	-17.1	-17.2	----	31	----	-35.1	28.77	16.5	20.0	ESE	0.00
 5/19/2003	 8:02a	16.7	-17.2	-17.2	-17.3	----	31	----	-32.2	28.77	13.9	16.5	ESE	0.00
 5/19/2003	 8:03a	16.7	-17.4	-17.3	-17.4	----	31	----	-32.4	28.77	13.9	16.5	ESE	0.00
 5/19/2003	 8:04a	16.7	-17.3	-17.2	-17.4	----	31	----	-35.3	28.77	16.5	19.1	ESE	0.00
 5/19/2003	 8:05a	16.7	-17.2	-17.1	-17.2	----	31	----	-33.1	28.77	14.8	18.3	ESE	0.00
 5/19/2003	 8:06a	16.7	-17.1	-17.0	-17.2	----	31	----	-35.0	28.77	16.5	20.0	ESE	0.00
 5/19/2003	 8:07a	16.7	-16.9	-16.9	-17.0	----	31	----	-31.8	28.77	13.9	20.0	ESE	0.00
 5/19/2003	 8:08a	16.7	-16.9	-16.8	-16.9	----	31	----	-32.8	28.77	14.8	22.6	E	0.00
 5/19/2003	 8:09a	16.7	-16.8	-16.7	-16.8	----	31	----	-32.7	28.78	14.8	19.1	ESE	0.00
 5/19/2003	 8:10a	16.6	-16.8	-16.7	-16.9	----	31	----	-32.7	28.77	14.8	20.9	ESE	0.00
 5/19/2003	 8:11a	16.6	-16.9	-16.8	-16.9	----	31	----	-31.8	28.78	13.9	16.5	ESE	0.00
 5/19/2003	 8:12a	16.6	-16.9	-16.9	-17.0	----	31	----	-34.8	28.78	16.5	20.9	ESE	0.00
 5/19/2003	 8:13a	16.6	-16.9	-16.9	-16.9	----	31	----	-32.9	28.78	14.8	18.3	ESE	0.00
 5/19/2003	 8:14a	16.5	-17.0	-16.9	-17.1	----	31	----	-31.9	28.78	13.0	15.7	ESE	0.00
 5/19/2003	 8:15a	16.5	-17.2	-17.1	-17.3	----	31	----	-32.2	28.78	13.0	16.5	ESE	0.00
 5/19/2003	 8:16a	16.5	-17.2	-17.1	-17.3	----	31	----	-32.2	28.78	13.9	16.5	ESE	0.00
 5/19/2003	 8:17a	16.4	-17.2	-17.1	-17.4	----	31	----	-32.2	28.78	13.0	15.7	ESE	0.00
 5/19/2003	 8:18a	16.4	-17.3	-17.2	-17.4	----	31	----	-34.4	28.78	15.7	19.1	ESE	0.00
 5/19/2003	 8:19a	16.4	-17.1	-16.9	-17.1	----	31	----	-34.9	28.78	16.5	20.0	ESE	0.00
 5/19/2003	 8:20a	16.4	-17.0	-16.9	-17.1	----	31	----	-35.8	28.78	17.4	24.3	ESE	0.00
 5/19/2003	 8:21a	16.4	-17.0	-16.9	-17.1	----	31	----	-36.7	28.78	18.3	20.0	ESE	0.00
 5/19/2003	 8:22a	16.3	-16.9	-16.9	-16.9	----	31	----	-32.9	28.78	14.8	19.1	SE	0.00
 5/19/2003	 8:23a	16.3	-16.9	-16.9	-17.1	----	31	----	-30.8	28.78	12.2	14.8	ESE	0.00
 5/19/2003	 8:24a	16.3	-17.2	-17.1	-17.3	----	31	----	-33.1	28.78	14.8	20.0	ESE	0.00
 5/19/2003	 8:25a	16.3	-17.5	-17.4	-17.6	----	31	----	-33.5	28.78	14.8	17.4	ESE	0.00
 5/19/2003	 8:26a	16.3	-17.6	-17.6	-17.6	----	31	----	-32.6	28.78	13.0	16.5	ESE	0.00
 5/19/2003	 8:27a	16.2	-17.7	-17.7	-17.8	----	31	----	-33.8	28.78	14.8	19.1	ESE	0.00
 5/19/2003	 8:28a	16.2	-17.8	-17.7	-17.9	----	31	----	-33.9	28.78	14.8	20.0	ESE	0.00
 5/19/2003	 8:29a	16.2	-17.8	-17.7	-17.9	----	31	----	-32.9	28.78	13.9	18.3	ESE	0.00
 5/19/2003	 8:30a	16.2	-17.7	-17.4	-17.8	----	31	----	-33.7	28.78	14.8	17.4	ESE	0.00
 5/19/2003	 8:31a	16.2	-17.4	-17.3	-17.4	----	31	----	-32.4	28.78	13.0	15.7	ESE	0.00
 5/19/2003	 8:32a	16.1	-17.5	-17.3	-17.6	----	31	----	-32.5	28.78	13.9	16.5	ESE	0.00
 5/19/2003	 8:33a	16.1	-17.5	-17.5	-17.6	----	32	----	-32.5	28.78	13.9	18.3	ESE	0.00
 5/19/2003	 8:34a	16.1	-17.6	-17.5	-17.6	----	32	----	-32.6	28.78	13.0	16.5	ESE	0.00
 5/19/2003	 8:35a	16.1	-17.7	-17.7	-17.8	----	32	----	-32.8	28.78	13.0	14.8	ESE	0.00
 5/19/2003	 8:36a	16.1	-17.8	-17.7	-17.8	----	31	----	-35.0	28.78	15.7	18.3	ESE	0.00
 5/19/2003	 8:37a	16.1	-17.8	-17.7	-17.8	----	31	----	-32.9	28.78	13.9	20.0	ESE	0.00
 5/19/2003	 8:38a	16.1	-18.0	-17.7	-18.2	----	31	----	-33.1	28.78	13.0	16.5	ESE	0.00
 5/19/2003	 8:39a	16.1	-18.1	-17.9	-18.2	----	31	----	-37.1	28.78	17.4	22.6	ESE	0.00
 5/19/2003	 8:40a	16.1	-17.8	-17.8	-17.9	----	31	----	-35.9	28.78	16.5	18.3	ESE	0.00
 5/19/2003	 8:41a	16.1	-17.9	-17.8	-17.9	----	31	----	-35.1	28.78	15.7	18.3	ESE	0.00
 5/19/2003	 8:42a	16.1	-17.9	-17.8	-17.9	----	32	----	-34.1	28.78	14.8	18.3	ESE	0.00
 5/19/2003	 8:43a	16.1	-17.9	-17.9	-18.1	----	32	----	-34.1	28.78	14.8	17.4	ESE	0.00
 5/19/2003	 8:44a	16.1	-18.1	-18.1	-18.2	----	31	----	-35.3	28.78	15.7	17.4	ESE	0.00
 5/19/2003	 8:45a	16.1	-18.1	-18.1	-18.2	----	31	----	-33.2	28.78	13.0	15.7	E	0.00
 5/19/2003	 8:46a	16.1	-18.2	-18.2	-18.2	----	31	----	-34.4	28.78	14.8	19.1	ESE	0.00
 5/19/2003	 8:47a	16.2	-18.1	-18.0	-18.2	----	31	----	-36.2	28.78	16.5	20.9	ESE	0.00
 5/19/2003	 8:48a	16.2	-18.0	-18.0	-18.1	----	31	----	-36.1	28.78	16.5	19.1	ESE	0.00
 5/19/2003	 8:49a	16.2	-18.2	-18.0	-18.3	----	31	----	-34.3	28.78	14.8	17.4	ESE	0.00
 5/19/2003	 8:50a	16.2	-18.4	-18.2	-18.5	----	31	----	-35.8	28.78	15.7	18.3	ESE	0.00
 5/19/2003	 8:51a	16.2	-18.2	-18.2	-18.3	----	32	----	-33.4	28.78	13.9	16.5	ESE	0.00
 5/19/2003	 8:52a	16.2	-18.3	-18.3	-18.3	----	32	----	-34.6	28.78	14.8	18.3	ESE	0.00
 5/19/2003	 8:53a	16.3	-18.3	-18.2	-18.3	----	31	----	-36.6	28.77	16.5	19.1	E	0.00
 5/19/2003	 8:54a	16.3	-18.3	-18.2	-18.3	----	31	----	-34.6	28.78	14.8	18.3	ESE	0.00
 5/19/2003	 8:55a	16.3	-18.4	-18.3	-18.4	----	31	----	-36.8	28.78	16.5	19.1	ESE	0.00
 5/19/2003	 8:57a	16.3	-18.6	-18.6	-18.6	----	31	----	-36.9	28.78	16.5	19.1	E	0.00
 5/19/2003	 8:58a	16.3	-18.7	-18.6	-18.7	----	31	----	-37.0	28.78	16.5	19.1	E	0.00
 5/19/2003	 8:59a	16.4	-18.7	-18.5	-18.8	----	31	----	-37.1	28.78	16.5	19.1	ESE	0.00
 5/19/2003	 9:00a	16.4	-18.4	-18.3	-18.5	----	31	----	-38.6	28.78	18.3	20.9	ESE	0.00
 5/19/2003	 9:01a	16.4	-18.5	-18.3	-18.7	----	31	----	-37.8	28.78	17.4	20.9	E	0.00
 5/19/2003	 9:02a	16.4	-18.8	-18.7	-18.8	----	30	----	-37.3	28.77	16.5	19.1	E	0.00
 5/19/2003	 9:03a	16.4	-18.7	-18.7	-18.8	----	30	----	-36.2	28.77	15.7	17.4	E	0.00
 5/19/2003	 9:04a	16.5	-18.8	-18.8	-18.8	----	30	----	-38.2	28.77	17.4	20.0	E	0.00
 5/19/2003	 9:05a	16.5	-18.6	-18.6	-18.7	----	30	----	-36.9	28.77	16.5	18.3	E	0.00
 5/19/2003	 9:06a	16.5	-18.8	-18.7	-18.9	----	31	----	-39.2	28.77	18.3	20.0	E	0.00
 5/19/2003	 9:07a	16.5	-18.7	-18.7	-18.7	----	31	----	-38.9	28.77	18.3	20.9	E	0.00
 5/19/2003	 9:08a	16.6	-18.8	-18.7	-18.9	----	31	----	-38.3	28.77	17.4	20.9	ESE	0.00
 5/19/2003	 9:09a	16.6	-18.7	-18.7	-18.7	----	31	----	-38.9	28.77	18.3	20.9	E	0.00
 5/19/2003	 9:10a	16.6	-18.7	-18.7	-18.7	----	31	----	-38.9	28.77	18.3	20.9	E	0.00
 5/19/2003	 9:11a	16.6	-18.6	-18.6	-18.6	----	31	----	-38.7	28.77	18.3	21.7	E	0.00
 5/19/2003	 9:12a	16.6	-18.7	-18.6	-18.7	----	31	----	-37.9	28.77	17.4	20.9	E	0.00
 5/19/2003	 9:13a	16.6	-18.6	-18.6	-18.7	----	31	----	-38.8	28.77	18.3	20.9	E	0.00
 5/19/2003	 9:15a	16.6	-18.7	-18.7	-18.7	----	31	----	-39.8	28.78	19.1	23.5	E	0.00
 5/19/2003	 9:16a	16.6	-18.8	-18.7	-19.1	----	31	----	-40.9	28.77	20.0	24.3	E	0.00
 5/19/2003	 9:17a	16.6	-18.9	-18.8	-19.1	----	31	----	-39.3	28.77	18.3	21.7	E	0.00
 5/19/2003	 9:18a	16.6	-19.0	-18.9	-19.0	----	31	----	-40.4	28.77	19.1	22.6	E	0.00
 5/19/2003	 9:19a	16.7	-19.1	-19.0	-19.4	----	31	----	-39.5	28.77	18.3	22.6	E	0.00
 5/19/2003	 9:20a	16.7	-19.6	-19.4	-19.7	----	31	----	-38.3	28.78	16.5	20.0	E	0.00
 5/19/2003	 9:21a	16.7	-19.7	-19.7	-19.7	----	30	----	-39.4	28.78	17.4	20.9	E	0.00
 5/19/2003	 9:22a	16.7	-19.5	-19.4	-19.7	----	30	----	-40.1	28.77	18.3	22.6	E	0.00
 5/19/2003	 9:23a	16.7	-19.7	-19.4	-20.0	----	30	----	-41.2	28.77	19.1	21.7	E	0.00
 5/19/2003	 9:24a	16.7	-20.2	-20.0	-20.2	----	30	----	-42.9	28.77	20.0	21.7	E	0.00
 5/19/2003	 9:25a	16.7	-20.1	-20.1	-20.2	----	30	----	-39.0	28.78	16.5	20.0	E	0.00
 5/19/2003	 9:26a	16.7	-20.3	-20.2	-20.3	----	30	----	-41.2	28.78	18.3	22.6	E	0.00
 5/19/2003	 9:27a	16.7	-20.2	-20.2	-20.3	----	30	----	-41.1	28.78	18.3	20.9	E	0.00
 5/19/2003	 9:28a	16.7	-20.4	-20.3	-20.6	----	30	----	-41.4	28.78	18.3	21.7	E	0.00
 5/19/2003	 9:29a	16.6	-20.6	-20.5	-20.6	----	30	----	-38.6	28.77	15.7	20.0	E	0.00
 5/19/2003	 9:30a	16.6	-20.6	-20.3	-20.6	----	30	----	-38.6	28.77	15.7	21.7	E	0.00
 5/19/2003	 9:31a	16.6	-20.3	-20.3	-20.3	----	30	----	-38.4	28.78	15.7	20.0	E	0.00
 5/19/2003	 9:32a	16.6	-20.3	-20.2	-20.4	----	30	----	-38.4	28.77	15.7	19.1	E	0.00
 5/19/2003	 9:33a	16.6	-20.1	-20.0	-20.1	----	30	----	-37.9	28.77	15.7	21.7	E	0.00
 5/19/2003	 9:34a	16.6	-19.9	-19.9	-20.0	----	30	----	-37.9	28.78	15.7	20.0	E	0.00
 5/19/2003	 9:35a	16.5	-20.1	-19.9	-20.2	----	30	----	-38.9	28.78	16.5	20.0	E	0.00
 5/19/2003	 9:36a	16.5	-20.0	-19.9	-20.1	----	30	----	-39.9	28.78	17.4	20.0	E	0.00
 5/19/2003	 9:38a	16.4	-19.9	-19.9	-19.9	----	30	----	-38.8	28.78	16.5	20.0	E	0.00
 5/19/2003	 9:39a	16.4	-20.0	-19.9	-20.1	----	30	----	-38.9	28.78	16.5	20.9	E	0.00
 5/19/2003	 9:40a	16.4	-20.1	-20.0	-20.1	----	30	----	-37.9	28.78	15.7	18.3	E	0.00
 5/19/2003	 9:41a	16.3	-20.1	-20.1	-20.3	----	30	----	-39.0	28.78	16.5	19.1	E	0.00
 5/19/2003	 9:42a	16.3	-20.4	-20.3	-20.6	----	29	----	-39.5	28.78	16.5	18.3	E	0.00
 5/19/2003	 9:43a	16.3	-20.7	-20.6	-20.9	----	29	----	-39.8	28.78	16.5	18.3	E	0.00
 5/19/2003	 9:44a	16.2	-21.0	-20.9	-21.2	----	30	----	-41.2	28.78	17.4	20.0	E	0.00
 5/19/2003	 9:45a	16.2	-21.2	-21.2	-21.3	----	29	----	-41.5	28.78	17.4	20.9	ENE	0.00
 5/19/2003	 9:46a	16.2	-21.6	-21.3	-22.1	----	29	----	-43.0	28.78	18.3	20.0	ENE	0.00
 5/19/2003	 9:47a	16.2	-22.2	-22.1	-22.3	----	29	----	-44.8	28.78	19.1	22.6	ENE	0.00
 5/19/2003	 9:48a	16.1	-22.3	-22.3	-22.4	----	29	----	-43.1	28.78	17.4	19.1	ENE	0.00
 5/19/2003	 9:49a	16.1	-22.8	-22.7	-23.0	----	29	----	-44.8	28.78	18.3	21.7	ENE	0.00
 5/19/2003	 9:50a	16.1	-23.2	-23.0	-23.2	----	29	----	-46.2	28.78	19.1	21.7	ENE	0.00
 5/19/2003	 9:51a	16.1	-23.0	-22.8	-23.2	----	29	----	-46.0	28.78	19.1	22.6	ENE	0.00
 5/19/2003	 9:52a	16.0	-22.8	-22.7	-22.8	----	29	----	-45.7	28.78	19.1	21.7	ENE	0.00
 5/19/2003	 9:53a	16.0	-22.6	-22.4	-22.8	----	29	----	-44.3	28.77	18.3	22.6	ENE	0.00
 5/19/2003	 9:54a	16.0	-22.6	-22.6	-22.8	----	29	----	-46.4	28.78	20.9	24.3	ENE	0.00
 5/19/2003	 9:55a	15.9	-22.9	-22.8	-23.2	----	30	----	-46.9	28.78	20.0	23.5	ENE	0.00
 5/19/2003	 9:56a	15.9	-23.3	-23.2	-23.4	----	30	----	-47.4	28.78	20.0	22.6	ENE	0.00
 5/19/2003	 9:57a	15.9	-23.5	-23.4	-23.7	----	30	----	-47.7	28.78	20.9	23.5	ENE	0.00
 5/19/2003	 9:58a	15.9	-23.8	-23.7	-23.8	----	30	----	-48.1	28.78	20.9	23.5	ENE	0.00
 5/19/2003	 9:59a	15.9	-23.8	-23.8	-23.9	----	30	----	-47.1	28.78	19.1	22.6	ENE	0.00
 5/19/2003	10:00a	15.9	-23.9	-23.9	-24.0	----	30	----	-48.3	28.77	20.0	23.5	ENE	0.00
 5/19/2003	10:01a	15.9	-23.9	-23.8	-24.1	----	30	----	-48.3	28.78	20.0	22.6	ENE	0.00
 5/19/2003	10:02a	15.9	-24.2	-24.1	-24.3	----	30	----	-48.7	28.77	20.9	22.6	ENE	0.00
 5/19/2003	10:03a	15.9	-24.4	-24.3	-24.4	----	29	----	-49.0	28.78	20.9	24.3	ENE	0.00
 5/19/2003	10:05a	15.9	-24.6	-24.6	-24.6	----	29	----	-49.2	28.78	20.0	24.3	ENE	0.00
 5/19/2003	10:06a	15.9	-24.7	-24.6	-24.8	----	29	----	-49.4	28.77	20.0	23.5	ENE	0.00
 5/19/2003	10:07a	15.9	-24.8	-24.8	-24.9	----	29	----	-49.6	28.78	20.0	23.5	ENE	0.00
 5/19/2003	10:08a	15.9	-24.8	-24.8	-24.9	----	29	----	-49.6	28.78	20.0	24.3	ENE	0.00
 5/19/2003	10:09a	15.9	-25.0	-24.8	-25.1	----	29	----	-49.9	28.78	20.0	23.5	ENE	0.00
 5/19/2003	10:10a	15.9	-25.3	-25.2	-25.3	----	29	----	-50.3	28.78	20.9	23.5	ENE	0.00
 5/19/2003	10:11a	15.9	-25.4	-25.3	-25.4	----	29	----	-50.4	28.78	20.9	24.3	ENE	0.00
 5/19/2003	10:12a	15.8	-25.3	-25.2	-25.4	----	29	----	-50.3	28.78	20.0	22.6	ENE	0.00
 5/19/2003	10:14a	15.8	-25.4	-25.3	-25.4	----	29	----	-50.4	28.78	20.0	24.3	ENE	0.00
 5/19/2003	10:15a	15.8	-25.3	-25.2	-25.4	----	29	----	-50.3	28.78	20.9	26.1	ENE	0.00
 5/19/2003	10:16a	15.8	-25.4	-25.3	-25.4	----	29	----	-49.4	28.78	19.1	22.6	ENE	0.00
 5/19/2003	10:17a	15.8	-25.3	-25.3	-25.4	----	29	----	-48.3	28.78	18.3	20.9	E	0.00
 5/19/2003	10:18a	15.8	-25.4	-25.1	-25.5	----	29	----	-50.5	28.78	20.0	26.1	ENE	0.00
 5/19/2003	10:19a	15.8	-25.2	-25.1	-25.4	----	29	----	-48.1	28.78	18.3	23.5	E	0.00
 5/19/2003	10:20a	15.8	-25.3	-25.2	-25.4	----	29	----	-49.3	28.77	19.1	25.2	E	0.00
 5/19/2003	10:21a	15.8	-25.2	-25.1	-25.3	----	29	----	-50.0	28.78	20.9	24.3	E	0.00
 5/19/2003	10:22a	15.8	-25.3	-25.3	-25.3	----	29	----	-52.1	28.77	23.5	28.7	E	0.00
 5/19/2003	10:23a	15.8	-25.5	-25.3	-25.6	----	29	----	-52.3	28.77	23.5	30.4	E	0.00
 5/19/2003	10:24a	15.8	-25.6	-25.6	-25.6	----	29	----	-53.0	28.77	24.3	29.6	E	0.00
 5/19/2003	10:25a	15.8	-25.7	-25.6	-25.8	----	29	----	-53.7	28.77	25.2	33.0	E	0.00
 5/19/2003	10:26a	15.8	-25.9	-25.8	-25.9	----	29	----	-54.1	28.77	25.2	33.0	E	0.00
 5/19/2003	10:27a	15.8	-25.8	-25.8	-25.9	----	29	----	-52.8	28.77	23.5	29.6	E	0.00
 5/19/2003	10:28a	15.8	-25.9	-25.9	-26.0	----	29	----	-51.2	28.78	20.9	24.3	E	0.00
 5/19/2003	10:29a	15.8	-25.9	-25.9	-26.1	----	29	----	-52.4	28.77	22.6	25.2	E	0.00
 5/19/2003	10:30a	15.8	-26.1	-26.0	-26.1	----	29	----	-53.1	28.76	23.5	29.6	E	0.00
 5/19/2003	10:31a	15.8	-26.1	-26.0	-26.2	----	29	----	-53.1	28.77	23.5	27.8	E	0.00
 5/19/2003	10:32a	15.8	-26.2	-26.2	-26.2	----	28	----	-51.4	28.77	20.0	24.3	E	0.00
 5/19/2003	10:33a	15.8	-26.2	-26.1	-26.2	----	29	----	-52.6	28.77	22.6	27.8	E	0.00
 5/19/2003	10:34a	15.8	-26.0	-26.0	-26.1	----	29	----	-51.9	28.77	21.7	27.0	E	0.00
 5/19/2003	10:35a	15.8	-25.9	-25.9	-26.0	----	28	----	-51.2	28.78	20.0	23.5	E	0.00
 5/19/2003	10:36a	15.8	-26.0	-26.0	-26.1	----	28	----	-51.3	28.78	20.9	25.2	E	0.00
 5/19/2003	10:37a	15.8	-26.1	-26.1	-26.1	----	28	----	-50.3	28.78	19.1	27.8	E	0.00
 5/19/2003	10:38a	15.8	-26.1	-26.1	-26.1	----	28	----	-51.3	28.78	20.0	22.6	E	0.00
 5/19/2003	10:39a	15.8	-26.1	-26.1	-26.1	----	28	----	-51.9	28.78	21.7	27.0	ENE	0.00
 5/19/2003	10:40a	15.8	-26.0	-25.9	-26.1	----	28	----	-52.5	28.78	22.6	25.2	ENE	0.00
 5/19/2003	10:41a	15.8	-26.1	-26.0	-26.1	----	28	----	-52.5	28.78	22.6	27.8	ENE	0.00
 5/19/2003	10:42a	15.8	-26.2	-26.1	-26.2	----	28	----	-52.6	28.78	22.6	25.2	ENE	0.00
 5/19/2003	10:43a	15.8	-26.2	-26.1	-26.3	----	28	----	-53.8	28.78	24.3	28.7	ENE	0.00
 5/19/2003	10:44a	15.7	-26.4	-26.3	-26.6	----	28	----	-54.2	28.79	24.3	27.8	ENE	0.00
 5/19/2003	10:45a	15.8	-26.6	-26.6	-26.7	----	28	----	-53.9	28.79	23.5	27.0	ENE	0.00
 5/19/2003	10:46a	15.8	-26.7	-26.7	-26.8	----	28	----	-54.1	28.79	23.5	27.0	ENE	0.00
 5/19/2003	10:47a	15.8	-26.7	-26.7	-26.8	----	28	----	-54.1	28.79	23.5	28.7	ENE	0.00
 5/19/2003	10:48a	15.8	-26.7	-26.7	-26.8	----	28	----	-54.1	28.79	23.5	26.1	ENE	0.00
 5/19/2003	10:49a	15.8	-26.7	-26.7	-26.7	----	28	----	-54.6	28.79	24.3	27.0	ENE	0.00
 5/19/2003	10:50a	15.7	-26.7	-26.7	-26.7	----	28	----	-53.4	28.79	22.6	27.0	ENE	0.00
 5/19/2003	10:51a	15.8	-26.7	-26.6	-26.7	----	28	----	-53.4	28.79	22.6	25.2	ENE	0.00
 5/19/2003	10:52a	15.7	-26.7	-26.7	-26.8	----	28	----	-54.6	28.79	24.3	27.8	ENE	0.00
 5/19/2003	10:53a	15.7	-26.8	-26.8	-26.8	----	28	----	-55.4	28.79	25.2	27.8	ENE	0.00
 5/19/2003	10:55a	15.7	-26.8	-26.8	-26.8	----	28	----	-55.5	28.79	25.2	28.7	ENE	0.00
 5/19/2003	10:56a	15.7	-26.8	-26.8	-26.8	----	28	----	-55.5	28.80	25.2	28.7	ENE	0.00
 5/19/2003	10:57a	15.7	-26.8	-26.7	-26.8	----	28	----	-55.4	28.80	25.2	28.7	ENE	0.00
 5/19/2003	10:58a	15.7	-26.7	-26.7	-26.7	----	28	----	-55.2	28.80	25.2	27.8	ENE	0.00
 5/19/2003	10:59a	15.7	-26.7	-26.7	-26.7	----	28	----	-55.3	28.79	25.2	29.6	ENE	0.00
 5/19/2003	11:00a	15.7	-26.7	-26.7	-26.7	----	28	----	-55.3	28.79	25.2	28.7	ENE	0.00
 5/19/2003	11:01a	15.8	-26.7	-26.7	-26.7	----	28	----	-55.3	28.79	25.2	29.6	ENE	0.00
 5/19/2003	11:02a	15.8	-26.7	-26.7	-26.7	----	28	----	-55.3	28.80	25.2	28.7	ENE	0.00
 5/19/2003	11:04a	15.8	-26.7	-26.7	-26.7	----	28	----	-52.8	28.80	21.7	27.8	ENE	0.00
 5/19/2003	11:05a	15.8	-26.8	-26.8	-26.8	----	28	----	-54.8	28.80	24.3	28.7	ENE	0.00
 5/19/2003	11:06a	15.7	-26.8	-26.8	-26.8	----	28	----	-53.0	28.80	21.7	27.0	ENE	0.00
 5/19/2003	11:07a	15.8	-26.8	-26.7	-26.8	----	28	----	-53.0	28.80	21.7	25.2	ENE	0.00
 5/19/2003	11:08a	15.8	-26.8	-26.7	-26.8	----	28	----	-53.6	28.80	22.6	26.1	ENE	0.00
 5/19/2003	11:09a	15.8	-26.8	-26.8	-26.8	----	27	----	-54.8	28.80	24.3	27.8	ENE	0.00
 5/19/2003	11:10a	15.8	-26.8	-26.7	-26.8	----	27	----	-54.8	28.80	24.3	27.0	ENE	0.00
 5/19/2003	11:11a	15.8	-26.7	-26.7	-26.8	----	28	----	-54.1	28.80	23.5	27.0	ENE	0.00
 5/19/2003	11:12a	15.8	-26.7	-26.7	-26.7	----	27	----	-52.8	28.80	21.7	25.2	ENE	0.00
 5/19/2003	11:13a	15.8	-26.8	-26.7	-26.8	----	27	----	-53.6	28.80	22.6	27.0	ENE	0.00
 5/19/2003	11:14a	15.8	-26.7	-26.7	-26.7	----	27	----	-54.6	28.80	24.3	27.8	ENE	0.00
 5/19/2003	11:15a	15.8	-26.7	-26.7	-26.8	----	27	----	-53.4	28.80	22.6	26.1	ENE	0.00
 5/19/2003	11:16a	15.8	-26.7	-26.7	-26.7	----	28	----	-53.4	28.80	22.6	26.1	ENE	0.00
 5/19/2003	11:17a	15.8	-26.7	-26.6	-26.7	----	27	----	-52.8	28.79	21.7	26.1	ENE	0.00
 5/19/2003	11:18a	15.8	-26.6	-26.5	-26.6	----	27	----	-53.8	28.79	23.5	26.1	ENE	0.00
 5/19/2003	11:19a	15.8	-26.6	-26.6	-26.7	----	27	----	-52.7	28.79	21.7	27.0	ENE	0.00
 5/19/2003	11:20a	15.8	-26.7	-26.6	-26.7	----	27	----	-52.2	28.79	20.9	23.5	ENE	0.00
 5/19/2003	11:21a	15.8	-26.7	-26.7	-26.7	----	27	----	-53.4	28.79	22.6	26.1	ENE	0.00
 5/19/2003	11:22a	15.8	-26.7	-26.7	-26.7	----	27	----	-52.8	28.80	21.7	27.0	ENE	0.00
 5/19/2003	11:23a	15.8	-26.7	-26.6	-26.7	----	27	----	-53.4	28.79	22.6	26.1	ENE	0.00
 5/19/2003	11:24a	15.7	-26.6	-26.6	-26.7	----	27	----	-54.5	28.79	24.3	29.6	ENE	0.00
 5/19/2003	11:25a	15.7	-26.8	-26.7	-26.8	----	27	----	-54.3	28.80	23.5	27.0	ENE	0.00
 5/19/2003	11:26a	15.7	-26.8	-26.8	-26.8	----	27	----	-54.3	28.79	23.5	26.1	ENE	0.00
 5/19/2003	11:27a	15.7	-26.8	-26.7	-26.8	----	27	----	-54.2	28.79	23.5	27.8	ENE	0.00
 5/19/2003	11:28a	15.7	-26.7	-26.7	-26.7	----	27	----	-53.9	28.79	23.5	26.1	ENE	0.00
 5/19/2003	11:29a	15.7	-26.7	-26.7	-26.7	----	27	----	-52.8	28.79	21.7	25.2	ENE	0.00
 5/19/2003	11:30a	15.7	-26.6	-26.5	-26.7	----	27	----	-52.1	28.79	20.0	22.6	ENE	0.00
 5/19/2003	11:31a	15.7	-26.3	-26.2	-26.5	----	27	----	-51.7	28.79	20.9	22.6	ENE	0.00
 5/19/2003	11:32a	15.7	-26.4	-26.3	-26.4	----	27	----	-51.8	28.79	20.0	24.3	ENE	0.00
 5/19/2003	11:33a	15.7	-26.5	-26.4	-26.5	----	27	----	-50.9	28.80	19.1	21.7	ENE	0.00
 5/19/2003	11:34a	15.7	-26.4	-26.4	-26.4	----	27	----	-50.9	28.80	19.1	23.5	ENE	0.00
 5/19/2003	11:35a	15.7	-26.4	-26.3	-26.4	----	27	----	-51.8	28.80	20.0	23.5	ENE	0.00
 5/19/2003	11:36a	15.7	-26.2	-26.2	-26.3	----	27	----	-51.6	28.80	20.0	24.3	ENE	0.00
 5/19/2003	11:37a	15.7	-26.4	-26.4	-26.4	----	27	----	-53.1	28.80	22.6	24.3	ENE	0.00
 5/19/2003	11:38a	15.7	-26.4	-26.3	-26.5	----	27	----	-50.8	28.81	19.1	22.6	ENE	0.00
 5/19/2003	11:39a	15.7	-26.3	-25.9	-26.5	----	27	----	-47.4	28.81	16.5	18.3	ENE	0.00
 5/19/2003	11:40a	15.7	-25.8	-25.7	-25.9	----	27	----	-46.8	28.80	16.5	19.1	ENE	0.00
 5/19/2003	11:41a	15.7	-25.3	-25.2	-25.3	----	27	----	-45.0	28.81	15.7	20.0	ENE	0.00
 5/19/2003	11:42a	15.7	-25.1	-24.7	-25.3	----	27	----	-44.7	28.80	15.7	18.3	E	0.00
 5/19/2003	11:43a	15.7	-24.7	-24.6	-24.8	----	27	----	-46.3	28.80	17.4	19.1	ENE	0.00
 5/19/2003	11:45a	15.7	-23.2	-22.8	-23.8	----	27	----	-39.8	28.81	13.0	14.8	E	0.00
 5/19/2003	11:46a	15.6	-22.7	-22.6	-22.8	----	27	----	-39.2	28.81	13.0	14.8	E	0.00
 5/19/2003	11:47a	15.6	-22.9	-22.6	-23.1	----	27	----	-39.6	28.81	13.0	15.7	E	0.00
 5/19/2003	11:48a	15.6	-22.8	-22.7	-22.9	----	27	----	-41.8	28.80	15.7	20.0	E	0.00
 5/19/2003	11:49a	15.6	-22.4	-22.2	-22.6	----	27	----	-40.1	28.81	14.8	20.0	E	0.00
 5/19/2003	11:50a	15.6	-22.4	-22.4	-22.5	----	27	----	-37.8	28.81	12.2	15.7	E	0.00
 5/19/2003	11:51a	15.6	-22.9	-22.8	-23.2	----	27	----	-39.6	28.81	13.0	15.7	E	0.00
 5/19/2003	11:52a	15.6	-23.7	-23.2	-24.5	----	27	----	-42.9	28.81	15.7	18.3	E	0.00
 5/19/2003	11:54a	15.6	-25.1	-24.6	-25.3	----	27	----	-44.7	28.82	15.7	18.3	E	0.00
 5/19/2003	11:55a	15.6	-24.8	-24.4	-25.2	----	27	----	-43.1	28.82	14.8	16.5	E	0.00
 5/19/2003	11:56a	15.6	-25.1	-24.8	-25.2	----	27	----	-43.4	28.82	14.8	15.7	ESE	0.00
 5/19/2003	11:57a	15.6	-24.9	-24.8	-24.9	----	27	----	-42.1	28.82	13.9	18.3	ESE	0.00
 5/19/2003	11:58a	15.6	-24.4	-23.4	-24.9	----	27	----	-43.9	28.83	15.7	22.6	SE	0.00
 5/19/2003	11:59a	15.6	-23.9	-23.4	-25.1	----	27	----	-43.2	28.83	15.7	19.1	ESE	0.00
 5/19/2003	12:00p	15.6	-25.1	-24.8	-25.3	----	28	----	-42.2	28.83	13.0	16.5	ESE	0.00
 5/19/2003	12:01p	15.6	-24.6	-24.4	-24.7	----	28	----	-44.0	28.83	15.7	20.9	ESE	0.00
 5/19/2003	12:03p	15.6	-24.2	-23.8	-24.5	----	28	----	-43.4	28.82	15.7	20.9	SE	0.00
 5/19/2003	12:04p	15.6	-23.7	-23.6	-23.8	----	28	----	-44.8	28.82	17.4	20.9	SE	0.00
 5/19/2003	12:05p	15.6	-23.6	-23.6	-23.7	----	28	----	-44.8	28.82	17.4	23.5	SE	0.00
 5/19/2003	12:06p	15.6	-23.8	-23.7	-23.9	----	28	----	-44.1	28.82	16.5	18.3	ESE	0.00
 5/19/2003	12:07p	15.6	-23.9	-23.9	-23.9	----	28	----	-44.2	28.83	16.5	20.0	ESE	0.00
 5/19/2003	12:08p	15.6	-23.9	-23.9	-23.9	----	28	----	-42.0	28.83	14.8	20.0	SE	0.00
 5/19/2003	12:09p	15.6	-23.8	-23.8	-23.9	----	28	----	-44.1	28.83	16.5	23.5	SE	0.00
 5/19/2003	12:10p	15.6	-23.8	-23.7	-23.9	----	28	----	-45.2	28.83	17.4	21.7	SE	0.00
 5/19/2003	12:11p	15.6	-23.6	-23.5	-23.7	----	28	----	-41.5	28.83	14.8	17.4	ESE	0.00
 5/19/2003	12:12p	15.6	-23.7	-23.6	-23.8	----	29	----	-43.8	28.83	16.5	20.9	ESE	0.00
 5/19/2003	12:13p	15.6	-23.7	-23.6	-23.8	----	29	----	-41.6	28.82	14.8	20.9	ESE	0.00
 5/19/2003	12:14p	15.6	-23.7	-23.6	-23.7	----	29	----	-41.7	28.83	14.8	17.4	ESE	0.00
 5/19/2003	12:15p	15.6	-23.7	-23.7	-23.7	----	29	----	-43.9	28.82	16.5	20.0	ESE	0.00
 5/19/2003	12:16p	15.6	-23.8	-23.7	-23.9	----	29	----	-43.1	28.83	15.7	22.6	ESE	0.00
 5/19/2003	12:17p	15.6	-23.9	-23.7	-24.1	----	29	----	-46.3	28.82	18.3	22.6	ESE	0.00
 5/19/2003	12:18p	15.6	-23.7	-23.6	-23.7	----	29	----	-45.9	28.82	18.3	23.5	ESE	0.00
 5/19/2003	12:19p	15.7	-23.6	-23.6	-23.6	----	29	----	-46.7	28.82	19.1	23.5	ESE	0.00
 5/19/2003	12:20p	15.7	-23.6	-23.5	-23.6	----	29	----	-46.7	28.82	19.1	23.5	ESE	0.00
 5/19/2003	12:21p	15.7	-23.6	-23.6	-23.7	----	29	----	-47.8	28.82	20.9	26.1	ESE	0.00
 5/19/2003	12:22p	15.7	-23.6	-23.6	-23.7	----	29	----	-45.8	28.82	18.3	21.7	ESE	0.00
 5/19/2003	12:23p	15.7	-23.3	-23.2	-23.4	----	29	----	-46.5	28.82	19.1	21.7	ESE	0.00
 5/19/2003	12:24p	15.7	-23.4	-23.3	-23.4	----	30	----	-45.6	28.82	18.3	21.7	SE	0.00
 5/19/2003	12:25p	15.7	-23.5	-23.4	-23.6	----	29	----	-45.7	28.82	18.3	20.0	ESE	0.00
 5/19/2003	12:26p	15.7	-23.3	-23.3	-23.4	----	30	----	-47.5	28.82	20.0	25.2	ESE	0.00
 5/19/2003	12:27p	15.7	-23.1	-22.7	-23.3	----	30	----	-47.6	28.82	21.7	27.0	SE	0.00
 5/19/2003	12:28p	15.7	-22.9	-22.7	-23.1	----	30	----	-43.8	28.82	17.4	20.0	ESE	0.00
 5/19/2003	12:29p	15.8	-23.1	-23.1	-23.3	----	30	----	-42.1	28.82	15.7	19.1	ESE	0.00
 5/19/2003	12:30p	15.8	-23.5	-23.3	-23.7	----	30	----	-43.7	28.82	16.5	21.7	ESE	0.00
 5/19/2003	12:31p	15.8	-23.6	-23.5	-23.7	----	29	----	-44.8	28.82	17.4	19.1	ESE	0.00
 5/19/2003	12:32p	15.8	-23.6	-23.5	-23.6	----	29	----	-44.7	28.82	17.4	19.1	ESE	0.00
 5/19/2003	12:33p	15.8	-23.6	-23.6	-23.7	----	29	----	-45.8	28.82	18.3	20.9	ESE	0.00
 5/19/2003	12:34p	15.8	-23.7	-23.6	-23.9	----	29	----	-44.8	28.82	17.4	21.7	ESE	0.00
 5/19/2003	12:35p	15.8	-24.1	-23.9	-24.2	----	29	----	-45.4	28.82	17.4	19.1	ESE	0.00
 5/19/2003	12:36p	15.9	-24.7	-24.2	-24.9	----	29	----	-44.1	28.82	15.7	18.3	ESE	0.00
 5/19/2003	12:37p	15.9	-25.0	-24.9	-25.1	----	29	----	-45.7	28.82	16.5	19.1	ESE	0.00
 5/19/2003	12:38p	15.9	-24.8	-24.8	-24.9	----	29	----	-46.5	28.83	17.4	19.1	ESE	0.00
 5/19/2003	12:39p	15.9	-24.9	-24.8	-24.9	----	29	----	-47.7	28.83	18.3	20.9	ESE	0.00
 5/19/2003	12:40p	15.9	-24.8	-24.6	-24.9	----	29	----	-45.4	28.83	16.5	19.1	ESE	0.00
 5/19/2003	12:41p	15.9	-24.4	-24.3	-24.6	----	29	----	-44.9	28.83	16.5	19.1	ESE	0.00
 5/19/2003	12:42p	15.9	-24.6	-24.4	-24.6	----	29	----	-41.6	28.83	13.9	17.4	ESE	0.00
 5/19/2003	12:43p	15.9	-24.4	-24.3	-24.4	----	29	----	-41.4	28.83	13.9	16.5	ESE	0.00
 5/19/2003	12:44p	15.9	-24.3	-24.2	-24.4	----	29	----	-43.8	28.83	15.7	19.1	ESE	0.00
 5/19/2003	12:45p	15.9	-24.3	-23.9	-24.6	----	29	----	-42.6	28.83	14.8	20.0	ESE	0.00
 5/19/2003	12:46p	15.9	-23.8	-23.7	-23.9	----	29	----	-41.9	28.83	14.8	20.9	ESE	0.00
 5/19/2003	12:47p	15.9	-24.0	-23.9	-24.0	----	29	----	-44.3	28.83	16.5	19.1	ESE	0.00
 5/19/2003	12:48p	15.9	-24.1	-23.8	-24.1	----	29	----	-45.4	28.83	17.4	22.6	ESE	0.00
 5/19/2003	12:49p	15.9	-24.0	-23.8	-24.1	----	29	----	-42.1	28.83	14.8	20.0	ESE	0.00
 5/19/2003	12:50p	16.0	-23.7	-23.5	-24.1	----	29	----	-40.4	28.83	13.9	20.0	ESE	0.00
 5/19/2003	12:51p	16.0	-23.4	-23.4	-23.4	----	28	----	-42.6	28.83	15.7	20.0	ESE	0.00
 5/19/2003	12:52p	16.0	-23.3	-23.1	-23.4	----	28	----	-45.4	28.83	18.3	23.5	SE	0.00
 5/19/2003	12:53p	16.0	-22.9	-22.9	-23.1	----	28	----	-44.9	28.83	18.3	20.9	SE	0.00
 5/19/2003	12:54p	16.1	-23.0	-22.9	-23.2	----	29	----	-44.0	28.84	17.4	21.7	SE	0.00
 5/19/2003	12:55p	16.1	-23.2	-23.1	-23.3	----	29	----	-38.7	28.84	12.2	15.7	SE	0.00
 5/19/2003	12:56p	16.1	-23.6	-23.5	-23.7	----	29	----	-40.4	28.83	13.0	16.5	ESE	0.00
 5/19/2003	12:57p	16.1	-23.5	-23.5	-23.6	----	29	----	-43.7	28.83	16.5	20.9	SE	0.00
 5/19/2003	12:58p	16.1	-23.6	-23.4	-23.6	----	29	----	-42.7	28.82	15.7	19.1	ESE	0.00
 5/19/2003	12:59p	16.1	-23.5	-23.4	-23.7	----	29	----	-40.3	28.83	13.9	19.1	SE	0.00
 5/19/2003	 1:00p	16.1	-23.6	-23.4	-23.8	----	29	----	-43.7	28.83	16.5	20.9	SE	0.00
 5/19/2003	 1:01p	16.1	-23.8	-23.8	-23.9	----	29	----	-46.2	28.83	18.3	21.7	SE	0.00
 5/19/2003	 1:02p	16.1	-23.7	-23.6	-23.8	----	29	----	-46.9	28.83	19.1	25.2	SE	0.00
 5/19/2003	 1:03p	16.1	-23.8	-23.6	-24.0	----	29	----	-44.1	28.83	16.5	19.1	ESE	0.00
 5/19/2003	 1:04p	16.1	-23.9	-23.8	-24.0	----	29	----	-48.9	28.82	21.7	26.1	SE	0.00
 5/19/2003	 1:05p	16.1	-23.8	-23.8	-23.8	----	30	----	-48.7	28.82	21.7	26.1	SE	0.00
 5/19/2003	 1:06p	16.1	-23.8	-23.8	-23.8	----	30	----	-48.8	28.82	21.7	26.1	SE	0.00
 5/19/2003	 1:07p	16.1	-23.9	-23.9	-24.0	----	30	----	-48.3	28.82	20.0	23.5	SE	0.00
 5/19/2003	 1:08p	16.2	-24.1	-24.0	-24.1	----	30	----	-50.2	28.82	23.5	27.0	SE	0.00
 5/19/2003	 1:09p	16.2	-24.1	-24.1	-24.2	----	29	----	-51.4	28.82	25.2	31.3	SE	0.00
 5/19/2003	 1:10p	16.2	-24.3	-24.2	-24.3	----	29	----	-51.7	28.83	25.2	29.6	SE	0.00
 5/19/2003	 1:11p	16.2	-24.4	-24.3	-24.4	----	29	----	-50.2	28.83	22.6	29.6	SE	0.00
 5/19/2003	 1:12p	16.2	-24.5	-24.4	-24.6	----	29	----	-52.6	28.82	27.0	33.0	SE	0.00
 5/19/2003	 1:13p	16.2	-24.6	-24.6	-24.7	----	29	----	-50.9	28.83	23.5	33.0	SSE	0.00
 5/19/2003	 1:14p	16.2	-24.7	-24.6	-24.7	----	29	----	-52.7	28.83	27.0	33.0	SSE	0.00
 5/19/2003	 1:15p	16.2	-24.8	-24.7	-24.8	----	29	----	-50.1	28.83	21.7	25.2	SSE	0.00
 5/19/2003	 1:16p	16.2	-24.8	-24.8	-24.8	----	29	----	-47.6	28.84	18.3	21.7	SSE	0.00
 5/19/2003	 1:17p	16.2	-24.9	-24.8	-25.0	----	29	----	-48.7	28.84	19.1	23.5	SSE	0.00
 5/19/2003	 1:18p	16.2	-25.0	-24.9	-25.0	----	29	----	-42.2	28.84	13.9	18.3	SSE	0.00
 5/19/2003	 1:19p	16.2	-24.7	-24.5	-24.9	----	29	----	-44.1	28.84	15.7	21.7	S	0.00
 5/19/2003	 1:20p	16.2	-24.6	-24.5	-24.6	----	29	----	-39.3	28.84	11.3	14.8	S	0.00
 5/19/2003	 1:21p	16.2	-24.6	-24.5	-24.6	----	29	----	-41.6	28.84	13.0	17.4	S	0.00
 5/19/2003	 1:22p	16.2	-24.4	-24.3	-24.5	----	29	----	-41.4	28.84	13.9	20.9	S	0.00
 5/19/2003	 1:23p	16.2	-24.4	-24.4	-24.5	----	29	----	-40.4	28.85	12.2	15.7	SSW	0.00
 5/19/2003	 1:24p	16.2	-24.5	-24.4	-24.6	----	29	----	-39.3	28.85	11.3	15.7	SSW	0.00
 5/19/2003	 1:25p	16.2	-24.5	-24.3	-24.6	----	29	----	-39.3	28.84	11.3	15.7	SSW	0.00
 5/19/2003	 1:26p	16.2	-24.1	-23.9	-24.3	----	29	----	-42.2	28.84	14.8	19.1	SW	0.00
 5/19/2003	 1:27p	16.2	-23.8	-23.8	-23.9	----	29	----	-38.4	28.84	11.3	18.3	SW	0.00
 5/19/2003	 1:29p	16.2	-23.7	-23.7	-23.8	----	29	----	-38.2	28.84	11.3	16.5	SSW	0.00
 5/19/2003	 1:30p	16.2	-23.7	-23.7	-23.7	----	29	----	-38.2	28.84	11.3	16.5	SSW	0.00
 5/19/2003	 1:31p	16.2	-23.7	-23.7	-23.8	----	29	----	-35.1	28.84	9.6	11.3	SSW	0.00
 5/19/2003	 1:32p	16.2	-23.8	-23.7	-23.8	----	29	----	-33.2	28.84	8.7	10.4	SSW	0.00
 5/19/2003	 1:33p	16.2	-23.8	-23.7	-23.8	----	29	----	-35.3	28.84	9.6	13.0	SSE	0.00
 5/19/2003	 1:34p	16.2	-23.8	-23.8	-23.9	----	29	----	-43.1	28.84	15.7	20.9	SSE	0.00
 5/19/2003	 1:35p	16.2	-23.9	-23.7	-24.1	----	29	----	-45.2	28.83	17.4	25.2	SE	0.00
 5/19/2003	 1:36p	16.2	-24.6	-24.5	-24.7	----	29	----	-49.2	28.83	20.0	27.0	SE	0.00
 5/19/2003	 1:37p	16.2	-24.6	-24.4	-24.6	----	29	----	-49.7	28.83	21.7	28.7	SSE	0.00
 5/19/2003	 1:38p	16.2	-24.4	-24.4	-24.4	----	29	----	-51.3	28.83	24.3	27.8	SSE	0.00
 5/19/2003	 1:39p	16.2	-24.5	-24.4	-24.6	----	29	----	-49.2	28.83	20.9	25.2	SE	0.00
 5/19/2003	 1:40p	16.2	-24.7	-24.6	-24.7	----	29	----	-51.1	28.83	23.5	30.4	SE	0.00
 5/19/2003	 1:41p	16.2	-24.6	-24.6	-24.7	----	30	----	-51.6	28.83	24.3	28.7	SE	0.00
 5/19/2003	 1:42p	16.2	-24.7	-24.7	-24.8	----	30	----	-49.9	28.83	21.7	27.8	SSE	0.00
 5/19/2003	 1:43p	16.2	-24.8	-24.8	-24.8	----	30	----	-52.9	28.83	27.0	29.6	SSE	0.00
 5/19/2003	 1:44p	16.2	-24.8	-24.8	-24.8	----	30	----	-52.5	28.84	25.2	29.6	SSE	0.00
 5/19/2003	 1:45p	16.2	-24.9	-24.8	-25.0	----	29	----	-50.3	28.84	21.7	26.1	SSE	0.00
 5/19/2003	 1:46p	16.2	-25.0	-25.0	-25.0	----	29	----	-52.2	28.84	24.3	27.8	SSE	0.00
 5/19/2003	 1:47p	16.2	-24.6	-24.5	-24.8	----	29	----	-52.2	28.84	25.2	27.0	SSE	0.00
 5/19/2003	 1:48p	16.2	-24.6	-24.5	-24.6	----	29	----	-52.2	28.85	25.2	29.6	SSE	0.00
 5/19/2003	 1:49p	16.2	-24.6	-24.6	-24.6	----	29	----	-50.3	28.84	22.6	26.1	S	0.00
 5/19/2003	 1:50p	16.2	-24.5	-24.5	-24.6	----	29	----	-49.2	28.85	20.9	22.6	S	0.00
 5/19/2003	 1:51p	16.2	-24.5	-24.3	-24.6	----	29	----	-49.2	28.85	20.0	26.1	S	0.00
 5/19/2003	 1:52p	16.2	-24.3	-24.3	-24.3	----	29	----	-44.8	28.85	16.5	21.7	SSW	0.00
 5/19/2003	 1:53p	16.2	-24.3	-24.3	-24.3	----	29	----	-44.8	28.85	16.5	20.9	SSW	0.00
 5/19/2003	 1:54p	16.2	-24.2	-24.1	-24.3	----	29	----	-46.6	28.85	18.3	26.1	SSW	0.00
 5/19/2003	 1:55p	16.2	-23.8	-23.8	-23.9	----	29	----	-44.1	28.86	16.5	24.3	SW	0.00
 5/19/2003	 1:56p	16.2	-24.1	-23.9	-24.3	----	29	----	-39.9	28.86	12.2	17.4	SW	0.00
 5/19/2003	 1:57p	16.2	-24.4	-24.3	-24.4	----	29	----	-40.4	28.86	12.2	20.9	SSW	0.00
 5/19/2003	 1:58p	16.1	-24.2	-24.2	-24.3	----	29	----	-31.5	28.85	7.8	9.6	SSW	0.00
 5/19/2003	 1:59p	16.1	-24.2	-24.1	-24.3	----	29	----	-29.3	28.85	6.1	10.4	SW	0.00
 5/19/2003	 2:00p	16.1	-24.1	-24.0	-24.1	----	29	----	-37.6	28.84	10.4	14.8	SW	0.00
 5/19/2003	 2:01p	16.1	-23.7	-23.6	-24.0	----	29	----	-30.9	28.85	7.8	13.0	SSW	0.00
 5/19/2003	 2:02p	16.1	-23.6	-23.5	-23.6	----	29	----	-28.6	28.85	7.0	10.4	SSW	0.00
 5/19/2003	 2:03p	16.1	-23.4	-23.4	-23.5	----	29	----	-36.8	28.85	10.4	13.0	S	0.00
 5/19/2003	 2:04p	16.1	-23.4	-23.4	-23.4	----	29	----	-42.6	28.85	15.7	20.9	SSE	0.00
 5/19/2003	 2:05p	16.1	-23.6	-23.4	-23.7	----	29	----	-44.7	28.86	17.4	21.7	SSE	0.00
 5/19/2003	 2:06p	16.1	-23.8	-23.7	-23.8	----	29	----	-40.7	28.86	13.0	17.4	SE	0.00
 5/19/2003	 2:07p	16.1	-23.9	-23.8	-23.9	----	30	----	-39.7	28.85	12.2	15.7	SSE	0.00
 5/19/2003	 2:08p	16.1	-23.8	-23.8	-23.9	----	30	----	-39.6	28.85	12.2	14.8	SSE	0.00
 5/19/2003	 2:09p	16.1	-23.8	-23.8	-23.8	----	30	----	-38.4	28.85	11.3	15.7	SE	0.00
 5/19/2003	 2:10p	16.1	-23.9	-23.8	-24.1	----	30	----	-33.3	28.86	8.7	10.4	SE	0.00
 5/19/2003	 2:11p	16.1	-24.1	-23.9	-24.1	----	30	----	-35.5	28.86	9.6	13.0	SSE	0.00
 5/19/2003	 2:12p	16.2	-23.9	-23.8	-23.9	----	30	----	-35.4	28.86	9.6	11.3	SE	0.00
 5/19/2003	 2:13p	16.2	-23.8	-23.8	-23.9	----	30	----	-39.6	28.85	12.2	13.9	SSE	0.00
 5/19/2003	 2:14p	16.2	-23.9	-23.9	-23.9	----	30	----	-37.4	28.85	10.4	13.0	SSE	0.00
 5/19/2003	 2:15p	16.2	-24.0	-23.9	-24.1	----	30	----	-35.5	28.85	9.6	13.9	SSE	0.00
 5/19/2003	 2:16p	16.2	-24.2	-24.2	-24.3	----	30	----	-38.9	28.85	11.3	13.0	SSE	0.00
 5/19/2003	 2:17p	16.2	-24.3	-24.2	-24.3	----	30	----	-41.3	28.85	13.0	18.3	SE	0.00
 5/19/2003	 2:19p	16.2	-24.3	-24.2	-24.4	----	30	----	-39.0	28.85	11.3	16.5	SE	0.00
 5/19/2003	 2:20p	16.2	-24.4	-24.4	-24.4	----	30	----	-39.2	28.85	11.3	13.9	SE	0.00
 5/19/2003	 2:21p	16.2	-24.6	-24.5	-24.7	----	30	----	-38.2	28.85	10.4	13.9	SE	0.00
 5/19/2003	 2:22p	16.2	-24.8	-24.7	-24.8	----	30	----	-40.8	28.85	12.2	14.8	SE	0.00
 5/19/2003	 2:23p	16.2	-24.8	-24.7	-24.9	----	30	----	-45.4	28.84	16.5	19.1	SSE	0.00
 5/19/2003	 2:24p	16.2	-24.8	-24.8	-24.9	----	30	----	-48.6	28.84	19.1	21.7	SSE	0.00
 5/19/2003	 2:25p	16.2	-24.8	-24.8	-24.9	----	30	----	-47.6	28.84	18.3	21.7	SSE	0.00
 5/19/2003	 2:26p	16.2	-24.9	-24.9	-25.0	----	29	----	-46.7	28.85	17.4	20.0	SSE	0.00
 5/19/2003	 2:28p	16.2	-24.8	-24.7	-25.0	----	29	----	-49.6	28.85	20.0	22.6	S	0.00
 5/19/2003	 2:29p	16.2	-24.7	-24.7	-24.7	----	29	----	-45.2	28.85	16.5	19.1	S	0.00
 5/19/2003	 2:30p	16.2	-24.7	-24.7	-24.7	----	29	----	-49.4	28.85	20.0	26.1	S	0.00
 5/19/2003	 2:31p	16.3	-24.7	-24.7	-24.7	----	29	----	-49.3	28.85	20.0	22.6	S	0.00
 5/19/2003	 2:32p	16.2	-24.7	-24.6	-24.7	----	30	----	-42.9	28.86	14.8	18.3	S	0.00
 5/19/2003	 2:33p	16.3	-24.7	-24.6	-24.7	----	30	----	-41.7	28.86	13.0	14.8	S	0.00
 5/19/2003	 2:34p	16.3	-24.7	-24.7	-24.7	----	30	----	-40.7	28.86	12.2	15.7	S	0.00
 5/19/2003	 2:35p	16.3	-24.7	-24.7	-24.8	----	30	----	-40.7	28.86	12.2	15.7	S	0.00
 5/19/2003	 2:37p	16.3	-25.0	-24.9	-25.1	----	30	----	-42.2	28.86	13.9	19.1	SSW	0.00
 5/19/2003	 2:38p	16.3	-25.1	-25.1	-25.1	----	30	----	-38.8	28.86	10.4	14.8	SSW	0.00
 5/19/2003	 2:39p	16.3	-25.2	-25.2	-25.2	----	30	----	-44.8	28.85	15.7	19.1	SSW	0.00
 5/19/2003	 2:40p	16.3	-24.8	-24.4	-25.2	----	30	----	-47.6	28.85	18.3	28.7	SW	0.00
 5/19/2003	 2:41p	16.3	-24.1	-23.9	-24.4	----	30	----	-45.4	28.84	17.4	22.6	SSW	0.00
 5/19/2003	 2:42p	16.3	-24.0	-23.9	-24.0	----	30	----	-43.3	28.84	15.7	20.9	SW	0.00
 5/19/2003	 2:43p	16.3	-24.1	-24.0	-24.1	----	30	----	-43.3	28.84	15.7	21.7	SW	0.00
 5/19/2003	 2:44p	16.3	-24.1	-24.1	-24.2	----	30	----	-41.0	28.84	13.0	19.1	SW	0.00
 5/19/2003	 2:45p	16.3	-24.2	-24.2	-24.3	----	30	----	-37.7	28.84	10.4	13.9	SSW	0.00
 5/19/2003	 2:46p	16.3	-24.3	-24.3	-24.3	----	30	----	-40.2	28.84	12.2	15.7	SSW	0.00
 5/19/2003	 2:47p	16.3	-24.3	-24.3	-24.4	----	29	----	-47.9	28.84	19.1	25.2	S	0.00
 5/19/2003	 2:48p	16.3	-24.3	-24.3	-24.3	----	29	----	-48.8	28.84	20.9	23.5	S	0.00
 5/19/2003	 2:49p	16.3	-24.4	-24.3	-24.4	----	29	----	-46.9	28.85	18.3	21.7	SSE	0.00
 5/19/2003	 2:50p	16.3	-24.6	-24.4	-24.7	----	30	----	-45.0	28.84	16.5	20.0	SE	0.00
 5/19/2003	 2:51p	16.3	-24.6	-24.6	-24.7	----	30	----	-47.2	28.84	18.3	22.6	SSE	0.00
 5/19/2003	 2:52p	16.3	-24.6	-24.6	-24.6	----	30	----	-47.1	28.84	18.3	23.5	SSE	0.00
 5/19/2003	 2:53p	16.2	-24.7	-24.6	-24.7	----	30	----	-49.3	28.84	20.9	22.6	SSE	0.00
 5/19/2003	 2:54p	16.3	-24.7	-24.7	-24.8	----	30	----	-51.7	28.85	24.3	27.8	SSE	0.00
 5/19/2003	 2:55p	16.3	-24.9	-24.8	-25.0	----	30	----	-51.4	28.85	23.5	27.8	SSE	0.00
 5/19/2003	 2:56p	16.3	-25.1	-25.0	-25.1	----	30	----	-49.9	28.85	20.9	23.5	SSE	0.00
 5/19/2003	 2:57p	16.3	-25.2	-25.1	-25.2	----	30	----	-49.0	28.85	19.1	21.7	SSE	0.00
 5/19/2003	 2:58p	16.3	-25.2	-25.2	-25.2	----	30	----	-51.8	28.85	23.5	26.1	S	0.00
 5/19/2003	 3:00p	16.2	-25.0	-25.0	-25.0	----	30	----	-50.4	28.85	21.7	26.1	SSE	0.00
 5/19/2003	 3:01p	16.2	-24.7	-24.6	-25.0	----	30	----	-49.9	28.85	21.7	26.1	S	0.00
 5/19/2003	 3:02p	16.2	-24.6	-24.6	-24.7	----	30	----	-49.2	28.85	20.9	26.1	S	0.00
 5/19/2003	 3:03p	16.2	-24.7	-24.7	-24.7	----	30	----	-48.3	28.86	19.1	23.5	S	0.00
 5/19/2003	 3:04p	16.2	-24.7	-24.7	-24.7	----	30	----	-44.2	28.86	15.7	20.0	S	0.00
 5/19/2003	 3:05p	16.2	-24.7	-24.6	-24.7	----	30	----	-41.7	28.86	13.0	17.4	S	0.00
 5/19/2003	 3:06p	16.2	-24.7	-24.6	-24.7	----	30	----	-41.7	28.86	13.0	15.7	SSE	0.00
 5/19/2003	 3:07p	16.2	-24.9	-24.8	-25.1	----	30	----	-42.1	28.86	13.0	15.7	SE	0.00
 5/19/2003	 3:09p	16.2	-25.0	-24.9	-25.2	----	30	----	-42.2	28.86	13.0	15.7	SSE	0.00
 5/19/2003	 3:10p	16.2	-24.9	-24.9	-25.0	----	30	----	-47.7	28.86	18.3	25.2	SSE	0.00
 5/19/2003	 3:11p	16.2	-24.9	-24.8	-25.0	----	30	----	-52.7	28.85	25.2	29.6	S	0.00
 5/19/2003	 3:12p	16.2	-24.7	-24.6	-24.8	----	30	----	-49.9	28.86	21.7	26.1	S	0.00
 5/19/2003	 3:13p	16.2	-24.5	-24.5	-24.5	----	30	----	-47.1	28.86	18.3	21.7	SSE	0.00
 5/19/2003	 3:14p	16.2	-24.6	-24.5	-24.6	----	29	----	-49.2	28.86	20.0	23.5	SSE	0.00
 5/19/2003	 3:15p	16.2	-24.7	-24.6	-24.8	----	29	----	-47.3	28.86	18.3	20.9	SSE	0.00
 5/19/2003	 3:16p	16.2	-24.8	-24.8	-24.9	----	29	----	-47.6	28.86	18.3	20.0	SSE	0.00
 5/19/2003	 3:17p	16.2	-24.8	-24.8	-24.9	----	29	----	-48.6	28.86	19.1	20.9	SSE	0.00
 5/19/2003	 3:18p	16.2	-24.8	-24.7	-24.8	----	29	----	-51.9	28.85	24.3	28.7	SSE	0.00
 5/19/2003	 3:19p	16.2	-24.8	-24.8	-24.8	----	29	----	-53.4	28.85	27.8	38.3	S	0.00
 5/19/2003	 3:20p	16.2	-24.8	-24.8	-24.9	----	30	----	-51.9	28.85	24.3	28.7	SSE	0.00
 5/19/2003	 3:21p	16.2	-24.9	-24.8	-24.9	----	30	----	-52.7	28.85	25.2	29.6	SSE	0.00
 5/19/2003	 3:22p	16.2	-24.8	-24.8	-24.8	----	30	----	-52.9	28.84	27.0	39.1	SSE	0.00
 5/19/2003	 3:23p	16.2	-24.8	-24.8	-24.9	----	30	----	-55.2	28.85	31.3	37.4	S	0.00
 5/19/2003	 3:24p	16.2	-24.8	-24.8	-24.8	----	30	----	-54.3	28.85	29.6	33.9	S	0.00
 5/19/2003	 3:25p	16.2	-24.9	-24.8	-24.9	----	30	----	-53.6	28.85	27.8	33.9	S	0.00
 5/19/2003	 3:27p	16.2	-25.1	-25.1	-25.2	----	30	----	-57.0	28.84	35.7	41.7	S	0.00
 5/19/2003	 3:28p	16.2	-25.1	-25.1	-25.1	----	30	----	-56.2	28.84	33.9	41.7	S	0.00
 5/19/2003	 3:29p	16.2	-25.1	-25.0	-25.2	----	30	----	-53.3	28.85	27.0	38.3	SSE	0.00
 5/19/2003	 3:30p	16.2	-25.2	-25.2	-25.3	----	30	----	-54.4	28.85	28.7	35.7	S	0.00
 5/19/2003	 3:31p	16.2	-25.2	-25.2	-25.3	----	30	----	-53.5	28.84	27.0	33.0	S	0.00
 5/19/2003	 3:32p	16.2	-25.2	-25.1	-25.3	----	30	----	-53.9	28.84	27.8	32.2	S	0.00
 5/19/2003	 3:33p	16.2	-25.1	-25.0	-25.1	----	30	----	-53.3	28.84	27.0	31.3	S	0.00
 5/19/2003	 3:34p	16.2	-24.9	-24.8	-25.0	----	30	----	-50.9	28.85	22.6	27.8	S	0.00
 5/19/2003	 3:36p	16.2	-24.7	-24.6	-24.8	----	30	----	-52.3	28.85	25.2	28.7	S	0.00
 5/19/2003	 3:37p	16.2	-24.5	-24.4	-24.6	----	30	----	-52.6	28.85	27.0	33.9	S	0.00
 5/19/2003	 3:38p	16.2	-24.4	-24.4	-24.4	----	30	----	-54.8	28.83	32.2	41.7	S	0.00
 5/19/2003	 3:39p	16.2	-24.6	-24.5	-24.6	----	30	----	-55.4	28.84	33.0	43.5	SSE	0.00
 5/19/2003	 3:40p	16.2	-24.7	-24.6	-24.8	----	30	----	-55.3	28.84	32.2	39.1	S	0.00
 5/19/2003	 3:41p	16.2	-24.8	-24.7	-24.8	----	30	----	-55.8	28.85	33.9	42.6	SSE	0.00
 5/19/2003	 3:42p	16.2	-24.9	-24.8	-25.0	----	30	----	-55.3	28.84	31.3	37.4	S	0.00
 5/19/2003	 3:43p	16.2	-24.8	-24.7	-25.0	----	30	----	-55.1	28.84	31.3	37.4	S	0.00
 5/19/2003	 3:44p	16.2	-24.7	-24.7	-24.8	----	30	----	-55.6	28.84	33.9	39.1	S	0.00
 5/19/2003	 3:45p	16.2	-24.8	-24.8	-24.9	----	29	----	-55.9	28.84	33.0	38.3	S	0.00
 5/19/2003	 3:46p	16.2	-24.9	-24.9	-25.0	----	29	----	-57.1	28.83	36.5	43.5	SSE	0.00
 5/19/2003	 3:47p	16.2	-25.0	-24.9	-25.1	----	29	----	-56.9	28.83	35.7	43.5	S	0.00
 5/19/2003	 3:48p	16.2	-25.0	-24.9	-25.1	----	29	----	-57.3	28.83	37.4	42.6	S	0.00
 5/19/2003	 3:49p	16.2	-24.9	-24.8	-25.0	----	29	----	-57.4	28.83	38.3	47.0	S	0.00
 5/19/2003	 3:50p	16.2	-24.9	-24.8	-25.0	----	29	----	-58.5	28.83	43.5	49.6	SSE	0.00
 5/19/2003	 3:51p	16.2	-25.1	-25.0	-25.2	----	29	----	-58.1	28.82	40.0	50.4	SSE	0.00
 5/19/2003	 3:52p	16.2	-25.3	-25.2	-25.3	----	30	----	-58.0	28.84	38.3	41.7	SSE	0.00
 5/19/2003	 3:53p	16.2	-25.4	-25.3	-25.4	----	30	----	-57.5	28.83	35.7	39.1	SSE	0.00
 5/19/2003	 3:54p	16.2	-25.5	-25.4	-25.5	----	30	----	-58.3	28.83	38.3	45.2	SSE	0.00
 5/19/2003	 3:55p	16.2	-25.5	-25.5	-25.6	----	30	----	-57.3	28.84	34.8	40.0	SSE	0.00
 5/19/2003	 3:56p	16.2	-25.6	-25.5	-25.6	----	30	----	-58.6	28.84	39.1	46.1	SSE	0.00
 5/19/2003	 3:57p	16.2	-25.6	-25.6	-25.6	----	30	----	-57.7	28.84	35.7	41.7	SSE	0.00
 5/19/2003	 3:58p	16.2	-25.7	-25.6	-25.7	----	30	----	-57.1	28.85	33.0	40.0	SSE	0.00
 5/19/2003	 3:59p	16.2	-25.7	-25.7	-25.7	----	30	----	-57.1	28.84	33.9	37.4	SSE	0.00
 5/19/2003	 4:00p	16.2	-25.7	-25.7	-25.8	----	30	----	-58.4	28.84	37.4	42.6	SSE	0.00
 5/19/2003	 4:01p	16.2	-25.7	-25.7	-25.8	----	29	----	-58.2	28.83	36.5	48.7	SSE	0.00
 5/19/2003	 4:02p	16.2	-25.7	-25.6	-25.8	----	29	----	-57.8	28.84	35.7	40.9	S	0.00
 5/19/2003	 4:03p	16.2	-25.6	-25.6	-25.6	----	29	----	-57.0	28.83	33.9	40.0	S	0.00
 5/19/2003	 4:04p	16.2	-25.6	-25.6	-25.7	----	29	----	-57.0	28.84	33.0	40.0	SSE	0.00
 5/19/2003	 4:05p	16.2	-25.6	-25.6	-25.6	----	29	----	-56.9	28.84	33.0	40.9	S	0.00
 5/19/2003	 4:06p	16.2	-25.6	-25.6	-25.6	----	29	----	-56.9	28.84	33.9	42.6	S	0.00
 5/19/2003	 4:07p	16.2	-25.5	-25.4	-25.6	----	29	----	-58.1	28.83	37.4	43.5	S	0.00
 5/19/2003	 4:08p	16.2	-25.4	-25.4	-25.4	----	29	----	-57.5	28.84	35.7	42.6	S	0.00
 5/19/2003	 4:09p	16.2	-25.4	-25.3	-25.4	----	29	----	-57.1	28.85	34.8	48.7	S	0.00
 5/19/2003	 4:10p	16.2	-25.3	-25.3	-25.4	----	30	----	-57.6	28.84	36.5	41.7	S	0.00
 5/19/2003	 4:11p	16.2	-25.3	-25.3	-25.3	----	30	----	-55.9	28.84	31.3	40.9	S	0.00
 5/19/2003	 4:12p	16.2	-25.4	-25.3	-25.4	----	30	----	-56.4	28.84	32.2	39.1	SSE	0.00
 5/19/2003	 4:13p	16.2	-25.5	-25.4	-25.6	----	29	----	-57.7	28.85	35.7	40.9	SSE	0.00
 5/19/2003	 4:14p	16.2	-25.6	-25.6	-25.6	----	29	----	-57.9	28.84	36.5	40.0	SSE	0.00
 5/19/2003	 4:15p	16.2	-25.6	-25.6	-25.6	----	28	----	-56.6	28.84	32.2	36.5	SSE	0.00
 5/19/2003	 4:16p	16.3	-25.6	-25.5	-25.6	----	28	----	-56.9	28.84	33.9	40.0	SSE	0.00
 5/19/2003	 4:17p	16.3	-25.4	-25.4	-25.4	----	27	----	-57.2	28.84	34.8	44.3	SSE	0.00
 5/19/2003	 4:18p	16.3	-25.4	-25.4	-25.4	----	27	----	-56.0	28.85	31.3	39.1	SSE	0.00
 5/19/2003	 4:19p	16.4	-25.4	-25.3	-25.4	----	28	----	-56.7	28.84	33.0	40.0	SSE	0.00
 5/19/2003	 4:20p	16.5	-25.3	-25.3	-25.4	----	28	----	-57.6	28.84	36.5	43.5	SSE	0.00
 5/19/2003	 4:21p	16.4	-25.3	-25.3	-25.3	----	28	----	-56.6	28.84	33.0	40.0	SSE	0.00
 5/19/2003	 4:22p	16.4	-25.3	-25.3	-25.3	----	29	----	-56.3	28.84	32.2	37.4	SSE	0.00
 5/19/2003	 4:23p	16.4	-25.3	-25.3	-25.4	----	29	----	-55.2	28.84	29.6	33.0	SSE	0.00
 5/19/2003	 4:24p	16.4	-25.4	-25.4	-25.4	----	29	----	-56.7	28.83	33.9	42.6	SSE	0.00
 5/19/2003	 4:25p	16.4	-25.3	-25.2	-25.4	----	29	----	-57.3	28.83	35.7	41.7	SSE	0.00
 5/19/2003	 4:26p	16.3	-25.2	-25.2	-25.2	----	29	----	-57.3	28.83	36.5	44.3	SSE	0.00
 5/19/2003	 4:27p	16.3	-25.2	-25.2	-25.2	----	29	----	-55.6	28.83	31.3	37.4	SSE	0.00
 5/19/2003	 4:28p	16.3	-25.2	-25.2	-25.2	----	30	----	-53.4	28.84	27.0	33.9	SSE	0.00
 5/19/2003	 4:29p	16.3	-25.2	-25.2	-25.2	----	30	----	-55.6	28.83	31.3	36.5	SSE	0.00
 5/19/2003	 4:30p	16.3	-25.2	-25.2	-25.2	----	30	----	-53.4	28.84	27.0	31.3	SSE	0.00
 5/19/2003	 4:31p	16.3	-25.2	-25.1	-25.2	----	30	----	-57.2	28.83	35.7	45.2	SSE	0.00
 5/19/2003	 4:32p	16.3	-25.1	-25.0	-25.1	----	30	----	-57.2	28.82	36.5	46.1	SSE	0.00
 5/19/2003	 4:33p	16.3	-25.0	-24.9	-25.0	----	30	----	-57.3	28.81	37.4	48.7	SSE	0.00
 5/19/2003	 4:34p	16.3	-24.9	-24.9	-24.9	----	30	----	-57.6	28.82	39.1	50.4	SSE	0.00
 5/19/2003	 4:35p	16.3	-24.9	-24.9	-24.9	----	30	----	-57.1	28.82	36.5	51.3	SSE	0.00
 5/19/2003	 4:36p	16.3	-24.9	-24.9	-24.9	----	30	----	-57.5	28.82	38.3	44.3	SSE	0.00
 5/19/2003	 4:37p	16.3	-25.1	-25.0	-25.1	----	30	----	-57.3	28.82	37.4	41.7	SSE	0.00
 5/19/2003	 4:38p	16.3	-25.1	-25.1	-25.1	----	30	----	-57.2	28.82	36.5	40.9	SSE	0.00
 5/19/2003	 4:39p	16.3	-25.1	-25.0	-25.1	----	30	----	-58.1	28.81	40.9	47.8	SSE	0.00
 5/19/2003	 4:40p	16.4	-24.9	-24.9	-25.0	----	30	----	-58.6	28.80	43.5	52.2	SSE	0.00
 5/19/2003	 4:41p	16.4	-24.8	-24.7	-24.9	----	30	----	-58.8	28.80	45.2	55.7	SSE	0.00
 5/19/2003	 4:42p	16.4	-24.7	-24.6	-24.7	----	30	----	-58.8	28.80	46.1	52.2	SSE	0.00
 5/19/2003	 4:43p	16.4	-24.7	-24.6	-24.7	----	30	----	-57.4	28.80	40.0	49.6	SSE	0.00
 5/19/2003	 4:44p	16.4	-24.6	-24.4	-24.7	----	30	----	-58.2	28.80	44.3	49.6	SSE	0.00
 5/19/2003	 4:45p	16.4	-24.5	-24.4	-24.5	----	30	----	-57.7	28.79	42.6	49.6	SSE	0.00
 5/19/2003	 4:46p	16.4	-24.4	-24.4	-24.5	----	30	----	-58.7	28.80	47.8	52.2	SSE	0.00
 5/19/2003	 4:47p	16.4	-24.3	-24.2	-24.3	----	30	----	-58.0	28.79	45.2	52.2	SSE	0.00
 5/19/2003	 4:48p	16.4	-24.2	-24.2	-24.2	----	30	----	-57.8	28.80	45.2	53.0	SSE	0.00
 5/19/2003	 4:49p	16.4	-24.1	-24.1	-24.2	----	30	----	-57.4	28.80	44.3	52.2	SSE	0.00
 5/19/2003	 4:50p	16.4	-24.2	-24.1	-24.2	----	30	----	-56.8	28.80	41.7	52.2	SSE	0.00
 5/19/2003	 4:51p	16.4	-24.2	-24.2	-24.2	----	30	----	-56.2	28.81	38.3	51.3	SSE	0.00
 5/19/2003	 4:53p	16.4	-24.2	-24.2	-24.2	----	30	----	-56.1	28.81	37.4	48.7	SSE	0.00
 5/19/2003	 4:54p	16.4	-24.3	-24.2	-24.3	----	30	----	-56.4	28.81	38.3	47.8	SSE	0.00
 5/19/2003	 4:55p	16.4	-24.5	-24.4	-24.6	----	30	----	-55.4	28.80	33.9	41.7	SE	0.00
 5/19/2003	 4:56p	16.4	-24.6	-24.5	-24.6	----	30	----	-55.4	28.82	33.0	40.9	SSE	0.00
 5/19/2003	 4:57p	16.4	-24.5	-24.5	-24.5	----	30	----	-54.7	28.81	31.3	39.1	SE	0.00
 5/19/2003	 4:58p	16.4	-24.6	-24.5	-24.6	----	30	----	-56.8	28.80	38.3	48.7	SSE	0.00
 5/19/2003	 4:59p	16.4	-24.5	-24.4	-24.6	----	30	----	-57.9	28.79	43.5	51.3	SSE	0.00
 5/19/2003	 5:00p	16.4	-24.4	-24.4	-24.4	----	30	----	-58.3	28.80	45.2	53.0	SSE	0.00
 5/19/2003	 5:02p	16.4	-24.4	-24.4	-24.4	----	30	----	-58.4	28.78	47.0	51.3	SSE	0.00
 5/19/2003	 5:03p	16.4	-24.4	-24.4	-24.4	----	30	----	-58.5	28.79	46.1	50.4	SSE	0.00
 5/19/2003	 5:04p	16.4	-24.4	-24.4	-24.5	----	30	----	-58.3	28.80	45.2	52.2	SSE	0.00
 5/19/2003	 5:05p	16.4	-24.5	-24.4	-24.6	----	30	----	-57.9	28.79	43.5	50.4	SSE	0.00
 5/19/2003	 5:06p	16.4	-24.3	-24.1	-24.4	----	30	----	-56.9	28.79	40.9	51.3	S	0.00
 5/19/2003	 5:07p	16.4	-24.2	-24.2	-24.2	----	30	----	-56.8	28.80	41.7	50.4	S	0.00
 5/19/2003	 5:08p	16.4	-24.1	-24.1	-24.2	----	30	----	-57.4	28.79	44.3	52.2	S	0.00
 5/19/2003	 5:09p	16.4	-24.2	-24.1	-24.3	----	30	----	-56.8	28.80	41.7	53.0	S	0.00
 5/19/2003	 5:10p	16.4	-24.3	-24.2	-24.4	----	30	----	-58.1	28.80	45.2	55.7	SSE	0.00
 5/19/2003	 5:11p	16.4	-24.2	-24.2	-24.2	----	30	----	-58.9	28.79	50.4	55.7	SSE	0.00
 5/19/2003	 5:12p	16.4	-24.2	-24.2	-24.2	----	30	----	-57.5	28.80	44.3	47.8	SSE	0.00
 5/19/2003	 5:13p	16.4	-24.2	-24.2	-24.3	----	30	----	-58.1	28.79	46.1	57.4	SSE	0.00
 5/19/2003	 5:14p	16.4	-24.2	-24.1	-24.2	----	30	----	-58.4	28.79	48.7	56.5	SSE	0.00
 5/19/2003	 5:15p	16.4	-24.1	-24.1	-24.1	----	30	----	-58.4	28.79	49.6	54.8	SSE	0.00
 5/19/2003	 5:16p	16.4	-24.1	-24.1	-24.1	----	30	----	-56.7	28.79	41.7	47.8	SSE	0.00
 5/19/2003	 5:17p	16.4	-24.2	-24.1	-24.2	----	30	----	-56.8	28.79	41.7	47.0	SSE	0.00
 5/19/2003	 5:18p	16.4	-24.3	-24.2	-24.3	----	30	----	-56.7	28.79	39.1	46.1	SSE	0.00
 5/19/2003	 5:19p	16.4	-24.3	-24.2	-24.3	----	30	----	-58.2	28.78	47.0	51.3	SSE	0.00
 5/19/2003	 5:20p	16.4	-24.2	-24.2	-24.2	----	30	----	-57.6	28.79	44.3	52.2	SSE	0.00
 5/19/2003	 5:21p	16.4	-24.3	-24.2	-24.3	----	30	----	-58.0	28.79	45.2	50.4	SSE	0.00
 5/19/2003	 5:22p	16.4	-24.2	-24.1	-24.3	----	30	----	-57.8	28.79	45.2	51.3	SSE	0.00
 5/19/2003	 5:23p	16.4	-24.2	-24.1	-24.2	----	30	----	-57.3	28.79	43.5	48.7	SSE	0.00
 5/19/2003	 5:24p	16.4	-24.2	-24.2	-24.2	----	30	----	-56.9	28.79	41.7	48.7	SSE	0.00
 5/19/2003	 5:25p	16.4	-24.1	-24.1	-24.2	----	29	----	-57.0	28.80	42.6	49.6	SSE	0.00
 5/19/2003	 5:26p	16.5	-24.1	-24.1	-24.2	----	29	----	-56.6	28.80	40.9	47.0	SSE	0.00
 5/19/2003	 5:27p	16.5	-24.3	-24.2	-24.3	----	29	----	-57.3	28.79	42.6	47.8	SSE	0.00
 5/19/2003	 5:28p	16.6	-24.3	-24.3	-24.3	----	29	----	-57.0	28.80	40.0	53.0	SSE	0.00
 5/19/2003	 5:29p	16.6	-24.3	-24.2	-24.3	----	29	----	-55.8	28.80	35.7	50.4	S	0.00
 5/19/2003	 5:30p	16.6	-24.1	-23.9	-24.2	----	29	----	-56.4	28.80	40.9	53.9	S	0.00
 5/19/2003	 5:31p	16.6	-24.1	-24.0	-24.2	----	29	----	-56.4	28.78	40.9	54.8	S	0.00
 5/19/2003	 5:32p	16.6	-24.1	-24.1	-24.2	----	29	----	-57.9	28.79	46.1	53.0	S	0.00
 5/19/2003	 5:33p	16.6	-24.1	-23.9	-24.1	----	29	----	-56.2	28.80	39.1	53.9	S	0.00
 5/19/2003	 5:34p	16.6	-24.1	-23.9	-24.1	----	29	----	-55.8	28.81	37.4	43.5	S	0.00
 5/19/2003	 5:35p	16.6	-24.3	-24.3	-24.4	----	29	----	-56.6	28.80	38.3	41.7	SSE	0.00
 5/19/2003	 5:36p	16.6	-24.4	-24.4	-24.4	----	28	----	-56.7	28.80	38.3	47.0	S	0.00
 5/19/2003	 5:37p	16.6	-24.4	-24.4	-24.4	----	28	----	-55.3	28.81	33.9	47.0	S	0.00
 5/19/2003	 5:38p	16.6	-24.3	-24.3	-24.3	----	28	----	-56.3	28.80	37.4	44.3	S	0.00
 5/19/2003	 5:39p	16.6	-24.3	-24.3	-24.3	----	28	----	-57.4	28.80	42.6	51.3	SSE	0.00
 5/19/2003	 5:40p	16.6	-24.4	-24.3	-24.6	----	28	----	-56.2	28.80	36.5	44.3	SSE	0.00
 5/19/2003	 5:41p	16.6	-24.6	-24.6	-24.6	----	28	----	-57.2	28.79	40.0	48.7	SSE	0.00
 5/19/2003	 5:42p	16.6	-24.4	-24.3	-24.6	----	28	----	-56.3	28.81	36.5	42.6	SSE	0.00
 5/19/2003	 5:43p	16.6	-24.4	-24.3	-24.4	----	29	----	-56.2	28.81	36.5	45.2	SSE	0.00
 5/19/2003	 5:44p	16.6	-24.4	-24.4	-24.4	----	29	----	-56.8	28.80	39.1	47.8	SSE	0.00
 5/19/2003	 5:45p	16.6	-24.3	-24.3	-24.4	----	28	----	-56.6	28.81	38.3	47.8	SSE	0.00
 5/19/2003	 5:46p	16.6	-24.3	-24.2	-24.3	----	28	----	-56.2	28.81	37.4	43.5	SSE	0.00
 5/19/2003	 5:47p	16.6	-24.1	-24.1	-24.2	----	27	----	-55.4	28.82	35.7	48.7	SSE	0.00
 5/19/2003	 5:48p	16.6	-24.1	-24.0	-24.1	----	27	----	-56.0	28.80	38.3	47.8	SSE	0.00
 5/19/2003	 5:49p	16.6	-24.1	-24.1	-24.1	----	28	----	-54.0	28.81	31.3	40.0	SSE	0.00
 5/19/2003	 5:50p	16.6	-24.1	-24.1	-24.2	----	28	----	-54.7	28.81	33.0	40.9	SSE	0.00
 5/19/2003	 5:51p	16.6	-24.1	-24.1	-24.1	----	28	----	-53.9	28.82	31.3	38.3	SSE	0.00
 5/19/2003	 5:52p	16.5	-24.1	-24.1	-24.1	----	28	----	-51.8	28.82	27.0	33.0	SE	0.00
 5/19/2003	 5:53p	16.5	-24.2	-24.1	-24.2	----	28	----	-52.4	28.82	27.8	33.9	SE	0.00
 5/19/2003	 5:54p	16.4	-24.2	-24.1	-24.2	----	28	----	-52.4	28.82	27.8	35.7	SE	0.00
 5/19/2003	 5:55p	16.4	-24.1	-24.1	-24.2	----	28	----	-54.7	28.81	33.9	40.9	SE	0.00
 5/19/2003	 5:56p	16.4	-24.1	-24.1	-24.2	----	28	----	-51.9	28.82	27.0	33.0	SE	0.00
 5/19/2003	 5:57p	16.4	-24.1	-24.1	-24.2	----	28	----	-52.3	28.82	27.8	33.9	SSE	0.00
 5/19/2003	 5:58p	16.4	-24.2	-24.1	-24.2	----	27	----	-52.4	28.81	27.8	32.2	SE	0.00
 5/19/2003	 5:59p	16.4	-24.2	-24.2	-24.3	----	27	----	-53.4	28.81	29.6	34.8	SE	0.00
 5/19/2003	 6:00p	16.3	-24.2	-24.1	-24.3	----	27	----	-52.9	28.81	28.7	35.7	SE	0.00
 5/19/2003	 6:01p	16.3	-24.1	-24.1	-24.2	----	27	----	-52.3	28.81	27.8	35.7	SE	0.00
 5/19/2003	 6:02p	16.3	-24.2	-24.2	-24.3	----	28	----	-52.5	28.81	27.8	34.8	SE	0.00
 5/19/2003	 6:03p	16.3	-24.3	-24.2	-24.4	----	28	----	-51.1	28.82	24.3	30.4	SE	0.00
 5/19/2003	 6:04p	16.2	-24.4	-24.3	-24.4	----	28	----	-53.3	28.82	28.7	35.7	SE	0.00
 5/19/2003	 6:05p	16.2	-24.3	-24.3	-24.3	----	28	----	-52.3	28.82	26.1	33.9	SE	0.00
 5/19/2003	 6:06p	16.2	-24.3	-24.3	-24.3	----	28	----	-51.8	28.82	25.2	29.6	SE	0.00
 5/19/2003	 6:07p	16.2	-24.2	-24.1	-24.3	----	28	----	-52.1	28.82	27.0	36.5	SE	0.00
 5/19/2003	 6:08p	16.1	-24.0	-23.9	-24.1	----	28	----	-52.7	28.81	28.7	40.9	SE	0.00
 5/19/2003	 6:10p	16.1	-24.1	-23.8	-24.2	----	27	----	-52.7	28.81	28.7	38.3	SE	0.00
 5/19/2003	 6:11p	16.1	-23.9	-23.8	-23.9	----	27	----	-51.6	28.82	26.1	31.3	SE	0.00
 5/19/2003	 6:12p	16.0	-23.9	-23.9	-23.9	----	27	----	-50.6	28.82	24.3	32.2	SE	0.00
 5/19/2003	 6:13p	16.0	-24.0	-24.0	-24.1	----	27	----	-49.6	28.83	22.6	27.8	SSE	0.00
 5/19/2003	 6:14p	15.9	-24.1	-24.1	-24.1	----	27	----	-49.0	28.82	21.7	29.6	SE	0.00
 5/19/2003	 6:15p	15.9	-24.1	-24.1	-24.1	----	28	----	-49.7	28.82	22.6	29.6	SE	0.00
 5/19/2003	 6:16p	15.9	-24.1	-24.1	-24.1	----	28	----	-50.7	28.82	24.3	30.4	SE	0.00
 5/19/2003	 6:17p	15.9	-24.2	-24.1	-24.3	----	28	----	-49.2	28.82	21.7	27.8	SE	0.00
 5/19/2003	 6:18p	15.8	-24.3	-24.3	-24.4	----	28	----	-48.9	28.82	20.0	25.2	SE	0.00
 5/19/2003	 6:19p	15.8	-24.4	-24.4	-24.4	----	27	----	-49.0	28.82	20.0	24.3	SE	0.00
 5/19/2003	 6:20p	15.8	-24.3	-24.3	-24.4	----	27	----	-51.2	28.81	24.3	29.6	SE	0.00
 5/19/2003	 6:21p	15.8	-24.3	-24.2	-24.3	----	28	----	-51.1	28.81	24.3	31.3	SE	0.00
 5/19/2003	 6:22p	15.8	-24.3	-24.2	-24.3	----	28	----	-51.1	28.81	24.3	31.3	SE	0.00
 5/19/2003	 6:23p	15.8	-24.3	-24.2	-24.3	----	28	----	-50.6	28.82	23.5	28.7	SE	0.00
 5/19/2003	 6:24p	15.8	-24.3	-24.2	-24.3	----	29	----	-49.4	28.81	21.7	29.6	SE	0.00
 5/19/2003	 6:25p	15.8	-24.4	-24.3	-24.4	----	29	----	-50.7	28.82	23.5	29.6	SE	0.00
 5/19/2003	 6:26p	15.8	-24.4	-24.4	-24.5	----	28	----	-49.7	28.81	21.7	27.0	SE	0.00
 5/19/2003	 6:27p	15.9	-24.4	-24.4	-24.4	----	28	----	-50.7	28.81	23.5	26.1	SE	0.00
 5/19/2003	 6:28p	15.9	-24.4	-24.4	-24.4	----	28	----	-49.7	28.81	21.7	28.7	SE	0.00
 5/19/2003	 6:29p	15.9	-24.5	-24.4	-24.5	----	28	----	-50.3	28.81	22.6	31.3	SE	0.00
 5/19/2003	 6:30p	15.9	-24.5	-24.4	-24.6	----	29	----	-50.3	28.81	22.6	27.8	SE	0.00
 5/19/2003	 6:31p	15.9	-24.5	-24.4	-24.6	----	29	----	-52.6	28.80	26.1	33.9	SSE	0.00
 5/19/2003	 6:32p	15.9	-24.4	-24.4	-24.4	----	29	----	-52.8	28.80	27.8	36.5	SSE	0.00
 5/19/2003	 6:33p	15.9	-24.3	-24.3	-24.4	----	28	----	-51.8	28.81	25.2	30.4	SSE	0.00
 5/19/2003	 6:34p	15.9	-24.4	-24.3	-24.4	----	28	----	-49.6	28.81	21.7	28.7	SSE	0.00
 5/19/2003	 6:35p	16.0	-24.5	-24.4	-24.5	----	28	----	-50.9	28.80	23.5	31.3	SSE	0.00
 5/19/2003	 6:36p	16.0	-24.3	-24.2	-24.5	----	28	----	-53.7	28.79	29.6	35.7	SSE	0.00
 5/19/2003	 6:37p	16.0	-24.2	-24.0	-24.2	----	28	----	-54.8	28.78	33.9	42.6	SSE	0.00
 5/19/2003	 6:38p	16.0	-23.9	-23.8	-24.0	----	29	----	-55.5	28.78	36.5	40.0	SSE	0.00
 5/19/2003	 6:39p	16.0	-23.9	-23.8	-23.9	----	29	----	-53.4	28.79	30.4	38.3	SSE	0.00
 5/19/2003	 6:40p	16.1	-24.0	-23.9	-24.1	----	29	----	-54.9	28.78	34.8	39.1	SSE	0.00
 5/19/2003	 6:41p	16.1	-24.1	-24.1	-24.1	----	29	----	-54.6	28.78	33.9	40.9	SSE	0.00
 5/19/2003	 6:42p	16.1	-24.0	-24.0	-24.1	----	28	----	-53.9	28.79	31.3	38.3	SSE	0.00
 5/19/2003	 6:43p	16.1	-24.1	-24.1	-24.2	----	28	----	-54.7	28.79	33.9	36.5	SSE	0.00
 5/19/2003	 6:44p	16.1	-24.1	-24.1	-24.2	----	28	----	-54.7	28.78	33.0	40.0	SSE	0.00
 5/19/2003	 6:45p	16.1	-24.1	-24.0	-24.1	----	28	----	-54.9	28.78	34.8	40.9	SSE	0.00
 5/19/2003	 6:46p	16.1	-23.9	-23.9	-24.0	----	28	----	-55.5	28.78	36.5	40.0	SSE	0.00
 5/19/2003	 6:47p	16.2	-23.8	-23.8	-23.9	----	28	----	-55.1	28.78	35.7	42.6	SSE	0.00
 5/19/2003	 6:48p	16.2	-23.8	-23.8	-23.9	----	29	----	-54.3	28.78	33.0	38.3	SSE	0.00
 5/19/2003	 6:49p	16.2	-23.8	-23.8	-23.8	----	28	----	-54.3	28.78	33.9	39.1	SSE	0.00
 5/19/2003	 6:51p	16.2	-23.7	-23.7	-23.8	----	28	----	-54.8	28.77	35.7	46.1	SSE	0.00
 5/19/2003	 6:52p	16.2	-23.7	-23.6	-23.7	----	28	----	-54.7	28.77	35.7	46.1	SSE	0.00
 5/19/2003	 6:53p	16.2	-23.6	-23.6	-23.6	----	28	----	-53.9	28.78	33.9	40.9	SSE	0.00
 5/19/2003	 6:54p	16.3	-23.7	-23.6	-23.7	----	28	----	-53.7	28.78	32.2	43.5	SSE	0.00
 5/19/2003	 6:55p	16.3	-23.6	-23.6	-23.7	----	28	----	-54.9	28.78	36.5	45.2	SSE	0.00
 5/19/2003	 6:56p	16.3	-23.6	-23.6	-23.6	----	29	----	-55.0	28.78	37.4	46.1	SSE	0.00
 5/19/2003	 6:57p	16.3	-23.6	-23.5	-23.6	----	29	----	-54.2	28.78	34.8	40.9	SSE	0.00
 5/19/2003	 6:58p	16.3	-23.6	-23.5	-23.6	----	28	----	-55.0	28.77	37.4	43.5	SSE	0.00
 5/19/2003	 7:00p	16.3	-23.4	-23.4	-23.4	----	27	----	-55.5	28.78	40.0	47.0	SSE	0.00
 5/19/2003	 7:01p	16.4	-23.3	-23.3	-23.3	----	28	----	-54.3	28.78	35.7	43.5	SSE	0.00
 5/19/2003	 7:02p	16.4	-23.3	-23.3	-23.3	----	28	----	-54.9	28.78	38.3	47.0	SSE	0.00
 5/19/2003	 7:03p	16.4	-23.3	-23.3	-23.3	----	28	----	-54.5	28.77	36.5	43.5	SSE	0.00
 5/19/2003	 7:04p	16.4	-23.3	-23.2	-23.3	----	28	----	-52.4	28.79	30.4	40.0	SSE	0.00
 5/19/2003	 7:05p	16.4	-23.3	-23.3	-23.3	----	28	----	-53.6	28.77	33.0	41.7	SSE	0.00
 5/19/2003	 7:06p	16.4	-23.3	-23.3	-23.5	----	28	----	-50.8	28.78	27.0	33.0	SSE	0.00
 5/19/2003	 7:07p	16.4	-23.6	-23.5	-23.7	----	28	----	-51.1	28.78	27.0	33.9	SE	0.00
 5/19/2003	 7:08p	16.4	-23.7	-23.7	-23.7	----	27	----	-52.9	28.78	30.4	37.4	SE	0.00
 5/19/2003	 7:09p	16.5	-23.6	-23.6	-23.6	----	28	----	-51.1	28.78	26.1	29.6	SE	0.00
 5/19/2003	 7:10p	16.5	-23.6	-23.6	-23.6	----	28	----	-51.5	28.78	27.8	33.9	SE	0.00
 5/19/2003	 7:11p	16.5	-23.6	-23.5	-23.6	----	28	----	-52.4	28.78	29.6	34.8	SE	0.00
 5/19/2003	 7:12p	16.5	-23.6	-23.6	-23.6	----	28	----	-52.8	28.78	30.4	36.5	SE	0.00
 5/19/2003	 7:13p	16.5	-23.5	-23.4	-23.6	----	28	----	-53.2	28.77	31.3	39.1	SE	0.00
 5/19/2003	 7:14p	16.5	-23.3	-23.2	-23.4	----	28	----	-52.6	28.78	30.4	37.4	SE	0.00
 5/19/2003	 7:15p	16.5	-23.3	-23.2	-23.3	----	28	----	-52.4	28.77	30.4	38.3	SE	0.00
 5/19/2003	 7:16p	16.5	-23.2	-23.2	-23.3	----	28	----	-51.4	28.78	28.7	34.8	SE	0.00
 5/19/2003	 7:17p	16.5	-23.2	-23.1	-23.2	----	28	----	-50.4	28.78	26.1	28.7	SE	0.00
 5/19/2003	 7:18p	16.5	-23.2	-23.1	-23.2	----	28	----	-50.0	28.78	25.2	28.7	ESE	0.00
 5/19/2003	 7:19p	16.4	-23.3	-23.3	-23.4	----	28	----	-47.9	28.78	21.7	26.1	ESE	0.00
 5/19/2003	 7:20p	16.4	-23.4	-23.4	-23.4	----	27	----	-48.7	28.78	22.6	31.3	SE	0.00
 5/19/2003	 7:21p	16.4	-23.4	-23.4	-23.5	----	27	----	-48.2	28.78	21.7	26.1	ESE	0.00
 5/19/2003	 7:22p	16.4	-23.4	-23.4	-23.5	----	27	----	-49.9	28.77	24.3	29.6	ESE	0.00
 5/19/2003	 7:23p	16.4	-23.3	-23.3	-23.4	----	27	----	-49.1	28.77	23.5	27.8	ESE	0.00
 5/19/2003	 7:24p	16.4	-23.2	-23.2	-23.3	----	27	----	-49.5	28.77	24.3	29.6	ESE	0.00
 5/19/2003	 7:25p	16.4	-23.2	-23.1	-23.2	----	27	----	-48.8	28.77	23.5	29.6	ESE	0.00
 5/19/2003	 7:26p	16.3	-23.2	-23.2	-23.2	----	28	----	-45.2	28.78	18.3	25.2	ESE	0.00
 5/19/2003	 7:27p	16.3	-23.2	-23.1	-23.2	----	28	----	-47.7	28.78	21.7	29.6	ESE	0.00
 5/19/2003	 7:28p	16.3	-23.3	-23.2	-23.4	----	28	----	-45.5	28.78	18.3	23.5	ESE	0.00
 5/19/2003	 7:29p	16.3	-23.4	-23.4	-23.5	----	28	----	-44.6	28.79	17.4	25.2	ESE	0.00
 5/19/2003	 7:30p	16.2	-23.5	-23.4	-23.5	----	28	----	-42.7	28.78	15.7	22.6	ESE	0.00
 5/19/2003	 7:31p	16.2	-23.5	-23.5	-23.6	----	28	----	-47.7	28.77	20.0	27.0	ESE	0.00
 5/19/2003	 7:32p	16.2	-23.4	-23.4	-23.4	----	28	----	-48.8	28.77	22.6	27.8	SE	0.00
 5/19/2003	 7:33p	16.2	-23.4	-23.3	-23.5	----	27	----	-43.5	28.77	16.5	20.9	ESE	0.00
 5/19/2003	 7:34p	16.2	-23.6	-23.5	-23.6	----	27	----	-42.7	28.78	15.7	20.0	ESE	0.00
 5/19/2003	 7:35p	16.1	-23.6	-23.6	-23.7	----	27	----	-43.7	28.78	16.5	23.5	ESE	0.00
 5/19/2003	 7:36p	16.1	-23.6	-23.6	-23.7	----	27	----	-44.8	28.77	17.4	23.5	ESE	0.00
 5/19/2003	 7:37p	16.1	-23.7	-23.6	-23.7	----	27	----	-49.6	28.77	23.5	27.8	SE	0.00
 5/19/2003	 7:38p	16.1	-23.6	-23.5	-23.7	----	28	----	-43.7	28.78	16.5	23.5	SE	0.00
 5/19/2003	 7:39p	16.0	-23.7	-23.7	-23.8	----	28	----	-46.9	28.77	19.1	27.8	SE	0.00
 5/19/2003	 7:40p	16.0	-23.6	-23.5	-23.8	----	28	----	-48.4	28.77	21.7	27.8	SE	0.00
 5/19/2003	 7:41p	15.9	-23.5	-23.5	-23.6	----	28	----	-50.6	28.75	25.2	40.9	SE	0.00
 5/19/2003	 7:42p	15.9	-23.4	-23.3	-23.5	----	28	----	-50.9	28.76	27.0	33.0	SE	0.00
 5/19/2003	 7:43p	15.9	-23.4	-23.3	-23.5	----	27	----	-48.8	28.77	22.6	27.0	SE	0.00
 5/19/2003	 7:44p	15.9	-23.5	-23.5	-23.6	----	27	----	-48.8	28.77	22.6	29.6	SSE	0.00
 5/19/2003	 7:45p	15.9	-23.4	-23.4	-23.5	----	27	----	-49.9	28.76	24.3	30.4	SE	0.00
 5/19/2003	 7:46p	15.9	-23.3	-23.3	-23.4	----	28	----	-50.8	28.76	26.1	31.3	SE	0.00
 5/19/2003	 7:47p	15.8	-23.3	-23.3	-23.3	----	28	----	-49.1	28.76	23.5	29.6	SSE	0.00
 5/19/2003	 7:48p	15.8	-23.3	-23.3	-23.3	----	28	----	-49.2	28.76	23.5	27.0	SSE	0.00
 5/19/2003	 7:50p	15.8	-23.2	-23.2	-23.3	----	28	----	-47.2	28.77	20.0	29.6	SE	0.00
 5/19/2003	 7:51p	15.8	-23.4	-23.2	-23.5	----	27	----	-43.5	28.77	16.5	19.1	SE	0.00
 5/19/2003	 7:52p	15.8	-23.6	-23.5	-23.6	----	28	----	-41.4	28.76	14.8	17.4	ESE	0.00
 5/19/2003	 7:53p	15.8	-23.6	-23.6	-23.7	----	28	----	-41.5	28.76	14.8	18.3	SE	0.00
 5/19/2003	 7:54p	15.8	-23.7	-23.5	-23.7	----	28	----	-42.8	28.76	15.7	19.1	ESE	0.00
 5/19/2003	 7:55p	15.8	-23.5	-23.4	-23.5	----	28	----	-41.4	28.76	14.8	18.3	ESE	0.00
 5/19/2003	 7:56p	15.8	-23.4	-23.4	-23.4	----	28	----	-40.2	28.77	13.9	20.0	ESE	0.00
 5/19/2003	 7:57p	15.8	-23.6	-23.4	-23.8	----	28	----	-41.4	28.76	14.8	17.4	ESE	0.00
 5/19/2003	 7:58p	15.8	-24.0	-23.8	-24.2	----	28	----	-42.1	28.76	14.8	17.4	E	0.00
 5/19/2003	 7:59p	15.8	-24.7	-24.2	-24.9	----	28	----	-42.9	28.76	14.8	16.5	E	0.00
 5/19/2003	 8:00p	15.8	-24.9	-24.9	-24.9	----	28	----	-42.1	28.76	13.0	16.5	E	0.00
 5/19/2003	 8:01p	15.8	-24.8	-24.8	-24.9	----	28	----	-44.4	28.76	15.7	20.0	E	0.00
 5/19/2003	 8:02p	15.8	-24.8	-24.7	-24.8	----	28	----	-43.1	28.76	14.8	20.0	E	0.00
 5/19/2003	 8:03p	15.8	-24.8	-24.7	-24.8	----	28	----	-41.9	28.76	13.9	15.7	E	0.00
 5/19/2003	 8:04p	15.8	-24.7	-24.7	-24.8	----	28	----	-41.8	28.76	13.0	15.7	E	0.00
 5/19/2003	 8:05p	15.8	-24.8	-24.8	-24.8	----	29	----	-44.4	28.76	15.7	18.3	E	0.00
 5/19/2003	 8:06p	15.8	-24.8	-24.8	-24.9	----	28	----	-44.4	28.76	15.7	18.3	ENE	0.00
 5/19/2003	 8:07p	15.8	-24.8	-24.8	-24.9	----	27	----	-43.2	28.76	14.8	18.3	E	0.00
 5/19/2003	 8:08p	15.8	-24.9	-24.8	-24.9	----	27	----	-43.3	28.76	14.8	18.3	E	0.00
 5/19/2003	 8:09p	15.9	-25.0	-24.9	-25.1	----	27	----	-42.2	28.76	13.9	16.5	E	0.00
 5/19/2003	 8:10p	15.9	-25.1	-25.1	-25.1	----	27	----	-43.4	28.76	14.8	18.3	E	0.00
 5/19/2003	 8:11p	15.8	-25.1	-25.1	-25.1	----	28	----	-47.8	28.76	18.3	23.5	E	0.00
 5/19/2003	 8:12p	15.8	-25.2	-25.1	-25.4	----	28	----	-46.9	28.76	17.4	20.9	E	0.00
 5/19/2003	 8:13p	15.9	-25.4	-25.4	-25.4	----	28	----	-43.9	28.76	14.8	17.4	E	0.00
 5/19/2003	 8:14p	15.9	-25.4	-25.4	-25.4	----	28	----	-44.0	28.76	14.8	20.9	E	0.00
 5/19/2003	 8:15p	15.8	-25.3	-25.2	-25.4	----	28	----	-46.1	28.76	16.5	20.0	E	0.00
 5/19/2003	 8:16p	15.8	-25.4	-25.4	-25.5	----	28	----	-45.3	28.76	15.7	18.3	E	0.00
 5/19/2003	 8:17p	15.9	-25.6	-25.5	-25.6	----	27	----	-46.4	28.76	16.5	20.9	E	0.00
 5/19/2003	 8:18p	15.9	-25.6	-25.4	-25.6	----	27	----	-44.1	28.76	14.8	20.0	E	0.00
 5/19/2003	 8:19p	15.9	-25.3	-25.2	-25.4	----	27	----	-42.7	28.76	13.9	15.7	E	0.00
 5/19/2003	 8:20p	15.9	-25.2	-25.1	-25.2	----	27	----	-43.6	28.76	14.8	19.1	E	0.00
 5/19/2003	 8:21p	15.9	-25.2	-25.1	-25.2	----	27	----	-43.6	28.76	14.8	17.4	E	0.00
 5/19/2003	 8:22p	15.9	-25.1	-25.1	-25.2	----	28	----	-43.5	28.76	14.8	20.9	E	0.00
 5/19/2003	 8:23p	15.9	-25.1	-25.0	-25.1	----	28	----	-44.7	28.76	15.7	17.4	E	0.00
 5/19/2003	 8:24p	15.9	-25.1	-25.0	-25.1	----	28	----	-42.2	28.76	13.9	17.4	E	0.00
 5/19/2003	 8:25p	15.9	-25.2	-25.1	-25.2	----	28	----	-42.4	28.76	13.9	16.5	E	0.00
 5/19/2003	 8:26p	15.9	-25.2	-25.2	-25.2	----	28	----	-42.4	28.76	13.9	16.5	E	0.00
 5/19/2003	 8:27p	15.9	-25.3	-25.2	-25.3	----	28	----	-43.8	28.76	14.8	15.7	ENE	0.00
 5/19/2003	 8:28p	15.9	-25.4	-25.3	-25.4	----	27	----	-43.9	28.75	14.8	18.3	ENE	0.00
 5/19/2003	 8:29p	15.9	-25.4	-25.3	-25.4	----	27	----	-42.8	28.76	13.9	16.5	E	0.00
 5/19/2003	 8:30p	15.9	-25.3	-25.3	-25.4	----	27	----	-43.8	28.76	14.8	16.5	E	0.00
 5/19/2003	 8:31p	15.9	-25.4	-25.4	-25.4	----	27	----	-45.3	28.75	15.7	17.4	E	0.00
 5/19/2003	 8:32p	15.9	-25.4	-25.3	-25.4	----	27	----	-46.2	28.75	16.5	19.1	E	0.00
 5/19/2003	 8:33p	15.9	-25.4	-25.3	-25.4	----	28	----	-43.9	28.75	14.8	19.1	E	0.00
 5/19/2003	 8:34p	15.9	-25.3	-25.2	-25.4	----	28	----	-43.8	28.75	14.8	16.5	E	0.00
 5/19/2003	 8:35p	15.9	-25.2	-25.2	-25.2	----	28	----	-45.8	28.75	16.5	20.9	E	0.00
 5/19/2003	 8:36p	15.9	-25.2	-25.2	-25.2	----	28	----	-46.9	28.75	17.4	19.1	E	0.00
 5/19/2003	 8:37p	15.9	-25.3	-25.2	-25.4	----	28	----	-47.1	28.75	17.4	22.6	E	0.00
 5/19/2003	 8:38p	15.9	-25.6	-25.4	-25.7	----	28	----	-49.6	28.75	19.1	22.6	E	0.00
 5/19/2003	 8:39p	15.9	-25.7	-25.7	-25.8	----	28	----	-50.8	28.75	20.0	22.6	E	0.00
 5/19/2003	 8:40p	15.9	-25.9	-25.8	-25.9	----	28	----	-51.1	28.75	20.0	22.6	E	0.00
 5/19/2003	 8:41p	15.9	-25.9	-25.9	-26.0	----	28	----	-51.2	28.75	20.0	22.6	E	0.00
 5/19/2003	 8:42p	15.9	-25.9	-25.8	-25.9	----	27	----	-50.1	28.75	19.1	21.7	E	0.00
 5/19/2003	 8:43p	15.9	-25.7	-25.7	-25.7	----	27	----	-49.7	28.75	19.1	22.6	E	0.00
 5/19/2003	 8:44p	16.0	-25.6	-25.6	-25.7	----	27	----	-49.6	28.75	19.1	20.9	E	0.00
 5/19/2003	 8:45p	16.0	-25.8	-25.6	-25.9	----	27	----	-48.9	28.75	18.3	20.0	E	0.00
 5/19/2003	 8:46p	16.0	-26.0	-25.9	-26.1	----	27	----	-50.3	28.75	19.1	20.9	E	0.00
 5/19/2003	 8:47p	16.0	-26.0	-25.9	-26.1	----	28	----	-48.1	28.75	17.4	20.9	E	0.00
 5/19/2003	 8:48p	16.0	-25.9	-25.8	-25.9	----	28	----	-45.8	28.75	15.7	18.3	E	0.00
 5/19/2003	 8:49p	16.1	-25.8	-25.8	-25.9	----	28	----	-46.8	28.75	16.5	18.3	E	0.00
 5/19/2003	 8:50p	16.1	-25.9	-25.9	-26.0	----	28	----	-47.0	28.75	16.5	18.3	E	0.00
 5/19/2003	 8:51p	16.1	-26.1	-26.1	-26.2	----	27	----	-44.8	28.74	14.8	17.4	E	0.00
 5/19/2003	 8:52p	16.1	-26.2	-26.2	-26.2	----	27	----	-44.9	28.75	14.8	16.5	E	0.00
 5/19/2003	 8:53p	16.1	-26.2	-26.1	-26.2	----	27	----	-47.2	28.75	16.5	19.1	E	0.00
 5/19/2003	 8:54p	16.1	-26.2	-26.1	-26.3	----	27	----	-49.4	28.75	18.3	20.0	E	0.00
 5/19/2003	 8:55p	16.1	-26.2	-26.2	-26.2	----	27	----	-47.2	28.74	16.5	20.0	E	0.00
 5/19/2003	 8:56p	16.1	-25.8	-25.6	-26.2	----	27	----	-46.8	28.74	16.5	19.1	E	0.00
 5/19/2003	 8:57p	16.1	-25.5	-25.3	-25.6	----	28	----	-44.1	28.74	14.8	18.3	E	0.00
 5/19/2003	 8:58p	16.1	-25.2	-25.2	-25.3	----	28	----	-47.0	28.74	17.4	20.0	E	0.00
 5/19/2003	 8:59p	16.1	-25.5	-25.2	-25.8	----	28	----	-45.3	28.74	15.7	18.3	E	0.00
 5/19/2003	 9:00p	16.1	-25.7	-25.7	-25.8	----	28	----	-44.3	28.74	14.8	20.0	E	0.00
 5/19/2003	 9:01p	16.1	-25.7	-25.3	-25.8	----	28	----	-43.1	28.74	13.9	15.7	E	0.00
 5/19/2003	 9:02p	16.1	-25.2	-25.1	-25.3	----	28	----	-45.8	28.74	16.5	20.9	E	0.00
 5/19/2003	 9:03p	16.1	-24.9	-24.7	-25.1	----	27	----	-44.6	28.74	15.7	21.7	E	0.00
 5/19/2003	 9:04p	16.1	-24.7	-24.7	-24.8	----	27	----	-42.9	28.74	14.8	19.1	E	0.00
 5/19/2003	 9:05p	16.2	-25.1	-24.9	-25.3	----	27	----	-44.7	28.74	15.7	18.3	E	0.00
 5/19/2003	 9:06p	16.1	-25.4	-25.3	-25.6	----	27	----	-46.2	28.74	16.5	20.0	E	0.00
 5/19/2003	 9:07p	16.2	-25.7	-25.6	-25.8	----	27	----	-44.3	28.74	14.8	19.1	E	0.00
 5/19/2003	 9:08p	16.2	-25.4	-25.1	-25.5	----	27	----	-42.8	28.73	13.9	16.5	E	0.00
 5/19/2003	 9:09p	16.2	-24.9	-24.8	-25.1	----	27	----	-43.3	28.74	14.8	19.1	E	0.00
 5/19/2003	 9:10p	16.1	-24.8	-24.7	-24.8	----	27	----	-43.1	28.73	14.8	17.4	E	0.00
 5/19/2003	 9:11p	16.1	-24.7	-24.7	-24.8	----	28	----	-44.2	28.74	15.7	18.3	E	0.00
 5/19/2003	 9:12p	16.1	-24.9	-24.8	-25.1	----	28	----	-45.6	28.73	16.5	20.0	E	0.00
 5/19/2003	 9:13p	16.1	-25.2	-25.1	-25.2	----	28	----	-45.8	28.73	16.5	20.0	E	0.00
 5/19/2003	 9:14p	16.1	-25.1	-25.0	-25.4	----	28	----	-46.8	28.73	17.4	20.9	E	0.00
 5/19/2003	 9:15p	16.1	-25.6	-25.4	-25.7	----	28	----	-46.4	28.73	16.5	20.9	E	0.00
 5/19/2003	 9:16p	16.1	-25.6	-25.5	-25.6	----	28	----	-47.4	28.73	17.4	20.0	E	0.00
 5/19/2003	 9:17p	16.1	-25.7	-25.6	-25.7	----	28	----	-49.7	28.73	19.1	20.9	E	0.00
 5/19/2003	 9:18p	16.1	-25.7	-25.6	-25.7	----	28	----	-47.6	28.73	17.4	20.0	E	0.00
 5/19/2003	 9:19p	16.1	-25.6	-25.6	-25.7	----	28	----	-47.5	28.73	17.4	20.9	E	0.00
 5/19/2003	 9:20p	16.1	-25.6	-25.6	-25.7	----	27	----	-47.5	28.73	17.4	20.9	E	0.00
 5/19/2003	 9:21p	16.1	-25.7	-25.7	-25.7	----	27	----	-48.7	28.73	18.3	20.9	E	0.00
 5/19/2003	 9:22p	16.2	-25.6	-25.6	-25.6	----	27	----	-49.6	28.73	19.1	20.9	E	0.00
 5/19/2003	 9:23p	16.1	-25.6	-25.4	-25.6	----	27	----	-48.5	28.72	18.3	21.7	E	0.00
 5/19/2003	 9:24p	16.1	-25.5	-25.4	-25.6	----	27	----	-48.5	28.73	18.3	21.7	E	0.00
 5/19/2003	 9:25p	16.1	-25.6	-25.4	-25.6	----	27	----	-47.4	28.73	17.4	19.1	E	0.00
 5/19/2003	 9:26p	16.1	-25.3	-25.2	-25.4	----	28	----	-47.1	28.72	17.4	18.3	E	0.00
 5/19/2003	 9:27p	16.1	-25.2	-25.2	-25.2	----	28	----	-44.9	28.73	15.7	17.4	E	0.00
 5/19/2003	 9:28p	16.1	-25.3	-25.2	-25.3	----	28	----	-46.1	28.72	16.5	19.1	E	0.00
 5/19/2003	 9:29p	16.1	-25.3	-25.3	-25.4	----	28	----	-46.2	28.72	16.5	18.3	E	0.00
 5/19/2003	 9:30p	16.1	-25.5	-25.4	-25.5	----	28	----	-45.3	28.72	15.7	18.3	ESE	0.00
 5/19/2003	 9:31p	16.1	-25.7	-25.6	-25.8	----	28	----	-46.6	28.72	16.5	17.4	E	0.00
 5/19/2003	 9:32p	16.1	-25.8	-25.8	-25.8	----	28	----	-46.8	28.72	16.5	19.1	E	0.00
 5/19/2003	 9:33p	16.1	-25.7	-25.4	-25.8	----	28	----	-45.5	28.72	15.7	19.1	E	0.00
 5/19/2003	 9:34p	16.1	-25.4	-25.4	-25.6	----	28	----	-47.4	28.72	17.4	19.1	E	0.00
 5/19/2003	 9:35p	16.1	-25.6	-25.6	-25.7	----	27	----	-46.4	28.72	16.5	19.1	E	0.00
 5/19/2003	 9:36p	16.1	-25.8	-25.7	-25.8	----	27	----	-43.3	28.72	13.9	18.3	E	0.00
 5/19/2003	 9:37p	16.1	-25.8	-25.8	-25.8	----	27	----	-46.8	28.72	16.5	20.0	E	0.00
 5/19/2003	 9:39p	16.1	-24.9	-24.5	-25.1	----	27	----	-43.3	28.72	14.8	19.1	E	0.00
 5/19/2003	 9:40p	16.1	-24.4	-24.4	-24.5	----	27	----	-46.0	28.72	17.4	20.9	E	0.00
 5/19/2003	 9:41p	16.1	-24.7	-24.4	-24.9	----	27	----	-46.3	28.72	17.4	20.0	E	0.00
 5/19/2003	 9:42p	16.1	-25.3	-25.1	-25.7	----	27	----	-47.1	28.72	17.4	20.0	E	0.00
 5/19/2003	 9:43p	16.1	-25.8	-25.7	-25.9	----	28	----	-47.8	28.72	17.4	20.0	E	0.00
 5/19/2003	 9:44p	16.1	-25.8	-25.6	-25.9	----	28	----	-47.9	28.72	17.4	20.9	E	0.00
 5/19/2003	 9:45p	16.1	-25.6	-25.6	-25.6	----	28	----	-47.5	28.72	17.4	20.9	E	0.00
 5/19/2003	 9:46p	16.1	-25.9	-25.6	-26.0	----	28	----	-46.9	28.71	16.5	20.0	E	0.00
 5/19/2003	 9:47p	16.1	-25.8	-25.7	-26.0	----	28	----	-46.8	28.72	16.5	20.0	E	0.00
 5/19/2003	 9:48p	16.1	-25.6	-25.6	-25.7	----	28	----	-45.4	28.71	15.7	18.3	E	0.00
 5/19/2003	 9:49p	16.1	-25.3	-25.1	-25.6	----	27	----	-43.8	28.71	14.8	17.4	E	0.00
 5/19/2003	 9:50p	16.1	-25.2	-25.1	-25.3	----	27	----	-44.8	28.71	15.7	18.3	E	0.00
 5/19/2003	 9:51p	16.1	-25.3	-25.3	-25.5	----	26	----	-46.2	28.71	16.5	20.0	E	0.00
 5/19/2003	 9:52p	16.1	-25.5	-25.5	-25.6	----	27	----	-45.3	28.71	15.7	19.1	E	0.00
 5/19/2003	 9:53p	16.1	-25.6	-25.5	-25.6	----	27	----	-42.9	28.71	13.9	16.5	E	0.00
 5/19/2003	 9:54p	16.1	-25.6	-25.6	-25.7	----	27	----	-44.2	28.71	14.8	19.1	E	0.00
 5/19/2003	 9:55p	16.1	-25.6	-25.6	-25.8	----	27	----	-45.4	28.71	15.7	20.0	E	0.00
 5/19/2003	 9:57p	16.1	-25.7	-25.5	-25.8	----	27	----	-44.2	28.71	14.8	18.3	E	0.00
 5/19/2003	 9:58p	16.1	-25.8	-25.7	-25.9	----	28	----	-45.7	28.71	15.7	18.3	E	0.00
 5/19/2003	 9:59p	16.1	-26.0	-25.9	-26.1	----	27	----	-43.6	28.71	13.9	17.4	E	0.00
 5/19/2003	10:00p	16.1	-26.1	-25.9	-26.1	----	28	----	-43.6	28.71	13.9	16.5	E	0.00
 5/19/2003	10:01p	16.0	-25.9	-25.9	-25.9	----	27	----	-43.4	28.71	13.0	16.5	E	0.00
 5/19/2003	10:02p	16.0	-25.7	-25.4	-25.9	----	28	----	-43.1	28.71	13.9	17.4	E	0.00
 5/19/2003	10:03p	16.0	-25.4	-25.4	-25.7	----	27	----	-44.0	28.71	14.8	18.3	E	0.00
 5/19/2003	10:04p	16.0	-25.8	-25.7	-25.9	----	27	----	-43.3	28.71	13.0	15.7	E	0.00
 5/19/2003	10:05p	16.0	-25.4	-25.3	-25.6	----	26	----	-42.8	28.71	13.0	18.3	E	0.00
 5/19/2003	10:06p	16.0	-25.7	-25.4	-26.0	----	26	----	-43.1	28.71	13.9	16.5	E	0.00
 5/19/2003	10:07p	16.1	-26.2	-26.0	-26.3	----	26	----	-46.2	28.71	15.7	19.1	E	0.00
 5/19/2003	10:08p	16.0	-26.4	-26.3	-26.6	----	26	----	-44.1	28.71	13.9	17.4	E	0.00
 5/19/2003	10:09p	16.0	-26.5	-26.3	-26.6	----	27	----	-43.0	28.71	12.2	15.7	E	0.00
 5/19/2003	10:10p	16.0	-26.1	-25.9	-26.3	----	27	----	-44.7	28.71	14.8	20.0	E	0.00
 5/19/2003	10:11p	16.0	-25.9	-25.9	-26.0	----	27	----	-43.5	28.71	13.0	17.4	E	0.00
 5/19/2003	10:12p	16.0	-25.9	-25.8	-26.0	----	27	----	-43.5	28.70	13.0	15.7	E	0.00
 5/19/2003	10:13p	16.0	-25.6	-25.5	-25.8	----	27	----	-42.9	28.70	13.9	16.5	E	0.00
 5/19/2003	10:15p	16.0	-25.4	-25.4	-25.4	----	27	----	-41.7	28.70	12.2	14.8	E	0.00
 5/19/2003	10:16p	15.9	-25.6	-25.4	-25.7	----	28	----	-42.9	28.70	13.9	16.5	ENE	0.00
 5/19/2003	10:17p	15.9	-25.3	-25.1	-25.6	----	27	----	-42.7	28.70	13.9	15.7	ENE	0.00
 5/19/2003	10:18p	15.9	-25.4	-25.1	-25.7	----	27	----	-42.8	28.70	13.9	16.5	E	0.00
 5/19/2003	10:19p	15.9	-25.5	-25.3	-25.6	----	27	----	-42.9	28.70	13.9	16.5	E	0.00
 5/19/2003	10:20p	15.9	-25.1	-24.9	-25.3	----	27	----	-42.2	28.70	13.0	18.3	E	0.00
 5/19/2003	10:21p	15.9	-25.1	-25.1	-25.3	----	27	----	-42.3	28.70	13.9	15.7	ENE	0.00
 5/19/2003	10:22p	15.9	-25.4	-25.3	-25.4	----	28	----	-42.8	28.70	13.9	16.5	ENE	0.00
 5/19/2003	10:23p	15.9	-25.5	-25.3	-25.6	----	28	----	-44.1	28.69	14.8	17.4	E	0.00
 5/19/2003	10:24p	15.9	-25.2	-25.1	-25.3	----	27	----	-44.9	28.69	15.7	20.9	E	0.00
 5/19/2003	10:25p	15.9	-25.2	-25.1	-25.2	----	26	----	-42.4	28.70	13.0	16.5	E	0.00
 5/19/2003	10:26p	15.9	-25.5	-25.2	-25.7	----	26	----	-41.7	28.70	12.2	17.4	E	0.00
 5/19/2003	10:27p	15.9	-26.0	-25.8	-26.2	----	26	----	-43.6	28.70	13.9	17.4	E	0.00
 5/19/2003	10:28p	15.9	-26.1	-26.0	-26.2	----	27	----	-43.6	28.70	13.0	17.4	E	0.00
 5/19/2003	10:29p	15.9	-26.3	-26.1	-26.3	----	27	----	-42.7	28.70	12.2	16.5	E	0.00
 5/19/2003	10:30p	15.9	-25.8	-25.4	-26.1	----	27	----	-44.4	28.70	14.8	17.4	E	0.00
 5/19/2003	10:31p	15.9	-25.2	-25.1	-25.4	----	27	----	-43.6	28.70	14.8	19.1	E	0.00
 5/19/2003	10:32p	15.9	-25.8	-25.4	-26.3	----	27	----	-43.3	28.70	13.0	18.3	E	0.00
 5/19/2003	10:33p	15.9	-26.4	-26.3	-26.5	----	27	----	-42.9	28.70	12.2	15.7	E	0.00
 5/19/2003	10:34p	15.9	-26.2	-25.9	-26.5	----	27	----	-44.9	28.69	14.8	17.4	E	0.00
 5/19/2003	10:35p	15.9	-25.6	-25.3	-25.8	----	28	----	-44.2	28.69	14.8	18.3	E	0.00
 5/19/2003	10:36p	15.9	-25.2	-25.2	-25.3	----	28	----	-42.4	28.69	13.0	17.4	E	0.00
 5/19/2003	10:37p	15.9	-25.1	-24.7	-25.2	----	28	----	-42.2	28.69	13.0	17.4	E	0.00
 5/19/2003	10:38p	15.9	-24.8	-24.7	-25.1	----	28	----	-40.8	28.69	12.2	15.7	E	0.00
 5/19/2003	10:39p	15.9	-25.1	-24.9	-25.1	----	27	----	-41.1	28.69	12.2	15.7	E	0.00
 5/19/2003	10:40p	15.9	-25.0	-24.9	-25.1	----	27	----	-41.1	28.69	12.2	15.7	E	0.00
 5/19/2003	10:41p	15.9	-25.0	-24.8	-25.1	----	26	----	-41.1	28.69	12.2	15.7	E	0.00
 5/19/2003	10:42p	15.9	-24.7	-24.7	-24.8	----	26	----	-41.8	28.69	13.0	16.5	E	0.00
 5/19/2003	10:43p	15.9	-24.9	-24.8	-25.1	----	26	----	-41.0	28.69	12.2	14.8	E	0.00
 5/19/2003	10:44p	15.9	-25.1	-25.0	-25.2	----	27	----	-41.2	28.69	12.2	15.7	E	0.00
 5/19/2003	10:45p	15.9	-24.9	-24.8	-25.2	----	27	----	-42.2	28.69	13.0	16.5	ENE	0.00
 5/19/2003	10:46p	15.9	-25.2	-25.1	-25.2	----	27	----	-42.4	28.68	13.9	18.3	ENE	0.00
 5/19/2003	10:47p	15.9	-25.1	-25.0	-25.1	----	27	----	-42.3	28.68	13.9	17.4	ENE	0.00
 5/19/2003	10:48p	15.9	-25.1	-25.0	-25.1	----	27	----	-42.2	28.69	13.9	17.4	ENE	0.00
 5/19/2003	10:49p	15.9	-25.0	-24.9	-25.0	----	27	----	-42.2	28.68	13.9	17.4	E	0.00
 5/19/2003	10:50p	15.9	-24.8	-24.7	-24.9	----	27	----	-42.1	28.68	13.9	19.1	E	0.00
 5/19/2003	10:51p	15.9	-24.6	-24.5	-24.7	----	27	----	-41.6	28.68	13.9	16.5	ENE	0.00
 5/19/2003	10:52p	15.9	-24.6	-24.6	-24.7	----	26	----	-41.7	28.68	13.9	18.3	ENE	0.00
 5/19/2003	10:53p	16.0	-24.7	-24.6	-24.7	----	26	----	-41.7	28.68	13.9	16.5	ENE	0.00
 5/19/2003	10:54p	15.9	-24.6	-24.5	-24.7	----	26	----	-44.1	28.68	15.7	18.3	ENE	0.00
 5/19/2003	10:56p	15.9	-24.6	-24.6	-24.6	----	27	----	-44.0	28.68	15.7	18.3	ENE	0.00
 5/19/2003	10:57p	16.0	-24.5	-24.4	-24.7	----	27	----	-44.0	28.68	15.7	18.3	ENE	0.00
 5/19/2003	10:58p	16.0	-24.7	-24.5	-24.7	----	27	----	-41.7	28.68	13.9	18.3	ENE	0.00
 5/19/2003	10:59p	15.9	-24.6	-24.6	-24.7	----	27	----	-41.7	28.68	13.0	14.8	ENE	0.00
 5/19/2003	11:00p	15.9	-24.5	-24.4	-24.6	----	27	----	-40.4	28.68	12.2	15.7	E	0.00
 5/19/2003	11:01p	15.9	-24.7	-24.5	-24.7	----	27	----	-40.6	28.68	12.2	17.4	E	0.00
 5/19/2003	11:02p	16.0	-24.5	-24.3	-24.6	----	27	----	-40.4	28.68	12.2	13.9	E	0.00
 5/19/2003	11:03p	16.0	-24.2	-24.2	-24.3	----	27	----	-40.0	28.67	12.2	15.7	E	0.00
 5/19/2003	11:04p	16.0	-24.2	-24.1	-24.2	----	27	----	-39.9	28.67	12.2	14.8	E	0.00
 5/19/2003	11:05p	16.0	-24.1	-24.1	-24.1	----	27	----	-40.9	28.67	13.0	17.4	E	0.00
 5/19/2003	11:06p	16.0	-23.9	-23.8	-24.1	----	27	----	-40.8	28.68	13.0	17.4	E	0.00
 5/19/2003	11:07p	16.0	-23.9	-23.8	-23.9	----	27	----	-40.8	28.68	13.9	20.0	E	0.00
 5/19/2003	11:08p	16.0	-24.0	-23.9	-24.2	----	27	----	-40.9	28.67	13.0	15.7	E	0.00
 5/19/2003	11:10p	16.0	-23.9	-23.9	-24.0	----	26	----	-40.9	28.68	13.9	17.4	E	0.00
 5/19/2003	11:11p	16.0	-24.0	-23.9	-24.2	----	26	----	-40.9	28.67	13.0	18.3	E	0.00
 5/19/2003	11:12p	16.0	-24.1	-23.9	-24.2	----	27	----	-40.9	28.67	13.0	18.3	E	0.00
 5/19/2003	11:13p	16.0	-23.8	-23.7	-23.9	----	27	----	-40.7	28.67	13.0	17.4	E	0.00
 5/19/2003	11:14p	16.0	-23.7	-23.7	-23.8	----	27	----	-41.7	28.67	14.8	18.3	E	0.00
 5/19/2003	11:15p	16.0	-23.8	-23.8	-24.1	----	27	----	-38.4	28.67	11.3	14.8	E	0.00
 5/19/2003	11:16p	16.0	-24.0	-23.8	-24.1	----	27	----	-40.9	28.67	13.9	18.3	E	0.00
 5/19/2003	11:17p	16.0	-24.2	-23.8	-24.4	----	27	----	-40.0	28.67	12.2	16.5	E	0.00
 5/19/2003	11:18p	16.0	-24.2	-24.0	-24.4	----	27	----	-38.8	28.67	11.3	13.9	E	0.00
 5/19/2003	11:19p	16.0	-24.2	-24.0	-24.4	----	27	----	-38.8	28.67	11.3	13.0	E	0.00
 5/19/2003	11:20p	16.0	-24.3	-24.1	-24.4	----	27	----	-41.3	28.67	13.0	18.3	E	0.00
 5/19/2003	11:21p	16.0	-23.9	-23.9	-24.1	----	28	----	-38.6	28.67	11.3	15.7	E	0.00
 5/19/2003	11:22p	16.0	-24.1	-24.1	-24.1	----	27	----	-37.5	28.67	10.4	14.8	E	0.00
 5/19/2003	11:23p	16.0	-24.0	-23.9	-24.1	----	27	----	-37.5	28.67	10.4	15.7	E	0.00
 5/19/2003	11:24p	16.0	-24.0	-23.9	-24.1	----	26	----	-35.5	28.67	9.6	12.2	ENE	0.00
 5/19/2003	11:25p	16.0	-24.0	-23.8	-24.1	----	26	----	-38.7	28.67	11.3	15.7	E	0.00
 5/19/2003	11:26p	16.0	-23.6	-23.4	-23.8	----	26	----	-36.9	28.67	10.4	14.8	E	0.00
 5/19/2003	11:27p	16.0	-23.6	-23.5	-23.7	----	26	----	-37.0	28.67	10.4	12.2	ENE	0.00
 5/19/2003	11:28p	16.0	-23.9	-23.7	-24.1	----	27	----	-37.4	28.67	10.4	13.0	ENE	0.00
 5/19/2003	11:29p	16.0	-24.2	-24.1	-24.3	----	27	----	-35.7	28.67	9.6	13.0	E	0.00
 5/19/2003	11:30p	16.0	-24.1	-24.0	-24.2	----	27	----	-35.6	28.67	9.6	12.2	E	0.00
 5/19/2003	11:31p	16.0	-23.9	-23.9	-24.1	----	27	----	-37.4	28.67	10.4	13.0	ENE	0.00
 5/19/2003	11:32p	16.0	-24.2	-24.1	-24.3	----	27	----	-37.7	28.67	10.4	15.7	ENE	0.00
 5/19/2003	11:33p	16.0	-23.9	-23.8	-24.2	----	27	----	-38.6	28.66	11.3	14.8	E	0.00
 5/19/2003	11:34p	16.0	-23.8	-23.6	-23.9	----	27	----	-38.4	28.66	11.3	19.1	E	0.00
 5/19/2003	11:35p	16.0	-23.9	-23.7	-24.1	----	27	----	-35.4	28.66	9.6	13.0	E	0.00
 5/19/2003	11:36p	16.0	-24.0	-24.0	-24.1	----	27	----	-33.4	28.66	8.7	11.3	E	0.00
 5/19/2003	11:37p	16.0	-24.0	-23.9	-24.1	----	27	----	-33.4	28.67	8.7	11.3	E	0.00
 5/19/2003	11:38p	15.9	-24.0	-23.9	-24.1	----	27	----	-31.3	28.67	7.8	12.2	E	0.00
 5/19/2003	11:39p	16.0	-23.8	-23.6	-24.1	----	26	----	-35.3	28.66	9.6	13.0	E	0.00
 5/19/2003	11:40p	16.0	-23.7	-23.6	-23.9	----	26	----	-33.0	28.66	8.7	12.2	ENE	0.00
 5/19/2003	11:41p	16.0	-23.8	-23.8	-23.9	----	26	----	-33.2	28.66	8.7	11.3	E	0.00
 5/19/2003	11:42p	16.0	-23.8	-23.7	-23.9	----	26	----	-33.2	28.66	8.7	12.2	E	0.00
 5/19/2003	11:43p	16.0	-23.6	-23.5	-23.6	----	27	----	-32.8	28.66	8.7	13.9	E	0.00
 5/19/2003	11:44p	15.9	-23.6	-23.6	-23.7	----	27	----	-35.0	28.66	9.6	11.3	E	0.00
 5/19/2003	11:46p	16.0	-23.7	-23.7	-23.8	----	27	----	-35.1	28.66	9.6	13.0	E	0.00
 5/19/2003	11:47p	15.9	-24.0	-23.8	-24.2	----	27	----	-35.5	28.66	9.6	12.2	ENE	0.00
 5/19/2003	11:48p	15.9	-24.2	-24.2	-24.2	----	27	----	-35.7	28.66	9.6	12.2	ENE	0.00
 5/19/2003	11:49p	15.9	-24.1	-24.1	-24.2	----	27	----	-35.6	28.66	9.6	13.9	E	0.00
 5/19/2003	11:50p	15.9	-23.9	-23.8	-24.1	----	27	----	-33.3	28.66	8.7	12.2	E	0.00
 5/19/2003	11:51p	15.9	-23.9	-23.8	-23.9	----	27	----	-35.4	28.66	9.6	12.2	ENE	0.00
 5/19/2003	11:52p	15.9	-24.0	-23.9	-24.1	----	27	----	-35.5	28.66	9.6	12.2	ENE	0.00
 5/19/2003	11:53p	15.9	-24.2	-24.1	-24.3	----	27	----	-35.7	28.66	9.6	11.3	ENE	0.00
 5/19/2003	11:54p	15.9	-24.2	-24.2	-24.3	----	27	----	-31.5	28.66	7.8	11.3	E	0.00
 5/19/2003	11:55p	15.9	-24.7	-24.3	-24.9	----	27	----	-36.3	28.66	9.6	12.2	E	0.00
 5/19/2003	11:56p	15.9	-24.8	-24.3	-24.9	----	28	----	-34.4	28.66	8.7	13.0	E	0.00
 5/19/2003	11:57p	15.9	-24.1	-23.9	-24.3	----	27	----	-35.6	28.66	9.6	12.2	E	0.00
 5/19/2003	11:58p	15.9	-23.8	-23.8	-23.9	----	27	----	-31.1	28.66	7.8	9.6	ENE	0.00
 5/19/2003	11:59p	15.9	-23.8	-23.6	-23.9	----	26	----	-35.3	28.65	9.6	12.2	E	0.00
 5/20/2003	12:00a	15.9	-23.5	-23.5	-23.6	----	26	----	-34.9	28.66	9.6	13.0	E	0.00
 5/20/2003	12:01a	15.9	-23.6	-23.5	-23.7	----	26	----	-32.9	28.65	8.7	11.3	E	0.00
 5/20/2003	12:02a	15.9	-23.7	-23.7	-23.7	----	27	----	-30.9	28.65	7.8	9.6	E	0.00
 5/20/2003	12:03a	15.9	-23.8	-23.7	-23.8	----	27	----	-33.2	28.65	8.7	13.0	E	0.00
 5/20/2003	12:04a	15.9	-23.8	-23.7	-24.0	----	27	----	-33.2	28.65	8.7	11.3	E	0.00
 5/20/2003	12:05a	15.9	-23.9	-23.8	-23.9	----	27	----	-35.4	28.65	9.6	11.3	E	0.00
 5/20/2003	12:06a	15.9	-23.7	-23.6	-23.8	----	27	----	-32.9	28.65	8.7	11.3	E	0.00
 5/20/2003	12:07a	15.9	-23.7	-23.6	-23.8	----	27	----	-32.9	28.65	8.7	10.4	E	0.00
 5/20/2003	12:08a	15.9	-23.8	-23.8	-23.8	----	27	----	-33.2	28.65	8.7	11.3	ENE	0.00
 5/20/2003	12:09a	15.9	-23.8	-23.7	-23.8	----	27	----	-33.2	28.65	8.7	11.3	E	0.00
 5/20/2003	12:10a	15.9	-23.7	-23.7	-23.7	----	27	----	-32.9	28.65	8.7	11.3	ENE	0.00
 5/20/2003	12:11a	15.9	-23.7	-23.7	-23.7	----	27	----	-35.1	28.65	9.6	13.0	ENE	0.00
 5/20/2003	12:13a	15.9	-23.5	-23.4	-23.6	----	26	----	-32.8	28.65	8.7	11.3	E	0.00
 5/20/2003	12:14a	15.9	-23.3	-23.3	-23.4	----	26	----	-30.6	28.65	7.8	10.4	E	0.00
 5/20/2003	12:15a	15.9	-23.4	-23.3	-23.4	----	27	----	-30.6	28.65	7.8	11.3	E	0.00
 5/20/2003	12:16a	15.9	-23.6	-23.6	-23.7	----	27	----	-30.8	28.65	7.8	13.0	E	0.00
 5/20/2003	12:17a	15.9	-23.5	-23.5	-23.6	----	27	----	-28.6	28.65	7.0	10.4	E	0.00
 5/20/2003	12:18a	15.9	-23.6	-23.6	-23.6	----	27	----	-30.7	28.65	7.8	9.6	ENE	0.00
 5/20/2003	12:19a	15.9	-23.6	-23.5	-23.6	----	27	----	-30.7	28.65	7.8	9.6	E	0.00
 5/20/2003	12:20a	15.9	-23.4	-23.4	-23.5	----	27	----	-30.7	28.65	7.8	8.7	E	0.00
 5/20/2003	12:21a	15.9	-23.5	-23.5	-23.6	----	27	----	-32.8	28.65	8.7	10.4	ENE	0.00
 5/20/2003	12:22a	15.9	-23.7	-23.6	-23.8	----	27	----	-35.1	28.65	9.6	11.3	ENE	0.00
 5/20/2003	12:23a	15.9	-23.9	-23.8	-23.9	----	27	----	-33.3	28.65	8.7	11.3	ENE	0.00
 5/20/2003	12:24a	15.9	-23.8	-23.7	-23.9	----	28	----	-29.0	28.65	7.0	10.4	E	0.00
 5/20/2003	12:25a	15.9	-23.6	-23.5	-23.7	----	28	----	-28.6	28.65	7.0	8.7	E	0.00
 5/20/2003	12:26a	15.9	-23.4	-23.4	-23.5	----	27	----	-28.6	28.65	7.0	9.6	E	0.00
 5/20/2003	12:27a	15.9	-23.3	-23.3	-23.3	----	27	----	-28.4	28.65	7.0	9.6	E	0.00
 5/20/2003	12:28a	15.9	-23.3	-23.3	-23.3	----	26	----	-28.4	28.65	7.0	8.7	E	0.00
 5/20/2003	12:29a	15.9	-23.3	-23.3	-23.3	----	27	----	-28.4	28.65	6.1	8.7	E	0.00
 5/20/2003	12:30a	15.9	-23.4	-23.3	-23.7	----	27	----	-28.6	28.65	7.0	9.6	E	0.00
 5/20/2003	12:31a	15.9	-23.9	-23.7	-24.1	----	27	----	-29.1	28.65	6.1	8.7	E	0.00
 5/20/2003	12:32a	15.9	-24.3	-24.1	-24.5	----	27	----	-31.6	28.65	7.8	8.7	E	0.00
 5/20/2003	12:33a	15.9	-24.6	-24.4	-24.7	----	28	----	-34.1	28.65	8.7	10.4	E	0.00
 5/20/2003	12:34a	15.9	-24.7	-24.4	-25.1	----	27	----	-36.3	28.65	9.6	11.3	E	0.00
 5/20/2003	12:35a	15.9	-25.0	-24.8	-25.1	----	28	----	-30.3	28.65	7.0	9.6	E	0.00
 5/20/2003	12:36a	15.9	-24.6	-24.4	-24.8	----	28	----	-29.8	28.65	7.0	9.6	E	0.00
 5/20/2003	12:37a	15.9	-24.2	-24.2	-24.3	----	28	----	-29.3	28.65	7.0	7.8	E	0.00
 5/20/2003	12:38a	15.9	-24.1	-23.9	-24.2	----	27	----	-29.2	28.65	7.0	8.7	E	0.00
 5/20/2003	12:39a	15.9	-23.8	-23.8	-23.8	----	27	----	-29.0	28.65	6.1	7.8	E	0.00
 5/20/2003	12:40a	16.0	-23.7	-23.5	-23.8	----	27	----	-28.8	28.65	6.1	7.8	E	0.00
 5/20/2003	12:41a	16.0	-23.5	-23.4	-23.5	----	27	----	-30.7	28.65	7.8	9.6	ENE	0.00
 5/20/2003	12:42a	16.0	-23.6	-23.6	-23.6	----	27	----	-28.6	28.64	7.0	9.6	ENE	0.00
 5/20/2003	12:43a	16.0	-23.6	-23.6	-23.6	----	27	----	-30.8	28.64	7.8	8.7	ENE	0.00
 5/20/2003	12:44a	16.0	-23.6	-23.6	-23.6	----	27	----	-28.7	28.64	7.0	8.7	ENE	0.00
 5/20/2003	12:45a	16.0	-23.6	-23.6	-23.7	----	28	----	-28.7	28.64	7.0	8.7	ENE	0.00
 5/20/2003	12:46a	16.0	-23.6	-23.6	-23.6	----	27	----	-28.7	28.64	7.0	7.8	ENE	0.00
 5/20/2003	12:47a	16.0	-23.6	-23.6	-23.6	----	28	----	-28.6	28.64	7.0	8.7	ENE	0.00
 5/20/2003	12:48a	16.0	-23.6	-23.6	-23.6	----	27	----	-28.6	28.64	7.0	8.7	ENE	0.00
 5/20/2003	12:49a	16.0	-23.6	-23.5	-23.6	----	27	----	-28.6	28.64	7.0	8.7	ENE	0.00
 5/20/2003	12:50a	16.1	-23.6	-23.5	-23.6	----	27	----	-28.6	28.64	7.0	8.7	ENE	0.00
 5/20/2003	12:51a	16.1	-23.6	-23.6	-23.6	----	27	----	-28.6	28.64	6.1	7.8	ENE	0.00
 5/20/2003	12:52a	16.1	-23.5	-23.5	-23.6	----	27	----	-26.6	28.64	5.2	7.8	ENE	0.00
 5/20/2003	12:53a	16.1	-23.4	-23.3	-23.5	----	27	----	-23.3	28.64	4.3	5.2	E	0.00
 5/20/2003	12:54a	16.1	-23.3	-23.2	-23.3	----	27	----	-26.3	28.64	5.2	7.0	ENE	0.00
 5/20/2003	12:55a	16.1	-23.3	-23.3	-23.4	----	27	----	-23.3	28.64	4.3	7.0	ENE	0.00
 5/20/2003	12:56a	16.1	-23.3	-23.3	-23.4	----	27	----	-23.3	28.64	4.3	6.1	ENE	0.00
 5/20/2003	12:57a	16.1	-23.6	-23.4	-23.6	----	28	----	-23.4	28.64	3.5	5.2	E	0.00
 5/20/2003	12:58a	16.1	-23.4	-23.4	-23.6	----	28	----	-26.5	28.64	5.2	7.0	ENE	0.00
 5/20/2003	12:59a	16.1	-23.4	-23.3	-23.5	----	28	----	-30.6	28.64	7.8	8.7	ENE	0.00
 5/20/2003	 1:00a	16.1	-23.6	-23.5	-23.6	----	28	----	-28.6	28.64	7.0	8.7	ENE	0.00
 5/20/2003	 1:01a	16.1	-23.7	-23.6	-23.9	----	28	----	-28.8	28.63	6.1	8.7	NE	0.00
 5/20/2003	 1:02a	16.1	-24.2	-23.9	-24.4	----	27	----	-27.2	28.64	5.2	7.0	NE	0.00
 5/20/2003	 1:03a	16.1	-24.7	-24.4	-24.9	----	27	----	-24.6	28.63	4.3	5.2	NE	0.00
 5/20/2003	 1:04a	16.1	-25.3	-24.9	-25.6	----	27	----	-25.2	28.64	3.5	5.2	NE	0.00
 5/20/2003	 1:05a	16.1	-25.8	-25.7	-25.9	----	27	----	-25.7	28.64	4.3	6.1	NE	0.00
 5/20/2003	 1:06a	16.1	-25.9	-25.9	-26.0	----	27	----	-31.3	28.64	6.1	7.0	NNW	0.00
 5/20/2003	 1:07a	16.1	-25.8	-25.8	-25.9	----	27	----	-29.0	28.63	5.2	7.0	NNW	0.00
 5/20/2003	 1:08a	16.1	-25.9	-25.8	-25.9	----	27	----	-25.8	28.64	3.5	4.3	NNW	0.00
 5/20/2003	 1:09a	16.1	-25.7	-25.4	-25.8	----	27	----	-25.6	28.63	3.5	4.3	NNW	0.00
 5/20/2003	 1:10a	16.1	-25.4	-25.3	-25.5	----	27	----	-25.3	28.63	3.5	4.3	NNW	0.00
 5/20/2003	 1:11a	16.1	-25.7	-25.5	-25.8	----	27	----	-25.6	28.64	1.7	3.5	NNW	0.00
 5/20/2003	 1:12a	16.1	-25.9	-25.9	-25.9	----	28	----	-25.8	28.63	1.7	3.5	NNW	0.00
 5/20/2003	 1:13a	16.1	-25.9	-25.8	-25.9	----	28	----	-25.8	28.63	1.7	1.7	NNW	0.00
 5/20/2003	 1:14a	16.1	-25.8	-25.8	-26.0	----	28	----	-25.8	28.63	0.0	0.9	NNW	0.00
 5/20/2003	 1:15a	16.1	-26.1	-26.0	-26.1	----	28	----	-25.9	28.63	0.0	1.7	NNW	0.00
 5/20/2003	 1:16a	16.1	-26.2	-26.1	-26.2	----	28	----	-26.1	28.63	0.9	2.6	NNW	0.00
 5/20/2003	 1:17a	16.1	-26.1	-26.1	-26.1	----	28	----	-26.0	28.63	0.9	1.7	NNW	0.00
 5/20/2003	 1:18a	16.1	-26.1	-26.0	-26.1	----	28	----	-25.9	28.63	0.0	0.0	----	0.00
 5/20/2003	 1:19a	16.1	-26.0	-25.9	-26.0	----	28	----	-25.9	28.63	0.0	0.0	----	0.00
 5/20/2003	 1:20a	16.1	-25.8	-25.8	-25.9	----	28	----	-25.8	28.63	0.0	0.0	----	0.00
 5/20/2003	 1:21a	16.1	-25.8	-25.8	-25.8	----	28	----	-25.7	28.63	0.9	1.7	NNW	0.00
 5/20/2003	 1:22a	16.1	-25.9	-25.8	-26.1	----	27	----	-25.9	28.63	1.7	3.5	NNW	0.00
 5/20/2003	 1:23a	16.1	-26.1	-26.1	-26.2	----	27	----	-26.0	28.63	3.5	4.3	NNW	0.00
 5/20/2003	 1:24a	16.1	-26.4	-26.2	-26.4	----	27	----	-26.3	28.63	1.7	3.5	NNW	0.00
 5/20/2003	 1:25a	16.1	-26.4	-26.4	-26.5	----	27	----	-26.4	28.63	0.9	1.7	NNW	0.00
 5/20/2003	 1:26a	16.1	-26.5	-26.4	-26.5	----	27	----	-26.4	28.63	1.7	1.7	NNW	0.00
 5/20/2003	 1:27a	16.1	-26.5	-26.5	-26.5	----	27	----	-26.4	28.62	1.7	2.6	NNW	0.00
 5/20/2003	 1:28a	16.1	-26.4	-26.4	-26.5	----	27	----	-26.4	28.62	1.7	2.6	NNW	0.00
 5/20/2003	 1:29a	16.1	-26.5	-26.4	-26.6	----	27	----	-26.4	28.63	1.7	3.5	NNW	0.00
 5/20/2003	 1:30a	16.0	-26.6	-26.6	-26.7	----	28	----	-26.5	28.62	1.7	2.6	NNW	0.00
 5/20/2003	 1:31a	16.0	-26.6	-26.6	-26.6	----	28	----	-26.4	28.62	2.6	3.5	NNW	0.00
 5/20/2003	 1:32a	16.0	-26.6	-26.5	-26.6	----	28	----	-26.4	28.62	2.6	3.5	NNW	0.00
 5/20/2003	 1:33a	16.0	-26.7	-26.7	-26.7	----	28	----	-26.6	28.62	2.6	3.5	NNW	0.00
 5/20/2003	 1:34a	16.0	-26.7	-26.7	-26.7	----	28	----	-26.6	28.62	1.7	2.6	NNW	0.00
 5/20/2003	 1:35a	16.0	-26.6	-26.6	-26.6	----	27	----	-26.5	28.62	0.9	2.6	NNW	0.00
 5/20/2003	 1:36a	16.0	-26.5	-26.5	-26.6	----	27	----	-26.4	28.63	0.9	2.6	NNW	0.00
 5/20/2003	 1:37a	16.0	-26.4	-26.4	-26.5	----	27	----	-26.4	28.62	2.6	3.5	NNW	0.00
 5/20/2003	 1:38a	16.0	-26.3	-26.3	-26.4	----	27	----	-26.3	28.63	2.6	3.5	NNW	0.00
 5/20/2003	 1:39a	16.0	-26.3	-26.3	-26.3	----	27	----	-26.2	28.62	1.7	2.6	NNW	0.00
 5/20/2003	 1:40a	16.0	-26.3	-26.3	-26.3	----	27	----	-26.3	28.63	1.7	1.7	NNW	0.00
 5/20/2003	 1:41a	16.0	-26.3	-26.3	-26.4	----	27	----	-26.3	28.62	0.9	3.5	NNW	0.00
 5/20/2003	 1:42a	16.0	-26.4	-26.3	-26.4	----	27	----	-26.3	28.62	2.6	3.5	NNW	0.00
 5/20/2003	 1:43a	16.0	-26.4	-26.4	-26.4	----	27	----	-26.3	28.62	1.7	3.5	NNW	0.00
 5/20/2003	 1:44a	16.0	-26.3	-26.2	-26.4	----	27	----	-26.2	28.62	0.0	0.0	----	0.00
 5/20/2003	 1:45a	15.9	-26.2	-26.2	-26.2	----	27	----	-26.1	28.62	0.0	0.0	----	0.00
 5/20/2003	 1:46a	15.9	-26.2	-26.2	-26.3	----	27	----	-26.1	28.62	0.0	0.0	----	0.00
 5/20/2003	 1:47a	16.0	-26.4	-26.3	-26.7	----	26	----	-26.3	28.62	0.0	0.9	NNW	0.00
 5/20/2003	 1:48a	16.0	-26.9	-26.7	-27.2	----	27	----	-26.9	28.62	1.7	3.5	NNW	0.00
 5/20/2003	 1:49a	16.0	-27.3	-27.2	-27.4	----	27	----	-27.3	28.62	2.6	3.5	NNW	0.00
 5/20/2003	 1:50a	16.0	-27.5	-27.4	-27.5	----	27	----	-27.4	28.62	2.6	3.5	NNW	0.00
 5/20/2003	 1:51a	16.0	-27.3	-27.3	-27.4	----	27	----	-27.3	28.62	3.5	3.5	NNW	0.00
 5/20/2003	 1:52a	15.9	-27.2	-27.1	-27.3	----	27	----	-27.1	28.62	2.6	4.3	NNW	0.00
 5/20/2003	 1:53a	15.9	-27.0	-26.9	-27.1	----	27	----	-26.9	28.62	2.6	2.6	NNW	0.00
 5/20/2003	 1:54a	15.9	-26.9	-26.8	-26.9	----	27	----	-26.8	28.62	2.6	3.5	NNW	0.00
 5/20/2003	 1:55a	15.9	-26.7	-26.7	-26.8	----	27	----	-26.6	28.62	3.5	3.5	NNW	0.00
 5/20/2003	 1:56a	15.9	-26.7	-26.7	-26.7	----	27	----	-26.6	28.62	3.5	4.3	NNW	0.00
 5/20/2003	 1:57a	15.9	-26.7	-26.7	-26.8	----	28	----	-26.6	28.62	3.5	4.3	NNW	0.00
 5/20/2003	 1:58a	15.9	-26.8	-26.8	-26.8	----	27	----	-26.8	28.62	2.6	3.5	NNW	0.00
 5/20/2003	 1:59a	15.9	-26.8	-26.8	-26.9	----	26	----	-26.8	28.62	2.6	3.5	NNW	0.00
 5/20/2003	 2:00a	15.9	-26.9	-26.9	-26.9	----	27	----	-26.8	28.62	2.6	3.5	NNW	0.00
 5/20/2003	 2:01a	15.9	-27.0	-27.0	-27.1	----	27	----	-26.9	28.61	3.5	3.5	NNW	0.00
 5/20/2003	 2:02a	15.9	-27.1	-27.1	-27.2	----	27	----	-27.0	28.61	3.5	4.3	NNW	0.00
 5/20/2003	 2:03a	15.9	-27.2	-27.2	-27.4	----	27	----	-27.1	28.61	4.3	4.3	N	0.00
 5/20/2003	 2:04a	15.9	-27.4	-27.4	-27.4	----	27	----	-27.4	28.61	4.3	5.2	N	0.00
 5/20/2003	 2:05a	15.9	-27.4	-27.3	-27.4	----	27	----	-27.3	28.61	4.3	5.2	NNE	0.00
 5/20/2003	 2:06a	15.9	-27.2	-26.9	-27.3	----	27	----	-27.1	28.61	4.3	4.3	NNE	0.00
 5/20/2003	 2:07a	15.9	-26.6	-26.3	-26.9	----	27	----	-26.4	28.61	4.3	4.3	NNE	0.00
 5/20/2003	 2:08a	15.9	-26.2	-26.2	-26.3	----	28	----	-26.1	28.61	3.5	4.3	NNE	0.00
 5/20/2003	 2:09a	15.9	-26.3	-26.2	-26.4	----	27	----	-26.3	28.61	2.6	3.5	NNE	0.00
 5/20/2003	 2:10a	15.9	-26.4	-26.3	-26.5	----	26	----	-26.4	28.61	2.6	4.3	NNE	0.00
 5/20/2003	 2:11a	15.9	-26.3	-26.3	-26.3	----	26	----	-26.2	28.61	1.7	2.6	NNE	0.00
 5/20/2003	 2:12a	15.9	-26.4	-26.3	-26.5	----	27	----	-26.3	28.61	0.9	1.7	NNE	0.00
 5/20/2003	 2:13a	15.9	-26.7	-26.6	-26.8	----	27	----	-26.6	28.61	1.7	2.6	NNE	0.00
 5/20/2003	 2:14a	15.9	-26.6	-26.5	-26.6	----	27	----	-26.4	28.61	1.7	3.5	NNE	0.00
 5/20/2003	 2:15a	15.9	-26.8	-26.6	-26.9	----	27	----	-26.7	28.61	2.6	3.5	NNE	0.00
 5/20/2003	 2:16a	15.9	-26.7	-26.3	-26.9	----	27	----	-26.6	28.61	1.7	2.6	NNE	0.00
 5/20/2003	 2:17a	15.9	-26.3	-26.3	-26.3	----	27	----	-26.3	28.61	0.9	1.7	NNE	0.00
 5/20/2003	 2:18a	15.9	-26.2	-26.2	-26.3	----	28	----	-26.1	28.61	0.9	1.7	NNE	0.00
 5/20/2003	 2:20a	15.9	-25.7	-25.6	-25.8	----	27	----	-25.6	28.61	0.0	0.0	----	0.00
 5/20/2003	 2:21a	15.9	-25.6	-25.5	-25.6	----	27	----	-25.4	28.61	0.0	0.0	----	0.00
 5/20/2003	 2:22a	15.9	-25.5	-25.5	-25.5	----	26	----	-25.4	28.61	0.0	0.0	----	0.00
 5/20/2003	 2:23a	15.9	-25.6	-25.5	-25.6	----	27	----	-25.4	28.61	0.0	0.0	----	0.00
 5/20/2003	 2:24a	15.9	-25.6	-25.6	-25.6	----	27	----	-25.4	28.61	0.0	1.7	NNE	0.00
 5/20/2003	 2:25a	15.9	-25.5	-25.4	-25.6	----	27	----	-25.4	28.61	1.7	2.6	NNE	0.00
 5/20/2003	 2:26a	15.9	-25.3	-25.2	-25.4	----	27	----	-25.2	28.61	1.7	2.6	NNE	0.00
 5/20/2003	 2:27a	15.9	-25.2	-25.2	-25.2	----	27	----	-25.1	28.61	1.7	2.6	NNE	0.00
 5/20/2003	 2:28a	15.9	-25.1	-25.1	-25.2	----	28	----	-25.0	28.60	1.7	2.6	NNE	0.00
 5/20/2003	 2:29a	15.9	-25.2	-25.1	-25.2	----	28	----	-25.1	28.61	0.0	0.9	NNE	0.00
 5/20/2003	 2:30a	15.9	-26.0	-25.2	-26.7	----	28	----	-25.9	28.60	1.7	3.5	NNE	0.00
 5/20/2003	 2:31a	15.9	-26.8	-26.7	-26.9	----	28	----	-26.8	28.60	1.7	2.6	NNE	0.00
 5/20/2003	 2:32a	15.9	-27.1	-26.9	-27.1	----	27	----	-26.9	28.60	2.6	3.5	NNE	0.00
 5/20/2003	 2:33a	15.9	-26.9	-26.7	-27.1	----	27	----	-26.9	28.60	1.7	2.6	NNE	0.00
 5/20/2003	 2:34a	15.9	-26.7	-26.7	-26.7	----	27	----	-26.6	28.60	1.7	2.6	NNE	0.00
 5/20/2003	 2:35a	15.9	-26.6	-26.6	-26.7	----	27	----	-26.5	28.60	0.9	1.7	NNE	0.00
 5/20/2003	 2:36a	15.9	-26.5	-26.4	-26.6	----	27	----	-26.4	28.61	1.7	1.7	NNE	0.00
 5/20/2003	 2:38a	15.9	-26.1	-26.0	-26.2	----	28	----	-25.9	28.60	0.9	1.7	NNE	0.00
 5/20/2003	 2:39a	15.9	-25.9	-25.8	-26.0	----	28	----	-25.8	28.60	0.9	1.7	NNE	0.00
 5/20/2003	 2:40a	15.9	-25.8	-25.8	-25.8	----	28	----	-25.8	28.60	0.0	0.0	----	0.00
 5/20/2003	 2:41a	15.9	-25.9	-25.8	-25.9	----	28	----	-25.8	28.60	0.0	0.9	NNE	0.00
 5/20/2003	 2:42a	15.9	-26.1	-25.9	-26.2	----	28	----	-25.9	28.60	0.9	1.7	NNE	0.00
 5/20/2003	 2:43a	15.9	-26.2	-26.2	-26.3	----	27	----	-26.1	28.60	0.9	1.7	NNE	0.00
 5/20/2003	 2:44a	15.9	-26.4	-26.3	-26.5	----	27	----	-26.3	28.60	0.9	0.9	NNE	0.00
 5/20/2003	 2:45a	15.9	-26.6	-26.5	-26.7	----	27	----	-26.5	28.60	0.0	0.9	NNE	0.00
 5/20/2003	 2:46a	16.0	-26.7	-26.6	-26.7	----	27	----	-26.6	28.60	0.0	0.9	----	0.00
 5/20/2003	 2:47a	16.0	-26.6	-26.5	-26.7	----	27	----	-26.5	28.60	0.0	0.0	----	0.00
 5/20/2003	 2:48a	16.0	-26.4	-26.3	-26.5	----	27	----	-26.3	28.61	0.0	0.0	----	0.00
 5/20/2003	 2:49a	16.0	-26.3	-26.2	-26.3	----	28	----	-26.2	28.60	0.0	0.0	----	0.00
 5/20/2003	 2:50a	16.0	-26.2	-26.2	-26.2	----	28	----	-26.1	28.60	0.0	0.0	----	0.00
 5/20/2003	 2:51a	16.0	-26.1	-25.9	-26.2	----	27	----	-25.9	28.60	0.0	0.0	----	0.00
 5/20/2003	 2:52a	16.0	-25.9	-25.9	-25.9	----	27	----	-25.9	28.60	0.0	0.9	----	0.00
 5/20/2003	 2:53a	16.0	-26.0	-26.0	-26.0	----	27	----	-25.9	28.60	0.0	0.0	----	0.00
 5/20/2003	 2:54a	16.0	-25.9	-25.9	-26.0	----	27	----	-25.9	28.60	0.0	0.0	----	0.00
 5/20/2003	 2:55a	16.0	-25.9	-25.9	-25.9	----	27	----	-25.8	28.60	0.0	0.0	----	0.00
 5/20/2003	 2:56a	16.0	-26.1	-25.9	-26.1	----	27	----	-25.9	28.60	0.0	0.0	----	0.00
 5/20/2003	 2:57a	16.0	-26.0	-25.9	-26.1	----	28	----	-25.9	28.60	0.0	0.0	----	0.00
 5/20/2003	 2:58a	16.0	-25.8	-25.8	-25.9	----	27	----	-25.8	28.60	0.0	0.0	----	0.00
 5/20/2003	 2:59a	16.0	-25.6	-25.6	-25.7	----	28	----	-25.5	28.60	0.0	0.0	----	0.00
 5/20/2003	 3:00a	16.0	-25.6	-25.6	-25.7	----	28	----	-25.5	28.60	0.0	0.0	----	0.00
 5/20/2003	 3:01a	16.0	-25.8	-25.8	-25.9	----	28	----	-25.8	28.60	0.0	0.0	----	0.00
 5/20/2003	 3:02a	16.0	-25.9	-25.9	-25.9	----	28	----	-25.9	28.60	0.0	0.0	----	0.00
 5/20/2003	 3:03a	16.0	-25.9	-25.8	-25.9	----	27	----	-25.8	28.60	0.0	0.0	----	0.00
 5/20/2003	 3:04a	16.0	-25.8	-25.7	-25.8	----	27	----	-25.7	28.59	0.0	0.0	----	0.00
 5/20/2003	 3:05a	16.0	-25.6	-25.6	-25.7	----	27	----	-25.5	28.59	0.0	0.0	----	0.00
 5/20/2003	 3:06a	16.0	-25.5	-25.4	-25.6	----	27	----	-25.4	28.59	0.0	0.0	----	0.00
 5/20/2003	 3:07a	16.0	-25.6	-25.4	-25.6	----	27	----	-25.4	28.59	0.0	0.9	----	0.00
 5/20/2003	 3:08a	16.0	-25.4	-25.4	-25.4	----	27	----	-25.3	28.59	0.0	1.7	NNE	0.00
 5/20/2003	 3:09a	16.0	-25.4	-25.3	-25.4	----	27	----	-25.3	28.59	0.9	1.7	NNE	0.00
 5/20/2003	 3:10a	16.0	-25.5	-25.4	-25.6	----	27	----	-25.4	28.59	0.9	1.7	NNE	0.00
 5/20/2003	 3:11a	16.0	-25.6	-25.6	-25.7	----	27	----	-25.5	28.59	1.7	1.7	NNE	0.00
 5/20/2003	 3:12a	16.0	-25.6	-25.5	-25.6	----	28	----	-25.4	28.59	1.7	2.6	NNE	0.00
 5/20/2003	 3:13a	16.0	-25.4	-25.3	-25.5	----	28	----	-25.3	28.58	1.7	2.6	NNE	0.00
 5/20/2003	 3:14a	16.0	-25.3	-25.3	-25.3	----	28	----	-25.2	28.59	1.7	2.6	NNE	0.00
 5/20/2003	 3:15a	16.0	-25.3	-25.3	-25.3	----	27	----	-25.3	28.59	1.7	1.7	NNE	0.00
 5/20/2003	 3:16a	16.0	-25.3	-25.3	-25.4	----	27	----	-25.3	28.58	1.7	2.6	NNE	0.00
 5/20/2003	 3:17a	16.0	-25.6	-25.6	-25.6	----	27	----	-25.4	28.58	1.7	1.7	NNE	0.00
 5/20/2003	 3:19a	16.0	-26.1	-25.5	-26.6	----	27	----	-25.9	28.58	0.9	2.6	NNE	0.00
 5/20/2003	 3:20a	16.0	-26.7	-26.6	-26.9	----	27	----	-26.6	28.59	1.7	2.6	NNE	0.00
 5/20/2003	 3:21a	16.0	-27.1	-26.9	-27.1	----	27	----	-26.9	28.58	1.7	4.3	NNE	0.00
 5/20/2003	 3:22a	16.0	-27.1	-26.9	-27.2	----	28	----	-27.0	28.58	3.5	4.3	NNE	0.00
 5/20/2003	 3:23a	16.0	-26.7	-26.6	-26.9	----	28	----	-26.6	28.58	2.6	3.5	NNE	0.00
 5/20/2003	 3:24a	16.0	-26.6	-26.6	-26.7	----	28	----	-26.5	28.58	1.7	3.5	NNE	0.00
 5/20/2003	 3:25a	16.0	-26.7	-26.6	-26.7	----	28	----	-26.6	28.58	0.9	1.7	NNE	0.00
 5/20/2003	 3:26a	16.0	-26.5	-26.3	-26.6	----	28	----	-26.4	28.58	0.9	1.7	NNE	0.00
 5/20/2003	 3:27a	16.0	-26.2	-26.1	-26.2	----	28	----	-26.1	28.58	1.7	2.6	NNE	0.00
 5/20/2003	 3:28a	16.0	-26.1	-26.0	-26.1	----	27	----	-25.9	28.58	1.7	2.6	NNE	0.00
 5/20/2003	 3:29a	16.0	-25.9	-25.8	-25.9	----	27	----	-25.8	28.58	2.6	2.6	NNE	0.00
 5/20/2003	 3:30a	16.0	-25.8	-25.8	-25.8	----	27	----	-25.7	28.58	1.7	2.6	NNE	0.00
 5/20/2003	 3:31a	16.0	-25.8	-25.7	-25.8	----	27	----	-25.7	28.58	1.7	3.5	NNE	0.00
 5/20/2003	 3:32a	16.0	-25.9	-25.8	-26.1	----	27	----	-25.9	28.58	1.7	2.6	NNE	0.00
 5/20/2003	 3:33a	16.0	-26.4	-26.1	-26.6	----	27	----	-26.3	28.58	1.7	3.5	NNE	0.00
 5/20/2003	 3:34a	16.0	-26.7	-26.6	-26.8	----	27	----	-26.6	28.58	0.9	1.7	NNE	0.00
 5/20/2003	 3:35a	16.0	-26.8	-26.8	-26.9	----	28	----	-26.8	28.58	0.9	1.7	NNE	0.00
 5/20/2003	 3:36a	16.0	-26.9	-26.9	-26.9	----	28	----	-26.8	28.58	0.9	1.7	NNE	0.00
 5/20/2003	 3:37a	16.0	-26.9	-26.8	-26.9	----	28	----	-26.8	28.58	1.7	2.6	NNE	0.00
 5/20/2003	 3:38a	15.9	-26.7	-26.6	-26.8	----	27	----	-26.6	28.58	1.7	2.6	NNE	0.00
 5/20/2003	 3:39a	15.9	-26.6	-26.5	-26.6	----	27	----	-26.4	28.58	2.6	2.6	NNE	0.00
 5/20/2003	 3:40a	16.0	-26.3	-25.9	-26.5	----	27	----	-26.2	28.58	2.6	3.5	NNE	0.00
 5/20/2003	 3:41a	16.0	-26.3	-25.9	-26.6	----	27	----	-26.2	28.58	4.3	6.1	NNE	0.00
 5/20/2003	 3:42a	16.0	-26.4	-25.9	-26.6	----	27	----	-26.4	28.58	3.5	5.2	N	0.00
 5/20/2003	 3:43a	15.9	-25.8	-25.6	-25.9	----	27	----	-25.8	28.58	2.6	3.5	N	0.00
 5/20/2003	 3:44a	15.9	-25.3	-25.1	-25.6	----	27	----	-25.3	28.58	1.7	2.6	N	0.00
 5/20/2003	 3:45a	15.9	-25.1	-25.0	-25.1	----	28	----	-24.9	28.58	0.0	0.9	N	0.00
 5/20/2003	 3:46a	15.9	-25.0	-25.0	-25.1	----	28	----	-24.9	28.58	0.9	1.7	N	0.00
 5/20/2003	 3:47a	15.9	-24.9	-24.8	-25.0	----	28	----	-24.9	28.58	0.9	1.7	N	0.00
 5/20/2003	 3:48a	15.9	-24.8	-24.7	-24.8	----	28	----	-24.7	28.58	0.9	1.7	N	0.00
 5/20/2003	 3:49a	15.9	-24.8	-24.7	-24.9	----	28	----	-24.8	28.58	0.9	0.9	N	0.00
 5/20/2003	 3:50a	15.9	-24.9	-24.9	-24.9	----	28	----	-24.8	28.58	0.0	0.0	----	0.00
 5/20/2003	 3:51a	15.9	-24.9	-24.9	-25.0	----	27	----	-24.9	28.58	0.0	0.0	----	0.00
 5/20/2003	 3:52a	15.9	-25.0	-24.9	-25.0	----	27	----	-24.9	28.58	0.0	0.0	----	0.00
 5/20/2003	 3:53a	15.9	-25.1	-25.1	-25.1	----	27	----	-24.9	28.58	0.0	0.0	----	0.00
 5/20/2003	 3:54a	15.9	-25.1	-25.1	-25.1	----	27	----	-24.9	28.58	0.0	0.0	----	0.00
 5/20/2003	 3:55a	15.9	-25.1	-25.1	-25.2	----	27	----	-25.0	28.58	0.0	0.0	----	0.00
 5/20/2003	 3:56a	15.9	-25.2	-25.2	-25.2	----	27	----	-25.1	28.58	0.0	0.0	----	0.00
 5/20/2003	 3:57a	15.9	-25.3	-25.2	-25.3	----	28	----	-25.2	28.58	0.0	0.0	----	0.00
 5/20/2003	 3:58a	15.9	-25.2	-25.2	-25.3	----	28	----	-25.1	28.58	0.0	1.7	N	0.00
 5/20/2003	 3:59a	15.9	-25.2	-25.1	-25.2	----	28	----	-25.1	28.58	0.9	1.7	N	0.00
 5/20/2003	 4:00a	15.9	-25.1	-25.1	-25.1	----	28	----	-25.0	28.58	1.7	1.7	N	0.00
 5/20/2003	 4:01a	15.9	-25.1	-25.0	-25.1	----	28	----	-24.9	28.58	0.9	1.7	N	0.00
 5/20/2003	 4:02a	15.9	-25.0	-24.9	-25.0	----	28	----	-24.9	28.58	0.0	0.9	N	0.00
 5/20/2003	 4:03a	15.9	-24.9	-24.9	-25.0	----	28	----	-24.9	28.58	0.0	0.0	----	0.00
 5/20/2003	 4:04a	15.9	-24.9	-24.9	-24.9	----	27	----	-24.8	28.58	0.0	0.0	----	0.00
 5/20/2003	 4:05a	15.9	-24.9	-24.9	-25.0	----	27	----	-24.9	28.58	0.0	0.0	----	0.00
 5/20/2003	 4:06a	15.9	-25.1	-25.0	-25.1	----	27	----	-24.9	28.58	0.0	0.0	----	0.00
 5/20/2003	 4:07a	15.9	-25.1	-25.1	-25.1	----	27	----	-25.0	28.58	0.0	1.7	N	0.00
 5/20/2003	 4:08a	15.9	-25.2	-25.1	-25.4	----	27	----	-25.1	28.58	1.7	2.6	N	0.00
 5/20/2003	 4:09a	15.9	-25.4	-25.4	-25.4	----	27	----	-25.3	28.58	1.7	2.6	N	0.00
 5/20/2003	 4:10a	15.9	-25.4	-25.4	-25.5	----	28	----	-25.4	28.58	1.7	2.6	N	0.00
 5/20/2003	 4:11a	15.9	-25.5	-25.4	-25.7	----	28	----	-25.4	28.58	0.9	1.7	N	0.00
 5/20/2003	 4:12a	15.9	-25.6	-25.3	-25.7	----	28	----	-25.4	28.58	0.9	2.6	N	0.00
 5/20/2003	 4:13a	15.9	-25.3	-25.2	-25.3	----	28	----	-25.2	28.58	0.0	0.0	----	0.00
 5/20/2003	 4:14a	15.9	-25.4	-25.2	-25.6	----	28	----	-25.3	28.58	0.0	0.0	----	0.00
 5/20/2003	 4:15a	15.9	-25.9	-25.8	-26.2	----	28	----	-25.9	28.58	0.0	0.9	N	0.00
 5/20/2003	 4:16a	15.9	-26.2	-26.1	-26.2	----	27	----	-26.1	28.57	1.7	2.6	N	0.00
 5/20/2003	 4:18a	15.9	-26.1	-25.9	-26.2	----	27	----	-25.9	28.57	2.6	3.5	N	0.00
 5/20/2003	 4:19a	15.9	-25.9	-25.8	-25.9	----	27	----	-25.8	28.57	3.5	4.3	N	0.00
 5/20/2003	 4:20a	15.9	-26.2	-25.9	-26.6	----	28	----	-26.1	28.57	4.3	5.2	N	0.00
 5/20/2003	 4:21a	15.9	-26.6	-26.5	-26.6	----	27	----	-26.4	28.57	3.5	5.2	N	0.00
 5/20/2003	 4:22a	15.9	-26.6	-26.5	-26.7	----	28	----	-26.4	28.57	4.3	5.2	N	0.00
 5/20/2003	 4:23a	15.9	-26.7	-26.6	-26.7	----	28	----	-32.0	28.57	6.1	7.0	N	0.00
 5/20/2003	 4:24a	15.9	-26.5	-26.4	-26.6	----	28	----	-31.9	28.57	6.1	7.0	N	0.00
 5/20/2003	 4:25a	15.9	-26.3	-26.3	-26.4	----	28	----	-26.3	28.57	4.3	6.1	N	0.00
 5/20/2003	 4:27a	15.9	-26.4	-26.4	-26.5	----	28	----	-26.4	28.57	2.6	3.5	NNE	0.00
 5/20/2003	 4:28a	15.9	-26.3	-26.1	-26.4	----	28	----	-26.2	28.57	2.6	3.5	NNE	0.00
 5/20/2003	 4:29a	15.9	-26.2	-26.1	-26.4	----	28	----	-26.1	28.57	2.6	3.5	NNE	0.00
 5/20/2003	 4:30a	15.9	-26.6	-26.4	-26.6	----	28	----	-26.4	28.57	1.7	2.6	NNE	0.00
 5/20/2003	 4:31a	15.9	-26.6	-26.6	-26.6	----	27	----	-26.5	28.57	0.9	1.7	NNE	0.00
 5/20/2003	 4:32a	15.9	-26.4	-26.3	-26.6	----	27	----	-26.3	28.57	0.9	1.7	NNE	0.00
 5/20/2003	 4:33a	15.9	-26.2	-26.2	-26.3	----	27	----	-26.1	28.57	0.9	1.7	NNE	0.00
 5/20/2003	 4:34a	15.9	-26.2	-25.9	-26.3	----	27	----	-26.1	28.57	1.7	1.7	NNE	0.00
 5/20/2003	 4:35a	15.9	-25.6	-25.3	-25.9	----	28	----	-25.5	28.57	1.7	2.6	NNE	0.00
 5/20/2003	 4:36a	15.9	-25.3	-25.2	-25.3	----	27	----	-25.2	28.57	1.7	2.6	NNE	0.00
 5/20/2003	 4:37a	15.9	-25.3	-25.3	-25.5	----	28	----	-25.3	28.57	1.7	2.6	NNE	0.00
 5/20/2003	 4:38a	15.9	-25.5	-25.4	-25.5	----	28	----	-25.4	28.57	1.7	2.6	NNE	0.00
 5/20/2003	 4:39a	15.9	-25.7	-25.5	-25.9	----	28	----	-25.6	28.57	1.7	2.6	NNE	0.00
 5/20/2003	 4:40a	15.9	-26.1	-25.9	-26.2	----	28	----	-25.9	28.57	1.7	2.6	NNE	0.00
 5/20/2003	 4:41a	15.9	-25.9	-25.6	-26.1	----	28	----	-25.8	28.57	1.7	1.7	NNE	0.00
 5/20/2003	 4:42a	15.9	-25.3	-25.2	-25.6	----	28	----	-25.3	28.57	1.7	2.6	NNE	0.00
 5/20/2003	 4:43a	15.9	-25.2	-25.1	-25.3	----	27	----	-25.1	28.57	1.7	2.6	NNE	0.00
 5/20/2003	 4:44a	15.9	-25.1	-25.0	-25.1	----	27	----	-24.9	28.57	0.9	1.7	NNE	0.00
 5/20/2003	 4:45a	15.9	-25.0	-24.9	-25.2	----	27	----	-24.9	28.57	0.9	2.6	NNE	0.00
 5/20/2003	 4:46a	15.9	-25.9	-25.2	-26.2	----	27	----	-25.9	28.57	1.7	3.5	NNE	0.00
 5/20/2003	 4:47a	15.9	-25.8	-25.7	-26.0	----	27	----	-25.8	28.57	0.9	1.7	NNE	0.00
 5/20/2003	 4:48a	15.9	-25.6	-25.5	-25.7	----	28	----	-25.5	28.57	0.0	0.0	----	0.00
 5/20/2003	 4:49a	15.9	-25.6	-25.5	-25.7	----	28	----	-25.5	28.57	1.7	2.6	NNE	0.00
 5/20/2003	 4:50a	15.9	-25.7	-25.7	-25.8	----	28	----	-25.6	28.57	0.9	1.7	NNE	0.00
 5/20/2003	 4:51a	15.9	-25.8	-25.8	-26.1	----	28	----	-25.7	28.56	0.9	2.6	NNE	0.00
 5/20/2003	 4:52a	15.9	-26.2	-26.1	-26.4	----	28	----	-26.1	28.56	3.5	5.2	NNE	0.00
 5/20/2003	 4:53a	15.9	-26.3	-26.1	-26.4	----	28	----	-26.3	28.57	1.7	3.5	NNE	0.00
 5/20/2003	 4:54a	15.9	-25.9	-25.7	-26.1	----	28	----	-25.9	28.56	0.0	0.0	----	0.00
 5/20/2003	 4:55a	15.9	-25.7	-25.6	-25.7	----	28	----	-25.6	28.56	0.0	0.9	NNE	0.00
 5/20/2003	 4:56a	15.9	-25.6	-25.6	-25.6	----	27	----	-25.4	28.57	1.7	2.6	NNE	0.00
 5/20/2003	 4:57a	15.9	-25.7	-25.7	-25.8	----	27	----	-25.6	28.57	2.6	3.5	NNE	0.00
 5/20/2003	 4:58a	15.9	-25.7	-25.7	-25.8	----	27	----	-25.6	28.56	0.0	0.9	NNE	0.00
 5/20/2003	 4:59a	15.9	-25.6	-25.4	-25.7	----	27	----	-25.5	28.57	0.9	2.6	NNE	0.00
 5/20/2003	 5:00a	15.9	-25.3	-25.1	-25.4	----	28	----	-25.3	28.56	1.7	1.7	NNE	0.00
 5/20/2003	 5:01a	15.9	-25.2	-25.1	-25.3	----	28	----	-25.1	28.56	0.0	1.7	NNE	0.00
 5/20/2003	 5:02a	15.9	-25.4	-25.3	-25.4	----	28	----	-25.3	28.57	0.0	0.0	----	0.00
 5/20/2003	 5:03a	15.9	-25.3	-25.3	-25.4	----	28	----	-25.3	28.56	0.0	0.9	NNE	0.00
 5/20/2003	 5:04a	15.9	-25.2	-25.2	-25.3	----	28	----	-25.1	28.56	0.0	0.9	NNE	0.00
 5/20/2003	 5:05a	15.9	-25.3	-25.3	-25.4	----	28	----	-25.2	28.56	1.7	2.6	NNE	0.00
 5/20/2003	 5:06a	15.9	-25.4	-25.4	-25.5	----	27	----	-25.4	28.56	0.9	2.6	NNE	0.00
 5/20/2003	 5:07a	15.9	-25.4	-25.4	-25.5	----	27	----	-25.4	28.56	0.0	0.0	----	0.00
 5/20/2003	 5:08a	15.9	-25.7	-25.4	-26.1	----	27	----	-25.6	28.56	1.7	2.6	NNE	0.00
 5/20/2003	 5:09a	15.9	-26.7	-26.6	-26.8	----	27	----	-26.6	28.56	2.6	3.5	NNE	0.00
 5/20/2003	 5:10a	15.9	-26.3	-26.2	-26.6	----	27	----	-26.3	28.56	0.0	1.7	NNE	0.00
 5/20/2003	 5:11a	15.9	-26.1	-26.1	-26.4	----	28	----	-26.0	28.56	0.0	0.9	NNE	0.00
 5/20/2003	 5:12a	15.9	-26.3	-26.2	-26.4	----	28	----	-26.3	28.56	0.0	0.9	NNE	0.00
 5/20/2003	 5:13a	15.9	-26.0	-25.8	-26.2	----	28	----	-25.9	28.56	0.9	4.3	NNE	0.00
 5/20/2003	 5:14a	15.9	-26.3	-26.1	-26.4	----	28	----	-26.3	28.56	3.5	4.3	NNE	0.00
 5/20/2003	 5:15a	15.9	-26.2	-25.9	-26.3	----	28	----	-26.1	28.56	2.6	3.5	NNE	0.00
 5/20/2003	 5:16a	15.9	-25.8	-25.7	-25.9	----	28	----	-25.8	28.56	1.7	2.6	NNE	0.00
 5/20/2003	 5:17a	15.9	-25.8	-25.7	-26.0	----	28	----	-25.8	28.56	1.7	2.6	NNE	0.00
 5/20/2003	 5:18a	15.9	-26.2	-26.0	-26.3	----	28	----	-26.1	28.56	3.5	4.3	NNE	0.00
 5/20/2003	 5:19a	15.9	-26.3	-26.3	-26.3	----	27	----	-26.2	28.56	3.5	4.3	NNE	0.00
 5/20/2003	 5:20a	15.9	-26.2	-25.9	-26.3	----	27	----	-26.1	28.56	3.5	3.5	NNE	0.00
 5/20/2003	 5:21a	16.0	-25.7	-25.5	-25.9	----	27	----	-25.6	28.56	2.6	2.6	NNE	0.00
 5/20/2003	 5:22a	16.0	-25.6	-25.4	-25.6	----	28	----	-25.4	28.56	2.6	2.6	NNE	0.00
 5/20/2003	 5:23a	16.0	-25.4	-25.4	-25.4	----	28	----	-25.4	28.56	1.7	2.6	NNE	0.00
 5/20/2003	 5:24a	16.0	-25.3	-25.3	-25.4	----	28	----	-25.3	28.56	2.6	2.6	NNE	0.00
 5/20/2003	 5:25a	16.0	-25.4	-25.2	-25.4	----	28	----	-25.3	28.56	2.6	2.6	NNE	0.00
 5/20/2003	 5:26a	16.0	-25.1	-25.0	-25.2	----	28	----	-25.0	28.56	1.7	2.6	NNE	0.00
 5/20/2003	 5:27a	16.0	-25.1	-25.0	-25.2	----	28	----	-24.9	28.56	1.7	2.6	NNE	0.00
 5/20/2003	 5:28a	16.0	-25.2	-25.1	-25.2	----	29	----	-25.1	28.56	2.6	3.5	NNE	0.00
 5/20/2003	 5:29a	16.0	-25.1	-25.1	-25.1	----	28	----	-24.9	28.56	2.6	3.5	NNE	0.00
 5/20/2003	 5:30a	16.0	-25.1	-25.1	-25.1	----	28	----	-25.0	28.56	1.7	2.6	NNE	0.00
 5/20/2003	 5:31a	16.1	-24.9	-24.9	-25.0	----	27	----	-24.9	28.56	0.9	2.6	NNE	0.00
 5/20/2003	 5:32a	16.1	-24.9	-24.8	-24.9	----	27	----	-24.8	28.56	0.9	0.9	NNE	0.00
 5/20/2003	 5:33a	16.1	-24.8	-24.8	-24.9	----	28	----	-24.8	28.56	0.0	0.9	NNE	0.00
 5/20/2003	 5:34a	16.1	-24.9	-24.8	-25.0	----	28	----	-24.8	28.56	0.0	0.0	----	0.00
 5/20/2003	 5:35a	16.1	-25.0	-25.0	-25.1	----	28	----	-24.9	28.56	0.0	0.0	----	0.00
 5/20/2003	 5:36a	16.1	-24.8	-24.7	-25.0	----	28	----	-24.8	28.56	0.0	0.0	----	0.00
 5/20/2003	 5:37a	16.1	-24.6	-24.5	-24.7	----	28	----	-24.5	28.56	0.0	0.0	----	0.00
 5/20/2003	 5:38a	16.1	-24.4	-24.4	-24.5	----	29	----	-24.4	28.56	0.0	0.0	----	0.00
 5/20/2003	 5:39a	16.1	-24.5	-24.4	-24.6	----	29	----	-24.4	28.56	0.0	0.0	----	0.00
 5/20/2003	 5:40a	16.1	-24.6	-24.6	-24.6	----	29	----	-24.5	28.56	0.0	0.0	----	0.00
 5/20/2003	 5:41a	16.1	-24.6	-24.6	-24.7	----	28	----	-24.5	28.56	0.9	1.7	NNE	0.00
 5/20/2003	 5:42a	16.1	-24.6	-24.5	-24.6	----	27	----	-24.4	28.56	0.9	1.7	NNE	0.00
 5/20/2003	 5:43a	16.1	-24.6	-24.5	-24.8	----	27	----	-24.5	28.56	0.9	1.7	NNE	0.00
 5/20/2003	 5:44a	16.2	-25.1	-24.8	-25.3	----	27	----	-25.0	28.56	0.9	1.7	NNE	0.00
 5/20/2003	 5:45a	16.1	-25.4	-25.3	-25.4	----	28	----	-25.3	28.56	0.0	1.7	NNE	0.00
 5/20/2003	 5:46a	16.1	-25.3	-25.3	-25.4	----	28	----	-25.3	28.55	1.7	1.7	NNE	0.00
 5/20/2003	 5:47a	16.2	-25.3	-25.2	-25.4	----	28	----	-25.2	28.55	0.9	1.7	NNE	0.00
 5/20/2003	 5:48a	16.2	-25.4	-25.3	-25.4	----	28	----	-25.3	28.55	0.9	0.9	NNE	0.00
 5/20/2003	 5:49a	16.2	-25.2	-25.2	-25.3	----	28	----	-25.1	28.55	0.0	0.9	NNE	0.00
 5/20/2003	 5:50a	16.2	-25.1	-25.1	-25.2	----	29	----	-25.0	28.55	0.9	1.7	NNE	0.00
 5/20/2003	 5:51a	16.1	-25.1	-24.9	-25.2	----	28	----	-24.9	28.55	0.0	0.9	NNE	0.00
 5/20/2003	 5:53a	16.2	-25.3	-25.2	-25.6	----	27	----	-25.3	28.55	1.7	1.7	NNE	0.00
 5/20/2003	 5:54a	16.2	-25.7	-25.6	-25.8	----	27	----	-25.6	28.55	1.7	1.7	NNE	0.00
 5/20/2003	 5:55a	16.2	-25.8	-25.8	-25.9	----	27	----	-25.8	28.55	1.7	2.6	NNE	0.00
 5/20/2003	 5:56a	16.2	-26.0	-26.0	-26.1	----	28	----	-25.9	28.55	2.6	2.6	NNE	0.00
 5/20/2003	 5:57a	16.2	-26.0	-26.0	-26.0	----	28	----	-25.9	28.55	2.6	3.5	NNE	0.00
 5/20/2003	 5:58a	16.2	-26.0	-26.0	-26.0	----	28	----	-25.9	28.55	2.6	3.5	NNE	0.00
 5/20/2003	 5:59a	16.2	-25.9	-25.9	-26.0	----	28	----	-25.9	28.55	2.6	4.3	NNE	0.00
 5/20/2003	 6:00a	16.2	-25.8	-25.7	-25.9	----	28	----	-25.7	28.55	1.7	3.5	NNE	0.00
 5/20/2003	 6:01a	16.2	-25.6	-25.3	-25.7	----	28	----	-25.4	28.55	1.7	2.6	NNE	0.00
 5/20/2003	 6:02a	16.2	-25.2	-25.1	-25.3	----	28	----	-25.1	28.55	0.9	2.6	NNE	0.00
 5/20/2003	 6:03a	16.2	-24.9	-24.8	-25.1	----	28	----	-24.8	28.55	0.0	0.9	NNE	0.00
 5/20/2003	 6:04a	16.2	-24.9	-24.9	-24.9	----	27	----	-24.9	28.55	0.0	0.9	NNE	0.00
 5/20/2003	 6:05a	16.2	-24.9	-24.9	-24.9	----	27	----	-24.9	28.56	0.0	0.9	NNE	0.00
 5/20/2003	 6:06a	16.2	-24.9	-24.9	-24.9	----	27	----	-24.9	28.55	0.0	0.9	NNE	0.00
 5/20/2003	 6:07a	16.2	-24.9	-24.9	-24.9	----	28	----	-24.8	28.55	0.9	2.6	NNE	0.00
 5/20/2003	 6:08a	16.2	-24.9	-24.9	-24.9	----	28	----	-24.8	28.55	0.9	1.7	NNE	0.00
 5/20/2003	 6:09a	16.2	-24.9	-24.9	-24.9	----	28	----	-24.8	28.55	0.9	1.7	NNE	0.00
 5/20/2003	 6:11a	16.2	-24.4	-24.3	-24.4	----	28	----	-24.3	28.55	0.9	1.7	NNE	0.00
 5/20/2003	 6:12a	16.2	-24.4	-24.4	-24.5	----	28	----	-24.4	28.55	0.9	0.9	NNE	0.00
 5/20/2003	 6:13a	16.2	-24.5	-24.5	-24.5	----	28	----	-24.4	28.55	1.7	2.6	NNE	0.00
 5/20/2003	 6:14a	16.2	-24.6	-24.5	-24.7	----	28	----	-24.5	28.55	1.7	2.6	NNE	0.00
 5/20/2003	 6:15a	16.2	-24.6	-24.6	-24.7	----	27	----	-24.4	28.56	0.9	1.7	NNE	0.00
 5/20/2003	 6:16a	16.2	-24.8	-24.7	-24.9	----	27	----	-24.7	28.56	0.0	0.9	NNE	0.00
 5/20/2003	 6:17a	16.2	-25.0	-24.9	-25.1	----	27	----	-24.9	28.56	0.0	0.0	----	0.00
 5/20/2003	 6:18a	16.2	-25.2	-25.1	-25.3	----	27	----	-25.1	28.55	0.0	0.0	----	0.00
 5/20/2003	 6:20a	16.2	-25.3	-25.3	-25.4	----	28	----	-25.3	28.55	0.0	0.0	----	0.00
 5/20/2003	 6:21a	16.2	-25.3	-25.3	-25.3	----	28	----	-25.3	28.55	0.0	0.0	----	0.00
 5/20/2003	 6:22a	16.2	-25.2	-25.2	-25.3	----	28	----	-25.1	28.55	0.0	0.0	----	0.00
 5/20/2003	 6:23a	16.2	-25.2	-25.2	-25.2	----	28	----	-25.1	28.55	0.0	0.0	----	0.00
 5/20/2003	 6:24a	16.2	-25.2	-25.2	-25.2	----	28	----	-25.1	28.56	0.0	0.0	----	0.00
 5/20/2003	 6:25a	16.2	-25.2	-25.2	-25.3	----	28	----	-25.1	28.56	0.9	1.7	NNE	0.00
 5/20/2003	 6:26a	16.2	-25.3	-25.3	-25.3	----	28	----	-25.3	28.55	0.9	1.7	NNE	0.00
 5/20/2003	 6:27a	16.2	-25.4	-25.3	-25.4	----	27	----	-25.3	28.56	0.9	1.7	NNE	0.00
 5/20/2003	 6:28a	16.2	-25.4	-25.4	-25.5	----	27	----	-25.4	28.56	0.0	0.9	NNE	0.00
 5/20/2003	 6:29a	16.2	-25.4	-25.4	-25.4	----	27	----	-25.3	28.55	0.9	1.7	NNE	0.00
 5/20/2003	 6:30a	16.2	-25.5	-25.4	-25.6	----	27	----	-25.4	28.55	0.9	1.7	NNE	0.00
 5/20/2003	 6:31a	16.2	-25.6	-25.6	-25.6	----	28	----	-25.4	28.55	0.9	1.7	NNE	0.00
 5/20/2003	 6:32a	16.2	-25.7	-25.6	-25.8	----	28	----	-25.6	28.55	1.7	2.6	NNE	0.00
 5/20/2003	 6:33a	16.2	-25.8	-25.7	-25.8	----	28	----	-25.7	28.55	1.7	2.6	NNE	0.00
 5/20/2003	 6:34a	16.2	-25.6	-25.4	-25.7	----	28	----	-25.5	28.55	1.7	2.6	NNE	0.00
 5/20/2003	 6:35a	16.2	-25.4	-25.4	-25.4	----	28	----	-25.3	28.55	0.9	1.7	NNE	0.00
 5/20/2003	 6:36a	16.2	-25.3	-25.3	-25.4	----	28	----	-25.3	28.55	1.7	1.7	NNE	0.00
 5/20/2003	 6:37a	16.2	-25.2	-25.2	-25.3	----	28	----	-25.1	28.55	0.9	1.7	NNE	0.00
 5/20/2003	 6:38a	16.2	-25.0	-24.8	-25.2	----	28	----	-24.9	28.55	1.7	2.6	NNE	0.00
 5/20/2003	 6:39a	16.2	-24.8	-24.7	-24.8	----	28	----	-24.7	28.55	2.6	3.5	NNE	0.00
 5/20/2003	 6:40a	16.2	-24.9	-24.8	-24.9	----	28	----	-24.8	28.55	3.5	4.3	NNE	0.00
 5/20/2003	 6:41a	16.2	-24.9	-24.9	-24.9	----	27	----	-24.9	28.55	3.5	4.3	NNE	0.00
 5/20/2003	 6:42a	16.2	-25.0	-24.9	-25.2	----	27	----	-24.9	28.55	2.6	4.3	NNE	0.00
 5/20/2003	 6:43a	16.2	-25.2	-25.2	-25.2	----	27	----	-25.1	28.55	3.5	4.3	NNE	0.00
 5/20/2003	 6:44a	16.2	-25.2	-25.2	-25.2	----	27	----	-25.1	28.55	2.6	4.3	NNE	0.00
 5/20/2003	 6:45a	16.2	-25.2	-25.2	-25.3	----	28	----	-25.1	28.55	3.5	4.3	NNE	0.00
 5/20/2003	 6:46a	16.2	-25.2	-25.2	-25.3	----	28	----	-25.1	28.54	2.6	3.5	NNE	0.00
 5/20/2003	 6:47a	16.2	-25.1	-25.1	-25.2	----	28	----	-25.0	28.55	2.6	4.3	NNE	0.00
 5/20/2003	 6:48a	16.2	-25.1	-25.1	-25.2	----	28	----	-25.0	28.55	3.5	4.3	NNE	0.00
 5/20/2003	 6:49a	16.2	-25.2	-25.2	-25.2	----	28	----	-25.1	28.55	2.6	4.3	NNE	0.00
 5/20/2003	 6:50a	16.2	-25.1	-24.9	-25.2	----	28	----	-25.0	28.55	2.6	3.5	NNE	0.00
 5/20/2003	 6:51a	16.2	-24.8	-24.6	-24.9	----	28	----	-24.7	28.54	1.7	3.5	NNE	0.00
 5/20/2003	 6:52a	16.2	-24.7	-24.6	-24.7	----	28	----	-24.6	28.54	0.9	2.6	NNE	0.00
 5/20/2003	 6:53a	16.2	-24.7	-24.7	-24.8	----	27	----	-24.6	28.54	1.7	2.6	NNE	0.00
 5/20/2003	 6:54a	16.2	-24.7	-24.7	-24.7	----	27	----	-24.6	28.54	0.9	1.7	NNE	0.00
 5/20/2003	 6:55a	16.2	-24.5	-24.4	-24.6	----	27	----	-24.4	28.54	1.7	2.6	NNE	0.00
 5/20/2003	 6:56a	16.2	-24.6	-24.4	-24.7	----	27	----	-24.4	28.54	1.7	2.6	NNE	0.00
 5/20/2003	 6:57a	16.2	-24.8	-24.7	-24.8	----	28	----	-24.7	28.54	1.7	2.6	NNE	0.00
 5/20/2003	 6:58a	16.2	-24.9	-24.8	-25.0	----	28	----	-24.8	28.54	2.6	4.3	NNE	0.00
 5/20/2003	 6:59a	16.2	-25.1	-25.0	-25.2	----	28	----	-25.0	28.54	2.6	3.5	NNE	0.00
 5/20/2003	 7:00a	16.2	-25.4	-25.2	-25.7	----	28	----	-25.4	28.54	2.6	3.5	NNE	0.00
 5/20/2003	 7:01a	16.2	-25.6	-25.6	-25.7	----	27	----	-25.5	28.54	1.7	2.6	NNE	0.00
 5/20/2003	 7:02a	16.2	-25.8	-25.7	-25.9	----	27	----	-25.7	28.54	1.7	2.6	NNE	0.00
 5/20/2003	 7:03a	16.2	-25.9	-25.9	-25.9	----	27	----	-25.8	28.54	0.9	2.6	NNE	0.00
 5/20/2003	 7:04a	16.2	-25.9	-25.8	-25.9	----	27	----	-25.8	28.54	0.9	1.7	NNE	0.00
 5/20/2003	 7:05a	16.2	-25.8	-25.4	-25.8	----	28	----	-25.7	28.54	1.7	3.5	NNE	0.00
 5/20/2003	 7:06a	16.2	-25.2	-24.8	-25.4	----	28	----	-25.1	28.54	1.7	2.6	NNE	0.00
 5/20/2003	 7:07a	16.2	-24.7	-24.6	-24.8	----	28	----	-24.6	28.54	0.9	1.7	NNE	0.00
 5/20/2003	 7:08a	16.2	-24.6	-24.5	-24.6	----	28	----	-24.4	28.54	0.0	0.9	NNE	0.00
 5/20/2003	 7:10a	16.2	-24.8	-24.7	-24.9	----	28	----	-24.8	28.55	0.0	0.9	----	0.00
 5/20/2003	 7:11a	16.2	-25.1	-25.0	-25.2	----	28	----	-24.9	28.55	0.9	0.9	NNE	0.00
 5/20/2003	 7:12a	16.2	-25.2	-25.2	-25.2	----	28	----	-25.1	28.55	0.0	0.0	----	0.00
 5/20/2003	 7:13a	16.2	-25.2	-25.2	-25.3	----	27	----	-25.1	28.55	0.0	0.0	----	0.00
 5/20/2003	 7:14a	16.2	-25.4	-25.3	-25.4	----	27	----	-25.3	28.55	0.0	0.0	----	0.00
 5/20/2003	 7:15a	16.2	-25.4	-25.4	-25.4	----	27	----	-25.3	28.55	0.0	0.0	----	0.00
 5/20/2003	 7:16a	16.2	-25.4	-25.4	-25.4	----	27	----	-25.3	28.55	0.0	0.9	NNE	0.00
 5/20/2003	 7:17a	16.2	-25.3	-25.3	-25.4	----	27	----	-25.3	28.55	0.0	0.9	NNE	0.00
 5/20/2003	 7:18a	16.2	-25.3	-25.3	-25.4	----	28	----	-25.3	28.55	0.0	0.0	----	0.00
 5/20/2003	 7:19a	16.2	-25.4	-25.4	-25.4	----	28	----	-25.4	28.55	0.0	0.0	----	0.00
 5/20/2003	 7:20a	16.2	-25.5	-25.5	-25.6	----	28	----	-25.4	28.55	0.0	0.0	----	0.00
 5/20/2003	 7:21a	16.2	-25.6	-25.6	-25.6	----	28	----	-25.5	28.55	0.0	0.0	----	0.00
 5/20/2003	 7:22a	16.2	-25.6	-25.6	-25.6	----	28	----	-25.5	28.55	0.0	0.0	----	0.00
 5/20/2003	 7:23a	16.2	-25.6	-25.6	-25.7	----	27	----	-25.5	28.55	0.0	0.9	NNE	0.00
 5/20/2003	 7:24a	16.2	-25.7	-25.7	-25.7	----	27	----	-25.6	28.55	1.7	2.6	NNE	0.00
 5/20/2003	 7:25a	16.3	-25.8	-25.7	-25.9	----	27	----	-25.8	28.55	1.7	2.6	NNE	0.00
 5/20/2003	 7:26a	16.2	-25.8	-25.7	-25.8	----	27	----	-25.7	28.55	1.7	2.6	NNE	0.00
 5/20/2003	 7:27a	16.2	-25.7	-25.7	-25.7	----	27	----	-25.6	28.54	1.7	2.6	NNE	0.00
 5/20/2003	 7:28a	16.2	-25.8	-25.7	-25.9	----	27	----	-25.7	28.55	2.6	3.5	NNE	0.00
 5/20/2003	 7:29a	16.2	-25.9	-25.9	-26.0	----	27	----	-25.9	28.54	3.5	3.5	NNE	0.00
 5/20/2003	 7:30a	16.2	-25.8	-25.7	-26.0	----	28	----	-25.8	28.55	2.6	3.5	NNE	0.00
 5/20/2003	 7:31a	16.2	-25.7	-25.7	-25.7	----	28	----	-25.6	28.55	2.6	3.5	NNE	0.00
 5/20/2003	 7:32a	16.2	-25.6	-25.4	-25.7	----	28	----	-25.4	28.54	2.6	3.5	NNE	0.00
 5/20/2003	 7:33a	16.2	-25.3	-25.2	-25.4	----	28	----	-25.2	28.55	2.6	3.5	NNE	0.00
 5/20/2003	 7:34a	16.2	-25.3	-25.2	-25.4	----	28	----	-25.3	28.55	2.6	3.5	NNE	0.00
 5/20/2003	 7:35a	16.2	-25.6	-25.4	-25.7	----	28	----	-25.4	28.55	3.5	4.3	NNE	0.00
 5/20/2003	 7:36a	16.2	-25.8	-25.7	-25.9	----	27	----	-25.8	28.55	3.5	4.3	NNE	0.00
 5/20/2003	 7:37a	16.2	-26.0	-25.9	-26.1	----	27	----	-25.9	28.55	3.5	4.3	NNE	0.00
 5/20/2003	 7:38a	16.2	-26.1	-26.1	-26.2	----	27	----	-26.0	28.55	2.6	4.3	NNE	0.00
 5/20/2003	 7:39a	16.3	-26.0	-25.8	-26.2	----	27	----	-25.9	28.54	3.5	3.5	NNE	0.00
 5/20/2003	 7:40a	16.2	-25.8	-25.8	-25.8	----	27	----	-25.8	28.55	3.5	4.3	NNE	0.00
 5/20/2003	 7:41a	16.2	-25.7	-25.4	-25.8	----	28	----	-25.6	28.55	2.6	4.3	NNE	0.00
 5/20/2003	 7:42a	16.2	-25.3	-25.3	-25.4	----	28	----	-25.3	28.55	2.6	3.5	NNE	0.00
 5/20/2003	 7:43a	16.2	-25.4	-25.3	-25.4	----	28	----	-25.3	28.55	1.7	3.5	NNE	0.00
 5/20/2003	 7:44a	16.2	-25.4	-25.2	-25.4	----	28	----	-25.3	28.55	2.6	3.5	NNE	0.00
 5/20/2003	 7:45a	16.2	-25.2	-25.1	-25.2	----	28	----	-25.1	28.55	1.7	2.6	NNE	0.00
 5/20/2003	 7:46a	16.2	-24.9	-24.8	-25.1	----	27	----	-24.8	28.55	2.6	3.5	NNE	0.00
 5/20/2003	 7:47a	16.2	-25.0	-24.8	-25.3	----	27	----	-24.9	28.55	2.6	3.5	NNE	0.00
 5/20/2003	 7:48a	16.2	-25.4	-25.3	-25.4	----	27	----	-25.3	28.55	2.6	3.5	NNE	0.00
 5/20/2003	 7:49a	16.2	-25.5	-25.4	-25.6	----	27	----	-25.4	28.55	2.6	3.5	NNE	0.00
 5/20/2003	 7:50a	16.2	-25.6	-25.5	-25.6	----	28	----	-25.4	28.55	2.6	2.6	NNE	0.00
 5/20/2003	 7:51a	16.2	-25.6	-25.6	-25.6	----	28	----	-25.5	28.55	1.7	2.6	NNE	0.00
 5/20/2003	 7:52a	16.2	-25.6	-25.6	-25.6	----	28	----	-25.5	28.55	2.6	3.5	NNE	0.00
 5/20/2003	 7:53a	16.2	-25.7	-25.6	-25.8	----	28	----	-25.6	28.55	2.6	3.5	NNE	0.00
 5/20/2003	 7:54a	16.2	-25.8	-25.8	-25.8	----	28	----	-25.7	28.55	2.6	3.5	NNE	0.00
 5/20/2003	 7:55a	16.2	-25.7	-25.6	-25.8	----	28	----	-25.6	28.54	2.6	3.5	NNE	0.00
 5/20/2003	 7:56a	16.2	-25.6	-25.5	-25.6	----	28	----	-25.4	28.55	2.6	3.5	NNE	0.00
 5/20/2003	 7:57a	16.2	-25.4	-25.4	-25.5	----	27	----	-25.4	28.55	2.6	3.5	NNE	0.00
 5/20/2003	 7:58a	16.2	-25.3	-25.3	-25.4	----	27	----	-25.3	28.55	2.6	3.5	NNE	0.00
 5/20/2003	 7:59a	16.2	-25.3	-25.3	-25.4	----	27	----	-25.3	28.55	3.5	3.5	NNE	0.00
 5/20/2003	 8:00a	16.2	-25.2	-25.1	-25.3	----	27	----	-25.1	28.55	2.6	3.5	NNE	0.00
 5/20/2003	 8:01a	16.2	-25.2	-25.1	-25.2	----	27	----	-25.1	28.55	2.6	2.6	NNE	0.00
 5/20/2003	 8:02a	16.2	-25.2	-25.2	-25.2	----	28	----	-25.1	28.55	1.7	2.6	NNE	0.00
 5/20/2003	 8:03a	16.2	-25.2	-25.1	-25.2	----	28	----	-25.1	28.55	1.7	2.6	NNE	0.00
 5/20/2003	 8:04a	16.2	-25.3	-25.2	-25.3	----	28	----	-25.2	28.55	1.7	2.6	NNE	0.00
 5/20/2003	 8:05a	16.2	-25.3	-25.3	-25.4	----	28	----	-25.3	28.55	1.7	2.6	NNE	0.00
 5/20/2003	 8:06a	16.2	-25.4	-25.4	-25.5	----	28	----	-25.4	28.55	1.7	2.6	NNE	0.00
 5/20/2003	 8:07a	16.2	-25.4	-25.4	-25.5	----	28	----	-25.4	28.55	2.6	2.6	NNE	0.00
 5/20/2003	 8:08a	16.2	-25.3	-25.3	-25.4	----	28	----	-25.3	28.55	2.6	3.5	NNE	0.00
 5/20/2003	 8:09a	16.2	-25.3	-25.3	-25.3	----	28	----	-25.3	28.55	3.5	4.3	NNE	0.00
 5/20/2003	 8:10a	16.2	-25.4	-25.3	-25.4	----	27	----	-25.3	28.55	3.5	5.2	NNE	0.00
 5/20/2003	 8:11a	16.2	-25.7	-25.4	-26.0	----	27	----	-25.6	28.55	4.3	5.2	NNE	0.00
 5/20/2003	 8:12a	16.2	-26.1	-26.0	-26.2	----	27	----	-26.0	28.55	4.3	5.2	NNE	0.00
 5/20/2003	 8:13a	16.2	-26.1	-25.9	-26.1	----	27	----	-25.9	28.55	4.3	4.3	NNE	0.00
 5/20/2003	 8:14a	16.2	-26.1	-26.1	-26.2	----	27	----	-26.0	28.55	3.5	4.3	NNE	0.00
 5/20/2003	 8:15a	16.2	-26.1	-26.0	-26.1	----	27	----	-25.9	28.55	3.5	4.3	NNE	0.00
 5/20/2003	 8:16a	16.2	-26.0	-26.0	-26.1	----	28	----	-25.9	28.55	4.3	5.2	NNE	0.00
 5/20/2003	 8:18a	16.2	-25.7	-25.7	-25.8	----	28	----	-25.6	28.55	3.5	4.3	NNE	0.00
 5/20/2003	 8:19a	16.2	-25.7	-25.7	-25.7	----	28	----	-25.6	28.55	1.7	3.5	NNE	0.00
 5/20/2003	 8:20a	16.2	-25.9	-25.7	-26.2	----	27	----	-25.8	28.55	2.6	3.5	NNE	0.00
 5/20/2003	 8:21a	16.2	-26.3	-26.2	-26.4	----	27	----	-26.2	28.55	2.6	3.5	NNE	0.00
 5/20/2003	 8:22a	16.3	-26.6	-26.4	-26.8	----	27	----	-26.5	28.55	1.7	2.6	NNE	0.00
 5/20/2003	 8:23a	16.3	-27.1	-26.9	-27.2	----	27	----	-26.9	28.55	0.9	1.7	NNE	0.00
 5/20/2003	 8:24a	16.2	-27.3	-27.2	-27.3	----	27	----	-27.2	28.55	0.0	1.7	NNE	0.00
 5/20/2003	 8:25a	16.3	-27.3	-27.2	-27.3	----	28	----	-27.3	28.55	0.0	0.0	----	0.00
 5/20/2003	 8:26a	16.2	-27.0	-26.8	-27.2	----	28	----	-26.9	28.55	0.0	1.7	NNE	0.00
 5/20/2003	 8:27a	16.2	-26.8	-26.8	-26.8	----	28	----	-26.8	28.55	0.0	0.9	NNE	0.00
 5/20/2003	 8:28a	16.2	-26.8	-26.7	-26.8	----	28	----	-26.7	28.55	0.9	1.7	NNE	0.00
 5/20/2003	 8:29a	16.2	-26.7	-26.7	-26.8	----	28	----	-26.6	28.55	0.9	1.7	NNE	0.00
 5/20/2003	 8:30a	16.2	-26.6	-26.6	-26.7	----	28	----	-26.5	28.55	0.0	0.9	NNE	0.00
 5/20/2003	 8:31a	16.2	-26.4	-26.4	-26.5	----	27	----	-26.4	28.55	0.0	0.9	NNE	0.00
 5/20/2003	 8:32a	16.2	-26.1	-25.8	-26.4	----	27	----	-26.0	28.55	0.0	0.0	----	0.00
 5/20/2003	 8:33a	16.3	-25.6	-25.5	-25.8	----	27	----	-25.5	28.55	0.0	0.0	----	0.00
 5/20/2003	 8:34a	16.3	-25.5	-25.5	-25.6	----	27	----	-25.4	28.55	0.0	0.0	----	0.00
 5/20/2003	 8:35a	16.3	-25.5	-25.4	-25.6	----	27	----	-25.4	28.55	0.0	0.0	----	0.00
 5/20/2003	 8:36a	16.2	-25.4	-25.4	-25.4	----	28	----	-25.3	28.55	0.0	0.0	----	0.00
 5/20/2003	 8:37a	16.2	-25.3	-25.3	-25.4	----	28	----	-25.3	28.55	0.0	0.0	----	0.00
 5/20/2003	 8:38a	16.2	-25.2	-25.1	-25.3	----	28	----	-25.1	28.55	0.9	1.7	NNE	0.00
 5/20/2003	 8:39a	16.2	-25.1	-24.9	-25.1	----	28	----	-24.9	28.55	0.0	0.9	NNE	0.00
 5/20/2003	 8:40a	16.3	-24.9	-24.9	-24.9	----	27	----	-24.9	28.55	0.0	0.0	----	0.00
 5/20/2003	 8:41a	16.3	-25.2	-25.1	-25.4	----	27	----	-25.1	28.55	0.0	0.0	----	0.00
 5/20/2003	 8:42a	16.3	-25.4	-25.4	-25.5	----	27	----	-25.4	28.55	0.0	0.0	----	0.00
 5/20/2003	 8:43a	16.3	-25.3	-25.3	-25.4	----	27	----	-25.3	28.55	0.0	0.0	----	0.00
 5/20/2003	 8:45a	16.3	-25.2	-25.1	-25.2	----	27	----	-25.1	28.55	0.0	0.0	----	0.00
 5/20/2003	 8:46a	16.2	-25.1	-25.0	-25.1	----	27	----	-24.9	28.55	0.0	0.0	----	0.00
 5/20/2003	 8:47a	16.2	-24.9	-24.8	-25.0	----	28	----	-24.9	28.55	0.0	0.0	----	0.00
 5/20/2003	 8:48a	16.2	-24.8	-24.8	-24.8	----	28	----	-24.8	28.55	0.0	0.0	----	0.00
 5/20/2003	 8:49a	16.2	-24.8	-24.8	-24.9	----	28	----	-24.8	28.55	0.0	0.0	----	0.00
 5/20/2003	 8:50a	16.2	-24.9	-24.9	-24.9	----	28	----	-24.8	28.55	0.0	0.0	----	0.00
 5/20/2003	 8:51a	16.2	-25.0	-24.9	-25.1	----	28	----	-24.9	28.55	0.0	0.0	----	0.00
 5/20/2003	 8:52a	16.2	-25.1	-25.1	-25.1	----	27	----	-25.0	28.55	0.0	0.0	----	0.00
 5/20/2003	 8:54a	16.3	-25.3	-25.1	-25.8	----	27	----	-25.3	28.55	0.0	0.0	----	0.00
 5/20/2003	 8:55a	16.3	-26.0	-25.8	-26.2	----	27	----	-25.9	28.55	0.0	0.9	NNE	0.00
 5/20/2003	 8:56a	16.3	-26.4	-26.2	-26.5	----	27	----	-26.3	28.55	0.9	1.7	NNE	0.00
 5/20/2003	 8:57a	16.3	-26.6	-26.6	-26.6	----	28	----	-26.4	28.55	0.0	0.9	NNE	0.00
 5/20/2003	 8:58a	16.3	-26.5	-26.4	-26.6	----	28	----	-26.4	28.55	0.9	1.7	NNE	0.00
 5/20/2003	 8:59a	16.3	-26.4	-26.4	-26.4	----	28	----	-26.3	28.55	1.7	2.6	NNE	0.00
 5/20/2003	 9:00a	16.3	-26.4	-26.3	-26.4	----	28	----	-26.3	28.55	1.7	2.6	NNE	0.00
 5/20/2003	 9:01a	16.2	-26.4	-26.4	-26.4	----	28	----	-26.3	28.55	1.7	2.6	NNE	0.00
 5/20/2003	 9:02a	16.3	-26.3	-26.3	-26.4	----	28	----	-26.3	28.55	1.7	2.6	NNE	0.00
 5/20/2003	 9:03a	16.3	-26.4	-26.4	-26.5	----	28	----	-26.4	28.55	0.9	1.7	NNE	0.00
 5/20/2003	 9:04a	16.3	-26.5	-26.5	-26.5	----	27	----	-26.4	28.56	1.7	1.7	NNE	0.00
 5/20/2003	 9:05a	16.3	-26.6	-26.5	-26.6	----	27	----	-26.4	28.56	1.7	1.7	NNE	0.00
 5/20/2003	 9:06a	16.3	-26.7	-26.6	-26.7	----	27	----	-26.6	28.55	0.9	1.7	NNE	0.00
 5/20/2003	 9:07a	16.3	-26.7	-26.6	-26.7	----	27	----	-26.6	28.55	1.7	2.6	NNE	0.00
 5/20/2003	 9:08a	16.3	-26.5	-26.4	-26.6	----	28	----	-26.4	28.56	1.7	2.6	NNE	0.00
 5/20/2003	 9:09a	16.3	-26.3	-26.2	-26.4	----	28	----	-26.2	28.56	0.9	1.7	NNE	0.00
 5/20/2003	 9:10a	16.3	-26.1	-26.0	-26.2	----	28	----	-25.9	28.55	0.9	1.7	NNE	0.00
 5/20/2003	 9:11a	16.2	-25.8	-25.6	-25.8	----	28	----	-25.7	28.56	1.7	2.6	NNE	0.00
 5/20/2003	 9:12a	16.2	-25.4	-25.4	-25.6	----	28	----	-25.4	28.56	1.7	2.6	NNE	0.00
 5/20/2003	 9:13a	16.2	-25.5	-25.4	-25.6	----	28	----	-25.4	28.56	1.7	2.6	NNE	0.00
 5/20/2003	 9:14a	16.2	-25.6	-25.6	-25.7	----	28	----	-25.5	28.56	1.7	1.7	NNE	0.00
 5/20/2003	 9:15a	16.2	-25.6	-25.6	-25.7	----	27	----	-25.5	28.56	1.7	2.6	NNE	0.00
 5/20/2003	 9:16a	16.2	-25.7	-25.6	-25.7	----	27	----	-25.6	28.56	1.7	1.7	NNE	0.00
 5/20/2003	 9:17a	16.2	-25.6	-25.6	-25.7	----	27	----	-25.5	28.55	1.7	2.6	NNE	0.00
 5/20/2003	 9:18a	16.2	-25.6	-25.6	-25.6	----	26	----	-25.5	28.55	1.7	2.6	NNE	0.00
 5/20/2003	 9:19a	16.2	-25.5	-25.4	-25.5	----	27	----	-25.4	28.56	2.6	3.5	NNE	0.00
 5/20/2003	 9:20a	16.1	-25.4	-25.4	-25.4	----	27	----	-25.3	28.56	2.6	4.3	NNE	0.00
 5/20/2003	 9:21a	16.1	-25.4	-25.4	-25.4	----	27	----	-25.4	28.55	1.7	2.6	NNE	0.00
 5/20/2003	 9:22a	16.1	-25.4	-25.3	-25.6	----	27	----	-25.4	28.56	3.5	4.3	NNE	0.00
 5/20/2003	 9:23a	16.1	-25.7	-25.6	-25.8	----	27	----	-25.6	28.56	2.6	4.3	NNE	0.00
 5/20/2003	 9:24a	16.0	-25.8	-25.8	-26.0	----	27	----	-25.8	28.56	4.3	4.3	NNE	0.00
 5/20/2003	 9:25a	16.0	-26.1	-26.0	-26.2	----	27	----	-26.0	28.56	3.5	5.2	NNE	0.00
 5/20/2003	 9:26a	16.0	-26.3	-26.2	-26.4	----	28	----	-26.3	28.56	4.3	5.2	NNE	0.00
 5/20/2003	 9:27a	15.9	-26.5	-26.4	-26.7	----	28	----	-26.4	28.56	4.3	5.2	NNE	0.00
 5/20/2003	 9:28a	15.9	-26.7	-26.7	-26.7	----	27	----	-26.6	28.56	4.3	5.2	NNE	0.00
 5/20/2003	 9:29a	15.9	-26.8	-26.7	-26.8	----	28	----	-30.0	28.56	5.2	6.1	NNE	0.00
 5/20/2003	 9:30a	15.9	-26.6	-26.4	-26.7	----	27	----	-26.5	28.56	4.3	6.1	NNE	0.00
 5/20/2003	 9:31a	15.8	-26.3	-26.2	-26.4	----	27	----	-26.3	28.55	3.5	4.3	NNE	0.00
 5/20/2003	 9:32a	15.8	-26.2	-26.1	-26.2	----	26	----	-26.1	28.56	2.6	2.6	NNE	0.00
 5/20/2003	 9:33a	15.8	-26.1	-26.1	-26.2	----	26	----	-26.0	28.56	0.9	1.7	NNE	0.00
 5/20/2003	 9:34a	15.8	-25.9	-25.8	-26.1	----	27	----	-25.8	28.56	0.9	1.7	NNE	0.00
 5/20/2003	 9:35a	15.7	-25.7	-25.7	-25.8	----	27	----	-25.6	28.56	0.0	0.9	NNE	0.00
 5/20/2003	 9:36a	15.7	-25.8	-25.7	-25.8	----	27	----	-25.7	28.56	0.0	0.0	----	0.00
 5/20/2003	 9:37a	15.7	-25.8	-25.7	-25.8	----	27	----	-25.7	28.56	0.0	0.0	----	0.00
 5/20/2003	 9:38a	15.7	-25.8	-25.8	-25.8	----	27	----	-25.8	28.56	0.0	0.0	----	0.00
 5/20/2003	 9:39a	15.6	-25.7	-25.6	-25.8	----	28	----	-25.6	28.56	0.0	0.0	----	0.00
 5/20/2003	 9:40a	15.6	-25.6	-25.6	-25.7	----	28	----	-25.5	28.55	0.0	0.0	----	0.00
 5/20/2003	 9:41a	15.6	-25.7	-25.7	-25.7	----	28	----	-25.6	28.56	0.0	0.0	----	0.00
 5/20/2003	 9:42a	15.6	-25.7	-25.7	-25.7	----	27	----	-25.6	28.56	0.0	0.0	----	0.00
 5/20/2003	 9:43a	15.6	-25.7	-25.7	-25.7	----	27	----	-25.6	28.56	0.0	0.0	----	0.00
 5/20/2003	 9:44a	15.6	-25.6	-25.6	-25.7	----	27	----	-25.5	28.56	0.0	0.0	----	0.00
 5/20/2003	 9:45a	15.6	-25.8	-25.6	-25.9	----	27	----	-25.7	28.56	0.0	0.9	NNE	0.00
 5/20/2003	 9:46a	15.6	-26.0	-25.9	-26.0	----	27	----	-25.9	28.56	0.9	1.7	NNE	0.00
 5/20/2003	 9:47a	15.6	-26.1	-26.1	-26.1	----	28	----	-25.9	28.56	0.9	1.7	NNE	0.00
 5/20/2003	 9:48a	15.6	-26.2	-26.1	-26.2	----	28	----	-26.1	28.56	0.9	1.7	NNE	0.00
 5/20/2003	 9:49a	15.6	-26.3	-26.3	-26.4	----	28	----	-26.2	28.56	0.9	1.7	NNE	0.00
 5/20/2003	 9:50a	15.6	-26.5	-26.4	-26.6	----	28	----	-26.4	28.56	1.7	1.7	NNE	0.00
 5/20/2003	 9:51a	15.6	-26.7	-26.6	-26.7	----	27	----	-26.6	28.56	1.7	1.7	NNE	0.00
 5/20/2003	 9:52a	15.6	-26.7	-26.6	-26.7	----	27	----	-26.6	28.56	1.7	2.6	NNE	0.00
 5/20/2003	 9:53a	15.6	-26.6	-26.4	-26.6	----	27	----	-26.4	28.55	1.7	2.6	NNE	0.00
 5/20/2003	 9:54a	15.6	-26.5	-26.4	-26.5	----	27	----	-26.4	28.55	0.9	1.7	NNE	0.00
 5/20/2003	 9:55a	15.6	-26.4	-26.3	-26.4	----	28	----	-26.4	28.55	1.7	2.6	NNE	0.00
 5/20/2003	 9:56a	15.6	-26.3	-26.2	-26.3	----	28	----	-26.2	28.55	1.7	2.6	NNE	0.00
 5/20/2003	 9:57a	15.6	-26.2	-26.2	-26.3	----	28	----	-26.1	28.56	1.7	2.6	NNE	0.00
 5/20/2003	 9:58a	15.6	-26.4	-26.3	-26.4	----	28	----	-26.3	28.56	0.9	1.7	NNE	0.00
 5/20/2003	 9:59a	15.6	-26.6	-26.4	-26.6	----	28	----	-26.4	28.56	0.0	0.9	NNE	0.00
 5/20/2003	10:00a	15.6	-26.6	-26.6	-26.6	----	28	----	-26.5	28.55	0.9	0.9	NNE	0.00
 5/20/2003	10:01a	15.6	-26.7	-26.6	-26.8	----	27	----	-26.6	28.55	1.7	1.7	NNE	0.00
 5/20/2003	10:02a	15.6	-26.8	-26.8	-26.9	----	27	----	-26.8	28.55	2.6	3.5	NNE	0.00
 5/20/2003	10:03a	15.6	-26.9	-26.9	-26.9	----	27	----	-26.8	28.55	2.6	3.5	NNE	0.00
 5/20/2003	10:04a	15.6	-26.9	-26.8	-26.9	----	27	----	-26.8	28.55	2.6	4.3	NNE	0.00
 5/20/2003	10:05a	15.6	-26.4	-25.8	-26.8	----	27	----	-26.3	28.55	1.7	2.6	NNE	0.00
 5/20/2003	10:06a	15.6	-25.3	-24.7	-25.8	----	28	----	-25.3	28.55	1.7	2.6	NNE	0.00
 5/20/2003	10:07a	15.6	-24.6	-24.6	-24.7	----	28	----	-24.5	28.55	0.9	1.7	NNE	0.00
 5/20/2003	10:08a	15.6	-24.7	-24.6	-24.8	----	28	----	-24.6	28.56	0.9	1.7	NNE	0.00
 5/20/2003	10:09a	15.6	-24.7	-24.6	-24.8	----	28	----	-24.6	28.55	2.6	3.5	NNE	0.00
 5/20/2003	10:11a	15.6	-24.2	-24.1	-24.3	----	27	----	-24.1	28.55	1.7	3.5	N	0.00
 5/20/2003	10:12a	15.7	-24.0	-23.9	-24.1	----	27	----	-23.9	28.56	0.9	1.7	N	0.00
 5/20/2003	10:13a	15.7	-23.8	-23.8	-23.9	----	27	----	-23.8	28.55	0.9	2.6	N	0.00
 5/20/2003	10:14a	15.7	-23.7	-23.6	-23.7	----	28	----	-23.6	28.56	0.0	0.9	N	0.00
 5/20/2003	10:15a	15.7	-23.7	-23.7	-23.7	----	28	----	-23.6	28.56	0.0	0.9	----	0.00
 5/20/2003	10:16a	15.7	-23.7	-23.7	-23.8	----	28	----	-23.6	28.55	0.0	0.0	----	0.00
 5/20/2003	10:17a	15.7	-24.2	-23.9	-24.8	----	28	----	-24.1	28.56	0.0	0.9	N	0.00
 5/20/2003	10:18a	15.7	-25.2	-24.8	-25.4	----	28	----	-25.1	28.55	0.0	1.7	N	0.00
 5/20/2003	10:19a	15.7	-25.7	-25.7	-25.9	----	29	----	-25.6	28.55	0.0	0.9	N	0.00
 5/20/2003	10:20a	15.7	-26.0	-25.9	-26.0	----	28	----	-25.9	28.56	0.9	1.7	N	0.00
 5/20/2003	10:21a	15.8	-26.0	-25.9	-26.0	----	28	----	-25.9	28.55	0.9	0.9	N	0.00
 5/20/2003	10:22a	15.8	-26.0	-25.9	-26.1	----	27	----	-25.9	28.55	0.9	0.9	N	0.00
 5/20/2003	10:23a	15.8	-25.8	-25.7	-25.9	----	27	----	-25.7	28.55	1.7	2.6	N	0.00
 5/20/2003	10:24a	15.8	-25.7	-25.7	-25.7	----	27	----	-25.6	28.55	2.6	3.5	N	0.00
 5/20/2003	10:25a	15.8	-25.6	-25.6	-25.7	----	28	----	-25.5	28.55	2.6	3.5	N	0.00
 5/20/2003	10:26a	15.8	-25.6	-25.6	-25.6	----	28	----	-25.4	28.55	2.6	3.5	N	0.00
 5/20/2003	10:27a	15.8	-25.7	-25.6	-25.8	----	28	----	-25.6	28.56	3.5	4.3	N	0.00
 5/20/2003	10:28a	15.8	-25.8	-25.7	-25.8	----	28	----	-25.7	28.55	3.5	4.3	N	0.00
 5/20/2003	10:29a	15.8	-25.7	-25.6	-25.7	----	28	----	-25.6	28.55	3.5	4.3	N	0.00
 5/20/2003	10:30a	15.8	-25.7	-25.7	-25.8	----	27	----	-25.6	28.55	4.3	4.3	NNE	0.00
 5/20/2003	10:31a	15.9	-25.9	-25.8	-25.9	----	27	----	-25.8	28.56	3.5	4.3	NNE	0.00
 5/20/2003	10:32a	15.9	-26.0	-25.9	-26.1	----	27	----	-25.9	28.55	3.5	4.3	NNE	0.00
 5/20/2003	10:33a	15.9	-26.0	-26.0	-26.1	----	27	----	-25.9	28.56	2.6	3.5	NNE	0.00
 5/20/2003	10:34a	15.9	-26.1	-26.0	-26.2	----	28	----	-26.0	28.56	2.6	3.5	NNE	0.00
 5/20/2003	10:35a	15.9	-26.3	-26.2	-26.4	----	28	----	-26.3	28.55	1.7	3.5	NNE	0.00
 5/20/2003	10:36a	15.9	-26.3	-26.1	-26.4	----	28	----	-26.2	28.56	2.6	3.5	NNE	0.00
 5/20/2003	10:37a	15.9	-25.9	-25.8	-26.1	----	28	----	-25.9	28.55	2.6	3.5	NNE	0.00
 5/20/2003	10:38a	15.9	-25.6	-25.4	-25.8	----	28	----	-25.5	28.55	2.6	3.5	NNE	0.00
 5/20/2003	10:39a	15.9	-25.4	-25.4	-25.5	----	27	----	-25.4	28.55	2.6	3.5	NNE	0.00
 5/20/2003	10:40a	15.9	-25.4	-25.4	-25.5	----	27	----	-25.4	28.55	2.6	3.5	NNE	0.00
 5/20/2003	10:41a	16.0	-25.3	-25.3	-25.4	----	27	----	-25.3	28.56	1.7	2.6	NNE	0.00
 5/20/2003	10:43a	16.0	-25.3	-25.2	-25.3	----	27	----	-25.2	28.55	0.9	1.7	NNE	0.00
 5/20/2003	10:44a	16.0	-25.2	-25.1	-25.2	----	27	----	-25.1	28.56	0.9	1.7	NNE	0.00
 5/20/2003	10:45a	16.0	-24.8	-24.7	-25.1	----	28	----	-24.8	28.55	0.9	1.7	NNE	0.00
 5/20/2003	10:46a	16.0	-24.8	-24.7	-24.8	----	28	----	-24.7	28.55	0.9	1.7	NNE	0.00
 5/20/2003	10:47a	16.0	-24.7	-24.7	-24.7	----	28	----	-24.6	28.55	1.7	1.7	NNE	0.00
 5/20/2003	10:48a	16.0	-24.8	-24.7	-24.9	----	28	----	-24.8	28.55	1.7	2.6	NNE	0.00
 5/20/2003	10:49a	16.0	-24.9	-24.9	-24.9	----	28	----	-24.8	28.55	1.7	2.6	NNE	0.00
 5/20/2003	10:50a	16.0	-24.8	-24.7	-24.9	----	28	----	-24.8	28.55	0.9	1.7	NNE	0.00
 5/20/2003	10:51a	16.0	-24.7	-24.7	-24.7	----	28	----	-24.6	28.55	1.7	2.6	NNE	0.00
 5/20/2003	10:52a	16.0	-24.7	-24.7	-24.7	----	28	----	-24.6	28.55	1.7	2.6	NNE	0.00
 5/20/2003	10:53a	16.1	-24.7	-24.6	-24.7	----	27	----	-24.6	28.55	1.7	2.6	NNE	0.00
 5/20/2003	10:54a	16.1	-24.6	-24.4	-24.6	----	27	----	-24.4	28.55	0.0	1.7	NNE	0.00
 5/20/2003	10:55a	16.1	-24.4	-24.4	-24.4	----	27	----	-24.4	28.55	0.0	0.9	NNE	0.00
 5/20/2003	10:56a	16.1	-24.5	-24.4	-24.6	----	27	----	-24.4	28.55	0.9	1.7	NNE	0.00
 5/20/2003	10:57a	16.1	-24.8	-24.6	-25.2	----	27	----	-24.7	28.54	0.9	1.7	NNE	0.00
 5/20/2003	10:58a	16.1	-25.6	-25.2	-25.7	----	28	----	-25.4	28.55	0.9	1.7	NNE	0.00
 5/20/2003	10:59a	16.1	-25.9	-25.7	-26.0	----	28	----	-25.8	28.55	0.9	1.7	NNE	0.00
 5/20/2003	11:00a	16.1	-26.0	-25.7	-26.4	----	28	----	-25.9	28.55	1.7	2.6	NNE	0.00
 5/20/2003	11:01a	16.1	-26.8	-26.4	-27.1	----	28	----	-26.7	28.55	1.7	3.5	NNE	0.00
 5/20/2003	11:02a	16.1	-26.9	-26.7	-27.1	----	28	----	-26.8	28.55	2.6	3.5	NNE	0.00
 5/20/2003	11:03a	16.1	-27.0	-26.9	-27.1	----	27	----	-26.9	28.55	1.7	3.5	NNE	0.00
 5/20/2003	11:04a	16.1	-26.7	-26.6	-26.9	----	27	----	-26.6	28.55	2.6	3.5	NNE	0.00
 5/20/2003	11:05a	16.1	-26.6	-26.6	-26.7	----	27	----	-26.5	28.55	1.7	3.5	NNE	0.00
 5/20/2003	11:06a	16.1	-26.7	-26.7	-26.8	----	27	----	-26.6	28.55	1.7	3.5	NNE	0.00
 5/20/2003	11:07a	16.1	-26.7	-26.6	-26.7	----	27	----	-26.6	28.55	2.6	3.5	NNE	0.00
 5/20/2003	11:08a	16.1	-26.7	-26.6	-26.7	----	28	----	-26.6	28.55	2.6	3.5	NNE	0.00
 5/20/2003	11:10a	16.1	-26.3	-26.2	-26.6	----	28	----	-26.2	28.55	2.6	3.5	NNE	0.00
 5/20/2003	11:11a	16.1	-26.4	-26.2	-26.7	----	28	----	-26.4	28.54	2.6	4.3	NNE	0.00
 5/20/2003	11:12a	16.1	-26.7	-26.6	-26.8	----	28	----	-26.6	28.55	2.6	4.3	NNE	0.00
 5/20/2003	11:13a	16.1	-26.8	-26.8	-26.8	----	28	----	-26.8	28.54	3.5	4.3	NNE	0.00
 5/20/2003	11:14a	16.1	-26.8	-26.8	-26.8	----	28	----	-26.7	28.55	2.6	4.3	NNE	0.00
 5/20/2003	11:15a	16.1	-26.9	-26.8	-26.9	----	28	----	-26.8	28.55	2.6	3.5	NNE	0.00
 5/20/2003	11:16a	16.1	-26.8	-26.8	-26.9	----	27	----	-26.8	28.55	3.5	4.3	NNE	0.00
 5/20/2003	11:17a	16.2	-26.9	-26.8	-26.9	----	27	----	-26.8	28.55	3.5	4.3	NNE	0.00
 5/20/2003	11:18a	16.2	-26.9	-26.8	-26.9	----	27	----	-26.8	28.55	3.5	3.5	NNE	0.00
 5/20/2003	11:19a	16.2	-26.8	-26.8	-26.9	----	27	----	-26.8	28.55	3.5	4.3	NNE	0.00
 5/20/2003	11:20a	16.2	-26.7	-26.6	-26.8	----	28	----	-26.6	28.55	4.3	5.2	NNE	0.00
 5/20/2003	11:21a	16.2	-26.6	-26.5	-26.6	----	28	----	-26.4	28.55	4.3	5.2	NNE	0.00
 5/20/2003	11:22a	16.2	-26.5	-26.4	-26.5	----	28	----	-26.4	28.55	4.3	5.2	NNE	0.00
 5/20/2003	11:23a	16.2	-26.5	-26.3	-26.5	----	28	----	-26.4	28.54	3.5	5.2	NNE	0.00
 5/20/2003	11:24a	16.2	-26.3	-26.2	-26.3	----	28	----	-26.2	28.55	3.5	4.3	NNE	0.00
 5/20/2003	11:25a	16.2	-26.3	-26.2	-26.3	----	28	----	-26.2	28.55	3.5	5.2	NNE	0.00
 5/20/2003	11:26a	16.1	-25.9	-25.8	-26.1	----	28	----	-25.9	28.55	1.7	3.5	NNE	0.00
 5/20/2003	11:27a	16.2	-25.9	-25.8	-26.0	----	27	----	-25.8	28.54	1.7	2.6	NNE	0.00
 5/20/2003	11:28a	16.2	-25.9	-25.8	-26.0	----	27	----	-25.8	28.54	2.6	3.5	NNE	0.00
 5/20/2003	11:29a	16.2	-25.9	-25.8	-26.0	----	27	----	-25.9	28.54	1.7	2.6	NNE	0.00
 5/20/2003	11:30a	16.2	-25.7	-25.6	-25.8	----	27	----	-25.6	28.54	1.7	2.6	NNE	0.00
 5/20/2003	11:31a	16.2	-25.1	-25.0	-25.6	----	27	----	-25.0	28.54	1.7	3.5	NNE	0.00
 5/20/2003	11:32a	16.2	-24.8	-24.6	-25.0	----	28	----	-24.7	28.54	0.9	2.6	NNE	0.00
 5/20/2003	11:33a	16.2	-24.7	-24.6	-24.9	----	28	----	-24.6	28.55	1.7	3.5	NNE	0.00
 5/20/2003	11:34a	16.2	-24.6	-24.4	-24.9	----	28	----	-24.4	28.55	2.6	3.5	NNE	0.00
 5/20/2003	11:35a	16.2	-24.1	-24.0	-24.2	----	28	----	-24.0	28.54	3.5	5.2	NNE	0.00
 5/20/2003	11:36a	16.2	-23.9	-23.9	-24.0	----	28	----	-27.0	28.54	5.2	5.2	N	0.00
 5/20/2003	11:37a	16.2	-23.9	-23.8	-23.9	----	28	----	-26.9	28.54	5.2	6.1	N	0.00
 5/20/2003	11:38a	16.2	-23.7	-23.6	-23.8	----	28	----	-26.7	28.54	5.2	5.2	N	0.00
 5/20/2003	11:39a	16.2	-23.6	-23.5	-23.7	----	27	----	-26.6	28.54	5.2	5.2	N	0.00
 5/20/2003	11:40a	16.2	-23.7	-23.5	-24.1	----	27	----	-23.6	28.54	3.5	6.1	N	0.00
 5/20/2003	11:41a	16.2	-24.2	-24.1	-24.2	----	27	----	-24.1	28.54	4.3	5.2	N	0.00
 5/20/2003	11:42a	16.2	-24.1	-24.1	-24.1	----	27	----	-27.1	28.54	5.2	6.1	N	0.00
 5/20/2003	11:43a	16.2	-24.0	-23.9	-24.1	----	27	----	-27.1	28.54	5.2	7.0	N	0.00
 5/20/2003	11:44a	16.2	-24.1	-23.9	-24.1	----	27	----	-27.1	28.54	5.2	7.0	N	0.00
 5/20/2003	11:45a	16.2	-23.7	-23.6	-23.9	----	28	----	-26.7	28.54	5.2	7.0	N	0.00
 5/20/2003	11:46a	16.2	-23.8	-23.7	-23.8	----	28	----	-23.7	28.54	4.3	5.2	N	0.00
 5/20/2003	11:47a	16.2	-24.1	-23.8	-24.1	----	28	----	-29.2	28.54	6.1	7.8	N	0.00
 5/20/2003	11:48a	16.2	-23.9	-23.8	-24.1	----	28	----	-29.1	28.54	7.0	8.7	NNW	0.00
 5/20/2003	11:49a	16.2	-23.7	-23.6	-23.8	----	27	----	-28.8	28.54	7.0	7.8	NNW	0.00
 5/20/2003	11:50a	16.2	-23.5	-23.5	-23.7	----	27	----	-26.6	28.54	5.2	7.0	NNW	0.00
 5/20/2003	11:51a	16.2	-23.7	-23.7	-23.8	----	27	----	-28.8	28.54	6.1	7.8	NNW	0.00
 5/20/2003	11:52a	16.3	-23.8	-23.8	-23.8	----	27	----	-28.9	28.53	6.1	7.0	NNW	0.00
 5/20/2003	11:53a	16.3	-23.8	-23.7	-23.8	----	28	----	-26.8	28.53	5.2	7.0	NNW	0.00
 5/20/2003	11:54a	16.3	-23.7	-23.7	-23.7	----	28	----	-28.8	28.54	6.1	7.8	N	0.00
 5/20/2003	11:55a	16.3	-23.7	-23.7	-23.7	----	28	----	-28.8	28.53	7.0	8.7	N	0.00
 5/20/2003	11:56a	16.3	-23.7	-23.7	-23.7	----	28	----	-28.8	28.54	7.0	8.7	NNW	0.00
 5/20/2003	11:57a	16.2	-23.5	-23.4	-23.7	----	28	----	-28.6	28.53	6.1	8.7	NNW	0.00
 5/20/2003	11:58a	16.3	-23.4	-23.4	-23.5	----	28	----	-28.6	28.53	7.0	8.7	NNW	0.00
 5/20/2003	12:00p	16.3	-23.6	-23.6	-23.6	----	27	----	-30.8	28.53	7.8	8.7	NNW	0.00
 5/20/2003	12:01p	16.3	-23.3	-23.2	-23.4	----	27	----	-30.5	28.53	7.8	10.4	N	0.00
 5/20/2003	12:02p	16.3	-23.2	-23.1	-23.2	----	27	----	-28.2	28.53	6.1	7.8	NNW	0.00
 5/20/2003	12:03p	16.3	-23.3	-23.2	-23.3	----	28	----	-30.6	28.53	7.8	9.6	NNW	0.00
 5/20/2003	12:04p	16.3	-23.3	-23.2	-23.3	----	28	----	-28.4	28.53	7.0	7.8	NNW	0.00
 5/20/2003	12:05p	16.3	-23.3	-23.2	-23.4	----	28	----	-28.4	28.53	7.0	8.7	NNW	0.00
 5/20/2003	12:06p	16.3	-23.3	-23.2	-23.4	----	28	----	-32.6	28.53	8.7	10.4	NNW	0.00
 5/20/2003	12:07p	16.3	-23.2	-23.1	-23.2	----	28	----	-36.4	28.53	10.4	12.2	NNW	0.00
 5/20/2003	12:08p	16.3	-23.1	-23.1	-23.1	----	27	----	-34.3	28.53	9.6	11.3	NNW	0.00
 5/20/2003	12:09p	16.3	-23.1	-23.1	-23.2	----	27	----	-34.4	28.53	9.6	12.2	NNW	0.00
 5/20/2003	12:10p	16.3	-23.0	-22.8	-23.1	----	27	----	-36.3	28.53	10.4	13.0	N	0.00
 5/20/2003	12:11p	16.3	-22.8	-22.8	-22.9	----	27	----	-36.1	28.53	10.4	11.3	NNW	0.00
 5/20/2003	12:12p	16.3	-23.0	-22.9	-23.1	----	27	----	-34.3	28.53	9.6	12.2	NNW	0.00
 5/20/2003	12:13p	16.3	-23.3	-23.1	-23.5	----	27	----	-32.6	28.53	8.7	10.4	N	0.00
 5/20/2003	12:14p	16.2	-23.6	-23.5	-23.8	----	28	----	-35.0	28.53	9.6	11.3	NNW	0.00
 5/20/2003	12:15p	16.2	-23.7	-23.7	-23.8	----	28	----	-37.1	28.53	10.4	13.0	N	0.00
 5/20/2003	12:16p	16.2	-23.6	-23.6	-23.7	----	28	----	-36.9	28.53	10.4	13.0	NNW	0.00
 5/20/2003	12:17p	16.2	-23.6	-23.4	-23.9	----	28	----	-37.0	28.53	10.4	12.2	N	0.00
 5/20/2003	12:18p	16.2	-23.8	-23.8	-23.9	----	28	----	-38.4	28.53	11.3	12.2	N	0.00
 5/20/2003	12:19p	16.2	-23.6	-23.5	-23.8	----	27	----	-37.0	28.53	10.4	11.3	N	0.00
 5/20/2003	12:20p	16.2	-24.2	-23.8	-24.5	----	27	----	-38.8	28.53	11.3	12.2	N	0.00
 5/20/2003	12:21p	16.2	-23.9	-23.6	-24.1	----	27	----	-38.6	28.53	11.3	12.2	N	0.00
 5/20/2003	12:22p	16.2	-23.6	-23.5	-23.6	----	27	----	-38.1	28.53	11.3	13.0	N	0.00
 5/20/2003	12:23p	16.1	-23.3	-23.3	-23.5	----	27	----	-37.8	28.52	11.3	12.2	N	0.00
 5/20/2003	12:24p	16.1	-23.6	-23.4	-23.9	----	27	----	-36.9	28.53	10.4	12.2	N	0.00
 5/20/2003	12:25p	16.1	-24.2	-23.9	-24.3	----	27	----	-35.7	28.53	9.6	10.4	N	0.00
 5/20/2003	12:26p	16.1	-24.2	-24.1	-24.3	----	27	----	-33.6	28.53	8.7	9.6	N	0.00
 5/20/2003	12:27p	16.1	-23.8	-23.5	-24.1	----	28	----	-33.2	28.53	8.7	10.4	N	0.00
 5/20/2003	12:28p	16.0	-23.2	-23.1	-23.5	----	28	----	-32.4	28.53	8.7	11.3	NNW	0.00
 5/20/2003	12:29p	16.0	-22.9	-22.8	-23.1	----	28	----	-34.3	28.53	9.6	11.3	NNW	0.00
 5/20/2003	12:30p	15.9	-22.9	-22.8	-23.1	----	28	----	-34.3	28.53	9.6	10.4	N	0.00
 5/20/2003	12:32p	15.9	-23.1	-22.9	-23.2	----	28	----	-34.3	28.53	9.6	11.3	N	0.00
 5/20/2003	12:33p	15.9	-22.9	-22.9	-23.0	----	28	----	-32.2	28.53	8.7	12.2	N	0.00
 5/20/2003	12:34p	15.9	-22.9	-22.8	-22.9	----	27	----	-36.2	28.53	10.4	13.0	N	0.00
 5/20/2003	12:35p	15.9	-22.7	-22.6	-22.8	----	27	----	-37.0	28.53	11.3	12.2	N	0.00
 5/20/2003	12:36p	15.9	-22.7	-22.6	-22.8	----	27	----	-35.9	28.52	10.4	13.0	N	0.00
 5/20/2003	12:37p	15.8	-22.8	-22.5	-22.9	----	27	----	-38.2	28.52	12.2	13.9	N	0.00
 5/20/2003	12:38p	15.8	-22.6	-22.5	-22.6	----	27	----	-36.8	28.52	11.3	13.0	NNW	0.00
 5/20/2003	12:39p	15.8	-22.6	-22.5	-22.7	----	28	----	-36.8	28.52	11.3	13.0	N	0.00
 5/20/2003	12:41p	15.8	-23.0	-22.9	-23.1	----	28	----	-37.4	28.52	11.3	13.0	N	0.00
 5/20/2003	12:42p	15.7	-22.9	-22.8	-23.2	----	28	----	-34.3	28.53	9.6	12.2	N	0.00
 5/20/2003	12:43p	15.7	-23.2	-23.1	-23.3	----	28	----	-34.5	28.53	9.6	11.3	NNW	0.00
 5/20/2003	12:44p	15.7	-23.0	-23.0	-23.1	----	28	----	-36.3	28.52	10.4	12.2	N	0.00
 5/20/2003	12:45p	15.7	-22.7	-22.4	-22.8	----	27	----	-38.1	28.52	12.2	13.9	NNW	0.00
 5/20/2003	12:46p	15.7	-22.3	-22.3	-22.4	----	27	----	-38.8	28.52	13.0	15.7	N	0.00
 5/20/2003	12:47p	15.7	-22.2	-22.2	-22.3	----	27	----	-37.4	28.52	12.2	15.7	NNW	0.00
 5/20/2003	12:48p	15.7	-22.2	-22.2	-22.3	----	28	----	-37.4	28.52	12.2	13.9	NNW	0.00
 5/20/2003	12:49p	15.7	-22.2	-22.1	-22.2	----	28	----	-38.5	28.53	13.0	14.8	N	0.00
 5/20/2003	12:50p	15.7	-22.3	-22.1	-22.3	----	28	----	-38.7	28.53	13.0	15.7	N	0.00
 5/20/2003	12:51p	15.6	-22.1	-22.1	-22.2	----	28	----	-37.3	28.53	12.2	13.9	NNW	0.00
 5/20/2003	12:52p	15.6	-22.4	-22.2	-22.5	----	27	----	-36.7	28.53	11.3	12.2	N	0.00
 5/20/2003	12:53p	15.7	-22.6	-22.6	-22.6	----	27	----	-37.9	28.53	12.2	13.9	N	0.00
 5/20/2003	12:54p	15.7	-22.7	-22.6	-22.8	----	27	----	-33.8	28.53	9.6	11.3	N	0.00
 5/20/2003	12:55p	15.7	-22.9	-22.6	-23.0	----	28	----	-37.3	28.52	11.3	13.9	NNW	0.00
 5/20/2003	12:56p	15.7	-22.6	-22.5	-22.6	----	28	----	-33.7	28.52	9.6	12.2	NNW	0.00
 5/20/2003	12:57p	15.7	-22.6	-22.5	-22.6	----	28	----	-35.7	28.52	10.4	12.2	NNW	0.00
 5/20/2003	12:58p	15.7	-22.4	-22.2	-22.6	----	29	----	-37.7	28.52	12.2	13.9	N	0.00
 5/20/2003	12:59p	15.7	-22.2	-22.2	-22.2	----	28	----	-38.6	28.52	13.0	14.8	NNW	0.00
 5/20/2003	 1:00p	15.7	-22.2	-22.2	-22.3	----	27	----	-38.6	28.52	13.0	14.8	N	0.00
 5/20/2003	 1:01p	15.7	-22.1	-22.0	-22.2	----	28	----	-39.5	28.52	14.8	17.4	NNW	0.00
 5/20/2003	 1:02p	15.7	-22.1	-22.0	-22.1	----	27	----	-36.2	28.52	11.3	14.8	NNW	0.00
 5/20/2003	 1:03p	15.7	-22.3	-22.3	-22.3	----	28	----	-36.5	28.52	11.3	13.0	NNW	0.00
 5/20/2003	 1:04p	15.8	-22.3	-22.2	-22.3	----	28	----	-37.6	28.52	12.2	14.8	NNW	0.00
 5/20/2003	 1:05p	15.8	-22.3	-22.2	-22.4	----	28	----	-37.7	28.52	12.2	13.9	N	0.00
 5/20/2003	 1:06p	15.8	-22.4	-22.3	-22.5	----	27	----	-37.7	28.52	12.2	15.7	N	0.00
 5/20/2003	 1:08p	15.8	-22.4	-22.4	-22.4	----	28	----	-38.8	28.52	13.0	14.8	N	0.00
 5/20/2003	 1:09p	15.8	-22.4	-22.3	-22.4	----	28	----	-37.7	28.52	12.2	13.9	N	0.00
 5/20/2003	 1:10p	15.8	-22.5	-22.4	-22.6	----	28	----	-37.9	28.52	12.2	13.9	N	0.00
 5/20/2003	 1:11p	15.8	-22.6	-22.5	-22.6	----	28	----	-37.9	28.52	12.2	13.9	NNW	0.00
 5/20/2003	 1:12p	15.8	-22.4	-22.3	-22.6	----	28	----	-40.1	28.52	14.8	16.5	N	0.00
 5/20/2003	 1:13p	15.8	-22.3	-22.2	-22.4	----	29	----	-38.8	28.52	13.0	14.8	N	0.00
 5/20/2003	 1:14p	15.9	-22.4	-22.3	-22.5	----	28	----	-38.9	28.52	13.9	16.5	N	0.00
 5/20/2003	 1:15p	15.9	-22.3	-22.3	-22.4	----	27	----	-38.8	28.52	13.9	15.7	N	0.00
 5/20/2003	 1:16p	15.9	-22.4	-22.3	-22.4	----	27	----	-38.8	28.52	13.0	16.5	N	0.00
 5/20/2003	 1:17p	15.9	-22.4	-22.3	-22.5	----	27	----	-38.8	28.52	13.9	15.7	N	0.00
 5/20/2003	 1:18p	15.9	-22.6	-22.5	-22.6	----	28	----	-39.0	28.52	13.0	14.8	N	0.00
 5/20/2003	 1:19p	15.9	-22.5	-22.4	-22.6	----	28	----	-36.8	28.52	11.3	13.0	N	0.00
 5/20/2003	 1:20p	15.9	-22.8	-22.6	-22.9	----	28	----	-37.1	28.52	11.3	13.9	N	0.00
 5/20/2003	 1:21p	15.9	-22.8	-22.7	-22.9	----	29	----	-38.2	28.52	12.2	13.9	N	0.00
 5/20/2003	 1:22p	16.0	-22.5	-22.4	-22.7	----	29	----	-36.8	28.52	11.3	13.9	N	0.00
 5/20/2003	 1:23p	15.9	-22.3	-22.1	-22.4	----	29	----	-37.6	28.52	12.2	14.8	N	0.00
 5/20/2003	 1:24p	16.0	-22.1	-22.1	-22.3	----	28	----	-36.2	28.52	11.3	12.2	N	0.00
 5/20/2003	 1:25p	16.0	-22.4	-22.3	-22.5	----	27	----	-35.6	28.53	10.4	12.2	N	0.00
 5/20/2003	 1:26p	16.1	-22.5	-22.4	-22.6	----	27	----	-35.7	28.52	10.4	13.9	N	0.00
 5/20/2003	 1:27p	16.1	-22.5	-22.4	-22.6	----	28	----	-35.7	28.52	10.4	13.0	NNW	0.00
 5/20/2003	 1:28p	16.1	-22.4	-22.4	-22.4	----	28	----	-36.7	28.52	11.3	13.9	NNW	0.00
 5/20/2003	 1:29p	16.1	-22.3	-22.2	-22.3	----	28	----	-36.5	28.52	11.3	13.9	NNW	0.00
 5/20/2003	 1:30p	16.1	-22.2	-22.2	-22.2	----	28	----	-37.4	28.52	12.2	13.9	N	0.00
 5/20/2003	 1:31p	16.1	-22.3	-22.2	-22.4	----	29	----	-36.6	28.52	11.3	13.0	N	0.00
 5/20/2003	 1:32p	16.1	-22.4	-22.3	-22.4	----	29	----	-38.8	28.52	13.0	14.8	N	0.00
 5/20/2003	 1:33p	16.1	-22.2	-22.1	-22.3	----	28	----	-38.5	28.52	13.0	14.8	N	0.00
 5/20/2003	 1:34p	16.1	-22.2	-22.2	-22.2	----	28	----	-36.3	28.52	11.3	13.0	NNW	0.00
 5/20/2003	 1:35p	16.1	-22.2	-22.2	-22.2	----	27	----	-38.6	28.52	13.0	15.7	NNW	0.00
 5/20/2003	 1:36p	16.1	-22.1	-22.1	-22.2	----	28	----	-36.2	28.52	11.3	13.9	NNW	0.00
 5/20/2003	 1:37p	16.2	-22.3	-22.1	-22.4	----	28	----	-36.5	28.52	11.3	13.0	NNW	0.00
 5/20/2003	 1:38p	16.2	-22.4	-22.3	-22.4	----	28	----	-37.7	28.52	12.2	14.8	N	0.00
 5/20/2003	 1:40p	16.2	-22.4	-22.4	-22.5	----	28	----	-37.8	28.52	12.2	13.9	NNW	0.00
 5/20/2003	 1:41p	16.2	-22.6	-22.5	-22.6	----	28	----	-37.9	28.52	12.2	13.9	NNW	0.00
 5/20/2003	 1:42p	16.2	-22.4	-22.4	-22.5	----	27	----	-40.1	28.52	14.8	16.5	N	0.00
 5/20/2003	 1:43p	16.2	-22.6	-22.4	-22.6	----	27	----	-37.9	28.52	12.2	14.8	NNW	0.00
 5/20/2003	 1:44p	16.2	-22.6	-22.6	-22.7	----	27	----	-37.9	28.52	12.2	13.0	N	0.00
 5/20/2003	 1:45p	16.2	-22.7	-22.6	-22.8	----	28	----	-38.1	28.52	12.2	13.9	N	0.00
 5/20/2003	 1:46p	16.2	-22.7	-22.6	-22.8	----	28	----	-39.2	28.52	13.0	15.7	N	0.00
 5/20/2003	 1:47p	16.2	-22.6	-22.6	-22.7	----	28	----	-39.1	28.52	13.9	15.7	N	0.00
 5/20/2003	 1:48p	16.2	-22.6	-22.6	-22.7	----	28	----	-39.1	28.52	13.0	14.8	N	0.00
 5/20/2003	 1:49p	16.2	-22.8	-22.7	-22.9	----	29	----	-39.4	28.52	13.0	15.7	N	0.00
 5/20/2003	 1:50p	16.2	-22.7	-22.7	-22.8	----	29	----	-39.2	28.52	13.9	15.7	N	0.00
 5/20/2003	 1:51p	16.3	-22.8	-22.8	-22.8	----	28	----	-39.4	28.52	13.0	16.5	N	0.00
 5/20/2003	 1:52p	16.3	-22.9	-22.8	-23.0	----	27	----	-40.7	28.52	14.8	17.4	N	0.00
 5/20/2003	 1:53p	16.3	-22.8	-22.6	-23.0	----	27	----	-39.4	28.52	13.0	13.9	N	0.00
 5/20/2003	 1:54p	16.3	-23.0	-23.0	-23.1	----	27	----	-39.7	28.52	13.0	14.8	N	0.00
 5/20/2003	 1:55p	16.3	-23.0	-22.9	-23.0	----	28	----	-38.6	28.52	12.2	13.0	N	0.00
 5/20/2003	 1:56p	16.3	-22.9	-22.8	-23.1	----	28	----	-38.4	28.52	12.2	14.8	NNW	0.00
 5/20/2003	 1:57p	16.3	-22.8	-22.7	-22.8	----	28	----	-39.4	28.52	13.0	14.8	N	0.00
 5/20/2003	 1:58p	16.3	-22.7	-22.6	-22.8	----	28	----	-39.2	28.53	13.9	15.7	NNW	0.00
 5/20/2003	 1:59p	16.3	-22.6	-22.4	-22.6	----	28	----	-36.8	28.53	11.3	13.9	NNW	0.00
 5/20/2003	 2:00p	16.3	-22.7	-22.6	-22.7	----	28	----	-38.1	28.53	12.2	13.9	NNW	0.00
 5/20/2003	 2:01p	16.3	-22.7	-22.7	-22.7	----	28	----	-37.0	28.53	11.3	13.0	NNW	0.00
 5/20/2003	 2:02p	16.3	-22.7	-22.7	-22.7	----	28	----	-38.1	28.52	12.2	14.8	N	0.00
 5/20/2003	 2:03p	16.3	-22.8	-22.8	-22.8	----	27	----	-39.4	28.52	13.0	13.9	N	0.00
 5/20/2003	 2:04p	16.3	-22.9	-22.8	-23.0	----	27	----	-39.6	28.52	13.9	16.5	N	0.00
 5/20/2003	 2:05p	16.3	-22.8	-22.7	-23.0	----	27	----	-38.2	28.52	12.2	15.7	N	0.00
 5/20/2003	 2:06p	16.3	-22.8	-22.7	-22.9	----	27	----	-37.2	28.53	11.3	13.0	N	0.00
 5/20/2003	 2:07p	16.3	-22.9	-22.9	-22.9	----	27	----	-38.4	28.53	12.2	14.8	N	0.00
 5/20/2003	 2:08p	16.3	-22.9	-22.9	-23.0	----	28	----	-36.2	28.53	10.4	13.0	N	0.00
 5/20/2003	 2:09p	16.2	-23.1	-22.9	-23.2	----	28	----	-37.4	28.53	11.3	13.0	N	0.00
 5/20/2003	 2:10p	16.2	-23.1	-23.1	-23.2	----	28	----	-39.7	28.53	13.0	14.8	N	0.00
 5/20/2003	 2:11p	16.2	-22.9	-22.8	-23.1	----	28	----	-38.4	28.52	12.2	14.8	N	0.00
 5/20/2003	 2:12p	16.2	-23.2	-23.1	-23.3	----	27	----	-39.8	28.53	13.0	13.9	N	0.00
 5/20/2003	 2:13p	16.2	-23.2	-23.1	-23.3	----	27	----	-39.8	28.53	13.9	15.7	N	0.00
 5/20/2003	 2:14p	16.2	-22.7	-22.6	-22.8	----	27	----	-39.2	28.53	13.0	14.8	NNW	0.00
 5/20/2003	 2:15p	16.2	-22.7	-22.6	-22.7	----	27	----	-39.2	28.53	13.0	14.8	N	0.00
 5/20/2003	 2:16p	16.2	-22.7	-22.7	-22.8	----	27	----	-39.2	28.53	13.9	15.7	N	0.00
 5/20/2003	 2:17p	16.1	-22.8	-22.8	-22.8	----	27	----	-39.4	28.53	13.0	14.8	N	0.00
 5/20/2003	 2:18p	16.1	-22.9	-22.8	-22.9	----	27	----	-39.5	28.53	13.9	14.8	N	0.00
 5/20/2003	 2:19p	16.1	-22.9	-22.8	-23.1	----	28	----	-39.5	28.53	13.9	14.8	N	0.00
 5/20/2003	 2:20p	16.1	-23.1	-23.1	-23.2	----	28	----	-39.7	28.53	13.9	14.8	N	0.00
 5/20/2003	 2:21p	16.1	-23.2	-23.1	-23.3	----	28	----	-39.9	28.53	13.9	15.7	N	0.00
 5/20/2003	 2:22p	16.0	-23.2	-23.1	-23.2	----	27	----	-39.8	28.53	13.0	13.9	N	0.00
 5/20/2003	 2:23p	16.0	-23.2	-23.2	-23.2	----	27	----	-39.8	28.53	13.9	14.8	N	0.00
 5/20/2003	 2:25p	16.0	-23.0	-23.0	-23.1	----	27	----	-39.7	28.53	13.0	15.7	N	0.00
 5/20/2003	 2:26p	15.9	-22.9	-22.9	-23.0	----	27	----	-39.6	28.53	13.0	14.8	N	0.00
 5/20/2003	 2:27p	15.9	-23.2	-23.1	-23.2	----	27	----	-39.8	28.53	13.0	15.7	N	0.00
 5/20/2003	 2:28p	15.9	-23.1	-22.9	-23.2	----	27	----	-38.6	28.53	12.2	13.9	N	0.00
 5/20/2003	 2:29p	15.9	-23.4	-23.2	-23.6	----	28	----	-39.0	28.53	12.2	13.9	N	0.00
 5/20/2003	 2:30p	15.8	-23.6	-23.6	-23.7	----	28	----	-40.4	28.53	13.0	13.9	N	0.00
 5/20/2003	 2:31p	15.8	-23.6	-23.3	-23.6	----	28	----	-40.3	28.53	13.0	13.9	N	0.00
 5/20/2003	 2:32p	15.8	-23.2	-23.1	-23.3	----	27	----	-39.8	28.53	13.0	14.8	N	0.00
 5/20/2003	 2:34p	15.8	-22.8	-22.7	-22.9	----	27	----	-38.2	28.53	12.2	13.9	N	0.00
 5/20/2003	 2:35p	15.8	-22.8	-22.7	-23.1	----	27	----	-37.2	28.53	11.3	13.0	N	0.00
 5/20/2003	 2:36p	15.8	-23.0	-22.9	-23.1	----	27	----	-38.6	28.53	12.2	13.9	N	0.00
 5/20/2003	 2:37p	15.7	-22.9	-22.8	-22.9	----	27	----	-39.5	28.53	13.0	13.9	N	0.00
 5/20/2003	 2:38p	15.7	-22.9	-22.8	-23.1	----	27	----	-39.6	28.53	13.9	15.7	N	0.00
 5/20/2003	 2:39p	15.7	-22.7	-22.5	-22.8	----	28	----	-39.2	28.53	13.0	15.7	N	0.00
 5/20/2003	 2:40p	15.7	-22.6	-22.5	-22.8	----	28	----	-39.1	28.53	13.0	17.4	N	0.00
 5/20/2003	 2:41p	15.7	-22.9	-22.8	-23.0	----	27	----	-39.6	28.53	13.0	14.8	N	0.00
 5/20/2003	 2:43p	15.7	-22.8	-22.7	-22.9	----	27	----	-39.4	28.53	13.9	15.7	N	0.00
 5/20/2003	 2:44p	15.6	-22.9	-22.7	-22.9	----	27	----	-39.5	28.53	13.9	16.5	N	0.00
 5/20/2003	 2:45p	15.6	-22.6	-22.6	-22.7	----	27	----	-39.1	28.53	13.0	14.8	N	0.00
 5/20/2003	 2:46p	15.6	-22.4	-22.3	-22.6	----	28	----	-38.9	28.53	13.0	16.5	NNW	0.00
 5/20/2003	 2:47p	15.6	-22.1	-21.9	-22.2	----	28	----	-38.4	28.53	13.0	15.7	NNW	0.00
 5/20/2003	 2:48p	15.6	-21.9	-21.9	-21.9	----	28	----	-38.3	28.53	13.9	16.5	NNW	0.00
 5/20/2003	 2:49p	15.6	-22.1	-21.9	-22.2	----	28	----	-38.3	28.53	13.9	16.5	N	0.00
 5/20/2003	 2:50p	15.7	-22.1	-22.1	-22.2	----	27	----	-38.4	28.53	13.9	15.7	N	0.00
 5/20/2003	 2:52p	15.7	-22.3	-22.3	-22.5	----	27	----	-38.8	28.53	13.0	15.7	N	0.00
 5/20/2003	 2:53p	15.7	-22.4	-22.3	-22.5	----	28	----	-38.8	28.53	13.0	13.9	N	0.00
 5/20/2003	 2:54p	15.7	-22.3	-22.3	-22.4	----	28	----	-37.7	28.53	12.2	13.9	N	0.00
 5/20/2003	 2:55p	15.7	-22.3	-22.2	-22.4	----	28	----	-38.7	28.54	13.0	14.8	N	0.00
 5/20/2003	 2:56p	15.7	-22.2	-22.2	-22.3	----	28	----	-37.4	28.54	12.2	13.9	N	0.00
 5/20/2003	 2:57p	15.7	-22.1	-22.1	-22.2	----	28	----	-37.3	28.54	12.2	13.9	N	0.00
 5/20/2003	 2:58p	15.7	-22.3	-22.3	-22.3	----	27	----	-37.6	28.54	12.2	13.0	N	0.00
 5/20/2003	 2:59p	15.8	-22.3	-22.2	-22.3	----	27	----	-37.6	28.54	12.2	13.0	N	0.00
 5/20/2003	 3:00p	15.8	-22.3	-22.3	-22.4	----	27	----	-36.6	28.54	11.3	12.2	N	0.00
 5/20/2003	 3:01p	15.8	-22.4	-22.4	-22.4	----	27	----	-36.7	28.54	11.3	13.9	N	0.00
 5/20/2003	 3:02p	15.8	-22.2	-22.1	-22.4	----	28	----	-37.4	28.54	12.2	13.9	N	0.00
 5/20/2003	 3:03p	15.8	-21.8	-21.6	-21.9	----	28	----	-38.1	28.54	13.0	14.8	N	0.00
 5/20/2003	 3:04p	15.8	-21.7	-21.6	-21.7	----	28	----	-36.8	28.54	12.2	13.0	N	0.00
 5/20/2003	 3:06p	15.8	-22.0	-21.9	-22.1	----	28	----	-37.3	28.54	12.2	13.0	N	0.00
 5/20/2003	 3:07p	15.8	-22.2	-22.1	-22.3	----	28	----	-37.4	28.54	12.2	13.9	N	0.00
 5/20/2003	 3:08p	15.8	-22.3	-22.2	-22.4	----	27	----	-37.6	28.53	12.2	13.9	N	0.00
 5/20/2003	 3:09p	15.9	-22.0	-21.8	-22.1	----	27	----	-38.3	28.53	13.0	14.8	N	0.00
 5/20/2003	 3:10p	15.9	-21.8	-21.8	-21.8	----	28	----	-38.1	28.53	13.9	15.7	N	0.00
 5/20/2003	 3:11p	15.9	-22.2	-22.1	-22.3	----	28	----	-38.5	28.53	13.0	14.8	N	0.00
 5/20/2003	 3:12p	15.9	-22.1	-21.8	-22.3	----	28	----	-40.7	28.53	15.7	17.4	N	0.00
 5/20/2003	 3:13p	15.9	-21.7	-21.6	-21.8	----	28	----	-37.9	28.53	13.9	14.8	N	0.00
 5/20/2003	 3:14p	15.9	-22.1	-21.8	-22.3	----	28	----	-38.3	28.53	13.9	16.5	N	0.00
 5/20/2003	 3:15p	15.9	-22.3	-22.3	-22.4	----	29	----	-38.8	28.53	13.9	14.8	N	0.00
 5/20/2003	 3:16p	15.9	-22.1	-21.8	-22.2	----	29	----	-39.5	28.53	14.8	16.5	N	0.00
 5/20/2003	 3:17p	15.9	-21.8	-21.8	-21.8	----	28	----	-38.1	28.53	13.9	15.7	N	0.00
 5/20/2003	 3:18p	15.9	-21.8	-21.8	-21.9	----	27	----	-38.1	28.53	13.0	14.8	N	0.00
 5/20/2003	 3:19p	16.0	-22.1	-22.0	-22.2	----	27	----	-38.4	28.53	13.0	13.9	N	0.00
 5/20/2003	 3:20p	16.0	-22.2	-22.2	-22.2	----	27	----	-38.6	28.53	13.0	13.9	N	0.00
 5/20/2003	 3:21p	16.0	-22.1	-22.1	-22.2	----	27	----	-38.4	28.53	13.9	15.7	N	0.00
 5/20/2003	 3:22p	16.0	-22.1	-22.1	-22.2	----	28	----	-38.4	28.53	13.0	14.8	N	0.00
 5/20/2003	 3:24p	16.0	-22.2	-22.2	-22.3	----	28	----	-38.6	28.53	13.0	13.9	N	0.00
 5/20/2003	 3:25p	16.0	-22.4	-22.3	-22.5	----	28	----	-38.9	28.53	13.0	14.8	N	0.00
 5/20/2003	 3:26p	16.1	-22.2	-22.1	-22.4	----	28	----	-38.6	28.53	13.0	13.9	N	0.00
 5/20/2003	 3:27p	16.1	-21.9	-21.8	-22.0	----	27	----	-38.3	28.53	13.0	13.9	N	0.00
 5/20/2003	 3:28p	16.1	-22.1	-22.0	-22.1	----	27	----	-38.3	28.53	13.0	14.8	N	0.00
 5/20/2003	 3:29p	16.1	-22.1	-22.1	-22.2	----	27	----	-38.4	28.53	13.0	13.9	N	0.00
 5/20/2003	 3:30p	16.1	-22.4	-22.2	-22.6	----	27	----	-37.7	28.53	12.2	13.0	N	0.00
 5/20/2003	 3:31p	16.1	-22.6	-22.4	-22.6	----	28	----	-39.0	28.53	13.0	13.9	N	0.00
 5/20/2003	 3:32p	16.1	-22.5	-22.4	-22.7	----	28	----	-37.9	28.53	12.2	13.0	N	0.00
 5/20/2003	 3:33p	16.1	-22.7	-22.7	-22.7	----	28	----	-38.1	28.53	12.2	13.9	N	0.00
 5/20/2003	 3:34p	16.1	-22.6	-22.4	-22.7	----	28	----	-39.0	28.53	13.0	14.8	N	0.00
 5/20/2003	 3:35p	16.1	-22.3	-22.3	-22.4	----	28	----	-38.8	28.53	13.0	14.8	N	0.00
 5/20/2003	 3:36p	16.2	-22.2	-22.0	-22.3	----	27	----	-38.5	28.53	13.0	14.8	N	0.00
 5/20/2003	 3:37p	16.2	-22.3	-22.1	-22.5	----	27	----	-37.6	28.53	12.2	13.0	N	0.00
 5/20/2003	 3:38p	16.2	-22.4	-22.4	-22.5	----	27	----	-37.7	28.53	12.2	13.0	N	0.00
 5/20/2003	 3:39p	16.2	-22.5	-22.4	-22.6	----	27	----	-37.9	28.53	12.2	13.0	N	0.00
 5/20/2003	 3:40p	16.2	-22.5	-22.5	-22.5	----	27	----	-39.0	28.53	13.0	13.9	N	0.00
 5/20/2003	 3:41p	16.2	-22.6	-22.4	-22.6	----	28	----	-37.9	28.53	12.2	14.8	N	0.00
 5/20/2003	 3:42p	16.2	-22.4	-22.1	-22.4	----	28	----	-38.8	28.53	13.9	14.8	N	0.00
 5/20/2003	 3:43p	16.2	-22.1	-22.0	-22.1	----	28	----	-38.3	28.53	13.9	14.8	N	0.00
 5/20/2003	 3:44p	16.2	-22.2	-22.1	-22.3	----	28	----	-38.5	28.53	13.9	14.8	N	0.00
 5/20/2003	 3:45p	16.2	-22.3	-22.3	-22.3	----	27	----	-38.8	28.53	13.0	13.9	N	0.00
 5/20/2003	 3:46p	16.2	-22.4	-22.3	-22.4	----	27	----	-38.8	28.53	13.0	13.9	N	0.00
 5/20/2003	 3:47p	16.3	-22.4	-22.3	-22.5	----	27	----	-38.9	28.53	13.9	14.8	N	0.00
 5/20/2003	 3:48p	16.3	-22.2	-22.2	-22.3	----	27	----	-38.6	28.53	13.0	14.8	N	0.00
 5/20/2003	 3:49p	16.3	-22.3	-22.2	-22.4	----	27	----	-38.8	28.53	13.9	14.8	N	0.00
 5/20/2003	 3:50p	16.3	-22.3	-22.2	-22.3	----	27	----	-38.7	28.53	13.9	14.8	N	0.00
 5/20/2003	 3:51p	16.3	-22.3	-22.2	-22.4	----	28	----	-39.9	28.53	14.8	15.7	N	0.00
 5/20/2003	 3:52p	16.3	-22.3	-22.2	-22.3	----	28	----	-39.8	28.53	14.8	15.7	N	0.00
 5/20/2003	 3:53p	16.3	-22.1	-21.8	-22.3	----	28	----	-40.7	28.53	15.7	17.4	N	0.00
 5/20/2003	 3:54p	16.3	-21.8	-21.8	-21.8	----	28	----	-39.2	28.53	14.8	16.5	N	0.00
 5/20/2003	 3:55p	16.3	-22.1	-21.8	-22.2	----	27	----	-39.4	28.52	14.8	15.7	N	0.00
 5/20/2003	 3:56p	16.3	-22.2	-22.1	-22.3	----	27	----	-39.7	28.52	14.8	16.5	N	0.00
 5/20/2003	 3:57p	16.3	-22.3	-22.2	-22.3	----	27	----	-39.8	28.52	14.8	16.5	N	0.00
 5/20/2003	 3:58p	16.3	-22.2	-22.2	-22.3	----	27	----	-40.8	28.52	15.7	16.5	N	0.00
 5/20/2003	 3:59p	16.3	-22.2	-22.2	-22.2	----	27	----	-41.8	28.52	16.5	17.4	N	0.00
 5/20/2003	 4:00p	16.3	-22.2	-22.2	-22.2	----	27	----	-40.8	28.52	15.7	17.4	N	0.00
 5/20/2003	 4:01p	16.3	-22.2	-22.2	-22.2	----	27	----	-41.8	28.52	16.5	17.4	N	0.00
 5/20/2003	 4:02p	16.3	-22.2	-22.2	-22.2	----	28	----	-40.8	28.52	15.7	16.5	N	0.00
 5/20/2003	 4:03p	16.3	-22.3	-22.2	-22.3	----	28	----	-42.0	28.52	16.5	17.4	N	0.00
 5/20/2003	 4:04p	16.3	-22.2	-22.2	-22.2	----	28	----	-41.8	28.52	16.5	16.5	N	0.00
 5/20/2003	 4:05p	16.3	-22.2	-22.1	-22.2	----	28	----	-40.8	28.52	15.7	17.4	N	0.00
 5/20/2003	 4:06p	16.3	-22.2	-22.2	-22.2	----	27	----	-41.8	28.52	16.5	17.4	N	0.00
 5/20/2003	 4:07p	16.3	-22.1	-22.0	-22.2	----	27	----	-41.7	28.52	16.5	17.4	N	0.00
 5/20/2003	 4:08p	16.3	-21.9	-21.8	-22.0	----	27	----	-41.6	28.52	16.5	17.4	N	0.00
 5/20/2003	 4:09p	16.3	-21.9	-21.8	-22.1	----	26	----	-40.5	28.52	15.7	17.4	N	0.00
 5/20/2003	 4:10p	16.3	-22.1	-22.1	-22.1	----	27	----	-40.6	28.52	15.7	17.4	N	0.00
 5/20/2003	 4:11p	16.3	-22.2	-22.1	-22.3	----	27	----	-40.8	28.52	15.7	16.5	N	0.00
 5/20/2003	 4:12p	16.3	-22.2	-22.1	-22.3	----	27	----	-40.8	28.52	15.7	16.5	N	0.00
 5/20/2003	 4:13p	16.3	-21.9	-21.7	-22.1	----	27	----	-41.6	28.52	16.5	17.4	N	0.00
 5/20/2003	 4:14p	16.2	-21.9	-21.7	-22.0	----	27	----	-40.5	28.52	15.7	17.4	N	0.00
 5/20/2003	 4:15p	16.2	-21.9	-21.7	-22.0	----	27	----	-42.4	28.52	17.4	19.1	N	0.00
 5/20/2003	 4:16p	16.2	-21.6	-21.6	-21.7	----	27	----	-40.1	28.52	15.7	17.4	N	0.00
 5/20/2003	 4:17p	16.2	-21.8	-21.8	-21.9	----	27	----	-40.4	28.52	15.7	16.5	N	0.00
 5/20/2003	 4:18p	16.2	-21.9	-21.9	-21.9	----	27	----	-41.6	28.52	16.5	17.4	N	0.00
 5/20/2003	 4:19p	16.2	-21.8	-21.8	-21.9	----	26	----	-40.4	28.52	15.7	16.5	N	0.00
 5/20/2003	 4:20p	16.1	-21.9	-21.9	-22.0	----	26	----	-40.6	28.52	15.7	16.5	N	0.00
 5/20/2003	 4:21p	16.1	-21.9	-21.8	-22.1	----	26	----	-41.6	28.52	16.5	18.3	N	0.00
 5/20/2003	 4:22p	16.1	-21.7	-21.7	-21.8	----	27	----	-41.2	28.52	16.5	17.4	N	0.00
 5/20/2003	 4:23p	16.1	-21.7	-21.7	-21.7	----	27	----	-40.2	28.52	15.7	16.5	N	0.00
 5/20/2003	 4:24p	16.1	-21.8	-21.7	-21.8	----	27	----	-40.3	28.52	15.7	16.5	N	0.00
 5/20/2003	 4:25p	16.0	-21.7	-21.7	-21.8	----	27	----	-41.2	28.52	16.5	18.3	N	0.00
 5/20/2003	 4:26p	16.0	-21.7	-21.7	-21.8	----	27	----	-41.2	28.52	16.5	17.4	N	0.00
 5/20/2003	 4:27p	16.0	-21.6	-21.6	-21.7	----	27	----	-41.0	28.52	16.5	18.3	N	0.00
 5/20/2003	 4:28p	15.9	-21.6	-21.6	-21.6	----	27	----	-40.1	28.52	15.7	17.4	N	0.00
 5/20/2003	 4:29p	15.9	-21.6	-21.6	-21.6	----	28	----	-41.0	28.52	16.5	18.3	N	0.00
 5/20/2003	 4:30p	15.9	-21.3	-21.3	-21.4	----	27	----	-40.7	28.52	16.5	18.3	N	0.00
 5/20/2003	 4:31p	15.9	-21.3	-21.3	-21.4	----	26	----	-40.7	28.52	16.5	19.1	N	0.00
 5/20/2003	 4:32p	15.9	-21.6	-21.6	-21.7	----	26	----	-41.0	28.52	16.5	17.4	N	0.00
 5/20/2003	 4:33p	15.9	-21.4	-21.3	-21.6	----	26	----	-41.8	28.52	17.4	18.3	N	0.00
 5/20/2003	 4:34p	15.8	-21.3	-21.3	-21.4	----	27	----	-41.7	28.52	17.4	18.3	N	0.00
 5/20/2003	 4:35p	15.8	-21.3	-21.1	-21.3	----	27	----	-40.7	28.52	16.5	18.3	N	0.00
 5/20/2003	 4:36p	15.8	-21.3	-21.1	-21.4	----	27	----	-39.7	28.52	15.7	17.4	N	0.00
 5/20/2003	 4:37p	15.8	-21.4	-21.3	-21.4	----	27	----	-40.8	28.52	16.5	17.4	N	0.00
 5/20/2003	 4:38p	15.8	-21.3	-21.3	-21.4	----	27	----	-38.6	28.52	14.8	16.5	N	0.00
 5/20/2003	 4:39p	15.7	-21.4	-21.3	-21.4	----	27	----	-39.8	28.53	15.7	17.4	N	0.00
 5/20/2003	 4:40p	15.7	-21.4	-21.3	-21.4	----	28	----	-40.8	28.52	16.5	16.5	N	0.00
 5/20/2003	 4:41p	15.7	-21.4	-21.4	-21.4	----	28	----	-39.9	28.52	15.7	17.4	N	0.00
 5/20/2003	 4:42p	15.7	-21.4	-21.4	-21.4	----	27	----	-40.9	28.52	16.5	17.4	N	0.00
 5/20/2003	 4:43p	15.7	-21.4	-21.4	-21.5	----	27	----	-39.9	28.52	15.7	17.4	N	0.00
 5/20/2003	 4:44p	15.7	-21.4	-21.3	-21.4	----	27	----	-40.8	28.52	16.5	17.4	N	0.00
 5/20/2003	 4:45p	15.7	-21.4	-21.3	-21.4	----	27	----	-40.8	28.52	16.5	17.4	N	0.00
 5/20/2003	 4:46p	15.7	-21.3	-21.2	-21.3	----	27	----	-40.7	28.52	16.5	17.4	N	0.00
 5/20/2003	 4:47p	15.7	-21.4	-21.3	-21.5	----	28	----	-40.9	28.52	16.5	16.5	N	0.00
 5/20/2003	 4:48p	15.7	-21.5	-21.4	-21.5	----	28	----	-39.9	28.52	15.7	16.5	N	0.00
 5/20/2003	 4:49p	15.7	-21.4	-21.4	-21.4	----	27	----	-39.9	28.52	15.7	16.5	N	0.00
 5/20/2003	 4:50p	15.7	-21.3	-21.3	-21.4	----	27	----	-39.7	28.52	15.7	17.4	N	0.00
 5/20/2003	 4:51p	15.7	-21.3	-21.3	-21.4	----	27	----	-40.7	28.52	16.5	17.4	N	0.00
 5/20/2003	 4:52p	15.7	-21.4	-21.4	-21.4	----	27	----	-40.9	28.52	16.5	17.4	N	0.00
 5/20/2003	 4:53p	15.7	-21.4	-21.4	-21.5	----	27	----	-40.9	28.52	16.5	18.3	N	0.00
 5/20/2003	 4:54p	15.7	-21.4	-21.3	-21.4	----	28	----	-40.8	28.52	16.5	18.3	N	0.00
 5/20/2003	 4:55p	15.7	-21.4	-21.3	-21.4	----	28	----	-40.8	28.52	16.5	18.3	N	0.00
 5/20/2003	 4:56p	15.8	-21.3	-21.3	-21.4	----	28	----	-39.7	28.52	15.7	17.4	N	0.00
 5/20/2003	 4:57p	15.8	-21.4	-21.3	-21.4	----	28	----	-40.8	28.52	16.5	17.4	N	0.00
 5/20/2003	 4:58p	15.8	-21.2	-21.2	-21.3	----	28	----	-40.5	28.52	16.5	18.3	N	0.00
 5/20/2003	 4:59p	15.8	-21.2	-21.2	-21.2	----	27	----	-40.4	28.52	16.5	17.4	N	0.00
 5/20/2003	 5:00p	15.8	-21.2	-21.1	-21.2	----	27	----	-40.4	28.52	16.5	17.4	N	0.00
 5/20/2003	 5:01p	15.8	-21.1	-21.1	-21.1	----	27	----	-39.4	28.52	15.7	17.4	N	0.00
 5/20/2003	 5:02p	15.8	-21.1	-21.0	-21.1	----	27	----	-37.1	28.52	13.9	16.5	N	0.00
 5/20/2003	 5:03p	15.9	-21.1	-21.1	-21.1	----	28	----	-37.1	28.52	13.9	15.7	N	0.00
 5/20/2003	 5:04p	15.9	-21.2	-21.1	-21.2	----	28	----	-37.2	28.52	13.9	15.7	N	0.00
 5/20/2003	 5:05p	15.9	-21.2	-21.2	-21.3	----	28	----	-38.3	28.52	14.8	17.4	N	0.00
 5/20/2003	 5:06p	15.9	-21.2	-21.2	-21.2	----	28	----	-38.3	28.52	14.8	16.5	N	0.00
 5/20/2003	 5:07p	15.9	-21.2	-21.2	-21.3	----	28	----	-39.5	28.52	15.7	17.4	N	0.00
 5/20/2003	 5:08p	15.9	-21.1	-21.0	-21.2	----	27	----	-40.3	28.52	16.5	19.1	N	0.00
 5/20/2003	 5:09p	15.9	-21.0	-21.0	-21.0	----	27	----	-41.2	28.52	17.4	19.1	N	0.00
 5/20/2003	 5:10p	16.0	-21.0	-20.9	-21.0	----	27	----	-40.3	28.52	16.5	18.3	N	0.00
 5/20/2003	 5:11p	16.0	-20.9	-20.9	-20.9	----	28	----	-41.1	28.52	17.4	18.3	N	0.00
 5/20/2003	 5:12p	16.0	-20.8	-20.8	-20.9	----	28	----	-40.1	28.52	16.5	18.3	N	0.00
 5/20/2003	 5:13p	16.0	-20.9	-20.9	-21.0	----	28	----	-39.2	28.52	15.7	16.5	N	0.00
 5/20/2003	 5:14p	16.1	-20.9	-20.9	-21.0	----	28	----	-38.1	28.52	14.8	15.7	N	0.00
 5/20/2003	 5:15p	16.1	-21.0	-20.9	-21.1	----	28	----	-37.1	28.52	13.9	15.7	N	0.00
 5/20/2003	 5:16p	16.1	-21.2	-21.1	-21.2	----	27	----	-38.3	28.52	14.8	16.5	N	0.00
 5/20/2003	 5:17p	16.1	-21.1	-21.1	-21.2	----	27	----	-38.2	28.52	14.8	16.5	N	0.00
 5/20/2003	 5:18p	16.1	-20.9	-20.9	-21.1	----	27	----	-38.1	28.52	14.8	16.5	N	0.00
 5/20/2003	 5:19p	16.2	-20.9	-20.8	-21.1	----	27	----	-38.0	28.52	14.8	15.7	N	0.00
 5/20/2003	 5:20p	16.2	-20.9	-20.8	-21.1	----	28	----	-39.2	28.52	15.7	18.3	N	0.00
 5/20/2003	 5:21p	16.2	-20.8	-20.8	-20.8	----	28	----	-37.8	28.52	14.8	16.5	N	0.00
 5/20/2003	 5:22p	16.2	-20.8	-20.8	-20.9	----	28	----	-39.1	28.52	15.7	16.5	N	0.00
 5/20/2003	 5:23p	16.2	-20.9	-20.8	-20.9	----	28	----	-39.2	28.52	15.7	18.3	N	0.00
 5/20/2003	 5:24p	16.2	-20.9	-20.9	-20.9	----	28	----	-39.2	28.52	15.7	16.5	N	0.00
 5/20/2003	 5:25p	16.2	-20.9	-20.8	-21.0	----	28	----	-40.2	28.51	16.5	17.4	N	0.00
 5/20/2003	 5:26p	16.2	-20.9	-20.8	-20.9	----	27	----	-40.1	28.51	16.5	18.3	N	0.00
 5/20/2003	 5:27p	16.3	-20.9	-20.9	-20.9	----	27	----	-40.2	28.51	16.5	17.4	N	0.00
 5/20/2003	 5:28p	16.3	-20.9	-20.8	-20.9	----	27	----	-40.1	28.51	16.5	18.3	N	0.00
 5/20/2003	 5:29p	16.3	-20.8	-20.8	-20.8	----	28	----	-40.1	28.51	16.5	18.3	N	0.00
 5/20/2003	 5:30p	16.3	-20.8	-20.8	-20.8	----	28	----	-40.1	28.51	16.5	18.3	N	0.00
 5/20/2003	 5:31p	16.3	-20.9	-20.8	-20.9	----	28	----	-38.0	28.51	14.8	17.4	N	0.00
 5/20/2003	 5:32p	16.3	-20.9	-20.9	-21.0	----	28	----	-39.2	28.51	15.7	18.3	N	0.00
 5/20/2003	 5:33p	16.3	-20.8	-20.8	-20.9	----	28	----	-39.9	28.51	16.5	18.3	N	0.00
 5/20/2003	 5:34p	16.3	-20.8	-20.7	-20.9	----	28	----	-42.0	28.51	18.3	20.0	N	0.00
 5/20/2003	 5:35p	16.3	-20.7	-20.7	-20.7	----	28	----	-42.7	28.51	19.1	20.0	N	0.00
 5/20/2003	 5:36p	16.3	-20.6	-20.6	-20.7	----	28	----	-43.5	28.51	20.9	21.7	N	0.00
 5/20/2003	 5:37p	16.4	-20.6	-20.6	-20.7	----	27	----	-44.1	28.50	21.7	22.6	N	0.00
 5/20/2003	 5:38p	16.4	-20.6	-20.6	-20.7	----	27	----	-44.1	28.50	21.7	23.5	N	0.00
 5/20/2003	 5:40p	16.4	-20.8	-20.7	-20.8	----	27	----	-43.8	28.50	20.0	21.7	N	0.00
 5/20/2003	 5:41p	16.4	-20.7	-20.7	-20.8	----	27	----	-43.7	28.51	20.0	20.9	N	0.00
 5/20/2003	 5:42p	16.4	-20.7	-20.7	-20.8	----	27	----	-42.7	28.51	19.1	20.0	N	0.00
 5/20/2003	 5:43p	16.4	-20.7	-20.7	-20.8	----	28	----	-42.7	28.51	19.1	20.9	N	0.00
 5/20/2003	 5:44p	16.4	-20.7	-20.7	-20.7	----	28	----	-43.6	28.51	20.0	21.7	N	0.00
 5/20/2003	 5:45p	16.4	-20.7	-20.7	-20.7	----	28	----	-43.6	28.51	20.9	21.7	N	0.00
 5/20/2003	 5:46p	16.4	-20.7	-20.7	-20.7	----	28	----	-43.6	28.51	20.0	21.7	N	0.00
 5/20/2003	 5:47p	16.4	-20.8	-20.7	-20.9	----	28	----	-43.8	28.51	20.0	20.9	N	0.00
 5/20/2003	 5:48p	16.4	-20.9	-20.8	-20.9	----	27	----	-44.0	28.51	20.0	20.9	N	0.00
 5/20/2003	 5:49p	16.3	-20.8	-20.8	-20.8	----	27	----	-43.9	28.51	20.0	21.7	N	0.00
 5/20/2003	 5:50p	16.4	-20.7	-20.7	-20.8	----	26	----	-42.7	28.51	19.1	21.7	N	0.00
 5/20/2003	 5:51p	16.4	-20.8	-20.8	-20.8	----	26	----	-42.0	28.51	18.3	19.1	N	0.00
 5/20/2003	 5:52p	16.3	-20.8	-20.8	-20.9	----	26	----	-40.1	28.51	16.5	17.4	N	0.00
 5/20/2003	 5:53p	16.3	-20.9	-20.8	-20.9	----	27	----	-41.1	28.51	17.4	20.0	N	0.00
 5/20/2003	 5:54p	16.3	-20.8	-20.8	-20.8	----	27	----	-42.9	28.51	19.1	20.9	N	0.00
 5/20/2003	 5:55p	16.3	-20.7	-20.7	-20.8	----	27	----	-43.7	28.51	20.0	22.6	N	0.00
 5/20/2003	 5:56p	16.3	-20.7	-20.7	-20.8	----	27	----	-43.7	28.50	20.9	23.5	N	0.00
 5/20/2003	 5:57p	16.3	-20.7	-20.7	-20.8	----	27	----	-44.2	28.51	21.7	23.5	N	0.00
 5/20/2003	 5:58p	16.2	-20.7	-20.7	-20.8	----	27	----	-41.8	28.51	18.3	20.0	N	0.00
 5/20/2003	 5:59p	16.2	-20.7	-20.7	-20.7	----	27	----	-40.8	28.51	17.4	18.3	N	0.00
 5/20/2003	 6:00p	16.2	-20.7	-20.7	-20.7	----	27	----	-40.7	28.51	17.4	18.3	N	0.00
 5/20/2003	 6:01p	16.2	-20.7	-20.7	-20.8	----	27	----	-41.8	28.51	18.3	20.0	N	0.00
 5/20/2003	 6:02p	16.2	-20.7	-20.7	-20.7	----	27	----	-43.7	28.50	20.9	22.6	N	0.00
 5/20/2003	 6:03p	16.2	-20.6	-20.6	-20.7	----	26	----	-43.4	28.50	20.9	22.6	N	0.00
 5/20/2003	 6:04p	16.2	-20.6	-20.5	-20.6	----	26	----	-43.4	28.51	20.9	21.7	N	0.00
 5/20/2003	 6:05p	16.1	-20.7	-20.6	-20.7	----	26	----	-42.7	28.51	19.1	20.0	N	0.00
 5/20/2003	 6:07p	16.1	-20.6	-20.6	-20.7	----	27	----	-42.6	28.51	19.1	21.7	N	0.00
 5/20/2003	 6:08p	16.1	-20.6	-20.6	-20.6	----	27	----	-41.6	28.51	18.3	19.1	N	0.00
 5/20/2003	 6:09p	16.1	-20.6	-20.6	-20.7	----	27	----	-40.6	28.51	17.4	19.1	N	0.00
 5/20/2003	 6:10p	16.1	-20.6	-20.6	-20.6	----	27	----	-39.7	28.51	16.5	18.3	N	0.00
 5/20/2003	 6:11p	16.0	-20.6	-20.6	-20.6	----	27	----	-40.6	28.51	17.4	19.1	N	0.00
 5/20/2003	 6:12p	16.0	-20.6	-20.6	-20.6	----	27	----	-41.5	28.51	18.3	19.1	N	0.00
 5/20/2003	 6:13p	15.9	-20.7	-20.6	-20.8	----	27	----	-40.8	28.51	17.4	19.1	N	0.00
 5/20/2003	 6:14p	15.9	-20.8	-20.8	-20.8	----	27	----	-41.0	28.51	17.4	19.1	N	0.00
 5/20/2003	 6:15p	15.9	-20.8	-20.7	-20.8	----	27	----	-40.9	28.51	17.4	19.1	N	0.00
 5/20/2003	 6:16p	15.9	-20.7	-20.6	-20.7	----	26	----	-41.7	28.50	18.3	21.7	N	0.00
 5/20/2003	 6:17p	15.9	-20.6	-20.5	-20.6	----	26	----	-39.6	28.51	16.5	18.3	N	0.00
 5/20/2003	 6:18p	15.9	-20.6	-20.6	-20.7	----	26	----	-39.7	28.50	16.5	19.1	N	0.00
 5/20/2003	 6:19p	15.9	-20.6	-20.6	-20.7	----	26	----	-39.7	28.51	16.5	17.4	N	0.00
 5/20/2003	 6:20p	15.9	-20.6	-20.5	-20.7	----	27	----	-39.7	28.51	16.5	19.1	N	0.00
 5/20/2003	 6:21p	15.8	-20.5	-20.5	-20.6	----	27	----	-40.5	28.51	17.4	18.3	N	0.00
 5/20/2003	 6:22p	15.8	-20.6	-20.5	-20.6	----	27	----	-39.6	28.51	16.5	18.3	N	0.00
 5/20/2003	 6:23p	15.8	-20.6	-20.5	-20.6	----	27	----	-39.6	28.51	16.5	18.3	N	0.00
 5/20/2003	 6:24p	15.8	-20.5	-20.5	-20.6	----	27	----	-39.5	28.51	16.5	19.1	N	0.00
 5/20/2003	 6:25p	15.8	-20.5	-20.5	-20.6	----	28	----	-40.5	28.51	17.4	18.3	N	0.00
 5/20/2003	 6:26p	15.7	-20.6	-20.6	-20.6	----	28	----	-39.6	28.51	16.5	18.3	N	0.00
 5/20/2003	 6:27p	15.7	-20.5	-20.4	-20.6	----	28	----	-41.4	28.50	18.3	20.0	N	0.00
 5/20/2003	 6:28p	15.7	-20.4	-20.4	-20.5	----	27	----	-42.4	28.50	19.1	20.9	N	0.00
 5/20/2003	 6:29p	15.7	-20.4	-20.4	-20.4	----	27	----	-43.3	28.50	20.0	21.7	N	0.00
 5/20/2003	 6:30p	15.7	-20.4	-20.4	-20.4	----	27	----	-43.3	28.50	20.9	22.6	N	0.00
 5/20/2003	 6:31p	15.7	-20.5	-20.4	-20.6	----	27	----	-43.3	28.50	20.0	23.5	N	0.00
 5/20/2003	 6:32p	15.7	-20.5	-20.4	-20.6	----	27	----	-43.9	28.50	21.7	23.5	N	0.00
 5/20/2003	 6:33p	15.7	-20.4	-20.4	-20.4	----	28	----	-43.3	28.50	20.0	21.7	N	0.00
 5/20/2003	 6:34p	15.7	-20.3	-20.2	-20.4	----	28	----	-43.2	28.50	20.9	23.5	N	0.00
 5/20/2003	 6:35p	15.7	-20.2	-20.2	-20.2	----	28	----	-42.9	28.50	20.9	23.5	N	0.00
 5/20/2003	 6:36p	15.7	-20.3	-20.3	-20.4	----	27	----	-43.7	28.50	21.7	24.3	N	0.00
 5/20/2003	 6:37p	15.8	-20.3	-20.3	-20.4	----	27	----	-43.2	28.50	20.0	21.7	N	0.00
 5/20/2003	 6:38p	15.8	-20.4	-20.4	-20.5	----	27	----	-42.4	28.50	19.1	21.7	N	0.00
 5/20/2003	 6:39p	15.8	-20.4	-20.3	-20.5	----	27	----	-43.3	28.50	20.0	21.7	N	0.00
 5/20/2003	 6:40p	15.8	-20.4	-20.3	-20.4	----	28	----	-43.3	28.50	20.9	22.6	N	0.00
 5/20/2003	 6:41p	15.8	-20.4	-20.4	-20.4	----	28	----	-43.3	28.50	20.9	24.3	N	0.00
 5/20/2003	 6:42p	15.8	-20.3	-20.3	-20.4	----	28	----	-43.2	28.50	20.0	22.6	N	0.00
 5/20/2003	 6:43p	15.8	-20.3	-20.3	-20.3	----	28	----	-43.1	28.50	20.9	23.5	N	0.00
 5/20/2003	 6:44p	15.8	-20.3	-20.3	-20.3	----	28	----	-44.3	28.49	22.6	25.2	N	0.00
 5/20/2003	 6:45p	15.8	-20.3	-20.3	-20.4	----	27	----	-44.3	28.49	22.6	24.3	N	0.00
 5/20/2003	 6:46p	15.8	-20.3	-20.2	-20.3	----	27	----	-43.1	28.50	20.9	23.5	N	0.00
 5/20/2003	 6:47p	15.8	-20.2	-20.2	-20.3	----	27	----	-42.9	28.49	20.9	25.2	N	0.00
 5/20/2003	 6:48p	15.9	-20.2	-20.1	-20.2	----	27	----	-42.9	28.49	20.0	23.5	N	0.00
 5/20/2003	 6:49p	15.9	-20.2	-20.2	-20.2	----	27	----	-44.6	28.49	23.5	25.2	N	0.00
 5/20/2003	 6:50p	15.9	-20.2	-20.1	-20.2	----	28	----	-43.4	28.50	21.7	23.5	N	0.00
 5/20/2003	 6:51p	15.9	-20.2	-20.1	-20.2	----	28	----	-43.4	28.49	21.7	24.3	N	0.00
 5/20/2003	 6:52p	15.9	-20.0	-19.9	-20.1	----	28	----	-43.8	28.50	22.6	26.1	N	0.00
 5/20/2003	 6:53p	15.9	-20.0	-19.9	-20.1	----	27	----	-43.8	28.50	22.6	25.2	N	0.00
 5/20/2003	 6:54p	15.9	-20.0	-19.9	-20.1	----	27	----	-44.3	28.50	23.5	24.3	N	0.00
 5/20/2003	 6:55p	15.9	-19.9	-19.9	-19.9	----	27	----	-43.6	28.50	22.6	25.2	N	0.00
 5/20/2003	 6:56p	15.9	-19.9	-19.9	-20.0	----	27	----	-43.2	28.50	21.7	24.3	N	0.00
 5/20/2003	 6:57p	16.0	-20.0	-19.9	-20.0	----	27	----	-42.7	28.50	20.9	22.6	N	0.00
 5/20/2003	 6:58p	16.0	-19.9	-19.8	-20.0	----	27	----	-43.1	28.50	21.7	24.3	N	0.00
 5/20/2003	 6:59p	16.0	-19.9	-19.8	-20.0	----	27	----	-42.6	28.50	20.9	22.6	N	0.00
 5/20/2003	 7:00p	16.0	-20.0	-19.9	-20.1	----	28	----	-43.2	28.50	21.7	24.3	N	0.00
 5/20/2003	 7:01p	16.0	-19.8	-19.8	-19.9	----	28	----	-42.5	28.50	20.0	23.5	N	0.00
 5/20/2003	 7:02p	16.1	-19.9	-19.8	-19.9	----	28	----	-42.6	28.50	20.9	23.5	N	0.00
 5/20/2003	 7:03p	16.1	-19.9	-19.7	-19.9	----	27	----	-44.2	28.49	23.5	27.0	N	0.00
 5/20/2003	 7:04p	16.1	-19.8	-19.7	-19.9	----	27	----	-42.9	28.49	21.7	23.5	N	0.00
 5/20/2003	 7:06p	16.1	-19.9	-19.9	-20.0	----	27	----	-43.2	28.49	21.7	23.5	N	0.00
 5/20/2003	 7:07p	16.1	-20.0	-20.0	-20.1	----	27	----	-43.8	28.49	22.6	23.5	N	0.00
 5/20/2003	 7:08p	16.1	-20.1	-20.1	-20.1	----	27	----	-42.7	28.49	20.9	23.5	N	0.00
 5/20/2003	 7:09p	16.1	-20.0	-19.9	-20.1	----	28	----	-42.7	28.49	20.9	23.5	N	0.00
 5/20/2003	 7:10p	16.1	-20.0	-20.0	-20.2	----	28	----	-43.2	28.49	21.7	23.5	N	0.00
 5/20/2003	 7:11p	16.1	-20.2	-20.1	-20.2	----	28	----	-44.4	28.49	23.5	27.0	N	0.00
 5/20/2003	 7:12p	16.1	-20.0	-20.0	-20.1	----	28	----	-44.8	28.49	24.3	27.0	N	0.00
 5/20/2003	 7:13p	16.2	-19.9	-19.9	-19.9	----	27	----	-43.7	28.49	22.6	25.2	N	0.00
 5/20/2003	 7:15p	16.2	-19.8	-19.7	-19.8	----	27	----	-44.5	28.49	24.3	27.8	N	0.00
 5/20/2003	 7:16p	16.2	-19.9	-19.8	-20.1	----	27	----	-43.1	28.49	21.7	27.8	N	0.00
 5/20/2003	 7:17p	16.2	-19.9	-19.8	-20.1	----	27	----	-45.7	28.48	26.1	27.8	NNE	0.00
 5/20/2003	 7:18p	16.2	-19.9	-19.8	-19.9	----	27	----	-45.7	28.49	26.1	28.7	NNE	0.00
 5/20/2003	 7:19p	16.2	-19.9	-19.9	-20.0	----	27	----	-44.8	28.49	24.3	29.6	N	0.00
 5/20/2003	 7:20p	16.2	-19.9	-19.8	-20.0	----	28	----	-45.7	28.48	27.0	28.7	N	0.00
 5/20/2003	 7:21p	16.2	-19.8	-19.8	-19.8	----	28	----	-45.1	28.49	25.2	28.7	N	0.00
 5/20/2003	 7:22p	16.2	-19.8	-19.8	-19.8	----	27	----	-44.5	28.48	24.3	27.0	N	0.00
 5/20/2003	 7:23p	16.3	-19.8	-19.8	-19.9	----	27	----	-44.1	28.49	23.5	27.0	N	0.00
 5/20/2003	 7:24p	16.3	-19.9	-19.9	-19.9	----	26	----	-43.6	28.49	22.6	25.2	N	0.00
 5/20/2003	 7:25p	16.3	-20.0	-19.9	-20.1	----	27	----	-43.2	28.49	21.7	24.3	N	0.00
 5/20/2003	 7:26p	16.3	-19.9	-19.8	-20.1	----	27	----	-44.2	28.48	23.5	25.2	N	0.00
 5/20/2003	 7:27p	16.3	-19.9	-19.8	-19.9	----	27	----	-45.2	28.48	25.2	28.7	N	0.00
 5/20/2003	 7:28p	16.3	-19.8	-19.8	-19.8	----	27	----	-44.1	28.49	23.5	25.2	NNW	0.00
 5/20/2003	 7:29p	16.3	-19.8	-19.8	-19.8	----	27	----	-44.1	28.49	23.5	25.2	N	0.00
 5/20/2003	 7:30p	16.3	-19.9	-19.8	-19.9	----	27	----	-44.2	28.49	23.5	27.0	N	0.00
 5/20/2003	 7:31p	16.3	-19.9	-19.9	-19.9	----	27	----	-44.2	28.49	23.5	27.0	N	0.00
 5/20/2003	 7:33p	16.3	-19.7	-19.7	-19.8	----	27	----	-44.3	28.48	24.3	26.1	N	0.00
 5/20/2003	 7:34p	16.3	-19.7	-19.7	-19.8	----	27	----	-44.3	28.49	24.3	27.0	N	0.00
 5/20/2003	 7:35p	16.3	-19.7	-19.6	-19.7	----	26	----	-44.8	28.48	25.2	26.1	N	0.00
 5/20/2003	 7:36p	16.4	-19.7	-19.7	-19.8	----	27	----	-44.3	28.49	24.3	27.0	N	0.00
 5/20/2003	 7:37p	16.4	-19.7	-19.7	-19.8	----	27	----	-44.3	28.48	24.3	26.1	N	0.00
 5/20/2003	 7:38p	16.4	-19.7	-19.7	-19.7	----	27	----	-44.9	28.48	25.2	27.8	N	0.00
 5/20/2003	 7:39p	16.4	-19.8	-19.7	-19.8	----	27	----	-45.1	28.49	25.2	27.8	N	0.00
 5/20/2003	 7:40p	16.4	-19.8	-19.8	-19.8	----	27	----	-44.0	28.49	23.5	25.2	N	0.00
 5/20/2003	 7:41p	16.4	-19.8	-19.7	-19.8	----	27	----	-44.6	28.49	24.3	27.0	N	0.00
 5/20/2003	 7:42p	16.4	-19.7	-19.7	-19.8	----	27	----	-43.8	28.49	23.5	24.3	N	0.00
 5/20/2003	 7:43p	16.4	-19.7	-19.7	-19.8	----	27	----	-44.3	28.49	24.3	27.0	N	0.00
 5/20/2003	 7:44p	16.4	-19.7	-19.7	-19.7	----	27	----	-44.3	28.49	24.3	26.1	N	0.00
 5/20/2003	 7:45p	16.3	-19.7	-19.7	-19.8	----	27	----	-44.9	28.48	25.2	27.0	N	0.00
 5/20/2003	 7:46p	16.3	-19.7	-19.7	-19.8	----	27	----	-43.8	28.48	23.5	27.0	N	0.00
 5/20/2003	 7:47p	16.3	-19.8	-19.7	-19.8	----	26	----	-43.4	28.49	22.6	27.0	N	0.00
 5/20/2003	 7:48p	16.3	-19.7	-19.7	-19.8	----	26	----	-43.8	28.49	23.5	26.1	N	0.00
 5/20/2003	 7:49p	16.3	-19.7	-19.7	-19.7	----	26	----	-44.3	28.48	24.3	27.8	N	0.00
 5/20/2003	 7:50p	16.3	-19.6	-19.6	-19.7	----	26	----	-44.8	28.48	25.2	27.0	N	0.00
 5/20/2003	 7:51p	16.3	-19.6	-19.6	-19.6	----	26	----	-44.7	28.48	25.2	27.0	N	0.00
 5/20/2003	 7:52p	16.3	-19.6	-19.6	-19.6	----	26	----	-44.2	28.48	24.3	27.0	N	0.00
 5/20/2003	 7:53p	16.3	-19.6	-19.5	-19.6	----	27	----	-44.1	28.48	24.3	27.8	N	0.00
 5/20/2003	 7:54p	16.3	-19.5	-19.5	-19.6	----	27	----	-44.1	28.48	24.3	26.1	N	0.00
 5/20/2003	 7:55p	16.3	-19.6	-19.5	-19.6	----	27	----	-43.6	28.48	23.5	26.1	N	0.00
 5/20/2003	 7:56p	16.3	-19.6	-19.5	-19.6	----	27	----	-44.1	28.48	24.3	27.8	N	0.00
 5/20/2003	 7:57p	16.2	-19.4	-19.4	-19.4	----	27	----	-44.5	28.49	25.2	27.0	N	0.00
 5/20/2003	 7:58p	16.2	-19.4	-19.4	-19.6	----	27	----	-44.6	28.49	25.2	27.8	N	0.00
 5/20/2003	 7:59p	16.2	-19.6	-19.5	-19.6	----	27	----	-43.1	28.49	22.6	25.2	N	0.00
 5/20/2003	 8:00p	16.2	-19.6	-19.5	-19.6	----	27	----	-43.6	28.49	23.5	26.1	N	0.00
 5/20/2003	 8:01p	16.2	-19.5	-19.4	-19.6	----	27	----	-43.1	28.49	22.6	25.2	N	0.00
 5/20/2003	 8:02p	16.1	-19.6	-19.5	-19.6	----	26	----	-43.6	28.49	23.5	26.1	N	0.00
 5/20/2003	 8:03p	16.1	-19.6	-19.6	-19.6	----	26	----	-43.1	28.49	22.6	27.0	N	0.00
 5/20/2003	 8:04p	16.1	-19.4	-19.4	-19.6	----	26	----	-43.0	28.49	22.6	27.0	N	0.00
 5/20/2003	 8:05p	16.1	-19.5	-19.5	-19.6	----	26	----	-43.1	28.49	22.6	24.3	N	0.00
 5/20/2003	 8:06p	16.1	-19.4	-19.4	-19.5	----	26	----	-43.5	28.49	23.5	26.1	N	0.00
 5/20/2003	 8:07p	16.1	-19.4	-19.3	-19.4	----	26	----	-43.4	28.49	23.5	26.1	N	0.00
 5/20/2003	 8:08p	16.1	-19.3	-19.3	-19.4	----	27	----	-43.8	28.49	24.3	26.1	N	0.00
 5/20/2003	 8:09p	16.0	-19.4	-19.4	-19.6	----	27	----	-43.0	28.49	22.6	26.1	N	0.00
 5/20/2003	 8:10p	16.0	-19.6	-19.5	-19.6	----	27	----	-43.6	28.49	23.5	26.1	N	0.00
 5/20/2003	 8:11p	16.0	-19.4	-19.3	-19.5	----	27	----	-44.6	28.49	25.2	26.1	N	0.00
 5/20/2003	 8:12p	15.9	-19.4	-19.3	-19.4	----	27	----	-43.4	28.48	23.5	25.2	N	0.00
 5/20/2003	 8:14p	15.9	-19.4	-19.4	-19.4	----	27	----	-43.5	28.49	23.5	26.1	N	0.00
 5/20/2003	 8:15p	15.9	-19.4	-19.4	-19.4	----	26	----	-43.4	28.49	23.5	26.1	N	0.00
 5/20/2003	 8:16p	15.9	-19.4	-19.4	-19.4	----	26	----	-42.4	28.50	21.7	23.5	N	0.00
 5/20/2003	 8:17p	15.9	-19.4	-19.3	-19.4	----	26	----	-42.4	28.51	21.7	24.3	N	0.00
 5/20/2003	 8:18p	15.9	-19.3	-19.3	-19.4	----	26	----	-39.9	28.51	18.3	21.7	N	0.00
 5/20/2003	 8:19p	15.8	-19.3	-19.3	-19.3	----	27	----	-39.8	28.51	18.3	20.9	NNW	0.00
 5/20/2003	 8:20p	15.8	-19.3	-19.3	-19.3	----	27	----	-41.8	28.51	20.0	23.5	N	0.00
 5/20/2003	 8:21p	15.8	-19.3	-19.3	-19.4	----	27	----	-41.8	28.51	20.9	24.3	NNW	0.00
 5/20/2003	 8:22p	15.8	-19.3	-19.3	-19.3	----	27	----	-41.8	28.51	20.0	21.7	N	0.00
 5/20/2003	 8:23p	15.8	-19.3	-19.3	-19.3	----	28	----	-41.8	28.51	20.0	22.6	N	0.00
 5/20/2003	 8:24p	15.8	-19.4	-19.3	-19.4	----	27	----	-40.9	28.51	19.1	22.6	N	0.00
 5/20/2003	 8:25p	15.8	-19.4	-19.4	-19.4	----	27	----	-40.9	28.51	19.1	22.6	N	0.00
 5/20/2003	 8:26p	15.8	-19.4	-19.3	-19.4	----	27	----	-41.8	28.50	20.9	24.3	N	0.00
 5/20/2003	 8:27p	15.8	-19.3	-19.3	-19.3	----	27	----	-43.3	28.50	23.5	26.1	N	0.00
 5/20/2003	 8:28p	15.8	-19.3	-19.3	-19.3	----	27	----	-44.3	28.49	25.2	27.0	N	0.00
 5/20/2003	 8:29p	15.8	-19.3	-19.3	-19.4	----	27	----	-43.3	28.49	23.5	27.0	N	0.00
 5/20/2003	 8:30p	15.7	-19.4	-19.4	-19.4	----	27	----	-43.4	28.50	23.5	25.2	N	0.00
 5/20/2003	 8:31p	15.8	-19.3	-19.3	-19.4	----	28	----	-43.8	28.50	24.3	26.1	N	0.00
 5/20/2003	 8:32p	15.7	-19.3	-19.3	-19.3	----	28	----	-43.8	28.50	24.3	25.2	N	0.00
 5/20/2003	 8:33p	15.8	-19.3	-19.3	-19.3	----	28	----	-42.7	28.50	22.6	25.2	N	0.00
 5/20/2003	 8:34p	15.8	-19.3	-19.3	-19.4	----	28	----	-42.3	28.50	21.7	25.2	N	0.00
 5/20/2003	 8:35p	15.8	-19.4	-19.3	-19.4	----	27	----	-41.8	28.50	20.9	23.5	N	0.00
 5/20/2003	 8:36p	15.8	-19.3	-19.3	-19.3	----	27	----	-42.3	28.50	21.7	24.3	N	0.00
 5/20/2003	 8:37p	15.8	-19.3	-19.3	-19.3	----	27	----	-42.3	28.50	21.7	24.3	N	0.00
 5/20/2003	 8:38p	15.8	-19.4	-19.3	-19.4	----	27	----	-42.4	28.50	21.7	25.2	N	0.00
 5/20/2003	 8:39p	15.8	-19.3	-19.3	-19.4	----	27	----	-43.3	28.50	23.5	26.1	N	0.00
 5/20/2003	 8:40p	15.8	-19.3	-19.3	-19.3	----	28	----	-42.7	28.50	22.6	26.1	N	0.00
 5/20/2003	 8:41p	15.8	-19.4	-19.3	-19.4	----	28	----	-42.9	28.50	22.6	25.2	N	0.00
 5/20/2003	 8:42p	15.8	-19.4	-19.3	-19.4	----	27	----	-42.4	28.51	21.7	23.5	N	0.00
 5/20/2003	 8:43p	15.9	-19.3	-19.3	-19.4	----	27	----	-41.8	28.51	20.9	24.3	N	0.00
 5/20/2003	 8:44p	15.9	-19.2	-19.2	-19.3	----	27	----	-42.6	28.51	22.6	25.2	N	0.00
 5/20/2003	 8:45p	15.9	-19.2	-19.2	-19.2	----	27	----	-41.4	28.52	20.0	24.3	N	0.00
 5/20/2003	 8:46p	15.9	-19.2	-19.2	-19.2	----	27	----	-39.7	28.52	18.3	21.7	N	0.00
 5/20/2003	 8:47p	15.9	-19.2	-19.2	-19.2	----	27	----	-39.6	28.52	18.3	20.9	N	0.00
 5/20/2003	 8:48p	15.9	-19.2	-19.2	-19.3	----	28	----	-38.7	28.52	17.4	19.1	N	0.00
 5/20/2003	 8:49p	15.9	-19.3	-19.2	-19.3	----	28	----	-41.7	28.51	20.0	23.5	N	0.00
 5/20/2003	 8:50p	15.9	-19.2	-19.2	-19.2	----	28	----	-41.9	28.51	21.7	23.5	N	0.00
 5/20/2003	 8:51p	15.9	-19.2	-19.2	-19.2	----	27	----	-42.1	28.51	21.7	24.3	N	0.00
 5/20/2003	 8:52p	16.0	-19.2	-19.2	-19.3	----	27	----	-42.1	28.51	21.7	24.3	N	0.00
 5/20/2003	 8:53p	16.0	-19.2	-19.2	-19.2	----	27	----	-41.4	28.51	20.9	23.5	N	0.00
 5/20/2003	 8:54p	16.0	-19.3	-19.2	-19.4	----	27	----	-40.8	28.51	19.1	20.9	N	0.00
 5/20/2003	 8:55p	16.1	-19.3	-19.3	-19.4	----	27	----	-40.8	28.51	19.1	20.9	N	0.00
 5/20/2003	 8:56p	16.1	-19.2	-19.2	-19.3	----	27	----	-41.5	28.51	20.0	21.7	N	0.00
 5/20/2003	 8:57p	16.1	-19.2	-19.2	-19.2	----	28	----	-41.5	28.52	20.0	22.6	N	0.00
 5/20/2003	 8:58p	16.1	-19.1	-19.0	-19.2	----	28	----	-41.4	28.52	20.0	21.7	N	0.00
 5/20/2003	 8:59p	16.1	-19.0	-18.9	-19.0	----	28	----	-40.4	28.52	19.1	21.7	N	0.00
 5/20/2003	 9:00p	16.1	-18.9	-18.9	-19.0	----	27	----	-40.3	28.52	19.1	20.9	N	0.00
 5/20/2003	 9:01p	16.1	-18.9	-18.9	-18.9	----	27	----	-41.2	28.51	20.9	21.7	N	0.00
 5/20/2003	 9:02p	16.1	-18.9	-18.9	-19.0	----	27	----	-41.2	28.51	20.9	24.3	N	0.00
 5/20/2003	 9:03p	16.1	-18.9	-18.9	-18.9	----	27	----	-41.7	28.51	21.7	23.5	N	0.00
 5/20/2003	 9:04p	16.2	-19.0	-18.9	-19.0	----	27	----	-41.3	28.51	20.9	22.6	N	0.00
 5/20/2003	 9:05p	16.2	-19.1	-19.0	-19.1	----	28	----	-41.3	28.51	20.9	23.5	N	0.00
 5/20/2003	 9:06p	16.2	-18.9	-18.9	-19.0	----	28	----	-42.2	28.51	22.6	24.3	N	0.00
 5/20/2003	 9:07p	16.2	-18.9	-18.9	-19.0	----	27	----	-41.7	28.51	21.7	24.3	N	0.00
 5/20/2003	 9:08p	16.2	-19.0	-19.0	-19.0	----	27	----	-41.3	28.51	20.0	21.7	N	0.00
 5/20/2003	 9:09p	16.2	-19.1	-19.0	-19.2	----	27	----	-40.4	28.51	19.1	22.6	N	0.00
 5/20/2003	 9:10p	16.2	-19.1	-19.1	-19.1	----	27	----	-41.9	28.50	21.7	23.5	N	0.00
 5/20/2003	 9:11p	16.2	-19.1	-19.1	-19.2	----	27	----	-41.9	28.51	21.7	22.6	N	0.00
 5/20/2003	 9:13p	16.2	-19.1	-19.1	-19.1	----	28	----	-41.8	28.51	21.7	23.5	N	0.00
 5/20/2003	 9:14p	16.2	-19.1	-19.0	-19.1	----	28	----	-41.3	28.51	20.9	24.3	N	0.00
 5/20/2003	 9:15p	16.3	-18.9	-18.9	-19.0	----	28	----	-41.2	28.51	20.9	23.5	N	0.00
 5/20/2003	 9:16p	16.3	-19.1	-18.9	-19.2	----	27	----	-41.9	28.50	21.7	25.2	N	0.00
 5/20/2003	 9:17p	16.3	-18.9	-18.8	-18.9	----	27	----	-41.1	28.51	20.9	23.5	N	0.00
 5/20/2003	 9:18p	16.3	-19.0	-18.9	-19.0	----	27	----	-41.3	28.51	20.9	23.5	N	0.00
 5/20/2003	 9:19p	16.3	-18.9	-18.9	-18.9	----	27	----	-41.1	28.51	20.0	22.6	N	0.00
 5/20/2003	 9:20p	16.3	-19.0	-18.9	-19.1	----	27	----	-42.3	28.50	22.6	26.1	N	0.00
 5/20/2003	 9:22p	16.3	-19.1	-18.9	-19.1	----	28	----	-40.4	28.50	19.1	23.5	N	0.00
 5/20/2003	 9:23p	16.4	-19.1	-19.0	-19.1	----	28	----	-41.3	28.51	20.9	24.3	N	0.00
 5/20/2003	 9:24p	16.4	-18.9	-18.9	-18.9	----	27	----	-41.2	28.51	20.9	23.5	N	0.00
 5/20/2003	 9:25p	16.4	-18.9	-18.9	-18.9	----	27	----	-42.8	28.50	23.5	26.1	N	0.00
 5/20/2003	 9:26p	16.4	-18.9	-18.8	-18.9	----	27	----	-43.2	28.50	24.3	28.7	N	0.00
 5/20/2003	 9:27p	16.4	-18.9	-18.9	-18.9	----	27	----	-41.7	28.50	21.7	25.2	N	0.00
 5/20/2003	 9:28p	16.4	-18.9	-18.9	-18.9	----	27	----	-41.2	28.50	20.0	25.2	N	0.00
 5/20/2003	 9:29p	16.4	-18.9	-18.8	-18.9	----	27	----	-42.2	28.50	22.6	25.2	N	0.00
 5/20/2003	 9:30p	16.4	-18.9	-18.8	-19.0	----	27	----	-42.2	28.50	22.6	23.5	N	0.00
 5/20/2003	 9:31p	16.4	-18.9	-18.9	-19.0	----	27	----	-41.2	28.51	20.0	22.6	N	0.00
 5/20/2003	 9:32p	16.4	-18.9	-18.9	-18.9	----	27	----	-41.1	28.50	20.0	23.5	N	0.00
 5/20/2003	 9:33p	16.4	-18.8	-18.7	-18.9	----	28	----	-42.5	28.50	23.5	24.3	N	0.00
 5/20/2003	 9:34p	16.4	-18.7	-18.7	-18.8	----	28	----	-41.3	28.50	21.7	24.3	N	0.00
 5/20/2003	 9:35p	16.4	-18.8	-18.7	-18.8	----	27	----	-42.6	28.50	23.5	25.2	N	0.00
 5/20/2003	 9:36p	16.4	-18.7	-18.7	-18.7	----	27	----	-41.3	28.50	21.7	23.5	N	0.00
 5/20/2003	 9:37p	16.4	-18.8	-18.8	-18.8	----	26	----	-43.6	28.49	25.2	28.7	N	0.00
 5/20/2003	 9:38p	16.4	-18.8	-18.7	-18.8	----	26	----	-42.5	28.50	23.5	25.2	N	0.00
 5/20/2003	 9:39p	16.4	-18.8	-18.8	-18.8	----	26	----	-42.0	28.50	22.6	23.5	N	0.00
 5/20/2003	 9:40p	16.4	-18.8	-18.8	-18.8	----	26	----	-41.6	28.50	21.7	23.5	N	0.00
 5/20/2003	 9:41p	16.4	-18.8	-18.8	-18.9	----	27	----	-42.6	28.49	23.5	27.0	N	0.00
 5/20/2003	 9:42p	16.4	-18.7	-18.7	-18.8	----	27	----	-43.8	28.49	26.1	27.8	N	0.00
 5/20/2003	 9:43p	16.4	-18.7	-18.7	-18.7	----	27	----	-42.8	28.49	24.3	27.8	N	0.00
 5/20/2003	 9:44p	16.4	-18.8	-18.7	-18.9	----	27	----	-42.0	28.50	22.6	25.2	N	0.00
 5/20/2003	 9:45p	16.4	-18.9	-18.8	-18.9	----	27	----	-41.1	28.50	20.9	23.5	N	0.00
 5/20/2003	 9:46p	16.4	-18.8	-18.8	-18.9	----	27	----	-40.1	28.50	19.1	21.7	N	0.00
 5/20/2003	 9:47p	16.4	-18.8	-18.7	-18.9	----	27	----	-41.6	28.50	21.7	24.3	N	0.00
 5/20/2003	 9:49p	16.3	-18.8	-18.8	-18.9	----	27	----	-42.1	28.49	22.6	24.3	N	0.00
 5/20/2003	 9:50p	16.3	-18.9	-18.8	-18.9	----	26	----	-42.2	28.50	22.6	25.2	N	0.00
 5/20/2003	 9:51p	16.3	-18.9	-18.8	-18.9	----	26	----	-41.7	28.49	21.7	24.3	N	0.00
 5/20/2003	 9:52p	16.3	-18.8	-18.8	-18.9	----	26	----	-42.1	28.49	22.6	24.3	N	0.00
 5/20/2003	 9:53p	16.3	-18.8	-18.8	-18.8	----	26	----	-41.1	28.50	20.9	23.5	N	0.00
 5/20/2003	 9:54p	16.3	-18.8	-18.8	-18.9	----	26	----	-41.1	28.49	20.9	23.5	N	0.00
 5/20/2003	 9:55p	16.2	-18.8	-18.8	-18.9	----	26	----	-42.1	28.49	22.6	26.1	N	0.00
 5/20/2003	 9:56p	16.2	-18.7	-18.7	-18.8	----	27	----	-41.8	28.49	22.6	24.3	N	0.00
 5/20/2003	 9:58p	16.2	-18.7	-18.7	-18.8	----	27	----	-41.2	28.49	21.7	24.3	N	0.00
 5/20/2003	 9:59p	16.2	-18.8	-18.8	-18.8	----	27	----	-41.5	28.49	21.7	24.3	N	0.00
 5/20/2003	10:00p	16.1	-18.8	-18.8	-18.9	----	27	----	-42.6	28.48	23.5	26.1	N	0.00
 5/20/2003	10:01p	16.1	-18.8	-18.7	-18.8	----	27	----	-43.1	28.48	24.3	27.8	N	0.00
 5/20/2003	10:02p	16.1	-18.6	-18.6	-18.7	----	27	----	-42.2	28.49	23.5	26.1	N	0.00
 5/20/2003	10:03p	16.1	-18.8	-18.7	-18.8	----	27	----	-42.5	28.48	23.5	26.1	N	0.00
 5/20/2003	10:04p	16.1	-18.8	-18.8	-18.8	----	26	----	-43.1	28.48	24.3	27.0	N	0.00
 5/20/2003	10:05p	16.1	-18.7	-18.6	-18.8	----	26	----	-42.9	28.48	24.3	27.8	N	0.00
 5/20/2003	10:06p	16.1	-18.7	-18.6	-18.7	----	26	----	-41.8	28.49	22.6	26.1	N	0.00
 5/20/2003	10:07p	16.1	-18.7	-18.7	-18.8	----	26	----	-42.4	28.48	23.5	26.1	N	0.00
 5/20/2003	10:08p	16.0	-18.7	-18.6	-18.7	----	26	----	-41.8	28.48	22.6	25.2	N	0.00
 5/20/2003	10:09p	15.9	-18.7	-18.6	-18.7	----	27	----	-42.8	28.48	24.3	26.1	N	0.00
 5/20/2003	10:10p	15.9	-18.7	-18.6	-18.7	----	27	----	-42.8	28.48	24.3	26.1	N	0.00
 5/20/2003	10:11p	15.9	-18.7	-18.7	-18.8	----	27	----	-42.9	28.48	24.3	26.1	N	0.00
 5/20/2003	10:12p	15.9	-18.7	-18.7	-18.8	----	27	----	-42.4	28.48	23.5	26.1	NNE	0.00
 5/20/2003	10:13p	15.9	-18.8	-18.7	-18.8	----	27	----	-43.1	28.48	24.3	27.8	N	0.00
 5/20/2003	10:14p	15.9	-18.7	-18.7	-18.7	----	27	----	-43.3	28.48	25.2	27.0	N	0.00
 5/20/2003	10:15p	15.8	-18.6	-18.5	-18.7	----	27	----	-42.1	28.48	23.5	26.1	N	0.00
 5/20/2003	10:16p	15.8	-18.6	-18.5	-18.6	----	26	----	-41.1	28.48	21.7	24.3	NNE	0.00
 5/20/2003	10:17p	15.8	-18.6	-18.5	-18.6	----	26	----	-41.6	28.48	22.6	25.2	N	0.00
 5/20/2003	10:18p	15.8	-18.5	-18.3	-18.5	----	26	----	-43.2	28.47	25.2	27.0	N	0.00
 5/20/2003	10:19p	15.8	-18.3	-18.3	-18.3	----	27	----	-42.9	28.47	25.2	27.0	N	0.00
 5/20/2003	10:20p	15.8	-18.3	-18.3	-18.4	----	27	----	-43.3	28.47	27.0	28.7	N	0.00
 5/20/2003	10:21p	15.8	-18.3	-18.2	-18.3	----	27	----	-42.8	28.47	25.2	27.0	N	0.00
 5/20/2003	10:22p	15.8	-18.3	-18.2	-18.4	----	27	----	-42.4	28.47	24.3	26.1	N	0.00
 5/20/2003	10:23p	15.8	-18.4	-18.3	-18.4	----	27	----	-43.0	28.48	25.2	27.8	N	0.00
 5/20/2003	10:24p	15.8	-18.3	-18.3	-18.3	----	27	----	-41.9	28.48	23.5	25.2	N	0.00
 5/20/2003	10:25p	15.8	-18.3	-18.3	-18.3	----	26	----	-41.8	28.47	23.5	25.2	N	0.00
 5/20/2003	10:26p	15.8	-18.3	-18.3	-18.3	----	26	----	-42.3	28.47	24.3	25.2	N	0.00
 5/20/2003	10:27p	15.8	-18.3	-18.3	-18.4	----	27	----	-41.4	28.47	22.6	25.2	N	0.00
 5/20/2003	10:28p	15.8	-18.3	-18.2	-18.4	----	27	----	-41.3	28.48	22.6	26.1	N	0.00
 5/20/2003	10:29p	15.8	-18.2	-18.2	-18.2	----	27	----	-41.6	28.47	23.5	26.1	N	0.00
 5/20/2003	10:30p	15.8	-18.2	-18.2	-18.3	----	27	----	-41.1	28.48	22.6	25.2	N	0.00
 5/20/2003	10:31p	15.8	-18.3	-18.3	-18.3	----	28	----	-41.8	28.47	23.5	27.0	N	0.00
 5/20/2003	10:32p	15.8	-18.2	-18.2	-18.3	----	28	----	-43.1	28.47	27.0	28.7	N	0.00
 5/20/2003	10:33p	15.9	-18.1	-18.1	-18.1	----	28	----	-42.0	28.47	24.3	27.8	N	0.00
 5/20/2003	10:34p	15.9	-18.1	-18.0	-18.1	----	27	----	-41.4	28.47	23.5	27.0	N	0.00
 5/20/2003	10:35p	15.9	-18.2	-18.1	-18.2	----	27	----	-40.6	28.47	21.7	23.5	N	0.00
 5/20/2003	10:36p	15.9	-18.2	-18.2	-18.2	----	27	----	-40.6	28.47	21.7	23.5	N	0.00
 5/20/2003	10:37p	15.9	-18.2	-18.2	-18.2	----	27	----	-41.1	28.47	22.6	26.1	N	0.00
 5/20/2003	10:38p	15.9	-18.0	-17.9	-18.1	----	27	----	-41.8	28.47	24.3	27.0	N	0.00
 5/20/2003	10:39p	16.0	-18.1	-18.0	-18.1	----	27	----	-40.4	28.47	21.7	24.3	N	0.00
 5/20/2003	10:40p	16.0	-18.2	-18.1	-18.2	----	28	----	-41.6	28.47	23.5	27.0	N	0.00
 5/20/2003	10:41p	16.0	-18.1	-18.0	-18.1	----	28	----	-41.9	28.47	24.3	26.1	N	0.00
 5/20/2003	10:42p	16.0	-18.1	-18.1	-18.1	----	28	----	-42.0	28.47	24.3	26.1	N	0.00
 5/20/2003	10:43p	16.1	-18.1	-18.0	-18.1	----	28	----	-40.9	28.47	22.6	23.5	N	0.00
 5/20/2003	10:44p	16.1	-18.1	-18.1	-18.2	----	27	----	-40.4	28.47	21.7	25.2	N	0.00
 5/20/2003	10:45p	16.1	-18.1	-18.0	-18.1	----	27	----	-40.9	28.48	22.6	26.1	N	0.00
 5/20/2003	10:46p	16.1	-17.9	-17.9	-18.0	----	27	----	-39.8	28.48	20.9	24.3	N	0.00
 5/20/2003	10:47p	16.1	-17.9	-17.9	-18.0	----	27	----	-40.3	28.48	21.7	24.3	N	0.00
 5/20/2003	10:48p	16.1	-18.0	-18.0	-18.1	----	27	----	-39.8	28.48	20.9	23.5	N	0.00
 5/20/2003	10:49p	16.2	-17.9	-17.8	-18.0	----	27	----	-40.3	28.48	21.7	24.3	N	0.00
 5/20/2003	10:50p	16.2	-17.8	-17.8	-17.8	----	28	----	-39.6	28.48	20.0	20.9	N	0.00
 5/20/2003	10:51p	16.2	-17.9	-17.8	-17.9	----	28	----	-39.7	28.48	20.0	21.7	N	0.00
 5/20/2003	10:52p	16.2	-17.8	-17.8	-17.9	----	27	----	-39.6	28.48	20.9	22.6	N	0.00
 5/20/2003	10:53p	16.2	-17.9	-17.8	-18.0	----	27	----	-38.9	28.48	19.1	22.6	N	0.00
 5/20/2003	10:54p	16.3	-17.8	-17.7	-17.9	----	27	----	-39.6	28.48	20.0	22.6	N	0.00
 5/20/2003	10:55p	16.3	-17.7	-17.6	-17.7	----	27	----	-38.5	28.48	19.1	20.9	N	0.00
 5/20/2003	10:57p	16.3	-17.6	-17.5	-17.6	----	27	----	-39.2	28.48	20.9	22.6	N	0.00
 5/20/2003	10:58p	16.3	-17.6	-17.6	-17.7	----	27	----	-39.3	28.48	20.9	22.6	N	0.00
 5/20/2003	10:59p	16.3	-17.4	-17.4	-17.6	----	28	----	-39.2	28.48	20.9	23.5	N	0.00
 5/20/2003	11:00p	16.3	-17.6	-17.6	-17.8	----	28	----	-39.3	28.48	20.9	22.6	N	0.00
 5/20/2003	11:01p	16.3	-17.8	-17.7	-17.9	----	28	----	-39.6	28.47	20.0	24.3	N	0.00
 5/20/2003	11:02p	16.3	-17.3	-17.2	-17.7	----	27	----	-34.4	28.48	15.7	18.3	N	0.00
 5/20/2003	11:03p	16.4	-17.6	-17.5	-17.6	----	27	----	-38.3	28.48	19.1	21.7	N	0.00
 5/20/2003	11:04p	16.4	-17.4	-17.4	-17.6	----	27	----	-37.3	28.48	18.3	21.7	N	0.00
 5/20/2003	11:05p	16.4	-17.5	-17.4	-17.6	----	27	----	-39.2	28.48	20.9	22.6	N	0.00
 5/20/2003	11:06p	16.4	-17.4	-17.4	-17.5	----	27	----	-38.3	28.48	19.1	20.9	N	0.00
 5/20/2003	11:07p	16.4	-17.4	-17.4	-17.5	----	27	----	-38.3	28.48	19.1	20.9	N	0.00
 5/20/2003	11:08p	16.4	-17.3	-17.1	-17.4	----	28	----	-37.2	28.48	18.3	19.1	N	0.00
 5/20/2003	11:09p	16.4	-16.9	-16.8	-17.1	----	27	----	-34.8	28.48	16.5	19.1	N	0.00
 5/20/2003	11:10p	16.4	-17.2	-17.1	-17.3	----	28	----	-36.0	28.48	17.4	20.9	N	0.00
 5/20/2003	11:11p	16.4	-17.1	-15.9	-17.3	----	28	----	-28.9	28.49	10.4	14.8	NNE	0.00
 5/20/2003	11:12p	16.5	-16.2	-15.9	-16.6	----	28	----	-30.8	28.49	13.0	17.4	N	0.00
 5/20/2003	11:13p	16.5	-16.6	-16.3	-16.7	----	27	----	-31.3	28.49	13.0	17.4	N	0.00
 5/20/2003	11:14p	16.5	-16.4	-16.3	-16.6	----	27	----	-28.2	28.50	10.4	13.9	N	0.00
 5/20/2003	11:15p	16.6	-16.2	-15.9	-16.6	----	27	----	-20.6	28.50	6.1	10.4	N	0.00
 5/20/2003	11:16p	16.6	-16.4	-16.2	-16.6	----	27	----	-31.2	28.49	13.0	18.3	N	0.00
 5/20/2003	11:17p	16.6	-16.2	-15.4	-16.4	----	27	----	-18.8	28.49	5.2	8.7	NNW	0.00
 5/20/2003	11:18p	16.5	-14.9	-14.6	-15.4	----	27	----	-14.9	28.49	1.7	9.6	N	0.00
 5/20/2003	11:19p	16.6	-14.9	-14.6	-15.3	----	27	----	-22.9	28.49	8.7	11.3	N	0.00
 5/20/2003	11:20p	16.5	-15.3	-15.0	-15.5	----	28	----	-19.7	28.49	6.1	13.0	NNE	0.00
 5/20/2003	11:21p	16.6	-15.7	-15.4	-16.3	----	28	----	-30.3	28.49	13.9	19.1	NNW	0.00
 5/20/2003	11:22p	16.5	-16.7	-16.3	-16.8	----	28	----	-30.4	28.49	12.2	13.9	N	0.00
 5/20/2003	11:23p	16.5	-16.6	-16.4	-16.7	----	28	----	-22.9	28.50	7.8	9.6	NNW	0.00
 5/20/2003	11:24p	16.5	-16.0	-15.8	-16.4	----	27	----	-20.5	28.50	6.1	7.0	N	0.00
 5/20/2003	11:25p	16.5	-15.6	-15.5	-15.7	----	27	----	-15.6	28.50	4.3	6.1	N	0.00
 5/20/2003	11:26p	16.5	-15.5	-15.4	-15.6	----	27	----	-18.2	28.49	5.2	7.8	NNW	0.00
 5/20/2003	11:27p	16.5	-14.9	-14.6	-15.4	----	27	----	-14.9	28.49	3.5	5.2	NNW	0.00
 5/20/2003	11:28p	16.5	-14.5	-14.4	-14.6	----	27	----	-17.2	28.49	5.2	7.8	NNW	0.00
 5/20/2003	11:29p	16.5	-14.9	-14.4	-15.6	----	28	----	-24.7	28.50	9.6	11.3	N	0.00
 5/20/2003	11:30p	16.5	-15.9	-15.6	-16.1	----	28	----	-24.1	28.50	8.7	10.4	N	0.00
 5/20/2003	11:31p	16.4	-16.2	-16.1	-16.2	----	28	----	-20.6	28.50	7.0	7.8	NNE	0.00
 5/20/2003	11:32p	16.4	-15.9	-15.9	-16.1	----	28	----	-20.4	28.50	6.1	7.0	N	0.00
 5/20/2003	11:33p	16.4	-16.0	-15.9	-16.1	----	28	----	-20.5	28.50	6.1	7.0	N	0.00
 5/20/2003	11:34p	16.4	-15.9	-15.9	-15.9	----	27	----	-16.0	28.50	3.5	5.2	N	0.00
 5/20/2003	11:35p	16.4	-16.0	-15.9	-16.0	----	27	----	-16.1	28.50	4.3	6.1	NNW	0.00
 5/20/2003	11:36p	16.4	-15.8	-15.7	-15.9	----	27	----	-15.8	28.50	1.7	3.5	NNW	0.00
 5/20/2003	11:37p	16.4	-15.8	-15.7	-15.8	----	27	----	-15.8	28.50	1.7	4.3	NW	0.00
 5/20/2003	11:38p	16.4	-15.7	-15.6	-15.8	----	27	----	-15.7	28.50	0.0	1.7	WNW	0.00
 5/20/2003	11:39p	16.4	-15.3	-15.2	-15.4	----	28	----	-15.3	28.50	4.3	7.0	NW	0.00
 5/20/2003	11:40p	16.4	-14.9	-14.7	-15.2	----	28	----	-17.6	28.50	5.2	7.8	N	0.00
 5/20/2003	11:42p	16.3	-15.9	-15.8	-15.9	----	28	----	-22.2	28.50	7.8	10.4	N	0.00
 5/20/2003	11:43p	16.3	-16.1	-15.9	-16.2	----	28	----	-22.4	28.50	7.8	10.4	NNW	0.00
 5/20/2003	11:44p	16.3	-16.1	-16.1	-16.2	----	27	----	-24.2	28.50	8.7	9.6	N	0.00
 5/20/2003	11:45p	16.3	-16.1	-15.8	-16.2	----	27	----	-24.2	28.50	8.7	10.4	N	0.00
 5/20/2003	11:46p	16.3	-15.7	-15.6	-15.8	----	27	----	-20.2	28.50	7.0	8.7	N	0.00
 5/20/2003	11:47p	16.3	-15.8	-15.7	-15.9	----	27	----	-22.0	28.50	7.8	9.6	N	0.00
 5/20/2003	11:48p	16.3	-15.9	-15.9	-16.0	----	28	----	-24.1	28.50	8.7	9.6	N	0.00
 5/20/2003	11:49p	16.3	-16.0	-15.9	-16.0	----	28	----	-24.2	28.50	8.7	8.7	N	0.00
 5/20/2003	11:50p	16.3	-16.0	-15.9	-16.1	----	28	----	-20.5	28.50	7.0	9.6	N	0.00
 5/20/2003	11:51p	16.2	-15.9	-15.7	-16.1	----	29	----	-24.0	28.50	8.7	10.4	NNW	0.00
 5/20/2003	11:52p	16.2	-15.5	-15.2	-15.7	----	28	----	-19.9	28.50	6.1	10.4	NW	0.00
 5/20/2003	11:53p	16.2	-15.2	-15.1	-15.5	----	27	----	-19.7	28.50	6.1	8.7	NNW	0.00
 5/20/2003	11:54p	16.2	-15.6	-15.5	-15.8	----	27	----	-25.4	28.50	9.6	12.2	N	0.00
 5/20/2003	11:55p	16.2	-16.0	-15.8	-16.1	----	28	----	-28.7	28.50	11.3	13.0	N	0.00
 5/20/2003	11:56p	16.2	-16.2	-16.2	-16.2	----	28	----	-26.1	28.50	9.6	13.0	N	0.00
 5/20/2003	11:57p	16.2	-15.7	-15.1	-16.2	----	28	----	-20.2	28.50	7.0	9.6	NNW	0.00
 5/20/2003	11:58p	16.2	-15.6	-15.1	-16.1	----	28	----	-27.1	28.50	10.4	11.3	N	0.00
 5/20/2003	11:59p	16.2	-16.2	-16.1	-16.2	----	29	----	-26.1	28.50	9.6	12.2	N	0.00
 5/21/2003	12:00a	16.2	-16.3	-16.2	-16.3	----	29	----	-28.1	28.50	10.4	12.2	N	0.00
 5/21/2003	12:01a	16.1	-16.5	-16.4	-16.6	----	28	----	-21.1	28.51	7.0	9.6	NNW	0.00
 5/21/2003	12:02a	16.1	-16.5	-16.4	-16.6	----	28	----	-19.2	28.50	5.2	9.6	NW	0.00
 5/21/2003	12:03a	16.1	-16.4	-16.4	-16.4	----	27	----	-30.2	28.50	12.2	14.8	N	0.00